<?xml version="1.0" encoding="utf-8"?>
<gpx xmlns:xsi="http://www.w3.org/2001/XMLSchema-instance" xmlns:xsd="http://www.w3.org/2001/XMLSchema" version="1.1" creator="Shapelink.com" xmlns="http://www.topografix.com/GPX/1/1" xmlns:gpxtpx="http://www.garmin.com/xmlschemas/TrackPointExtension/v1">
  <metadata>
    <name>Cykling 93.55 km, 2012-03-24</name>
    <desc></desc>
    <author><name>Alexander Engvall</name></author> 
    <time>2012-03-24T11:01:21Z</time>
  </metadata>
  <trk>
    <name>Cykling 93.55 km, 2012-03-24</name>
    <trkseg>
      <trkpt lat="59.4574469" lon="17.8051176">
        <ele>23.6</ele>
        <time>2012-03-24T11:01:21Z</time>
      </trkpt>
      <trkpt lat="59.45714" lon="17.8055768">
        <ele>24.6</ele>
        <time>2012-03-24T11:01:28Z</time>
      </trkpt>
      <trkpt lat="59.4573278" lon="17.8059285">
        <ele>26.8</ele>
        <time>2012-03-24T11:01:36Z</time>
      </trkpt>
      <trkpt lat="59.4577533" lon="17.8060831">
        <ele>24</ele>
        <time>2012-03-24T11:01:42Z</time>
      </trkpt>
      <trkpt lat="59.4581645" lon="17.8062469">
        <ele>21.4</ele>
        <time>2012-03-24T11:01:48Z</time>
      </trkpt>
      <trkpt lat="59.4585851" lon="17.8064002">
        <ele>19</ele>
        <time>2012-03-24T11:01:54Z</time>
      </trkpt>
      <trkpt lat="59.4590053" lon="17.8065323">
        <ele>18.8</ele>
        <time>2012-03-24T11:02:00Z</time>
      </trkpt>
      <trkpt lat="59.4593916" lon="17.8065785">
        <ele>21.2</ele>
        <time>2012-03-24T11:02:06Z</time>
      </trkpt>
      <trkpt lat="59.459791" lon="17.8066226">
        <ele>22.8</ele>
        <time>2012-03-24T11:02:12Z</time>
      </trkpt>
      <trkpt lat="59.4602001" lon="17.8066778">
        <ele>24.4</ele>
        <time>2012-03-24T11:02:18Z</time>
      </trkpt>
      <trkpt lat="59.4606187" lon="17.8067152">
        <ele>25</ele>
        <time>2012-03-24T11:02:24Z</time>
      </trkpt>
      <trkpt lat="59.4610075" lon="17.806708">
        <ele>24.6</ele>
        <time>2012-03-24T11:02:29Z</time>
      </trkpt>
      <trkpt lat="59.4613741" lon="17.8066986">
        <ele>17.4</ele>
        <time>2012-03-24T11:02:34Z</time>
      </trkpt>
      <trkpt lat="59.4617575" lon="17.8066769">
        <ele>17.8</ele>
        <time>2012-03-24T11:02:40Z</time>
      </trkpt>
      <trkpt lat="59.462159" lon="17.8066692">
        <ele>18</ele>
        <time>2012-03-24T11:02:46Z</time>
      </trkpt>
      <trkpt lat="59.4625343" lon="17.806575">
        <ele>17.8</ele>
        <time>2012-03-24T11:02:51Z</time>
      </trkpt>
      <trkpt lat="59.4628961" lon="17.806463">
        <ele>19.2</ele>
        <time>2012-03-24T11:02:56Z</time>
      </trkpt>
      <trkpt lat="59.4629676" lon="17.8064542">
        <ele>19.8</ele>
        <time>2012-03-24T11:02:57Z</time>
      </trkpt>
      <trkpt lat="59.4633343" lon="17.806447">
        <ele>21.4</ele>
        <time>2012-03-24T11:03:02Z</time>
      </trkpt>
      <trkpt lat="59.4636908" lon="17.8065457">
        <ele>21</ele>
        <time>2012-03-24T11:03:07Z</time>
      </trkpt>
      <trkpt lat="59.463757" lon="17.8065851">
        <ele>22.6</ele>
        <time>2012-03-24T11:03:08Z</time>
      </trkpt>
      <trkpt lat="59.4640238" lon="17.8068842">
        <ele>23.2</ele>
        <time>2012-03-24T11:03:12Z</time>
      </trkpt>
      <trkpt lat="59.4642683" lon="17.8075021">
        <ele>28.8</ele>
        <time>2012-03-24T11:03:17Z</time>
      </trkpt>
      <trkpt lat="59.4643232" lon="17.8082569">
        <ele>33.2</ele>
        <time>2012-03-24T11:03:22Z</time>
      </trkpt>
      <trkpt lat="59.4643175" lon="17.8084173">
        <ele>33.6</ele>
        <time>2012-03-24T11:03:23Z</time>
      </trkpt>
      <trkpt lat="59.4642879" lon="17.8090677">
        <ele>35.8</ele>
        <time>2012-03-24T11:03:27Z</time>
      </trkpt>
      <trkpt lat="59.4642782" lon="17.8096991">
        <ele>37.6</ele>
        <time>2012-03-24T11:03:31Z</time>
      </trkpt>
      <trkpt lat="59.4642941" lon="17.8098529">
        <ele>38.2</ele>
        <time>2012-03-24T11:03:32Z</time>
      </trkpt>
      <trkpt lat="59.4643863" lon="17.8102787">
        <ele>39.2</ele>
        <time>2012-03-24T11:03:35Z</time>
      </trkpt>
      <trkpt lat="59.4644492" lon="17.8105443">
        <ele>40.2</ele>
        <time>2012-03-24T11:03:37Z</time>
      </trkpt>
      <trkpt lat="59.4646034" lon="17.8111706">
        <ele>41.6</ele>
        <time>2012-03-24T11:03:42Z</time>
      </trkpt>
      <trkpt lat="59.4647677" lon="17.8118818">
        <ele>43.8</ele>
        <time>2012-03-24T11:03:48Z</time>
      </trkpt>
      <trkpt lat="59.4648074" lon="17.812115">
        <ele>45.4</ele>
        <time>2012-03-24T11:03:50Z</time>
      </trkpt>
      <trkpt lat="59.4649377" lon="17.8125093">
        <ele>45.8</ele>
        <time>2012-03-24T11:03:54Z</time>
      </trkpt>
      <trkpt lat="59.465164" lon="17.8129193">
        <ele>47.2</ele>
        <time>2012-03-24T11:03:59Z</time>
      </trkpt>
      <trkpt lat="59.4652705" lon="17.8130786">
        <ele>45.8</ele>
        <time>2012-03-24T11:04:05Z</time>
      </trkpt>
      <trkpt lat="59.4653445" lon="17.8131189">
        <ele>45.8</ele>
        <time>2012-03-24T11:04:07Z</time>
      </trkpt>
      <trkpt lat="59.4654671" lon="17.8128634">
        <ele>44</ele>
        <time>2012-03-24T11:04:11Z</time>
      </trkpt>
      <trkpt lat="59.4655066" lon="17.8126712">
        <ele>39.6</ele>
        <time>2012-03-24T11:04:13Z</time>
      </trkpt>
      <trkpt lat="59.4656633" lon="17.8120176">
        <ele>34.2</ele>
        <time>2012-03-24T11:04:20Z</time>
      </trkpt>
      <trkpt lat="59.465861" lon="17.811396">
        <ele>35.6</ele>
        <time>2012-03-24T11:04:25Z</time>
      </trkpt>
      <trkpt lat="59.4661124" lon="17.8107226">
        <ele>37</ele>
        <time>2012-03-24T11:04:30Z</time>
      </trkpt>
      <trkpt lat="59.4663577" lon="17.8101944">
        <ele>38.2</ele>
        <time>2012-03-24T11:04:34Z</time>
      </trkpt>
      <trkpt lat="59.4667139" lon="17.8097338">
        <ele>34.8</ele>
        <time>2012-03-24T11:04:38Z</time>
      </trkpt>
      <trkpt lat="59.4670879" lon="17.8094374">
        <ele>31.2</ele>
        <time>2012-03-24T11:04:42Z</time>
      </trkpt>
      <trkpt lat="59.4674633" lon="17.809298">
        <ele>28.2</ele>
        <time>2012-03-24T11:04:46Z</time>
      </trkpt>
      <trkpt lat="59.4678612" lon="17.8093298">
        <ele>25.8</ele>
        <time>2012-03-24T11:04:50Z</time>
      </trkpt>
      <trkpt lat="59.4682526" lon="17.8094719">
        <ele>24.6</ele>
        <time>2012-03-24T11:04:54Z</time>
      </trkpt>
      <trkpt lat="59.4684284" lon="17.809587">
        <ele>23.4</ele>
        <time>2012-03-24T11:04:56Z</time>
      </trkpt>
      <trkpt lat="59.4686337" lon="17.8099196">
        <ele>24.8</ele>
        <time>2012-03-24T11:04:59Z</time>
      </trkpt>
      <trkpt lat="59.4690231" lon="17.8100088">
        <ele>23.2</ele>
        <time>2012-03-24T11:05:04Z</time>
      </trkpt>
      <trkpt lat="59.4692685" lon="17.8100647">
        <ele>23.2</ele>
        <time>2012-03-24T11:05:07Z</time>
      </trkpt>
      <trkpt lat="59.4694197" lon="17.8101078">
        <ele>23.6</ele>
        <time>2012-03-24T11:05:09Z</time>
      </trkpt>
      <trkpt lat="59.4694933" lon="17.8101163">
        <ele>23.8</ele>
        <time>2012-03-24T11:05:10Z</time>
      </trkpt>
      <trkpt lat="59.4697202" lon="17.8101096">
        <ele>25.4</ele>
        <time>2012-03-24T11:05:13Z</time>
      </trkpt>
      <trkpt lat="59.4698087" lon="17.8101324">
        <ele>26.6</ele>
        <time>2012-03-24T11:05:14Z</time>
      </trkpt>
      <trkpt lat="59.4702311" lon="17.8101822">
        <ele>28.6</ele>
        <time>2012-03-24T11:05:20Z</time>
      </trkpt>
      <trkpt lat="59.4705476" lon="17.8102124">
        <ele>29.2</ele>
        <time>2012-03-24T11:05:25Z</time>
      </trkpt>
      <trkpt lat="59.4706059" lon="17.81023">
        <ele>29</ele>
        <time>2012-03-24T11:05:26Z</time>
      </trkpt>
      <trkpt lat="59.4707371" lon="17.810271">
        <ele>29</ele>
        <time>2012-03-24T11:05:28Z</time>
      </trkpt>
      <trkpt lat="59.4710334" lon="17.8103217">
        <ele>30.8</ele>
        <time>2012-03-24T11:05:32Z</time>
      </trkpt>
      <trkpt lat="59.4714168" lon="17.8103709">
        <ele>32.4</ele>
        <time>2012-03-24T11:05:38Z</time>
      </trkpt>
      <trkpt lat="59.4717587" lon="17.810476">
        <ele>33</ele>
        <time>2012-03-24T11:05:44Z</time>
      </trkpt>
      <trkpt lat="59.4721254" lon="17.8107018">
        <ele>33.4</ele>
        <time>2012-03-24T11:05:50Z</time>
      </trkpt>
      <trkpt lat="59.4724746" lon="17.8109936">
        <ele>33.8</ele>
        <time>2012-03-24T11:05:56Z</time>
      </trkpt>
      <trkpt lat="59.4726423" lon="17.8111846">
        <ele>34.8</ele>
        <time>2012-03-24T11:05:59Z</time>
      </trkpt>
      <trkpt lat="59.4727606" lon="17.8114669">
        <ele>35.4</ele>
        <time>2012-03-24T11:06:02Z</time>
      </trkpt>
      <trkpt lat="59.4727776" lon="17.811845">
        <ele>37.4</ele>
        <time>2012-03-24T11:06:05Z</time>
      </trkpt>
      <trkpt lat="59.4727914" lon="17.811971">
        <ele>37.8</ele>
        <time>2012-03-24T11:06:06Z</time>
      </trkpt>
      <trkpt lat="59.4728538" lon="17.8121895">
        <ele>38.6</ele>
        <time>2012-03-24T11:06:08Z</time>
      </trkpt>
      <trkpt lat="59.4732012" lon="17.8124904">
        <ele>39</ele>
        <time>2012-03-24T11:06:14Z</time>
      </trkpt>
      <trkpt lat="59.4734021" lon="17.8125222">
        <ele>39.6</ele>
        <time>2012-03-24T11:06:17Z</time>
      </trkpt>
      <trkpt lat="59.4735731" lon="17.8126787">
        <ele>40.2</ele>
        <time>2012-03-24T11:06:20Z</time>
      </trkpt>
      <trkpt lat="59.4736277" lon="17.8127527">
        <ele>40.2</ele>
        <time>2012-03-24T11:06:21Z</time>
      </trkpt>
      <trkpt lat="59.4738726" lon="17.8131837">
        <ele>41</ele>
        <time>2012-03-24T11:06:26Z</time>
      </trkpt>
      <trkpt lat="59.4739114" lon="17.8132754">
        <ele>40.8</ele>
        <time>2012-03-24T11:06:27Z</time>
      </trkpt>
      <trkpt lat="59.4741082" lon="17.8137753">
        <ele>41.6</ele>
        <time>2012-03-24T11:06:32Z</time>
      </trkpt>
      <trkpt lat="59.4743372" lon="17.814415">
        <ele>42.4</ele>
        <time>2012-03-24T11:06:38Z</time>
      </trkpt>
      <trkpt lat="59.4745321" lon="17.8150937">
        <ele>42</ele>
        <time>2012-03-24T11:06:44Z</time>
      </trkpt>
      <trkpt lat="59.4746974" lon="17.8157068">
        <ele>42.4</ele>
        <time>2012-03-24T11:06:49Z</time>
      </trkpt>
      <trkpt lat="59.4748703" lon="17.8163773">
        <ele>44.2</ele>
        <time>2012-03-24T11:06:54Z</time>
      </trkpt>
      <trkpt lat="59.475044" lon="17.8170718">
        <ele>45.8</ele>
        <time>2012-03-24T11:06:59Z</time>
      </trkpt>
      <trkpt lat="59.4752112" lon="17.8177767">
        <ele>47.4</ele>
        <time>2012-03-24T11:07:04Z</time>
      </trkpt>
      <trkpt lat="59.4753692" lon="17.8184856">
        <ele>49.2</ele>
        <time>2012-03-24T11:07:09Z</time>
      </trkpt>
      <trkpt lat="59.4755158" lon="17.81919">
        <ele>52.2</ele>
        <time>2012-03-24T11:07:14Z</time>
      </trkpt>
      <trkpt lat="59.4756721" lon="17.819885">
        <ele>52.8</ele>
        <time>2012-03-24T11:07:19Z</time>
      </trkpt>
      <trkpt lat="59.4758209" lon="17.8205871">
        <ele>52.4</ele>
        <time>2012-03-24T11:07:24Z</time>
      </trkpt>
      <trkpt lat="59.4759559" lon="17.8212765">
        <ele>54.2</ele>
        <time>2012-03-24T11:07:29Z</time>
      </trkpt>
      <trkpt lat="59.4760831" lon="17.8219736">
        <ele>55.6</ele>
        <time>2012-03-24T11:07:34Z</time>
      </trkpt>
      <trkpt lat="59.4762115" lon="17.8226581">
        <ele>56.6</ele>
        <time>2012-03-24T11:07:39Z</time>
      </trkpt>
      <trkpt lat="59.4763194" lon="17.8233448">
        <ele>56.2</ele>
        <time>2012-03-24T11:07:44Z</time>
      </trkpt>
      <trkpt lat="59.4764322" lon="17.824019">
        <ele>55.8</ele>
        <time>2012-03-24T11:07:49Z</time>
      </trkpt>
      <trkpt lat="59.4765513" lon="17.8248369">
        <ele>55.4</ele>
        <time>2012-03-24T11:07:55Z</time>
      </trkpt>
      <trkpt lat="59.4766524" lon="17.8255184">
        <ele>56.6</ele>
        <time>2012-03-24T11:08:00Z</time>
      </trkpt>
      <trkpt lat="59.4767456" lon="17.8262342">
        <ele>58.8</ele>
        <time>2012-03-24T11:08:05Z</time>
      </trkpt>
      <trkpt lat="59.4768312" lon="17.8270135">
        <ele>59.4</ele>
        <time>2012-03-24T11:08:10Z</time>
      </trkpt>
      <trkpt lat="59.4769155" lon="17.8278516">
        <ele>62.2</ele>
        <time>2012-03-24T11:08:15Z</time>
      </trkpt>
      <trkpt lat="59.4769822" lon="17.8285599">
        <ele>65.2</ele>
        <time>2012-03-24T11:08:19Z</time>
      </trkpt>
      <trkpt lat="59.4770413" lon="17.8293236">
        <ele>66.4</ele>
        <time>2012-03-24T11:08:23Z</time>
      </trkpt>
      <trkpt lat="59.4771117" lon="17.8301533">
        <ele>65</ele>
        <time>2012-03-24T11:08:27Z</time>
      </trkpt>
      <trkpt lat="59.4771821" lon="17.8310384">
        <ele>63.8</ele>
        <time>2012-03-24T11:08:31Z</time>
      </trkpt>
      <trkpt lat="59.4772334" lon="17.8319679">
        <ele>60.6</ele>
        <time>2012-03-24T11:08:35Z</time>
      </trkpt>
      <trkpt lat="59.4772926" lon="17.8329089">
        <ele>56.6</ele>
        <time>2012-03-24T11:08:39Z</time>
      </trkpt>
      <trkpt lat="59.4773098" lon="17.8335964">
        <ele>53</ele>
        <time>2012-03-24T11:08:42Z</time>
      </trkpt>
      <trkpt lat="59.4773704" lon="17.8345346">
        <ele>49.8</ele>
        <time>2012-03-24T11:08:46Z</time>
      </trkpt>
      <trkpt lat="59.4774211" lon="17.8352644">
        <ele>48.8</ele>
        <time>2012-03-24T11:08:49Z</time>
      </trkpt>
      <trkpt lat="59.4774633" lon="17.8359989">
        <ele>47.8</ele>
        <time>2012-03-24T11:08:52Z</time>
      </trkpt>
      <trkpt lat="59.4775053" lon="17.8367203">
        <ele>47.2</ele>
        <time>2012-03-24T11:08:55Z</time>
      </trkpt>
      <trkpt lat="59.4775478" lon="17.8376265">
        <ele>47</ele>
        <time>2012-03-24T11:08:59Z</time>
      </trkpt>
      <trkpt lat="59.4775692" lon="17.8384575">
        <ele>47.2</ele>
        <time>2012-03-24T11:09:03Z</time>
      </trkpt>
      <trkpt lat="59.4776008" lon="17.839254">
        <ele>48</ele>
        <time>2012-03-24T11:09:07Z</time>
      </trkpt>
      <trkpt lat="59.4776235" lon="17.8400476">
        <ele>49.6</ele>
        <time>2012-03-24T11:09:11Z</time>
      </trkpt>
      <trkpt lat="59.4776388" lon="17.8408589">
        <ele>51.2</ele>
        <time>2012-03-24T11:09:15Z</time>
      </trkpt>
      <trkpt lat="59.4776428" lon="17.8416567">
        <ele>53.8</ele>
        <time>2012-03-24T11:09:19Z</time>
      </trkpt>
      <trkpt lat="59.4776384" lon="17.8424627">
        <ele>55.2</ele>
        <time>2012-03-24T11:09:23Z</time>
      </trkpt>
      <trkpt lat="59.4776201" lon="17.8432434">
        <ele>56.6</ele>
        <time>2012-03-24T11:09:27Z</time>
      </trkpt>
      <trkpt lat="59.4775893" lon="17.8440261">
        <ele>59</ele>
        <time>2012-03-24T11:09:31Z</time>
      </trkpt>
      <trkpt lat="59.477553" lon="17.8448092">
        <ele>58.2</ele>
        <time>2012-03-24T11:09:35Z</time>
      </trkpt>
      <trkpt lat="59.4775017" lon="17.8455811">
        <ele>59.4</ele>
        <time>2012-03-24T11:09:39Z</time>
      </trkpt>
      <trkpt lat="59.4774325" lon="17.8463662">
        <ele>59.2</ele>
        <time>2012-03-24T11:09:43Z</time>
      </trkpt>
      <trkpt lat="59.4773662" lon="17.8471874">
        <ele>58.4</ele>
        <time>2012-03-24T11:09:47Z</time>
      </trkpt>
      <trkpt lat="59.4772807" lon="17.8480007">
        <ele>56.4</ele>
        <time>2012-03-24T11:09:51Z</time>
      </trkpt>
      <trkpt lat="59.4771541" lon="17.8487534">
        <ele>58.4</ele>
        <time>2012-03-24T11:09:55Z</time>
      </trkpt>
      <trkpt lat="59.477049" lon="17.8494848">
        <ele>61.2</ele>
        <time>2012-03-24T11:09:59Z</time>
      </trkpt>
      <trkpt lat="59.4769379" lon="17.8502253">
        <ele>59.6</ele>
        <time>2012-03-24T11:10:03Z</time>
      </trkpt>
      <trkpt lat="59.4768433" lon="17.8509647">
        <ele>57.2</ele>
        <time>2012-03-24T11:10:07Z</time>
      </trkpt>
      <trkpt lat="59.4767636" lon="17.8516806">
        <ele>54.2</ele>
        <time>2012-03-24T11:10:11Z</time>
      </trkpt>
      <trkpt lat="59.4766539" lon="17.8523419">
        <ele>52.6</ele>
        <time>2012-03-24T11:10:15Z</time>
      </trkpt>
      <trkpt lat="59.4766176" lon="17.8524945">
        <ele>52.4</ele>
        <time>2012-03-24T11:10:16Z</time>
      </trkpt>
      <trkpt lat="59.4765089" lon="17.8531896">
        <ele>49.8</ele>
        <time>2012-03-24T11:10:27Z</time>
      </trkpt>
      <trkpt lat="59.4767061" lon="17.853341">
        <ele>46.8</ele>
        <time>2012-03-24T11:10:32Z</time>
      </trkpt>
      <trkpt lat="59.4768169" lon="17.8533828">
        <ele>45.4</ele>
        <time>2012-03-24T11:10:34Z</time>
      </trkpt>
      <trkpt lat="59.4768731" lon="17.8534171">
        <ele>44.8</ele>
        <time>2012-03-24T11:10:35Z</time>
      </trkpt>
      <trkpt lat="59.4772547" lon="17.8536693">
        <ele>41.8</ele>
        <time>2012-03-24T11:10:41Z</time>
      </trkpt>
      <trkpt lat="59.4776443" lon="17.8539175">
        <ele>39.2</ele>
        <time>2012-03-24T11:10:46Z</time>
      </trkpt>
      <trkpt lat="59.4780505" lon="17.8541877">
        <ele>36.8</ele>
        <time>2012-03-24T11:10:51Z</time>
      </trkpt>
      <trkpt lat="59.4784716" lon="17.8544668">
        <ele>35.2</ele>
        <time>2012-03-24T11:10:56Z</time>
      </trkpt>
      <trkpt lat="59.4786133" lon="17.854582">
        <ele>35</ele>
        <time>2012-03-24T11:10:58Z</time>
      </trkpt>
      <trkpt lat="59.4787543" lon="17.8550291">
        <ele>35.2</ele>
        <time>2012-03-24T11:11:02Z</time>
      </trkpt>
      <trkpt lat="59.4787585" lon="17.8551865">
        <ele>35.4</ele>
        <time>2012-03-24T11:11:03Z</time>
      </trkpt>
      <trkpt lat="59.4787713" lon="17.8553374">
        <ele>35.8</ele>
        <time>2012-03-24T11:11:04Z</time>
      </trkpt>
      <trkpt lat="59.4789086" lon="17.855618">
        <ele>36.2</ele>
        <time>2012-03-24T11:11:07Z</time>
      </trkpt>
      <trkpt lat="59.4791704" lon="17.8556287">
        <ele>35.6</ele>
        <time>2012-03-24T11:11:10Z</time>
      </trkpt>
      <trkpt lat="59.4793564" lon="17.8556277">
        <ele>35.2</ele>
        <time>2012-03-24T11:11:12Z</time>
      </trkpt>
      <trkpt lat="59.4797147" lon="17.8556191">
        <ele>34.2</ele>
        <time>2012-03-24T11:11:16Z</time>
      </trkpt>
      <trkpt lat="59.4801484" lon="17.8555564">
        <ele>33.6</ele>
        <time>2012-03-24T11:11:21Z</time>
      </trkpt>
      <trkpt lat="59.4805626" lon="17.8553892">
        <ele>33.4</ele>
        <time>2012-03-24T11:11:26Z</time>
      </trkpt>
      <trkpt lat="59.480961" lon="17.8551404">
        <ele>33</ele>
        <time>2012-03-24T11:11:31Z</time>
      </trkpt>
      <trkpt lat="59.4813543" lon="17.8548893">
        <ele>32.8</ele>
        <time>2012-03-24T11:11:36Z</time>
      </trkpt>
      <trkpt lat="59.4817624" lon="17.8547359">
        <ele>32</ele>
        <time>2012-03-24T11:11:41Z</time>
      </trkpt>
      <trkpt lat="59.4821636" lon="17.8547006">
        <ele>30.4</ele>
        <time>2012-03-24T11:11:46Z</time>
      </trkpt>
      <trkpt lat="59.4825544" lon="17.8547188">
        <ele>29.4</ele>
        <time>2012-03-24T11:11:51Z</time>
      </trkpt>
      <trkpt lat="59.4829439" lon="17.8547565">
        <ele>29</ele>
        <time>2012-03-24T11:11:56Z</time>
      </trkpt>
      <trkpt lat="59.4833329" lon="17.8547856">
        <ele>28.8</ele>
        <time>2012-03-24T11:12:01Z</time>
      </trkpt>
      <trkpt lat="59.4837206" lon="17.8548172">
        <ele>28.4</ele>
        <time>2012-03-24T11:12:06Z</time>
      </trkpt>
      <trkpt lat="59.4840987" lon="17.8548586">
        <ele>30.2</ele>
        <time>2012-03-24T11:12:11Z</time>
      </trkpt>
      <trkpt lat="59.484466" lon="17.8549185">
        <ele>34.4</ele>
        <time>2012-03-24T11:12:16Z</time>
      </trkpt>
      <trkpt lat="59.4848388" lon="17.8549646">
        <ele>34.6</ele>
        <time>2012-03-24T11:12:21Z</time>
      </trkpt>
      <trkpt lat="59.485199" lon="17.8550062">
        <ele>33.8</ele>
        <time>2012-03-24T11:12:26Z</time>
      </trkpt>
      <trkpt lat="59.4855601" lon="17.8550311">
        <ele>30.8</ele>
        <time>2012-03-24T11:12:31Z</time>
      </trkpt>
      <trkpt lat="59.4859857" lon="17.8550871">
        <ele>33</ele>
        <time>2012-03-24T11:12:37Z</time>
      </trkpt>
      <trkpt lat="59.4863859" lon="17.8551211">
        <ele>35.4</ele>
        <time>2012-03-24T11:12:43Z</time>
      </trkpt>
      <trkpt lat="59.4867696" lon="17.8550714">
        <ele>36.8</ele>
        <time>2012-03-24T11:12:49Z</time>
      </trkpt>
      <trkpt lat="59.4871608" lon="17.8548849">
        <ele>37.6</ele>
        <time>2012-03-24T11:12:56Z</time>
      </trkpt>
      <trkpt lat="59.4874906" lon="17.8546892">
        <ele>40.2</ele>
        <time>2012-03-24T11:13:02Z</time>
      </trkpt>
      <trkpt lat="59.4878579" lon="17.8544984">
        <ele>42</ele>
        <time>2012-03-24T11:13:08Z</time>
      </trkpt>
      <trkpt lat="59.4882654" lon="17.854313">
        <ele>42.6</ele>
        <time>2012-03-24T11:13:14Z</time>
      </trkpt>
      <trkpt lat="59.488672" lon="17.8541122">
        <ele>42.6</ele>
        <time>2012-03-24T11:13:20Z</time>
      </trkpt>
      <trkpt lat="59.489067" lon="17.8538993">
        <ele>42.8</ele>
        <time>2012-03-24T11:13:26Z</time>
      </trkpt>
      <trkpt lat="59.489428" lon="17.8536241">
        <ele>40.6</ele>
        <time>2012-03-24T11:13:32Z</time>
      </trkpt>
      <trkpt lat="59.4898015" lon="17.8532994">
        <ele>41.2</ele>
        <time>2012-03-24T11:13:38Z</time>
      </trkpt>
      <trkpt lat="59.4901585" lon="17.8529611">
        <ele>41.4</ele>
        <time>2012-03-24T11:13:44Z</time>
      </trkpt>
      <trkpt lat="59.4905281" lon="17.8526238">
        <ele>41.6</ele>
        <time>2012-03-24T11:13:50Z</time>
      </trkpt>
      <trkpt lat="59.4909076" lon="17.8522712">
        <ele>42.6</ele>
        <time>2012-03-24T11:13:56Z</time>
      </trkpt>
      <trkpt lat="59.491221" lon="17.8519649">
        <ele>44.2</ele>
        <time>2012-03-24T11:14:01Z</time>
      </trkpt>
      <trkpt lat="59.491569" lon="17.8516406">
        <ele>44.2</ele>
        <time>2012-03-24T11:14:06Z</time>
      </trkpt>
      <trkpt lat="59.4919567" lon="17.8513054">
        <ele>42.8</ele>
        <time>2012-03-24T11:14:11Z</time>
      </trkpt>
      <trkpt lat="59.4923496" lon="17.850973">
        <ele>43</ele>
        <time>2012-03-24T11:14:16Z</time>
      </trkpt>
      <trkpt lat="59.4927204" lon="17.8507209">
        <ele>43.6</ele>
        <time>2012-03-24T11:14:21Z</time>
      </trkpt>
      <trkpt lat="59.4930918" lon="17.8505424">
        <ele>44</ele>
        <time>2012-03-24T11:14:26Z</time>
      </trkpt>
      <trkpt lat="59.4934591" lon="17.8504292">
        <ele>46</ele>
        <time>2012-03-24T11:14:31Z</time>
      </trkpt>
      <trkpt lat="59.493858" lon="17.8503596">
        <ele>47.4</ele>
        <time>2012-03-24T11:14:37Z</time>
      </trkpt>
      <trkpt lat="59.4942408" lon="17.8503502">
        <ele>48.8</ele>
        <time>2012-03-24T11:14:43Z</time>
      </trkpt>
      <trkpt lat="59.4945733" lon="17.8503023">
        <ele>46</ele>
        <time>2012-03-24T11:14:49Z</time>
      </trkpt>
      <trkpt lat="59.4949028" lon="17.850236">
        <ele>44.4</ele>
        <time>2012-03-24T11:14:55Z</time>
      </trkpt>
      <trkpt lat="59.4953003" lon="17.8502179">
        <ele>43.8</ele>
        <time>2012-03-24T11:15:01Z</time>
      </trkpt>
      <trkpt lat="59.4957002" lon="17.8502286">
        <ele>46.2</ele>
        <time>2012-03-24T11:15:07Z</time>
      </trkpt>
      <trkpt lat="59.4961433" lon="17.850265">
        <ele>48.6</ele>
        <time>2012-03-24T11:15:13Z</time>
      </trkpt>
      <trkpt lat="59.4965569" lon="17.8502619">
        <ele>49.8</ele>
        <time>2012-03-24T11:15:19Z</time>
      </trkpt>
      <trkpt lat="59.4966294" lon="17.8502654">
        <ele>50.6</ele>
        <time>2012-03-24T11:15:20Z</time>
      </trkpt>
      <trkpt lat="59.4969641" lon="17.8502995">
        <ele>50.4</ele>
        <time>2012-03-24T11:15:25Z</time>
      </trkpt>
      <trkpt lat="59.4971597" lon="17.8503535">
        <ele>48.8</ele>
        <time>2012-03-24T11:15:28Z</time>
      </trkpt>
      <trkpt lat="59.4973334" lon="17.8504403">
        <ele>48.2</ele>
        <time>2012-03-24T11:15:31Z</time>
      </trkpt>
      <trkpt lat="59.4977681" lon="17.850789">
        <ele>49</ele>
        <time>2012-03-24T11:15:37Z</time>
      </trkpt>
      <trkpt lat="59.498144" lon="17.8511482">
        <ele>50.8</ele>
        <time>2012-03-24T11:15:42Z</time>
      </trkpt>
      <trkpt lat="59.498536" lon="17.8515169">
        <ele>51.8</ele>
        <time>2012-03-24T11:15:47Z</time>
      </trkpt>
      <trkpt lat="59.4989014" lon="17.851877">
        <ele>53</ele>
        <time>2012-03-24T11:15:52Z</time>
      </trkpt>
      <trkpt lat="59.4992586" lon="17.8522363">
        <ele>53.6</ele>
        <time>2012-03-24T11:15:57Z</time>
      </trkpt>
      <trkpt lat="59.4996142" lon="17.8526074">
        <ele>53.2</ele>
        <time>2012-03-24T11:16:02Z</time>
      </trkpt>
      <trkpt lat="59.4999726" lon="17.8529658">
        <ele>54</ele>
        <time>2012-03-24T11:16:07Z</time>
      </trkpt>
      <trkpt lat="59.5003222" lon="17.8533249">
        <ele>54.2</ele>
        <time>2012-03-24T11:16:12Z</time>
      </trkpt>
      <trkpt lat="59.5006694" lon="17.8536844">
        <ele>53.8</ele>
        <time>2012-03-24T11:16:17Z</time>
      </trkpt>
      <trkpt lat="59.5010202" lon="17.8540426">
        <ele>54</ele>
        <time>2012-03-24T11:16:22Z</time>
      </trkpt>
      <trkpt lat="59.5013638" lon="17.8543984">
        <ele>53.6</ele>
        <time>2012-03-24T11:16:27Z</time>
      </trkpt>
      <trkpt lat="59.5017038" lon="17.8547553">
        <ele>54</ele>
        <time>2012-03-24T11:16:32Z</time>
      </trkpt>
      <trkpt lat="59.5020359" lon="17.8550892">
        <ele>55.6</ele>
        <time>2012-03-24T11:16:37Z</time>
      </trkpt>
      <trkpt lat="59.5023784" lon="17.8554325">
        <ele>57.4</ele>
        <time>2012-03-24T11:16:42Z</time>
      </trkpt>
      <trkpt lat="59.5027424" lon="17.8558008">
        <ele>58.2</ele>
        <time>2012-03-24T11:16:47Z</time>
      </trkpt>
      <trkpt lat="59.5031454" lon="17.8562107">
        <ele>57.2</ele>
        <time>2012-03-24T11:16:52Z</time>
      </trkpt>
      <trkpt lat="59.5035029" lon="17.8565687">
        <ele>56.2</ele>
        <time>2012-03-24T11:16:56Z</time>
      </trkpt>
      <trkpt lat="59.5039095" lon="17.8569833">
        <ele>53.6</ele>
        <time>2012-03-24T11:17:00Z</time>
      </trkpt>
      <trkpt lat="59.5042928" lon="17.857416">
        <ele>48</ele>
        <time>2012-03-24T11:17:04Z</time>
      </trkpt>
      <trkpt lat="59.5046918" lon="17.8578381">
        <ele>43.6</ele>
        <time>2012-03-24T11:17:08Z</time>
      </trkpt>
      <trkpt lat="59.5051116" lon="17.8582588">
        <ele>41.6</ele>
        <time>2012-03-24T11:17:12Z</time>
      </trkpt>
      <trkpt lat="59.5054388" lon="17.8585943">
        <ele>39.4</ele>
        <time>2012-03-24T11:17:15Z</time>
      </trkpt>
      <trkpt lat="59.5057558" lon="17.8589246">
        <ele>37.4</ele>
        <time>2012-03-24T11:17:18Z</time>
      </trkpt>
      <trkpt lat="59.5060577" lon="17.8592968">
        <ele>35.4</ele>
        <time>2012-03-24T11:17:21Z</time>
      </trkpt>
      <trkpt lat="59.5063269" lon="17.8597382">
        <ele>32.6</ele>
        <time>2012-03-24T11:17:24Z</time>
      </trkpt>
      <trkpt lat="59.5065725" lon="17.8602571">
        <ele>30.2</ele>
        <time>2012-03-24T11:17:27Z</time>
      </trkpt>
      <trkpt lat="59.5067905" lon="17.8608416">
        <ele>29.2</ele>
        <time>2012-03-24T11:17:30Z</time>
      </trkpt>
      <trkpt lat="59.5069642" lon="17.8614808">
        <ele>27.4</ele>
        <time>2012-03-24T11:17:33Z</time>
      </trkpt>
      <trkpt lat="59.5071187" lon="17.8621425">
        <ele>26.8</ele>
        <time>2012-03-24T11:17:36Z</time>
      </trkpt>
      <trkpt lat="59.50729" lon="17.8628392">
        <ele>26</ele>
        <time>2012-03-24T11:17:39Z</time>
      </trkpt>
      <trkpt lat="59.5074635" lon="17.8635696">
        <ele>25</ele>
        <time>2012-03-24T11:17:42Z</time>
      </trkpt>
      <trkpt lat="59.5076323" lon="17.8642863">
        <ele>24.6</ele>
        <time>2012-03-24T11:17:45Z</time>
      </trkpt>
      <trkpt lat="59.5077923" lon="17.8649613">
        <ele>24.6</ele>
        <time>2012-03-24T11:17:48Z</time>
      </trkpt>
      <trkpt lat="59.5079894" lon="17.8657772">
        <ele>25.8</ele>
        <time>2012-03-24T11:17:52Z</time>
      </trkpt>
      <trkpt lat="59.5081702" lon="17.8664984">
        <ele>27</ele>
        <time>2012-03-24T11:17:56Z</time>
      </trkpt>
      <trkpt lat="59.5083319" lon="17.8671457">
        <ele>27.4</ele>
        <time>2012-03-24T11:18:00Z</time>
      </trkpt>
      <trkpt lat="59.508531" lon="17.8678892">
        <ele>28.2</ele>
        <time>2012-03-24T11:18:05Z</time>
      </trkpt>
      <trkpt lat="59.5087297" lon="17.8685827">
        <ele>30.2</ele>
        <time>2012-03-24T11:18:10Z</time>
      </trkpt>
      <trkpt lat="59.508941" lon="17.8692488">
        <ele>32</ele>
        <time>2012-03-24T11:18:15Z</time>
      </trkpt>
      <trkpt lat="59.5091658" lon="17.8699374">
        <ele>32</ele>
        <time>2012-03-24T11:18:20Z</time>
      </trkpt>
      <trkpt lat="59.5093961" lon="17.8706098">
        <ele>31.6</ele>
        <time>2012-03-24T11:18:25Z</time>
      </trkpt>
      <trkpt lat="59.5096439" lon="17.8713066">
        <ele>30.8</ele>
        <time>2012-03-24T11:18:30Z</time>
      </trkpt>
      <trkpt lat="59.5098649" lon="17.8718788">
        <ele>30</ele>
        <time>2012-03-24T11:18:34Z</time>
      </trkpt>
      <trkpt lat="59.510089" lon="17.8724555">
        <ele>29.2</ele>
        <time>2012-03-24T11:18:38Z</time>
      </trkpt>
      <trkpt lat="59.5103707" lon="17.8731357">
        <ele>28.8</ele>
        <time>2012-03-24T11:18:43Z</time>
      </trkpt>
      <trkpt lat="59.5106587" lon="17.8737981">
        <ele>28.4</ele>
        <time>2012-03-24T11:18:48Z</time>
      </trkpt>
      <trkpt lat="59.5109405" lon="17.8744524">
        <ele>28</ele>
        <time>2012-03-24T11:18:53Z</time>
      </trkpt>
      <trkpt lat="59.5112246" lon="17.875095">
        <ele>27.6</ele>
        <time>2012-03-24T11:18:58Z</time>
      </trkpt>
      <trkpt lat="59.5115104" lon="17.8757323">
        <ele>27.4</ele>
        <time>2012-03-24T11:19:03Z</time>
      </trkpt>
      <trkpt lat="59.5117921" lon="17.8763631">
        <ele>27</ele>
        <time>2012-03-24T11:19:08Z</time>
      </trkpt>
      <trkpt lat="59.5120729" lon="17.8769994">
        <ele>26.8</ele>
        <time>2012-03-24T11:19:13Z</time>
      </trkpt>
      <trkpt lat="59.5123568" lon="17.8776371">
        <ele>26.8</ele>
        <time>2012-03-24T11:19:18Z</time>
      </trkpt>
      <trkpt lat="59.5126369" lon="17.8782684">
        <ele>26.6</ele>
        <time>2012-03-24T11:19:23Z</time>
      </trkpt>
      <trkpt lat="59.51291" lon="17.8788834">
        <ele>26.8</ele>
        <time>2012-03-24T11:19:28Z</time>
      </trkpt>
      <trkpt lat="59.5131767" lon="17.879505">
        <ele>26.6</ele>
        <time>2012-03-24T11:19:33Z</time>
      </trkpt>
      <trkpt lat="59.5134459" lon="17.8801168">
        <ele>26.2</ele>
        <time>2012-03-24T11:19:38Z</time>
      </trkpt>
      <trkpt lat="59.513718" lon="17.8807223">
        <ele>26.4</ele>
        <time>2012-03-24T11:19:43Z</time>
      </trkpt>
      <trkpt lat="59.5139848" lon="17.8812963">
        <ele>26.4</ele>
        <time>2012-03-24T11:19:48Z</time>
      </trkpt>
      <trkpt lat="59.5142442" lon="17.8818623">
        <ele>26.4</ele>
        <time>2012-03-24T11:19:53Z</time>
      </trkpt>
      <trkpt lat="59.5144933" lon="17.8824401">
        <ele>26.6</ele>
        <time>2012-03-24T11:19:58Z</time>
      </trkpt>
      <trkpt lat="59.5147337" lon="17.8830392">
        <ele>26.8</ele>
        <time>2012-03-24T11:20:03Z</time>
      </trkpt>
      <trkpt lat="59.5149576" lon="17.8836754">
        <ele>26.8</ele>
        <time>2012-03-24T11:20:08Z</time>
      </trkpt>
      <trkpt lat="59.5151539" lon="17.884361">
        <ele>26.8</ele>
        <time>2012-03-24T11:20:13Z</time>
      </trkpt>
      <trkpt lat="59.515332" lon="17.8850486">
        <ele>26.6</ele>
        <time>2012-03-24T11:20:18Z</time>
      </trkpt>
      <trkpt lat="59.5154818" lon="17.885789">
        <ele>26.8</ele>
        <time>2012-03-24T11:20:24Z</time>
      </trkpt>
      <trkpt lat="59.5155464" lon="17.8864504">
        <ele>30.2</ele>
        <time>2012-03-24T11:20:47Z</time>
      </trkpt>
      <trkpt lat="59.5155217" lon="17.8868236">
        <ele>30.4</ele>
        <time>2012-03-24T11:20:52Z</time>
      </trkpt>
      <trkpt lat="59.5156823" lon="17.8869834">
        <ele>28</ele>
        <time>2012-03-24T11:20:57Z</time>
      </trkpt>
      <trkpt lat="59.5160604" lon="17.8870851">
        <ele>25.2</ele>
        <time>2012-03-24T11:21:04Z</time>
      </trkpt>
      <trkpt lat="59.5161076" lon="17.8871596">
        <ele>25.4</ele>
        <time>2012-03-24T11:21:05Z</time>
      </trkpt>
      <trkpt lat="59.5162049" lon="17.8872996">
        <ele>25.4</ele>
        <time>2012-03-24T11:21:07Z</time>
      </trkpt>
      <trkpt lat="59.516412" lon="17.8874643">
        <ele>24.8</ele>
        <time>2012-03-24T11:21:11Z</time>
      </trkpt>
      <trkpt lat="59.5165666" lon="17.887583">
        <ele>24</ele>
        <time>2012-03-24T11:21:14Z</time>
      </trkpt>
      <trkpt lat="59.5167147" lon="17.8878719">
        <ele>24.6</ele>
        <time>2012-03-24T11:21:17Z</time>
      </trkpt>
      <trkpt lat="59.5167556" lon="17.888004">
        <ele>25</ele>
        <time>2012-03-24T11:21:18Z</time>
      </trkpt>
      <trkpt lat="59.5169343" lon="17.8885727">
        <ele>25.6</ele>
        <time>2012-03-24T11:21:22Z</time>
      </trkpt>
      <trkpt lat="59.517117" lon="17.8893157">
        <ele>27</ele>
        <time>2012-03-24T11:21:27Z</time>
      </trkpt>
      <trkpt lat="59.5172455" lon="17.8901242">
        <ele>29</ele>
        <time>2012-03-24T11:21:32Z</time>
      </trkpt>
      <trkpt lat="59.5173317" lon="17.8908763">
        <ele>30.8</ele>
        <time>2012-03-24T11:21:37Z</time>
      </trkpt>
      <trkpt lat="59.5173507" lon="17.8910161">
        <ele>31.2</ele>
        <time>2012-03-24T11:21:38Z</time>
      </trkpt>
      <trkpt lat="59.5173902" lon="17.8912963">
        <ele>32.2</ele>
        <time>2012-03-24T11:21:40Z</time>
      </trkpt>
      <trkpt lat="59.517409" lon="17.8915845">
        <ele>32.6</ele>
        <time>2012-03-24T11:21:42Z</time>
      </trkpt>
      <trkpt lat="59.5174459" lon="17.8923024">
        <ele>32.6</ele>
        <time>2012-03-24T11:21:47Z</time>
      </trkpt>
      <trkpt lat="59.5175176" lon="17.8930164">
        <ele>32.2</ele>
        <time>2012-03-24T11:21:52Z</time>
      </trkpt>
      <trkpt lat="59.5176881" lon="17.89372">
        <ele>31.4</ele>
        <time>2012-03-24T11:21:57Z</time>
      </trkpt>
      <trkpt lat="59.518018" lon="17.8941201">
        <ele>31</ele>
        <time>2012-03-24T11:22:02Z</time>
      </trkpt>
      <trkpt lat="59.5181672" lon="17.8941552">
        <ele>31</ele>
        <time>2012-03-24T11:22:04Z</time>
      </trkpt>
      <trkpt lat="59.518377" lon="17.8941493">
        <ele>31.6</ele>
        <time>2012-03-24T11:22:07Z</time>
      </trkpt>
      <trkpt lat="59.5187558" lon="17.8940509">
        <ele>31.4</ele>
        <time>2012-03-24T11:22:13Z</time>
      </trkpt>
      <trkpt lat="59.5191364" lon="17.8939682">
        <ele>33.2</ele>
        <time>2012-03-24T11:22:19Z</time>
      </trkpt>
      <trkpt lat="59.5191872" lon="17.8939549">
        <ele>33.8</ele>
        <time>2012-03-24T11:22:20Z</time>
      </trkpt>
      <trkpt lat="59.5193825" lon="17.8942497">
        <ele>35.6</ele>
        <time>2012-03-24T11:22:25Z</time>
      </trkpt>
      <trkpt lat="59.5194243" lon="17.894356">
        <ele>35.4</ele>
        <time>2012-03-24T11:22:26Z</time>
      </trkpt>
      <trkpt lat="59.5194933" lon="17.8945076">
        <ele>35.4</ele>
        <time>2012-03-24T11:22:27Z</time>
      </trkpt>
      <trkpt lat="59.5196941" lon="17.8948506">
        <ele>35.2</ele>
        <time>2012-03-24T11:22:31Z</time>
      </trkpt>
      <trkpt lat="59.5197328" lon="17.8949338">
        <ele>36</ele>
        <time>2012-03-24T11:22:32Z</time>
      </trkpt>
      <trkpt lat="59.5198378" lon="17.8951235">
        <ele>36.2</ele>
        <time>2012-03-24T11:22:34Z</time>
      </trkpt>
      <trkpt lat="59.5199444" lon="17.8953332">
        <ele>35</ele>
        <time>2012-03-24T11:22:36Z</time>
      </trkpt>
      <trkpt lat="59.5200533" lon="17.895544">
        <ele>34.4</ele>
        <time>2012-03-24T11:22:38Z</time>
      </trkpt>
      <trkpt lat="59.5201054" lon="17.895645">
        <ele>34</ele>
        <time>2012-03-24T11:22:39Z</time>
      </trkpt>
      <trkpt lat="59.5203175" lon="17.8960373">
        <ele>33</ele>
        <time>2012-03-24T11:22:43Z</time>
      </trkpt>
      <trkpt lat="59.5206273" lon="17.8966237">
        <ele>29.4</ele>
        <time>2012-03-24T11:22:48Z</time>
      </trkpt>
      <trkpt lat="59.5207595" lon="17.8968691">
        <ele>28.4</ele>
        <time>2012-03-24T11:22:50Z</time>
      </trkpt>
      <trkpt lat="59.5208857" lon="17.8971615">
        <ele>26.8</ele>
        <time>2012-03-24T11:22:52Z</time>
      </trkpt>
      <trkpt lat="59.5211761" lon="17.8977244">
        <ele>22.8</ele>
        <time>2012-03-24T11:22:56Z</time>
      </trkpt>
      <trkpt lat="59.5212592" lon="17.8978417">
        <ele>22.2</ele>
        <time>2012-03-24T11:22:57Z</time>
      </trkpt>
      <trkpt lat="59.5215254" lon="17.8980582">
        <ele>21.4</ele>
        <time>2012-03-24T11:23:00Z</time>
      </trkpt>
      <trkpt lat="59.521929" lon="17.8983234">
        <ele>20.8</ele>
        <time>2012-03-24T11:23:05Z</time>
      </trkpt>
      <trkpt lat="59.5220081" lon="17.8983593">
        <ele>20.8</ele>
        <time>2012-03-24T11:23:06Z</time>
      </trkpt>
      <trkpt lat="59.5223031" lon="17.8986059">
        <ele>21</ele>
        <time>2012-03-24T11:23:10Z</time>
      </trkpt>
      <trkpt lat="59.5223758" lon="17.8986812">
        <ele>20.8</ele>
        <time>2012-03-24T11:23:11Z</time>
      </trkpt>
      <trkpt lat="59.5226771" lon="17.8988734">
        <ele>21</ele>
        <time>2012-03-24T11:23:15Z</time>
      </trkpt>
      <trkpt lat="59.522809" lon="17.8989909">
        <ele>20.8</ele>
        <time>2012-03-24T11:23:17Z</time>
      </trkpt>
      <trkpt lat="59.522937" lon="17.8993376">
        <ele>21.4</ele>
        <time>2012-03-24T11:23:20Z</time>
      </trkpt>
      <trkpt lat="59.5231976" lon="17.8996333">
        <ele>22</ele>
        <time>2012-03-24T11:23:24Z</time>
      </trkpt>
      <trkpt lat="59.5232675" lon="17.8996754">
        <ele>21.6</ele>
        <time>2012-03-24T11:23:25Z</time>
      </trkpt>
      <trkpt lat="59.5236618" lon="17.89991">
        <ele>19.4</ele>
        <time>2012-03-24T11:23:30Z</time>
      </trkpt>
      <trkpt lat="59.5240661" lon="17.900067">
        <ele>18.2</ele>
        <time>2012-03-24T11:23:35Z</time>
      </trkpt>
      <trkpt lat="59.5243785" lon="17.9001169">
        <ele>18</ele>
        <time>2012-03-24T11:23:39Z</time>
      </trkpt>
      <trkpt lat="59.5244497" lon="17.9001592">
        <ele>17.8</ele>
        <time>2012-03-24T11:23:40Z</time>
      </trkpt>
      <trkpt lat="59.5248027" lon="17.9004816">
        <ele>16.4</ele>
        <time>2012-03-24T11:23:45Z</time>
      </trkpt>
      <trkpt lat="59.524948" lon="17.9005242">
        <ele>16</ele>
        <time>2012-03-24T11:23:47Z</time>
      </trkpt>
      <trkpt lat="59.5250137" lon="17.9005483">
        <ele>16</ele>
        <time>2012-03-24T11:23:48Z</time>
      </trkpt>
      <trkpt lat="59.5251684" lon="17.9007113">
        <ele>15.2</ele>
        <time>2012-03-24T11:23:51Z</time>
      </trkpt>
      <trkpt lat="59.5252173" lon="17.9007797">
        <ele>14.6</ele>
        <time>2012-03-24T11:23:52Z</time>
      </trkpt>
      <trkpt lat="59.5252734" lon="17.9008385">
        <ele>14.2</ele>
        <time>2012-03-24T11:23:53Z</time>
      </trkpt>
      <trkpt lat="59.5255343" lon="17.9009401">
        <ele>13</ele>
        <time>2012-03-24T11:23:57Z</time>
      </trkpt>
      <trkpt lat="59.5259384" lon="17.9010603">
        <ele>12.2</ele>
        <time>2012-03-24T11:24:03Z</time>
      </trkpt>
      <trkpt lat="59.5263502" lon="17.9011029">
        <ele>11.6</ele>
        <time>2012-03-24T11:24:09Z</time>
      </trkpt>
      <trkpt lat="59.526732" lon="17.9011131">
        <ele>11.6</ele>
        <time>2012-03-24T11:24:15Z</time>
      </trkpt>
      <trkpt lat="59.5271153" lon="17.9011325">
        <ele>13.4</ele>
        <time>2012-03-24T11:24:22Z</time>
      </trkpt>
      <trkpt lat="59.5274988" lon="17.9011843">
        <ele>16.4</ele>
        <time>2012-03-24T11:24:31Z</time>
      </trkpt>
      <trkpt lat="59.5276251" lon="17.9012281">
        <ele>18</ele>
        <time>2012-03-24T11:24:34Z</time>
      </trkpt>
      <trkpt lat="59.5278756" lon="17.9014143">
        <ele>20.6</ele>
        <time>2012-03-24T11:24:40Z</time>
      </trkpt>
      <trkpt lat="59.5282145" lon="17.9018852">
        <ele>24.4</ele>
        <time>2012-03-24T11:24:49Z</time>
      </trkpt>
      <trkpt lat="59.5284552" lon="17.9025048">
        <ele>27</ele>
        <time>2012-03-24T11:24:57Z</time>
      </trkpt>
      <trkpt lat="59.5285938" lon="17.9031826">
        <ele>28.6</ele>
        <time>2012-03-24T11:25:04Z</time>
      </trkpt>
      <trkpt lat="59.5287031" lon="17.9038624">
        <ele>29.4</ele>
        <time>2012-03-24T11:25:11Z</time>
      </trkpt>
      <trkpt lat="59.528737" lon="17.9040422">
        <ele>29.4</ele>
        <time>2012-03-24T11:25:13Z</time>
      </trkpt>
      <trkpt lat="59.528828" lon="17.9045729">
        <ele>31.6</ele>
        <time>2012-03-24T11:25:19Z</time>
      </trkpt>
      <trkpt lat="59.5289092" lon="17.9050726">
        <ele>33.6</ele>
        <time>2012-03-24T11:25:25Z</time>
      </trkpt>
      <trkpt lat="59.5289487" lon="17.9052396">
        <ele>34.2</ele>
        <time>2012-03-24T11:25:27Z</time>
      </trkpt>
      <trkpt lat="59.5289916" lon="17.9053976">
        <ele>36</ele>
        <time>2012-03-24T11:25:29Z</time>
      </trkpt>
      <trkpt lat="59.5290092" lon="17.9054786">
        <ele>37.2</ele>
        <time>2012-03-24T11:25:30Z</time>
      </trkpt>
      <trkpt lat="59.5291008" lon="17.9059309">
        <ele>39</ele>
        <time>2012-03-24T11:25:35Z</time>
      </trkpt>
      <trkpt lat="59.5292286" lon="17.9066673">
        <ele>42.6</ele>
        <time>2012-03-24T11:25:43Z</time>
      </trkpt>
      <trkpt lat="59.5292883" lon="17.9070382">
        <ele>44.2</ele>
        <time>2012-03-24T11:25:47Z</time>
      </trkpt>
      <trkpt lat="59.529336" lon="17.9074147">
        <ele>46</ele>
        <time>2012-03-24T11:25:51Z</time>
      </trkpt>
      <trkpt lat="59.5293661" lon="17.9081162">
        <ele>47</ele>
        <time>2012-03-24T11:25:58Z</time>
      </trkpt>
      <trkpt lat="59.5294903" lon="17.908803">
        <ele>46.8</ele>
        <time>2012-03-24T11:26:04Z</time>
      </trkpt>
      <trkpt lat="59.5296635" lon="17.9095034">
        <ele>46</ele>
        <time>2012-03-24T11:26:10Z</time>
      </trkpt>
      <trkpt lat="59.5297837" lon="17.9102228">
        <ele>47</ele>
        <time>2012-03-24T11:26:16Z</time>
      </trkpt>
      <trkpt lat="59.5298717" lon="17.9108071">
        <ele>49.4</ele>
        <time>2012-03-24T11:26:21Z</time>
      </trkpt>
      <trkpt lat="59.5298893" lon="17.910918">
        <ele>49.8</ele>
        <time>2012-03-24T11:26:22Z</time>
      </trkpt>
      <trkpt lat="59.5299654" lon="17.911732">
        <ele>51.2</ele>
        <time>2012-03-24T11:26:29Z</time>
      </trkpt>
      <trkpt lat="59.5300497" lon="17.9124801">
        <ele>51.6</ele>
        <time>2012-03-24T11:26:36Z</time>
      </trkpt>
      <trkpt lat="59.5301291" lon="17.9131975">
        <ele>50.4</ele>
        <time>2012-03-24T11:26:43Z</time>
      </trkpt>
      <trkpt lat="59.5302105" lon="17.9139691">
        <ele>51</ele>
        <time>2012-03-24T11:26:50Z</time>
      </trkpt>
      <trkpt lat="59.5302586" lon="17.914308">
        <ele>52.2</ele>
        <time>2012-03-24T11:26:53Z</time>
      </trkpt>
      <trkpt lat="59.5302778" lon="17.9145547">
        <ele>52.4</ele>
        <time>2012-03-24T11:26:55Z</time>
      </trkpt>
      <trkpt lat="59.530295" lon="17.9146837">
        <ele>52.8</ele>
        <time>2012-03-24T11:26:56Z</time>
      </trkpt>
      <trkpt lat="59.5303011" lon="17.9148126">
        <ele>53.4</ele>
        <time>2012-03-24T11:26:57Z</time>
      </trkpt>
      <trkpt lat="59.5301391" lon="17.915442">
        <ele>53.4</ele>
        <time>2012-03-24T11:27:02Z</time>
      </trkpt>
      <trkpt lat="59.5299146" lon="17.9156217">
        <ele>55.6</ele>
        <time>2012-03-24T11:27:05Z</time>
      </trkpt>
      <trkpt lat="59.5297619" lon="17.915716">
        <ele>56</ele>
        <time>2012-03-24T11:27:07Z</time>
      </trkpt>
      <trkpt lat="59.5293928" lon="17.9159144">
        <ele>57.6</ele>
        <time>2012-03-24T11:27:12Z</time>
      </trkpt>
      <trkpt lat="59.5290272" lon="17.915914">
        <ele>57</ele>
        <time>2012-03-24T11:27:17Z</time>
      </trkpt>
      <trkpt lat="59.5286609" lon="17.9157792">
        <ele>56.6</ele>
        <time>2012-03-24T11:27:22Z</time>
      </trkpt>
      <trkpt lat="59.5282907" lon="17.9160164">
        <ele>57.4</ele>
        <time>2012-03-24T11:27:27Z</time>
      </trkpt>
      <trkpt lat="59.5279659" lon="17.9167617">
        <ele>53.8</ele>
        <time>2012-03-24T11:27:32Z</time>
      </trkpt>
      <trkpt lat="59.5278929" lon="17.9176061">
        <ele>48.8</ele>
        <time>2012-03-24T11:27:36Z</time>
      </trkpt>
      <trkpt lat="59.5280395" lon="17.9185393">
        <ele>45.2</ele>
        <time>2012-03-24T11:27:40Z</time>
      </trkpt>
      <trkpt lat="59.5282001" lon="17.9192624">
        <ele>42.8</ele>
        <time>2012-03-24T11:27:43Z</time>
      </trkpt>
      <trkpt lat="59.5283556" lon="17.9199357">
        <ele>40.6</ele>
        <time>2012-03-24T11:27:46Z</time>
      </trkpt>
      <trkpt lat="59.5284545" lon="17.9203924">
        <ele>39.4</ele>
        <time>2012-03-24T11:27:48Z</time>
      </trkpt>
      <trkpt lat="59.528487" lon="17.9208345">
        <ele>39</ele>
        <time>2012-03-24T11:27:50Z</time>
      </trkpt>
      <trkpt lat="59.5283713" lon="17.9213732">
        <ele>39.2</ele>
        <time>2012-03-24T11:27:54Z</time>
      </trkpt>
      <trkpt lat="59.5283471" lon="17.9214494">
        <ele>39</ele>
        <time>2012-03-24T11:27:55Z</time>
      </trkpt>
      <trkpt lat="59.528329" lon="17.9215362">
        <ele>39</ele>
        <time>2012-03-24T11:27:56Z</time>
      </trkpt>
      <trkpt lat="59.52853" lon="17.9221392">
        <ele>36</ele>
        <time>2012-03-24T11:28:02Z</time>
      </trkpt>
      <trkpt lat="59.5285713" lon="17.9222401">
        <ele>35.4</ele>
        <time>2012-03-24T11:28:03Z</time>
      </trkpt>
      <trkpt lat="59.5287548" lon="17.9227158">
        <ele>32.4</ele>
        <time>2012-03-24T11:28:07Z</time>
      </trkpt>
      <trkpt lat="59.5289626" lon="17.923312">
        <ele>29.8</ele>
        <time>2012-03-24T11:28:11Z</time>
      </trkpt>
      <trkpt lat="59.5291392" lon="17.9239301">
        <ele>29.2</ele>
        <time>2012-03-24T11:28:15Z</time>
      </trkpt>
      <trkpt lat="59.5291695" lon="17.9240874">
        <ele>29.4</ele>
        <time>2012-03-24T11:28:16Z</time>
      </trkpt>
      <trkpt lat="59.5292397" lon="17.9246232">
        <ele>29.8</ele>
        <time>2012-03-24T11:28:20Z</time>
      </trkpt>
      <trkpt lat="59.5292728" lon="17.9250162">
        <ele>30</ele>
        <time>2012-03-24T11:28:29Z</time>
      </trkpt>
      <trkpt lat="59.5293227" lon="17.9252964">
        <ele>31.4</ele>
        <time>2012-03-24T11:29:42Z</time>
      </trkpt>
      <trkpt lat="59.5294661" lon="17.9260011">
        <ele>28.4</ele>
        <time>2012-03-24T11:29:47Z</time>
      </trkpt>
      <trkpt lat="59.5296392" lon="17.9268007">
        <ele>26.4</ele>
        <time>2012-03-24T11:29:52Z</time>
      </trkpt>
      <trkpt lat="59.5298342" lon="17.9275737">
        <ele>25.4</ele>
        <time>2012-03-24T11:29:57Z</time>
      </trkpt>
      <trkpt lat="59.5300566" lon="17.9283052">
        <ele>25</ele>
        <time>2012-03-24T11:30:02Z</time>
      </trkpt>
      <trkpt lat="59.5302954" lon="17.9290202">
        <ele>23.4</ele>
        <time>2012-03-24T11:30:07Z</time>
      </trkpt>
      <trkpt lat="59.5305591" lon="17.9296809">
        <ele>22.8</ele>
        <time>2012-03-24T11:30:12Z</time>
      </trkpt>
      <trkpt lat="59.5308428" lon="17.9302814">
        <ele>22.6</ele>
        <time>2012-03-24T11:30:17Z</time>
      </trkpt>
      <trkpt lat="59.5311378" lon="17.9308296">
        <ele>22.6</ele>
        <time>2012-03-24T11:30:22Z</time>
      </trkpt>
      <trkpt lat="59.5314443" lon="17.9313371">
        <ele>22.4</ele>
        <time>2012-03-24T11:30:27Z</time>
      </trkpt>
      <trkpt lat="59.5317676" lon="17.9318132">
        <ele>22.4</ele>
        <time>2012-03-24T11:30:32Z</time>
      </trkpt>
      <trkpt lat="59.532101" lon="17.932236">
        <ele>22.2</ele>
        <time>2012-03-24T11:30:37Z</time>
      </trkpt>
      <trkpt lat="59.5324467" lon="17.9326043">
        <ele>22</ele>
        <time>2012-03-24T11:30:42Z</time>
      </trkpt>
      <trkpt lat="59.5328045" lon="17.9329301">
        <ele>21.6</ele>
        <time>2012-03-24T11:30:47Z</time>
      </trkpt>
      <trkpt lat="59.533174" lon="17.9332254">
        <ele>21.2</ele>
        <time>2012-03-24T11:30:52Z</time>
      </trkpt>
      <trkpt lat="59.5335516" lon="17.9335304">
        <ele>20.8</ele>
        <time>2012-03-24T11:30:57Z</time>
      </trkpt>
      <trkpt lat="59.533924" lon="17.9338822">
        <ele>20</ele>
        <time>2012-03-24T11:31:02Z</time>
      </trkpt>
      <trkpt lat="59.5342789" lon="17.934286">
        <ele>19.6</ele>
        <time>2012-03-24T11:31:07Z</time>
      </trkpt>
      <trkpt lat="59.5346317" lon="17.9347174">
        <ele>18.8</ele>
        <time>2012-03-24T11:31:12Z</time>
      </trkpt>
      <trkpt lat="59.534993" lon="17.9350347">
        <ele>18</ele>
        <time>2012-03-24T11:31:17Z</time>
      </trkpt>
      <trkpt lat="59.5352336" lon="17.935185">
        <ele>17.6</ele>
        <time>2012-03-24T11:31:20Z</time>
      </trkpt>
      <trkpt lat="59.5353997" lon="17.9352334">
        <ele>17.6</ele>
        <time>2012-03-24T11:31:22Z</time>
      </trkpt>
      <trkpt lat="59.5357871" lon="17.9353124">
        <ele>18.4</ele>
        <time>2012-03-24T11:31:27Z</time>
      </trkpt>
      <trkpt lat="59.536196" lon="17.9353776">
        <ele>18.8</ele>
        <time>2012-03-24T11:31:33Z</time>
      </trkpt>
      <trkpt lat="59.5365588" lon="17.9354397">
        <ele>18.8</ele>
        <time>2012-03-24T11:31:39Z</time>
      </trkpt>
      <trkpt lat="59.5369522" lon="17.9355157">
        <ele>19.6</ele>
        <time>2012-03-24T11:31:46Z</time>
      </trkpt>
      <trkpt lat="59.5373371" lon="17.935592">
        <ele>20</ele>
        <time>2012-03-24T11:31:53Z</time>
      </trkpt>
      <trkpt lat="59.5377148" lon="17.9356671">
        <ele>20.8</ele>
        <time>2012-03-24T11:32:00Z</time>
      </trkpt>
      <trkpt lat="59.5380988" lon="17.9357485">
        <ele>21.6</ele>
        <time>2012-03-24T11:32:07Z</time>
      </trkpt>
      <trkpt lat="59.5384825" lon="17.9358338">
        <ele>22</ele>
        <time>2012-03-24T11:32:14Z</time>
      </trkpt>
      <trkpt lat="59.5388771" lon="17.9359081">
        <ele>22.6</ele>
        <time>2012-03-24T11:32:21Z</time>
      </trkpt>
      <trkpt lat="59.5392402" lon="17.9359822">
        <ele>23.6</ele>
        <time>2012-03-24T11:32:27Z</time>
      </trkpt>
      <trkpt lat="59.5395699" lon="17.9360188">
        <ele>26.2</ele>
        <time>2012-03-24T11:32:32Z</time>
      </trkpt>
      <trkpt lat="59.5399691" lon="17.9360962">
        <ele>25.8</ele>
        <time>2012-03-24T11:32:37Z</time>
      </trkpt>
      <trkpt lat="59.5403883" lon="17.9361744">
        <ele>26.6</ele>
        <time>2012-03-24T11:32:42Z</time>
      </trkpt>
      <trkpt lat="59.540832" lon="17.9362593">
        <ele>23.6</ele>
        <time>2012-03-24T11:32:47Z</time>
      </trkpt>
      <trkpt lat="59.5412409" lon="17.936358">
        <ele>21.6</ele>
        <time>2012-03-24T11:32:52Z</time>
      </trkpt>
      <trkpt lat="59.5416403" lon="17.9364134">
        <ele>21.6</ele>
        <time>2012-03-24T11:32:57Z</time>
      </trkpt>
      <trkpt lat="59.5420444" lon="17.9362963">
        <ele>19</ele>
        <time>2012-03-24T11:33:02Z</time>
      </trkpt>
      <trkpt lat="59.5424154" lon="17.9360886">
        <ele>18.2</ele>
        <time>2012-03-24T11:33:07Z</time>
      </trkpt>
      <trkpt lat="59.5428308" lon="17.9358446">
        <ele>17.4</ele>
        <time>2012-03-24T11:33:13Z</time>
      </trkpt>
      <trkpt lat="59.5432348" lon="17.9356102">
        <ele>17.2</ele>
        <time>2012-03-24T11:33:19Z</time>
      </trkpt>
      <trkpt lat="59.5436288" lon="17.9353836">
        <ele>17.2</ele>
        <time>2012-03-24T11:33:25Z</time>
      </trkpt>
      <trkpt lat="59.5440088" lon="17.9351656">
        <ele>17.6</ele>
        <time>2012-03-24T11:33:31Z</time>
      </trkpt>
      <trkpt lat="59.5443776" lon="17.9349487">
        <ele>18</ele>
        <time>2012-03-24T11:33:37Z</time>
      </trkpt>
      <trkpt lat="59.5447332" lon="17.9347418">
        <ele>18.8</ele>
        <time>2012-03-24T11:33:43Z</time>
      </trkpt>
      <trkpt lat="59.545114" lon="17.9345089">
        <ele>20.2</ele>
        <time>2012-03-24T11:33:50Z</time>
      </trkpt>
      <trkpt lat="59.545488" lon="17.9342784">
        <ele>20.8</ele>
        <time>2012-03-24T11:33:57Z</time>
      </trkpt>
      <trkpt lat="59.545885" lon="17.934051">
        <ele>21</ele>
        <time>2012-03-24T11:34:04Z</time>
      </trkpt>
      <trkpt lat="59.546251" lon="17.9338247">
        <ele>19.8</ele>
        <time>2012-03-24T11:34:10Z</time>
      </trkpt>
      <trkpt lat="59.5466169" lon="17.9335949">
        <ele>18.6</ele>
        <time>2012-03-24T11:34:16Z</time>
      </trkpt>
      <trkpt lat="59.5469808" lon="17.9333812">
        <ele>20.4</ele>
        <time>2012-03-24T11:34:22Z</time>
      </trkpt>
      <trkpt lat="59.5473627" lon="17.9331614">
        <ele>20.2</ele>
        <time>2012-03-24T11:34:28Z</time>
      </trkpt>
      <trkpt lat="59.5477507" lon="17.9329309">
        <ele>19</ele>
        <time>2012-03-24T11:34:34Z</time>
      </trkpt>
      <trkpt lat="59.5481464" lon="17.9326941">
        <ele>19</ele>
        <time>2012-03-24T11:34:40Z</time>
      </trkpt>
      <trkpt lat="59.5485361" lon="17.9324679">
        <ele>19</ele>
        <time>2012-03-24T11:34:46Z</time>
      </trkpt>
      <trkpt lat="59.5489078" lon="17.9322478">
        <ele>19.4</ele>
        <time>2012-03-24T11:34:52Z</time>
      </trkpt>
      <trkpt lat="59.5492809" lon="17.9320277">
        <ele>19.2</ele>
        <time>2012-03-24T11:34:58Z</time>
      </trkpt>
      <trkpt lat="59.5496496" lon="17.931806">
        <ele>19.2</ele>
        <time>2012-03-24T11:35:04Z</time>
      </trkpt>
      <trkpt lat="59.5499979" lon="17.9315957">
        <ele>19.4</ele>
        <time>2012-03-24T11:35:10Z</time>
      </trkpt>
      <trkpt lat="59.5503518" lon="17.931393">
        <ele>20.2</ele>
        <time>2012-03-24T11:35:16Z</time>
      </trkpt>
      <trkpt lat="59.5507242" lon="17.9313449">
        <ele>20.2</ele>
        <time>2012-03-24T11:35:22Z</time>
      </trkpt>
      <trkpt lat="59.5509061" lon="17.9314424">
        <ele>21</ele>
        <time>2012-03-24T11:35:25Z</time>
      </trkpt>
      <trkpt lat="59.5510779" lon="17.9316192">
        <ele>22</ele>
        <time>2012-03-24T11:35:28Z</time>
      </trkpt>
      <trkpt lat="59.5514048" lon="17.9319901">
        <ele>23.4</ele>
        <time>2012-03-24T11:35:34Z</time>
      </trkpt>
      <trkpt lat="59.5517529" lon="17.9322289">
        <ele>24.6</ele>
        <time>2012-03-24T11:35:40Z</time>
      </trkpt>
      <trkpt lat="59.5521274" lon="17.9324514">
        <ele>25.6</ele>
        <time>2012-03-24T11:35:46Z</time>
      </trkpt>
      <trkpt lat="59.5525165" lon="17.9326786">
        <ele>26</ele>
        <time>2012-03-24T11:35:52Z</time>
      </trkpt>
      <trkpt lat="59.5529214" lon="17.932918">
        <ele>25.8</ele>
        <time>2012-03-24T11:35:58Z</time>
      </trkpt>
      <trkpt lat="59.5532754" lon="17.9331233">
        <ele>25.4</ele>
        <time>2012-03-24T11:36:03Z</time>
      </trkpt>
      <trkpt lat="59.5536411" lon="17.9333325">
        <ele>25.2</ele>
        <time>2012-03-24T11:36:08Z</time>
      </trkpt>
      <trkpt lat="59.5540062" lon="17.9336309">
        <ele>24.8</ele>
        <time>2012-03-24T11:36:13Z</time>
      </trkpt>
      <trkpt lat="59.5543218" lon="17.9341395">
        <ele>24.8</ele>
        <time>2012-03-24T11:36:18Z</time>
      </trkpt>
      <trkpt lat="59.5545673" lon="17.934742">
        <ele>24</ele>
        <time>2012-03-24T11:36:23Z</time>
      </trkpt>
      <trkpt lat="59.5547346" lon="17.9353921">
        <ele>24.2</ele>
        <time>2012-03-24T11:36:28Z</time>
      </trkpt>
      <trkpt lat="59.5547837" lon="17.9356795">
        <ele>24.6</ele>
        <time>2012-03-24T11:36:30Z</time>
      </trkpt>
      <trkpt lat="59.5548344" lon="17.9361278">
        <ele>25.4</ele>
        <time>2012-03-24T11:36:33Z</time>
      </trkpt>
      <trkpt lat="59.5548936" lon="17.9368767">
        <ele>27</ele>
        <time>2012-03-24T11:36:38Z</time>
      </trkpt>
      <trkpt lat="59.554923" lon="17.9376064">
        <ele>28.8</ele>
        <time>2012-03-24T11:36:43Z</time>
      </trkpt>
      <trkpt lat="59.5549633" lon="17.9384488">
        <ele>30.8</ele>
        <time>2012-03-24T11:36:49Z</time>
      </trkpt>
      <trkpt lat="59.5550789" lon="17.9391802">
        <ele>28.8</ele>
        <time>2012-03-24T11:36:54Z</time>
      </trkpt>
      <trkpt lat="59.5552592" lon="17.939858">
        <ele>26.4</ele>
        <time>2012-03-24T11:36:58Z</time>
      </trkpt>
      <trkpt lat="59.5554467" lon="17.9405541">
        <ele>24.6</ele>
        <time>2012-03-24T11:37:02Z</time>
      </trkpt>
      <trkpt lat="59.555621" lon="17.9412233">
        <ele>24</ele>
        <time>2012-03-24T11:37:06Z</time>
      </trkpt>
      <trkpt lat="59.5557887" lon="17.9419781">
        <ele>24.8</ele>
        <time>2012-03-24T11:37:11Z</time>
      </trkpt>
      <trkpt lat="59.5559287" lon="17.9426803">
        <ele>27</ele>
        <time>2012-03-24T11:37:16Z</time>
      </trkpt>
      <trkpt lat="59.5560581" lon="17.9434264">
        <ele>27.6</ele>
        <time>2012-03-24T11:37:21Z</time>
      </trkpt>
      <trkpt lat="59.5561016" lon="17.9441987">
        <ele>28.8</ele>
        <time>2012-03-24T11:37:26Z</time>
      </trkpt>
      <trkpt lat="59.556095" lon="17.9443579">
        <ele>29</ele>
        <time>2012-03-24T11:37:27Z</time>
      </trkpt>
      <trkpt lat="59.5560074" lon="17.9449748">
        <ele>29.2</ele>
        <time>2012-03-24T11:37:31Z</time>
      </trkpt>
      <trkpt lat="59.5559093" lon="17.9458195">
        <ele>28.2</ele>
        <time>2012-03-24T11:37:36Z</time>
      </trkpt>
      <trkpt lat="59.5559306" lon="17.9466789">
        <ele>28</ele>
        <time>2012-03-24T11:37:41Z</time>
      </trkpt>
      <trkpt lat="59.5560572" lon="17.947439">
        <ele>29</ele>
        <time>2012-03-24T11:37:46Z</time>
      </trkpt>
      <trkpt lat="59.5562046" lon="17.9481569">
        <ele>30</ele>
        <time>2012-03-24T11:37:51Z</time>
      </trkpt>
      <trkpt lat="59.5563347" lon="17.9488487">
        <ele>31</ele>
        <time>2012-03-24T11:37:56Z</time>
      </trkpt>
      <trkpt lat="59.5564588" lon="17.949527">
        <ele>31.8</ele>
        <time>2012-03-24T11:38:01Z</time>
      </trkpt>
      <trkpt lat="59.5565783" lon="17.9501916">
        <ele>33.2</ele>
        <time>2012-03-24T11:38:06Z</time>
      </trkpt>
      <trkpt lat="59.5567186" lon="17.9509658">
        <ele>33.8</ele>
        <time>2012-03-24T11:38:12Z</time>
      </trkpt>
      <trkpt lat="59.5568504" lon="17.9517359">
        <ele>31.4</ele>
        <time>2012-03-24T11:38:17Z</time>
      </trkpt>
      <trkpt lat="59.5569655" lon="17.9525626">
        <ele>30.2</ele>
        <time>2012-03-24T11:38:22Z</time>
      </trkpt>
      <trkpt lat="59.5571039" lon="17.9533324">
        <ele>30</ele>
        <time>2012-03-24T11:38:27Z</time>
      </trkpt>
      <trkpt lat="59.5573279" lon="17.9539948">
        <ele>30</ele>
        <time>2012-03-24T11:38:32Z</time>
      </trkpt>
      <trkpt lat="59.5576054" lon="17.9545496">
        <ele>30.8</ele>
        <time>2012-03-24T11:38:37Z</time>
      </trkpt>
      <trkpt lat="59.5578903" lon="17.9550765">
        <ele>32.6</ele>
        <time>2012-03-24T11:38:42Z</time>
      </trkpt>
      <trkpt lat="59.5581634" lon="17.9556169">
        <ele>32.8</ele>
        <time>2012-03-24T11:38:47Z</time>
      </trkpt>
      <trkpt lat="59.558428" lon="17.9559686">
        <ele>32.2</ele>
        <time>2012-03-24T11:38:51Z</time>
      </trkpt>
      <trkpt lat="59.5585025" lon="17.9560233">
        <ele>31.8</ele>
        <time>2012-03-24T11:38:52Z</time>
      </trkpt>
      <trkpt lat="59.5588905" lon="17.9560102">
        <ele>29.8</ele>
        <time>2012-03-24T11:38:57Z</time>
      </trkpt>
      <trkpt lat="59.5592889" lon="17.95586">
        <ele>28.2</ele>
        <time>2012-03-24T11:39:02Z</time>
      </trkpt>
      <trkpt lat="59.5596747" lon="17.9559798">
        <ele>28.8</ele>
        <time>2012-03-24T11:39:07Z</time>
      </trkpt>
      <trkpt lat="59.560023" lon="17.9561735">
        <ele>28.8</ele>
        <time>2012-03-24T11:39:12Z</time>
      </trkpt>
      <trkpt lat="59.5603945" lon="17.9563715">
        <ele>27.8</ele>
        <time>2012-03-24T11:39:17Z</time>
      </trkpt>
      <trkpt lat="59.5607875" lon="17.956659">
        <ele>26</ele>
        <time>2012-03-24T11:39:22Z</time>
      </trkpt>
      <trkpt lat="59.5609503" lon="17.9568209">
        <ele>26</ele>
        <time>2012-03-24T11:39:24Z</time>
      </trkpt>
      <trkpt lat="59.561102" lon="17.9570293">
        <ele>25.6</ele>
        <time>2012-03-24T11:39:26Z</time>
      </trkpt>
      <trkpt lat="59.5614024" lon="17.9575246">
        <ele>23.4</ele>
        <time>2012-03-24T11:39:30Z</time>
      </trkpt>
      <trkpt lat="59.5617121" lon="17.9579954">
        <ele>21.4</ele>
        <time>2012-03-24T11:39:34Z</time>
      </trkpt>
      <trkpt lat="59.5620521" lon="17.9583601">
        <ele>20.8</ele>
        <time>2012-03-24T11:39:38Z</time>
      </trkpt>
      <trkpt lat="59.5623877" lon="17.9586428">
        <ele>20.2</ele>
        <time>2012-03-24T11:39:42Z</time>
      </trkpt>
      <trkpt lat="59.5627943" lon="17.9589925">
        <ele>20</ele>
        <time>2012-03-24T11:39:47Z</time>
      </trkpt>
      <trkpt lat="59.5631516" lon="17.9593325">
        <ele>19.8</ele>
        <time>2012-03-24T11:39:51Z</time>
      </trkpt>
      <trkpt lat="59.5635212" lon="17.9596946">
        <ele>20.2</ele>
        <time>2012-03-24T11:39:55Z</time>
      </trkpt>
      <trkpt lat="59.5638551" lon="17.9600872">
        <ele>19.6</ele>
        <time>2012-03-24T11:39:59Z</time>
      </trkpt>
      <trkpt lat="59.5641826" lon="17.9605021">
        <ele>19</ele>
        <time>2012-03-24T11:40:03Z</time>
      </trkpt>
      <trkpt lat="59.5645077" lon="17.9609762">
        <ele>19</ele>
        <time>2012-03-24T11:40:07Z</time>
      </trkpt>
      <trkpt lat="59.564827" lon="17.9614822">
        <ele>18.4</ele>
        <time>2012-03-24T11:40:11Z</time>
      </trkpt>
      <trkpt lat="59.5651277" lon="17.9619783">
        <ele>18.8</ele>
        <time>2012-03-24T11:40:15Z</time>
      </trkpt>
      <trkpt lat="59.5653982" lon="17.9624361">
        <ele>18.8</ele>
        <time>2012-03-24T11:40:19Z</time>
      </trkpt>
      <trkpt lat="59.5657064" lon="17.9629196">
        <ele>19.2</ele>
        <time>2012-03-24T11:40:24Z</time>
      </trkpt>
      <trkpt lat="59.5660382" lon="17.9632484">
        <ele>20.2</ele>
        <time>2012-03-24T11:40:29Z</time>
      </trkpt>
      <trkpt lat="59.5663986" lon="17.9634429">
        <ele>23</ele>
        <time>2012-03-24T11:40:35Z</time>
      </trkpt>
      <trkpt lat="59.5667509" lon="17.9635672">
        <ele>26.2</ele>
        <time>2012-03-24T11:40:42Z</time>
      </trkpt>
      <trkpt lat="59.567118" lon="17.9635924">
        <ele>25.6</ele>
        <time>2012-03-24T11:40:49Z</time>
      </trkpt>
      <trkpt lat="59.5675424" lon="17.9635655">
        <ele>23.2</ele>
        <time>2012-03-24T11:40:56Z</time>
      </trkpt>
      <trkpt lat="59.5679369" lon="17.9636666">
        <ele>23.6</ele>
        <time>2012-03-24T11:41:02Z</time>
      </trkpt>
      <trkpt lat="59.5683294" lon="17.9638924">
        <ele>24.2</ele>
        <time>2012-03-24T11:41:08Z</time>
      </trkpt>
      <trkpt lat="59.5687525" lon="17.9640433">
        <ele>23.4</ele>
        <time>2012-03-24T11:41:14Z</time>
      </trkpt>
      <trkpt lat="59.5691135" lon="17.9642369">
        <ele>22.4</ele>
        <time>2012-03-24T11:41:19Z</time>
      </trkpt>
      <trkpt lat="59.5694861" lon="17.9646072">
        <ele>20.8</ele>
        <time>2012-03-24T11:41:24Z</time>
      </trkpt>
      <trkpt lat="59.5698057" lon="17.9648513">
        <ele>19.6</ele>
        <time>2012-03-24T11:41:28Z</time>
      </trkpt>
      <trkpt lat="59.5698903" lon="17.9648789">
        <ele>19</ele>
        <time>2012-03-24T11:41:29Z</time>
      </trkpt>
      <trkpt lat="59.5702141" lon="17.9648394">
        <ele>18.8</ele>
        <time>2012-03-24T11:41:33Z</time>
      </trkpt>
      <trkpt lat="59.5702915" lon="17.964814">
        <ele>18.8</ele>
        <time>2012-03-24T11:41:34Z</time>
      </trkpt>
      <trkpt lat="59.5706479" lon="17.9646803">
        <ele>18.4</ele>
        <time>2012-03-24T11:41:39Z</time>
      </trkpt>
      <trkpt lat="59.570784" lon="17.9646535">
        <ele>18.2</ele>
        <time>2012-03-24T11:41:41Z</time>
      </trkpt>
      <trkpt lat="59.5709489" lon="17.965072">
        <ele>17.8</ele>
        <time>2012-03-24T11:41:45Z</time>
      </trkpt>
      <trkpt lat="59.5709655" lon="17.9652389">
        <ele>17.6</ele>
        <time>2012-03-24T11:41:46Z</time>
      </trkpt>
      <trkpt lat="59.5709943" lon="17.9659465">
        <ele>17.8</ele>
        <time>2012-03-24T11:41:50Z</time>
      </trkpt>
      <trkpt lat="59.5709877" lon="17.9661192">
        <ele>17.8</ele>
        <time>2012-03-24T11:41:51Z</time>
      </trkpt>
      <trkpt lat="59.5708738" lon="17.9667492">
        <ele>18.8</ele>
        <time>2012-03-24T11:41:55Z</time>
      </trkpt>
      <trkpt lat="59.5707007" lon="17.9674176">
        <ele>21.6</ele>
        <time>2012-03-24T11:42:00Z</time>
      </trkpt>
      <trkpt lat="59.5705525" lon="17.9681727">
        <ele>25</ele>
        <time>2012-03-24T11:42:06Z</time>
      </trkpt>
      <trkpt lat="59.5705211" lon="17.968971">
        <ele>24.8</ele>
        <time>2012-03-24T11:42:12Z</time>
      </trkpt>
      <trkpt lat="59.5705281" lon="17.9691223">
        <ele>24.2</ele>
        <time>2012-03-24T11:42:13Z</time>
      </trkpt>
      <trkpt lat="59.5706487" lon="17.9697455">
        <ele>22.8</ele>
        <time>2012-03-24T11:42:17Z</time>
      </trkpt>
      <trkpt lat="59.5706959" lon="17.9698941">
        <ele>22.4</ele>
        <time>2012-03-24T11:42:18Z</time>
      </trkpt>
      <trkpt lat="59.5708798" lon="17.9704987">
        <ele>22.2</ele>
        <time>2012-03-24T11:42:22Z</time>
      </trkpt>
      <trkpt lat="59.5710929" lon="17.9712204">
        <ele>22.6</ele>
        <time>2012-03-24T11:42:27Z</time>
      </trkpt>
      <trkpt lat="59.5712367" lon="17.9715944">
        <ele>22.4</ele>
        <time>2012-03-24T11:42:30Z</time>
      </trkpt>
      <trkpt lat="59.571347" lon="17.9718243">
        <ele>21.8</ele>
        <time>2012-03-24T11:42:32Z</time>
      </trkpt>
      <trkpt lat="59.5716118" lon="17.9724495">
        <ele>20.8</ele>
        <time>2012-03-24T11:42:37Z</time>
      </trkpt>
      <trkpt lat="59.5718288" lon="17.972939">
        <ele>20</ele>
        <time>2012-03-24T11:42:41Z</time>
      </trkpt>
      <trkpt lat="59.5718911" lon="17.9730411">
        <ele>19.8</ele>
        <time>2012-03-24T11:42:42Z</time>
      </trkpt>
      <trkpt lat="59.5720785" lon="17.9733752">
        <ele>18.6</ele>
        <time>2012-03-24T11:42:45Z</time>
      </trkpt>
      <trkpt lat="59.5721696" lon="17.9736833">
        <ele>17.8</ele>
        <time>2012-03-24T11:42:47Z</time>
      </trkpt>
      <trkpt lat="59.5722059" lon="17.974422">
        <ele>17.8</ele>
        <time>2012-03-24T11:42:51Z</time>
      </trkpt>
      <trkpt lat="59.5720105" lon="17.9751331">
        <ele>19.6</ele>
        <time>2012-03-24T11:42:56Z</time>
      </trkpt>
      <trkpt lat="59.5719551" lon="17.9752332">
        <ele>20</ele>
        <time>2012-03-24T11:42:57Z</time>
      </trkpt>
      <trkpt lat="59.5718098" lon="17.975557">
        <ele>20.8</ele>
        <time>2012-03-24T11:43:00Z</time>
      </trkpt>
      <trkpt lat="59.571776" lon="17.9756851">
        <ele>21</ele>
        <time>2012-03-24T11:43:01Z</time>
      </trkpt>
      <trkpt lat="59.5717838" lon="17.9763708">
        <ele>22.2</ele>
        <time>2012-03-24T11:43:06Z</time>
      </trkpt>
      <trkpt lat="59.571891" lon="17.9767188">
        <ele>22.4</ele>
        <time>2012-03-24T11:43:09Z</time>
      </trkpt>
      <trkpt lat="59.5720069" lon="17.977065">
        <ele>22.8</ele>
        <time>2012-03-24T11:43:12Z</time>
      </trkpt>
      <trkpt lat="59.5721085" lon="17.9775596">
        <ele>22.8</ele>
        <time>2012-03-24T11:43:16Z</time>
      </trkpt>
      <trkpt lat="59.5721282" lon="17.9778362">
        <ele>22.8</ele>
        <time>2012-03-24T11:43:18Z</time>
      </trkpt>
      <trkpt lat="59.5721127" lon="17.9785579">
        <ele>23.2</ele>
        <time>2012-03-24T11:43:23Z</time>
      </trkpt>
      <trkpt lat="59.5720828" lon="17.979273">
        <ele>24.2</ele>
        <time>2012-03-24T11:43:28Z</time>
      </trkpt>
      <trkpt lat="59.5719896" lon="17.9800999">
        <ele>25.6</ele>
        <time>2012-03-24T11:43:34Z</time>
      </trkpt>
      <trkpt lat="59.5719237" lon="17.9808115">
        <ele>25.8</ele>
        <time>2012-03-24T11:43:39Z</time>
      </trkpt>
      <trkpt lat="59.5718933" lon="17.9815701">
        <ele>26.8</ele>
        <time>2012-03-24T11:43:44Z</time>
      </trkpt>
      <trkpt lat="59.571843" lon="17.9823502">
        <ele>26.8</ele>
        <time>2012-03-24T11:43:49Z</time>
      </trkpt>
      <trkpt lat="59.5717665" lon="17.9831707">
        <ele>27</ele>
        <time>2012-03-24T11:43:54Z</time>
      </trkpt>
      <trkpt lat="59.5716482" lon="17.9840171">
        <ele>26.6</ele>
        <time>2012-03-24T11:43:59Z</time>
      </trkpt>
      <trkpt lat="59.5715068" lon="17.9847028">
        <ele>26.2</ele>
        <time>2012-03-24T11:44:03Z</time>
      </trkpt>
      <trkpt lat="59.5713606" lon="17.9853861">
        <ele>26.2</ele>
        <time>2012-03-24T11:44:07Z</time>
      </trkpt>
      <trkpt lat="59.571216" lon="17.986066">
        <ele>26.8</ele>
        <time>2012-03-24T11:44:11Z</time>
      </trkpt>
      <trkpt lat="59.5710794" lon="17.9867511">
        <ele>27.6</ele>
        <time>2012-03-24T11:44:15Z</time>
      </trkpt>
      <trkpt lat="59.5710301" lon="17.9872758">
        <ele>28.2</ele>
        <time>2012-03-24T11:44:18Z</time>
      </trkpt>
      <trkpt lat="59.5710277" lon="17.9874511">
        <ele>28.2</ele>
        <time>2012-03-24T11:44:19Z</time>
      </trkpt>
      <trkpt lat="59.571074" lon="17.9881399">
        <ele>27.8</ele>
        <time>2012-03-24T11:44:23Z</time>
      </trkpt>
      <trkpt lat="59.5710948" lon="17.9883066">
        <ele>27.8</ele>
        <time>2012-03-24T11:44:24Z</time>
      </trkpt>
      <trkpt lat="59.5712374" lon="17.989093">
        <ele>27.8</ele>
        <time>2012-03-24T11:44:29Z</time>
      </trkpt>
      <trkpt lat="59.5713838" lon="17.9898479">
        <ele>27.2</ele>
        <time>2012-03-24T11:44:34Z</time>
      </trkpt>
      <trkpt lat="59.5715315" lon="17.9906348">
        <ele>26</ele>
        <time>2012-03-24T11:44:39Z</time>
      </trkpt>
      <trkpt lat="59.5716812" lon="17.9914278">
        <ele>26</ele>
        <time>2012-03-24T11:44:44Z</time>
      </trkpt>
      <trkpt lat="59.5718247" lon="17.9921764">
        <ele>26.2</ele>
        <time>2012-03-24T11:44:49Z</time>
      </trkpt>
      <trkpt lat="59.571967" lon="17.9929357">
        <ele>25.8</ele>
        <time>2012-03-24T11:44:54Z</time>
      </trkpt>
      <trkpt lat="59.5721046" lon="17.9936973">
        <ele>26.2</ele>
        <time>2012-03-24T11:44:59Z</time>
      </trkpt>
      <trkpt lat="59.5722335" lon="17.9944084">
        <ele>26.6</ele>
        <time>2012-03-24T11:45:04Z</time>
      </trkpt>
      <trkpt lat="59.5723621" lon="17.9951295">
        <ele>25.8</ele>
        <time>2012-03-24T11:45:09Z</time>
      </trkpt>
      <trkpt lat="59.5725016" lon="17.9959112">
        <ele>24.6</ele>
        <time>2012-03-24T11:45:14Z</time>
      </trkpt>
      <trkpt lat="59.5726467" lon="17.9967601">
        <ele>22.8</ele>
        <time>2012-03-24T11:45:19Z</time>
      </trkpt>
      <trkpt lat="59.5727568" lon="17.9974479">
        <ele>22</ele>
        <time>2012-03-24T11:45:23Z</time>
      </trkpt>
      <trkpt lat="59.5729151" lon="17.9981002">
        <ele>21.2</ele>
        <time>2012-03-24T11:45:27Z</time>
      </trkpt>
      <trkpt lat="59.5731575" lon="17.9986689">
        <ele>20.4</ele>
        <time>2012-03-24T11:45:31Z</time>
      </trkpt>
      <trkpt lat="59.5734825" lon="17.9992521">
        <ele>20.6</ele>
        <time>2012-03-24T11:45:36Z</time>
      </trkpt>
      <trkpt lat="59.5737806" lon="17.9998072">
        <ele>20.6</ele>
        <time>2012-03-24T11:45:41Z</time>
      </trkpt>
      <trkpt lat="59.5740316" lon="18.0004225">
        <ele>20.4</ele>
        <time>2012-03-24T11:45:46Z</time>
      </trkpt>
      <trkpt lat="59.5742354" lon="18.0010966">
        <ele>20</ele>
        <time>2012-03-24T11:45:51Z</time>
      </trkpt>
      <trkpt lat="59.5744692" lon="18.0017834">
        <ele>20</ele>
        <time>2012-03-24T11:45:56Z</time>
      </trkpt>
      <trkpt lat="59.574693" lon="18.0024739">
        <ele>20</ele>
        <time>2012-03-24T11:46:01Z</time>
      </trkpt>
      <trkpt lat="59.5749192" lon="18.0031638">
        <ele>20</ele>
        <time>2012-03-24T11:46:06Z</time>
      </trkpt>
      <trkpt lat="59.5751778" lon="18.0038184">
        <ele>19.8</ele>
        <time>2012-03-24T11:46:11Z</time>
      </trkpt>
      <trkpt lat="59.5754493" lon="18.0044372">
        <ele>19.6</ele>
        <time>2012-03-24T11:46:16Z</time>
      </trkpt>
      <trkpt lat="59.5757017" lon="18.005067">
        <ele>19.4</ele>
        <time>2012-03-24T11:46:21Z</time>
      </trkpt>
      <trkpt lat="59.5758778" lon="18.005741">
        <ele>20</ele>
        <time>2012-03-24T11:46:26Z</time>
      </trkpt>
      <trkpt lat="59.5760429" lon="18.0064614">
        <ele>20</ele>
        <time>2012-03-24T11:46:31Z</time>
      </trkpt>
      <trkpt lat="59.5762144" lon="18.0071637">
        <ele>20.2</ele>
        <time>2012-03-24T11:46:36Z</time>
      </trkpt>
      <trkpt lat="59.5763994" lon="18.0079">
        <ele>20.4</ele>
        <time>2012-03-24T11:46:41Z</time>
      </trkpt>
      <trkpt lat="59.5765781" lon="18.0086794">
        <ele>20</ele>
        <time>2012-03-24T11:46:46Z</time>
      </trkpt>
      <trkpt lat="59.5767349" lon="18.0094752">
        <ele>20</ele>
        <time>2012-03-24T11:46:51Z</time>
      </trkpt>
      <trkpt lat="59.5769255" lon="18.0101972">
        <ele>20.4</ele>
        <time>2012-03-24T11:46:56Z</time>
      </trkpt>
      <trkpt lat="59.5771309" lon="18.0108863">
        <ele>21</ele>
        <time>2012-03-24T11:47:01Z</time>
      </trkpt>
      <trkpt lat="59.5772877" lon="18.0115345">
        <ele>22.2</ele>
        <time>2012-03-24T11:47:06Z</time>
      </trkpt>
      <trkpt lat="59.577427" lon="18.0122179">
        <ele>24</ele>
        <time>2012-03-24T11:47:12Z</time>
      </trkpt>
      <trkpt lat="59.5774969" lon="18.0124263">
        <ele>24.4</ele>
        <time>2012-03-24T11:47:14Z</time>
      </trkpt>
      <trkpt lat="59.5776886" lon="18.0127671">
        <ele>24.2</ele>
        <time>2012-03-24T11:47:18Z</time>
      </trkpt>
      <trkpt lat="59.5780057" lon="18.0132193">
        <ele>25</ele>
        <time>2012-03-24T11:47:24Z</time>
      </trkpt>
      <trkpt lat="59.5781432" lon="18.0135002">
        <ele>25.2</ele>
        <time>2012-03-24T11:47:27Z</time>
      </trkpt>
      <trkpt lat="59.5782424" lon="18.0138574">
        <ele>24.8</ele>
        <time>2012-03-24T11:47:30Z</time>
      </trkpt>
      <trkpt lat="59.5782668" lon="18.0139903">
        <ele>24.6</ele>
        <time>2012-03-24T11:47:31Z</time>
      </trkpt>
      <trkpt lat="59.5783502" lon="18.0145581">
        <ele>23.8</ele>
        <time>2012-03-24T11:47:35Z</time>
      </trkpt>
      <trkpt lat="59.5784311" lon="18.015291">
        <ele>23.2</ele>
        <time>2012-03-24T11:47:40Z</time>
      </trkpt>
      <trkpt lat="59.5785082" lon="18.0160214">
        <ele>22.8</ele>
        <time>2012-03-24T11:47:45Z</time>
      </trkpt>
      <trkpt lat="59.578676" lon="18.0167206">
        <ele>22.2</ele>
        <time>2012-03-24T11:47:50Z</time>
      </trkpt>
      <trkpt lat="59.5788714" lon="18.017391">
        <ele>22.2</ele>
        <time>2012-03-24T11:47:55Z</time>
      </trkpt>
      <trkpt lat="59.579076" lon="18.018058">
        <ele>22.4</ele>
        <time>2012-03-24T11:48:00Z</time>
      </trkpt>
      <trkpt lat="59.5792738" lon="18.0187073">
        <ele>22.4</ele>
        <time>2012-03-24T11:48:05Z</time>
      </trkpt>
      <trkpt lat="59.5794631" lon="18.0193189">
        <ele>22.6</ele>
        <time>2012-03-24T11:48:10Z</time>
      </trkpt>
      <trkpt lat="59.5796327" lon="18.0199717">
        <ele>22</ele>
        <time>2012-03-24T11:48:15Z</time>
      </trkpt>
      <trkpt lat="59.5798162" lon="18.0206823">
        <ele>20.6</ele>
        <time>2012-03-24T11:48:20Z</time>
      </trkpt>
      <trkpt lat="59.5800136" lon="18.0214594">
        <ele>19.8</ele>
        <time>2012-03-24T11:48:25Z</time>
      </trkpt>
      <trkpt lat="59.5801804" lon="18.0221235">
        <ele>19.6</ele>
        <time>2012-03-24T11:48:29Z</time>
      </trkpt>
      <trkpt lat="59.580315" lon="18.0228208">
        <ele>18.8</ele>
        <time>2012-03-24T11:48:33Z</time>
      </trkpt>
      <trkpt lat="59.5804166" lon="18.0235344">
        <ele>18.6</ele>
        <time>2012-03-24T11:48:37Z</time>
      </trkpt>
      <trkpt lat="59.580487" lon="18.023864">
        <ele>18.4</ele>
        <time>2012-03-24T11:48:39Z</time>
      </trkpt>
      <trkpt lat="59.5806309" lon="18.0243102">
        <ele>18.4</ele>
        <time>2012-03-24T11:48:42Z</time>
      </trkpt>
      <trkpt lat="59.5808781" lon="18.025018">
        <ele>18.2</ele>
        <time>2012-03-24T11:48:47Z</time>
      </trkpt>
      <trkpt lat="59.5811211" lon="18.0257202">
        <ele>18.2</ele>
        <time>2012-03-24T11:48:52Z</time>
      </trkpt>
      <trkpt lat="59.5813593" lon="18.0264028">
        <ele>18.2</ele>
        <time>2012-03-24T11:48:57Z</time>
      </trkpt>
      <trkpt lat="59.5815665" lon="18.0271234">
        <ele>18.2</ele>
        <time>2012-03-24T11:49:02Z</time>
      </trkpt>
      <trkpt lat="59.5817032" lon="18.0278754">
        <ele>18.6</ele>
        <time>2012-03-24T11:49:07Z</time>
      </trkpt>
      <trkpt lat="59.5817357" lon="18.0280185">
        <ele>18.8</ele>
        <time>2012-03-24T11:49:08Z</time>
      </trkpt>
      <trkpt lat="59.5819411" lon="18.0284272">
        <ele>20.2</ele>
        <time>2012-03-24T11:49:12Z</time>
      </trkpt>
      <trkpt lat="59.5820675" lon="18.0285437">
        <ele>21</ele>
        <time>2012-03-24T11:49:14Z</time>
      </trkpt>
      <trkpt lat="59.5822906" lon="18.0287497">
        <ele>22.6</ele>
        <time>2012-03-24T11:49:18Z</time>
      </trkpt>
      <trkpt lat="59.5826345" lon="18.0290897">
        <ele>24.4</ele>
        <time>2012-03-24T11:49:26Z</time>
      </trkpt>
      <trkpt lat="59.5829473" lon="18.0294851">
        <ele>27.2</ele>
        <time>2012-03-24T11:49:34Z</time>
      </trkpt>
      <trkpt lat="59.5829837" lon="18.0295477">
        <ele>27.4</ele>
        <time>2012-03-24T11:49:35Z</time>
      </trkpt>
      <trkpt lat="59.5832039" lon="18.0299957">
        <ele>29</ele>
        <time>2012-03-24T11:49:41Z</time>
      </trkpt>
      <trkpt lat="59.5832501" lon="18.0300807">
        <ele>29.2</ele>
        <time>2012-03-24T11:49:42Z</time>
      </trkpt>
      <trkpt lat="59.5835549" lon="18.0302825">
        <ele>29.4</ele>
        <time>2012-03-24T11:49:47Z</time>
      </trkpt>
      <trkpt lat="59.5837482" lon="18.030244">
        <ele>29.6</ele>
        <time>2012-03-24T11:49:50Z</time>
      </trkpt>
      <trkpt lat="59.5839358" lon="18.0301636">
        <ele>29.8</ele>
        <time>2012-03-24T11:49:53Z</time>
      </trkpt>
      <trkpt lat="59.5843022" lon="18.0300896">
        <ele>31.4</ele>
        <time>2012-03-24T11:49:59Z</time>
      </trkpt>
      <trkpt lat="59.5846973" lon="18.0302243">
        <ele>32.2</ele>
        <time>2012-03-24T11:50:06Z</time>
      </trkpt>
      <trkpt lat="59.5849833" lon="18.0304801">
        <ele>32.6</ele>
        <time>2012-03-24T11:50:11Z</time>
      </trkpt>
      <trkpt lat="59.5850382" lon="18.0305478">
        <ele>32.6</ele>
        <time>2012-03-24T11:50:12Z</time>
      </trkpt>
      <trkpt lat="59.5853882" lon="18.030995">
        <ele>32</ele>
        <time>2012-03-24T11:50:18Z</time>
      </trkpt>
      <trkpt lat="59.5857488" lon="18.0313788">
        <ele>31</ele>
        <time>2012-03-24T11:50:23Z</time>
      </trkpt>
      <trkpt lat="59.5859415" lon="18.0316798">
        <ele>30.8</ele>
        <time>2012-03-24T11:50:26Z</time>
      </trkpt>
      <trkpt lat="59.5860452" lon="18.0319208">
        <ele>30.6</ele>
        <time>2012-03-24T11:50:28Z</time>
      </trkpt>
      <trkpt lat="59.5861468" lon="18.0321672">
        <ele>30.2</ele>
        <time>2012-03-24T11:50:30Z</time>
      </trkpt>
      <trkpt lat="59.5863454" lon="18.0324799">
        <ele>29.2</ele>
        <time>2012-03-24T11:50:33Z</time>
      </trkpt>
      <trkpt lat="59.5864192" lon="18.0325646">
        <ele>29</ele>
        <time>2012-03-24T11:50:34Z</time>
      </trkpt>
      <trkpt lat="59.5867194" lon="18.0328194">
        <ele>29</ele>
        <time>2012-03-24T11:50:38Z</time>
      </trkpt>
      <trkpt lat="59.5870729" lon="18.0330634">
        <ele>29</ele>
        <time>2012-03-24T11:50:43Z</time>
      </trkpt>
      <trkpt lat="59.5874099" lon="18.0334089">
        <ele>29.2</ele>
        <time>2012-03-24T11:50:48Z</time>
      </trkpt>
      <trkpt lat="59.5877204" lon="18.0339294">
        <ele>29</ele>
        <time>2012-03-24T11:50:53Z</time>
      </trkpt>
      <trkpt lat="59.5879274" lon="18.0342371">
        <ele>28.2</ele>
        <time>2012-03-24T11:50:56Z</time>
      </trkpt>
      <trkpt lat="59.5880964" lon="18.0343377">
        <ele>27.6</ele>
        <time>2012-03-24T11:50:58Z</time>
      </trkpt>
      <trkpt lat="59.5882726" lon="18.034353">
        <ele>27.8</ele>
        <time>2012-03-24T11:51:00Z</time>
      </trkpt>
      <trkpt lat="59.5885148" lon="18.0343983">
        <ele>27.8</ele>
        <time>2012-03-24T11:51:03Z</time>
      </trkpt>
      <trkpt lat="59.5889117" lon="18.0345418">
        <ele>26.2</ele>
        <time>2012-03-24T11:51:08Z</time>
      </trkpt>
      <trkpt lat="59.5891672" lon="18.0346198">
        <ele>25</ele>
        <time>2012-03-24T11:51:11Z</time>
      </trkpt>
      <trkpt lat="59.5893303" lon="18.0347695">
        <ele>25.2</ele>
        <time>2012-03-24T11:51:13Z</time>
      </trkpt>
      <trkpt lat="59.5894773" lon="18.0349667">
        <ele>25</ele>
        <time>2012-03-24T11:51:15Z</time>
      </trkpt>
      <trkpt lat="59.5896962" lon="18.0352617">
        <ele>24.8</ele>
        <time>2012-03-24T11:51:18Z</time>
      </trkpt>
      <trkpt lat="59.590038" lon="18.0357928">
        <ele>24.4</ele>
        <time>2012-03-24T11:51:23Z</time>
      </trkpt>
      <trkpt lat="59.5903307" lon="18.0364642">
        <ele>23.8</ele>
        <time>2012-03-24T11:51:28Z</time>
      </trkpt>
      <trkpt lat="59.5905064" lon="18.0368213">
        <ele>23.4</ele>
        <time>2012-03-24T11:51:31Z</time>
      </trkpt>
      <trkpt lat="59.5906472" lon="18.0369651">
        <ele>23.4</ele>
        <time>2012-03-24T11:51:33Z</time>
      </trkpt>
      <trkpt lat="59.590878" lon="18.0370491">
        <ele>23.6</ele>
        <time>2012-03-24T11:51:36Z</time>
      </trkpt>
      <trkpt lat="59.5910289" lon="18.0370804">
        <ele>23.8</ele>
        <time>2012-03-24T11:51:38Z</time>
      </trkpt>
      <trkpt lat="59.5913906" lon="18.0372215">
        <ele>24.2</ele>
        <time>2012-03-24T11:51:43Z</time>
      </trkpt>
      <trkpt lat="59.5917505" lon="18.0374799">
        <ele>23.8</ele>
        <time>2012-03-24T11:51:48Z</time>
      </trkpt>
      <trkpt lat="59.5921049" lon="18.0378051">
        <ele>23.6</ele>
        <time>2012-03-24T11:51:53Z</time>
      </trkpt>
      <trkpt lat="59.5923453" lon="18.038389">
        <ele>23.8</ele>
        <time>2012-03-24T11:51:58Z</time>
      </trkpt>
      <trkpt lat="59.5924897" lon="18.0387444">
        <ele>23.6</ele>
        <time>2012-03-24T11:52:01Z</time>
      </trkpt>
      <trkpt lat="59.5926149" lon="18.0389179">
        <ele>23.4</ele>
        <time>2012-03-24T11:52:03Z</time>
      </trkpt>
      <trkpt lat="59.5927529" lon="18.0390375">
        <ele>23.4</ele>
        <time>2012-03-24T11:52:05Z</time>
      </trkpt>
      <trkpt lat="59.5929662" lon="18.03915">
        <ele>23.6</ele>
        <time>2012-03-24T11:52:08Z</time>
      </trkpt>
      <trkpt lat="59.5933186" lon="18.0393226">
        <ele>24.2</ele>
        <time>2012-03-24T11:52:13Z</time>
      </trkpt>
      <trkpt lat="59.593721" lon="18.039572">
        <ele>24.6</ele>
        <time>2012-03-24T11:52:19Z</time>
      </trkpt>
      <trkpt lat="59.5940914" lon="18.0398809">
        <ele>25.2</ele>
        <time>2012-03-24T11:52:25Z</time>
      </trkpt>
      <trkpt lat="59.5944582" lon="18.0401731">
        <ele>25.8</ele>
        <time>2012-03-24T11:52:31Z</time>
      </trkpt>
      <trkpt lat="59.594824" lon="18.0404238">
        <ele>26.4</ele>
        <time>2012-03-24T11:52:37Z</time>
      </trkpt>
      <trkpt lat="59.595172" lon="18.0406787">
        <ele>27.4</ele>
        <time>2012-03-24T11:52:43Z</time>
      </trkpt>
      <trkpt lat="59.5955139" lon="18.0409797">
        <ele>29.2</ele>
        <time>2012-03-24T11:52:49Z</time>
      </trkpt>
      <trkpt lat="59.5958519" lon="18.0412364">
        <ele>33</ele>
        <time>2012-03-24T11:52:56Z</time>
      </trkpt>
      <trkpt lat="59.5959857" lon="18.041384">
        <ele>34.6</ele>
        <time>2012-03-24T11:52:59Z</time>
      </trkpt>
      <trkpt lat="59.5961188" lon="18.0417534">
        <ele>35.4</ele>
        <time>2012-03-24T11:53:03Z</time>
      </trkpt>
      <trkpt lat="59.5962052" lon="18.0420629">
        <ele>35</ele>
        <time>2012-03-24T11:53:06Z</time>
      </trkpt>
      <trkpt lat="59.5963686" lon="18.0422488">
        <ele>34.6</ele>
        <time>2012-03-24T11:53:09Z</time>
      </trkpt>
      <trkpt lat="59.5965717" lon="18.0421622">
        <ele>34.6</ele>
        <time>2012-03-24T11:53:12Z</time>
      </trkpt>
      <trkpt lat="59.5967664" lon="18.0420401">
        <ele>34.2</ele>
        <time>2012-03-24T11:53:15Z</time>
      </trkpt>
      <trkpt lat="59.5970081" lon="18.0418901">
        <ele>33.4</ele>
        <time>2012-03-24T11:53:19Z</time>
      </trkpt>
      <trkpt lat="59.5971005" lon="18.0417841">
        <ele>33.6</ele>
        <time>2012-03-24T11:53:21Z</time>
      </trkpt>
      <trkpt lat="59.59723" lon="18.0415673">
        <ele>34</ele>
        <time>2012-03-24T11:53:24Z</time>
      </trkpt>
      <trkpt lat="59.5973699" lon="18.0413526">
        <ele>35</ele>
        <time>2012-03-24T11:53:27Z</time>
      </trkpt>
      <trkpt lat="59.5974259" lon="18.0412878">
        <ele>34.8</ele>
        <time>2012-03-24T11:53:28Z</time>
      </trkpt>
      <trkpt lat="59.597776" lon="18.0411262">
        <ele>33.6</ele>
        <time>2012-03-24T11:53:33Z</time>
      </trkpt>
      <trkpt lat="59.5981602" lon="18.0409716">
        <ele>33.2</ele>
        <time>2012-03-24T11:53:38Z</time>
      </trkpt>
      <trkpt lat="59.598231" lon="18.0409131">
        <ele>33.4</ele>
        <time>2012-03-24T11:53:39Z</time>
      </trkpt>
      <trkpt lat="59.5984858" lon="18.0405811">
        <ele>32</ele>
        <time>2012-03-24T11:53:43Z</time>
      </trkpt>
      <trkpt lat="59.5988348" lon="18.0401703">
        <ele>29.8</ele>
        <time>2012-03-24T11:53:48Z</time>
      </trkpt>
      <trkpt lat="59.599152" lon="18.0397802">
        <ele>29</ele>
        <time>2012-03-24T11:53:52Z</time>
      </trkpt>
      <trkpt lat="59.5992359" lon="18.0396937">
        <ele>28.6</ele>
        <time>2012-03-24T11:53:53Z</time>
      </trkpt>
      <trkpt lat="59.5995056" lon="18.0395815">
        <ele>27.8</ele>
        <time>2012-03-24T11:53:56Z</time>
      </trkpt>
      <trkpt lat="59.5996837" lon="18.039596">
        <ele>27.8</ele>
        <time>2012-03-24T11:53:58Z</time>
      </trkpt>
      <trkpt lat="59.599937" lon="18.0396375">
        <ele>27.8</ele>
        <time>2012-03-24T11:54:01Z</time>
      </trkpt>
      <trkpt lat="59.600319" lon="18.0397783">
        <ele>29.2</ele>
        <time>2012-03-24T11:54:06Z</time>
      </trkpt>
      <trkpt lat="59.6007147" lon="18.039841">
        <ele>30.8</ele>
        <time>2012-03-24T11:54:12Z</time>
      </trkpt>
      <trkpt lat="59.6011137" lon="18.0396337">
        <ele>30.8</ele>
        <time>2012-03-24T11:54:18Z</time>
      </trkpt>
      <trkpt lat="59.6014434" lon="18.0391365">
        <ele>32.4</ele>
        <time>2012-03-24T11:54:24Z</time>
      </trkpt>
      <trkpt lat="59.6016169" lon="18.0387267">
        <ele>33</ele>
        <time>2012-03-24T11:54:28Z</time>
      </trkpt>
      <trkpt lat="59.6016849" lon="18.0384914">
        <ele>33.2</ele>
        <time>2012-03-24T11:54:30Z</time>
      </trkpt>
      <trkpt lat="59.601831" lon="18.0380534">
        <ele>34.4</ele>
        <time>2012-03-24T11:54:34Z</time>
      </trkpt>
      <trkpt lat="59.601929" lon="18.0378918">
        <ele>34.8</ele>
        <time>2012-03-24T11:54:36Z</time>
      </trkpt>
      <trkpt lat="59.6022647" lon="18.0376629">
        <ele>35</ele>
        <time>2012-03-24T11:54:41Z</time>
      </trkpt>
      <trkpt lat="59.6025817" lon="18.0371562">
        <ele>31.6</ele>
        <time>2012-03-24T11:54:46Z</time>
      </trkpt>
      <trkpt lat="59.602694" lon="18.0368739">
        <ele>30.4</ele>
        <time>2012-03-24T11:54:48Z</time>
      </trkpt>
      <trkpt lat="59.602837" lon="18.0366392">
        <ele>29</ele>
        <time>2012-03-24T11:54:50Z</time>
      </trkpt>
      <trkpt lat="59.6031898" lon="18.0363406">
        <ele>26.8</ele>
        <time>2012-03-24T11:54:54Z</time>
      </trkpt>
      <trkpt lat="59.6035364" lon="18.0360866">
        <ele>25.6</ele>
        <time>2012-03-24T11:54:58Z</time>
      </trkpt>
      <trkpt lat="59.6037755" lon="18.0354318">
        <ele>25</ele>
        <time>2012-03-24T11:55:03Z</time>
      </trkpt>
      <trkpt lat="59.6039357" lon="18.0347205">
        <ele>24.2</ele>
        <time>2012-03-24T11:55:08Z</time>
      </trkpt>
      <trkpt lat="59.6040896" lon="18.0340383">
        <ele>23.8</ele>
        <time>2012-03-24T11:55:13Z</time>
      </trkpt>
      <trkpt lat="59.6042532" lon="18.0332808">
        <ele>24</ele>
        <time>2012-03-24T11:55:19Z</time>
      </trkpt>
      <trkpt lat="59.6043883" lon="18.0326091">
        <ele>26</ele>
        <time>2012-03-24T11:55:25Z</time>
      </trkpt>
      <trkpt lat="59.6045361" lon="18.0320639">
        <ele>27.8</ele>
        <time>2012-03-24T11:55:31Z</time>
      </trkpt>
      <trkpt lat="59.6045675" lon="18.0319936">
        <ele>28.2</ele>
        <time>2012-03-24T11:55:32Z</time>
      </trkpt>
      <trkpt lat="59.6048454" lon="18.0318775">
        <ele>28.8</ele>
        <time>2012-03-24T11:55:38Z</time>
      </trkpt>
      <trkpt lat="59.6049508" lon="18.0319265">
        <ele>28.6</ele>
        <time>2012-03-24T11:55:40Z</time>
      </trkpt>
      <trkpt lat="59.605253" lon="18.0320982">
        <ele>28</ele>
        <time>2012-03-24T11:55:45Z</time>
      </trkpt>
      <trkpt lat="59.6053269" lon="18.0321096">
        <ele>27.2</ele>
        <time>2012-03-24T11:55:46Z</time>
      </trkpt>
      <trkpt lat="59.6055647" lon="18.0320891">
        <ele>25</ele>
        <time>2012-03-24T11:55:49Z</time>
      </trkpt>
      <trkpt lat="59.6057278" lon="18.0319946">
        <ele>23.8</ele>
        <time>2012-03-24T11:55:51Z</time>
      </trkpt>
      <trkpt lat="59.6060125" lon="18.0316267">
        <ele>23.4</ele>
        <time>2012-03-24T11:55:55Z</time>
      </trkpt>
      <trkpt lat="59.6060745" lon="18.0315174">
        <ele>23.4</ele>
        <time>2012-03-24T11:55:56Z</time>
      </trkpt>
      <trkpt lat="59.606349" lon="18.0309671">
        <ele>24.4</ele>
        <time>2012-03-24T11:56:01Z</time>
      </trkpt>
      <trkpt lat="59.6065963" lon="18.0303293">
        <ele>25</ele>
        <time>2012-03-24T11:56:07Z</time>
      </trkpt>
      <trkpt lat="59.6068189" lon="18.0297735">
        <ele>27</ele>
        <time>2012-03-24T11:56:13Z</time>
      </trkpt>
      <trkpt lat="59.6070249" lon="18.0292224">
        <ele>29</ele>
        <time>2012-03-24T11:56:19Z</time>
      </trkpt>
      <trkpt lat="59.6070541" lon="18.0291291">
        <ele>29.4</ele>
        <time>2012-03-24T11:56:20Z</time>
      </trkpt>
      <trkpt lat="59.6070801" lon="18.0290333">
        <ele>29.8</ele>
        <time>2012-03-24T11:56:21Z</time>
      </trkpt>
      <trkpt lat="59.6071462" lon="18.0284252">
        <ele>33</ele>
        <time>2012-03-24T11:56:27Z</time>
      </trkpt>
      <trkpt lat="59.6071819" lon="18.0277197">
        <ele>35</ele>
        <time>2012-03-24T11:56:34Z</time>
      </trkpt>
      <trkpt lat="59.607184" lon="18.027537">
        <ele>35.6</ele>
        <time>2012-03-24T11:56:36Z</time>
      </trkpt>
      <trkpt lat="59.6071427" lon="18.0272314">
        <ele>37.8</ele>
        <time>2012-03-24T11:56:40Z</time>
      </trkpt>
      <trkpt lat="59.6070912" lon="18.0270488">
        <ele>39.4</ele>
        <time>2012-03-24T11:56:43Z</time>
      </trkpt>
      <trkpt lat="59.6070179" lon="18.0266441">
        <ele>39.8</ele>
        <time>2012-03-24T11:56:49Z</time>
      </trkpt>
      <trkpt lat="59.6070886" lon="18.0263965">
        <ele>40.2</ele>
        <time>2012-03-24T11:56:52Z</time>
      </trkpt>
      <trkpt lat="59.607164" lon="18.0262436">
        <ele>41.6</ele>
        <time>2012-03-24T11:56:54Z</time>
      </trkpt>
      <trkpt lat="59.6073395" lon="18.0258435">
        <ele>43.6</ele>
        <time>2012-03-24T11:56:59Z</time>
      </trkpt>
      <trkpt lat="59.607603" lon="18.0253661">
        <ele>43.8</ele>
        <time>2012-03-24T11:57:05Z</time>
      </trkpt>
      <trkpt lat="59.6076595" lon="18.0252575">
        <ele>42.8</ele>
        <time>2012-03-24T11:57:06Z</time>
      </trkpt>
      <trkpt lat="59.6078658" lon="18.0246976">
        <ele>38</ele>
        <time>2012-03-24T11:57:10Z</time>
      </trkpt>
      <trkpt lat="59.6079473" lon="18.0244005">
        <ele>36.6</ele>
        <time>2012-03-24T11:57:12Z</time>
      </trkpt>
      <trkpt lat="59.6079724" lon="18.0239242">
        <ele>36</ele>
        <time>2012-03-24T11:57:15Z</time>
      </trkpt>
      <trkpt lat="59.6079663" lon="18.0237702">
        <ele>36</ele>
        <time>2012-03-24T11:57:16Z</time>
      </trkpt>
      <trkpt lat="59.6079576" lon="18.0231829">
        <ele>36</ele>
        <time>2012-03-24T11:57:20Z</time>
      </trkpt>
      <trkpt lat="59.6080078" lon="18.0224191">
        <ele>36.8</ele>
        <time>2012-03-24T11:57:26Z</time>
      </trkpt>
      <trkpt lat="59.6080244" lon="18.0220914">
        <ele>36.8</ele>
        <time>2012-03-24T11:57:29Z</time>
      </trkpt>
      <trkpt lat="59.6080109" lon="18.0216848">
        <ele>36.2</ele>
        <time>2012-03-24T11:57:33Z</time>
      </trkpt>
      <trkpt lat="59.6079082" lon="18.0208783">
        <ele>33.4</ele>
        <time>2012-03-24T11:57:40Z</time>
      </trkpt>
      <trkpt lat="59.6077736" lon="18.020154">
        <ele>34</ele>
        <time>2012-03-24T11:57:46Z</time>
      </trkpt>
      <trkpt lat="59.6077172" lon="18.0199115">
        <ele>32.8</ele>
        <time>2012-03-24T11:57:48Z</time>
      </trkpt>
      <trkpt lat="59.6075667" lon="18.0195733">
        <ele>31.8</ele>
        <time>2012-03-24T11:57:51Z</time>
      </trkpt>
      <trkpt lat="59.6074295" lon="18.0193737">
        <ele>31.2</ele>
        <time>2012-03-24T11:57:53Z</time>
      </trkpt>
      <trkpt lat="59.6072138" lon="18.0190883">
        <ele>31.2</ele>
        <time>2012-03-24T11:57:56Z</time>
      </trkpt>
      <trkpt lat="59.6068776" lon="18.0186574">
        <ele>30.6</ele>
        <time>2012-03-24T11:58:01Z</time>
      </trkpt>
      <trkpt lat="59.606737" lon="18.018359">
        <ele>29.4</ele>
        <time>2012-03-24T11:58:04Z</time>
      </trkpt>
      <trkpt lat="59.6066512" lon="18.017986">
        <ele>29.2</ele>
        <time>2012-03-24T11:58:07Z</time>
      </trkpt>
      <trkpt lat="59.6066371" lon="18.0178625">
        <ele>29.4</ele>
        <time>2012-03-24T11:58:08Z</time>
      </trkpt>
      <trkpt lat="59.6066226" lon="18.017611">
        <ele>29.8</ele>
        <time>2012-03-24T11:58:10Z</time>
      </trkpt>
      <trkpt lat="59.6066376" lon="18.0172206">
        <ele>31.2</ele>
        <time>2012-03-24T11:58:13Z</time>
      </trkpt>
      <trkpt lat="59.6066345" lon="18.0164126">
        <ele>34.6</ele>
        <time>2012-03-24T11:58:19Z</time>
      </trkpt>
      <trkpt lat="59.6066164" lon="18.0162809">
        <ele>34.6</ele>
        <time>2012-03-24T11:58:20Z</time>
      </trkpt>
      <trkpt lat="59.6065164" lon="18.0156625">
        <ele>35</ele>
        <time>2012-03-24T11:58:25Z</time>
      </trkpt>
      <trkpt lat="59.6064299" lon="18.014886">
        <ele>36.2</ele>
        <time>2012-03-24T11:58:31Z</time>
      </trkpt>
      <trkpt lat="59.6063661" lon="18.014415">
        <ele>35.8</ele>
        <time>2012-03-24T11:58:35Z</time>
      </trkpt>
      <trkpt lat="59.6063215" lon="18.0142072">
        <ele>35.8</ele>
        <time>2012-03-24T11:58:37Z</time>
      </trkpt>
      <trkpt lat="59.6061884" lon="18.0135532">
        <ele>36</ele>
        <time>2012-03-24T11:58:43Z</time>
      </trkpt>
      <trkpt lat="59.6060941" lon="18.0128304">
        <ele>36.4</ele>
        <time>2012-03-24T11:58:49Z</time>
      </trkpt>
      <trkpt lat="59.6060112" lon="18.0120871">
        <ele>37</ele>
        <time>2012-03-24T11:58:55Z</time>
      </trkpt>
      <trkpt lat="59.6059226" lon="18.0113412">
        <ele>37.2</ele>
        <time>2012-03-24T11:59:01Z</time>
      </trkpt>
      <trkpt lat="59.6059191" lon="18.010792">
        <ele>36.6</ele>
        <time>2012-03-24T11:59:05Z</time>
      </trkpt>
      <trkpt lat="59.6059502" lon="18.0105099">
        <ele>36.4</ele>
        <time>2012-03-24T11:59:07Z</time>
      </trkpt>
      <trkpt lat="59.6060451" lon="18.0098139">
        <ele>34</ele>
        <time>2012-03-24T11:59:12Z</time>
      </trkpt>
      <trkpt lat="59.6061161" lon="18.0091192">
        <ele>31.6</ele>
        <time>2012-03-24T11:59:17Z</time>
      </trkpt>
      <trkpt lat="59.6062077" lon="18.0084275">
        <ele>29.6</ele>
        <time>2012-03-24T11:59:22Z</time>
      </trkpt>
      <trkpt lat="59.6063609" lon="18.0078689">
        <ele>28.2</ele>
        <time>2012-03-24T11:59:26Z</time>
      </trkpt>
      <trkpt lat="59.6064148" lon="18.0077518">
        <ele>27.8</ele>
        <time>2012-03-24T11:59:27Z</time>
      </trkpt>
      <trkpt lat="59.6067646" lon="18.0074602">
        <ele>29</ele>
        <time>2012-03-24T11:59:32Z</time>
      </trkpt>
      <trkpt lat="59.6069396" lon="18.0073784">
        <ele>31.4</ele>
        <time>2012-03-24T11:59:35Z</time>
      </trkpt>
      <trkpt lat="59.6070862" lon="18.0072727">
        <ele>32.4</ele>
        <time>2012-03-24T11:59:38Z</time>
      </trkpt>
      <trkpt lat="59.6072147" lon="18.0071366">
        <ele>32</ele>
        <time>2012-03-24T11:59:41Z</time>
      </trkpt>
      <trkpt lat="59.607374" lon="18.0068105">
        <ele>30</ele>
        <time>2012-03-24T11:59:45Z</time>
      </trkpt>
      <trkpt lat="59.6074761" lon="18.0064039">
        <ele>29.6</ele>
        <time>2012-03-24T11:59:48Z</time>
      </trkpt>
      <trkpt lat="59.6075355" lon="18.006088">
        <ele>29.2</ele>
        <time>2012-03-24T11:59:50Z</time>
      </trkpt>
      <trkpt lat="59.6075939" lon="18.0057772">
        <ele>29</ele>
        <time>2012-03-24T11:59:52Z</time>
      </trkpt>
      <trkpt lat="59.6076627" lon="18.0054825">
        <ele>27.6</ele>
        <time>2012-03-24T11:59:54Z</time>
      </trkpt>
      <trkpt lat="59.6077066" lon="18.0053486">
        <ele>26.8</ele>
        <time>2012-03-24T11:59:55Z</time>
      </trkpt>
      <trkpt lat="59.6080475" lon="18.0048314">
        <ele>26.2</ele>
        <time>2012-03-24T12:00:00Z</time>
      </trkpt>
      <trkpt lat="59.6083124" lon="18.0045551">
        <ele>27.2</ele>
        <time>2012-03-24T12:00:04Z</time>
      </trkpt>
      <trkpt lat="59.6084127" lon="18.0043929">
        <ele>27.6</ele>
        <time>2012-03-24T12:00:06Z</time>
      </trkpt>
      <trkpt lat="59.6084905" lon="18.0042134">
        <ele>28</ele>
        <time>2012-03-24T12:00:08Z</time>
      </trkpt>
      <trkpt lat="59.6085188" lon="18.0041273">
        <ele>28.4</ele>
        <time>2012-03-24T12:00:09Z</time>
      </trkpt>
      <trkpt lat="59.60858" lon="18.0038647">
        <ele>28.2</ele>
        <time>2012-03-24T12:00:12Z</time>
      </trkpt>
      <trkpt lat="59.6085921" lon="18.0037667">
        <ele>28</ele>
        <time>2012-03-24T12:00:13Z</time>
      </trkpt>
      <trkpt lat="59.6086818" lon="18.002957">
        <ele>26.8</ele>
        <time>2012-03-24T12:00:20Z</time>
      </trkpt>
      <trkpt lat="59.6087547" lon="18.0022309">
        <ele>28.2</ele>
        <time>2012-03-24T12:00:27Z</time>
      </trkpt>
      <trkpt lat="59.6087143" lon="18.001471">
        <ele>29</ele>
        <time>2012-03-24T12:00:35Z</time>
      </trkpt>
      <trkpt lat="59.6085983" lon="18.0006625">
        <ele>29</ele>
        <time>2012-03-24T12:00:42Z</time>
      </trkpt>
      <trkpt lat="59.6085966" lon="17.9998646">
        <ele>30</ele>
        <time>2012-03-24T12:00:48Z</time>
      </trkpt>
      <trkpt lat="59.6086159" lon="17.9996056">
        <ele>30.4</ele>
        <time>2012-03-24T12:00:50Z</time>
      </trkpt>
      <trkpt lat="59.6086893" lon="17.9991078">
        <ele>29.8</ele>
        <time>2012-03-24T12:00:54Z</time>
      </trkpt>
      <trkpt lat="59.6087168" lon="17.9988622">
        <ele>30</ele>
        <time>2012-03-24T12:00:56Z</time>
      </trkpt>
      <trkpt lat="59.6086878" lon="17.9983508">
        <ele>29.4</ele>
        <time>2012-03-24T12:01:00Z</time>
      </trkpt>
      <trkpt lat="59.6086806" lon="17.9980875">
        <ele>29.6</ele>
        <time>2012-03-24T12:01:02Z</time>
      </trkpt>
      <trkpt lat="59.6088045" lon="17.9975885">
        <ele>28.8</ele>
        <time>2012-03-24T12:01:06Z</time>
      </trkpt>
      <trkpt lat="59.6088512" lon="17.9974772">
        <ele>28.6</ele>
        <time>2012-03-24T12:01:07Z</time>
      </trkpt>
      <trkpt lat="59.6091065" lon="17.9969875">
        <ele>27.8</ele>
        <time>2012-03-24T12:01:12Z</time>
      </trkpt>
      <trkpt lat="59.6094078" lon="17.9964257">
        <ele>28.2</ele>
        <time>2012-03-24T12:01:18Z</time>
      </trkpt>
      <trkpt lat="59.6094878" lon="17.9962075">
        <ele>28</ele>
        <time>2012-03-24T12:01:20Z</time>
      </trkpt>
      <trkpt lat="59.6096219" lon="17.9957497">
        <ele>28.6</ele>
        <time>2012-03-24T12:01:24Z</time>
      </trkpt>
      <trkpt lat="59.6097736" lon="17.9952801">
        <ele>27.2</ele>
        <time>2012-03-24T12:01:28Z</time>
      </trkpt>
      <trkpt lat="59.6098074" lon="17.9951311">
        <ele>26.4</ele>
        <time>2012-03-24T12:01:29Z</time>
      </trkpt>
      <trkpt lat="59.6098747" lon="17.9944053">
        <ele>24.4</ele>
        <time>2012-03-24T12:01:33Z</time>
      </trkpt>
      <trkpt lat="59.6098917" lon="17.9936558">
        <ele>24.4</ele>
        <time>2012-03-24T12:01:37Z</time>
      </trkpt>
      <trkpt lat="59.6099311" lon="17.9928815">
        <ele>25.2</ele>
        <time>2012-03-24T12:01:42Z</time>
      </trkpt>
      <trkpt lat="59.6101724" lon="17.9922824">
        <ele>25.8</ele>
        <time>2012-03-24T12:01:48Z</time>
      </trkpt>
      <trkpt lat="59.6105159" lon="17.9918572">
        <ele>26.8</ele>
        <time>2012-03-24T12:01:55Z</time>
      </trkpt>
      <trkpt lat="59.6106083" lon="17.9917486">
        <ele>27.4</ele>
        <time>2012-03-24T12:01:57Z</time>
      </trkpt>
      <trkpt lat="59.6108667" lon="17.9916775">
        <ele>28.4</ele>
        <time>2012-03-24T12:02:02Z</time>
      </trkpt>
      <trkpt lat="59.6111462" lon="17.9917085">
        <ele>30.6</ele>
        <time>2012-03-24T12:02:08Z</time>
      </trkpt>
      <trkpt lat="59.6112377" lon="17.9916742">
        <ele>31.2</ele>
        <time>2012-03-24T12:02:10Z</time>
      </trkpt>
      <trkpt lat="59.6114629" lon="17.991122">
        <ele>35.4</ele>
        <time>2012-03-24T12:02:18Z</time>
      </trkpt>
      <trkpt lat="59.6114896" lon="17.9909241">
        <ele>36</ele>
        <time>2012-03-24T12:02:20Z</time>
      </trkpt>
      <trkpt lat="59.6115417" lon="17.9903033">
        <ele>36.2</ele>
        <time>2012-03-24T12:02:25Z</time>
      </trkpt>
      <trkpt lat="59.6116171" lon="17.9895061">
        <ele>36.8</ele>
        <time>2012-03-24T12:02:31Z</time>
      </trkpt>
      <trkpt lat="59.611636" lon="17.9893802">
        <ele>37</ele>
        <time>2012-03-24T12:02:33Z</time>
      </trkpt>
      <trkpt lat="59.6117825" lon="17.9888241">
        <ele>38.4</ele>
        <time>2012-03-24T12:02:37Z</time>
      </trkpt>
      <trkpt lat="59.6118784" lon="17.9883798">
        <ele>38.4</ele>
        <time>2012-03-24T12:02:41Z</time>
      </trkpt>
      <trkpt lat="59.6118975" lon="17.9881325">
        <ele>38.6</ele>
        <time>2012-03-24T12:02:43Z</time>
      </trkpt>
      <trkpt lat="59.6118898" lon="17.9877375">
        <ele>37.8</ele>
        <time>2012-03-24T12:02:46Z</time>
      </trkpt>
      <trkpt lat="59.6118581" lon="17.9873194">
        <ele>37.2</ele>
        <time>2012-03-24T12:02:49Z</time>
      </trkpt>
      <trkpt lat="59.611821" lon="17.9864803">
        <ele>36.2</ele>
        <time>2012-03-24T12:02:55Z</time>
      </trkpt>
      <trkpt lat="59.6117899" lon="17.9856984">
        <ele>36.6</ele>
        <time>2012-03-24T12:03:01Z</time>
      </trkpt>
      <trkpt lat="59.6117327" lon="17.9853403">
        <ele>36.6</ele>
        <time>2012-03-24T12:03:04Z</time>
      </trkpt>
      <trkpt lat="59.6116219" lon="17.9850165">
        <ele>36.4</ele>
        <time>2012-03-24T12:03:07Z</time>
      </trkpt>
      <trkpt lat="59.6115768" lon="17.9849119">
        <ele>36.2</ele>
        <time>2012-03-24T12:03:08Z</time>
      </trkpt>
      <trkpt lat="59.6113746" lon="17.9844875">
        <ele>35</ele>
        <time>2012-03-24T12:03:12Z</time>
      </trkpt>
      <trkpt lat="59.6112556" lon="17.9843134">
        <ele>35</ele>
        <time>2012-03-24T12:03:14Z</time>
      </trkpt>
      <trkpt lat="59.6110345" lon="17.9841501">
        <ele>35</ele>
        <time>2012-03-24T12:03:17Z</time>
      </trkpt>
      <trkpt lat="59.610953" lon="17.9841165">
        <ele>34.8</ele>
        <time>2012-03-24T12:03:18Z</time>
      </trkpt>
      <trkpt lat="59.6107025" lon="17.9839949">
        <ele>34.2</ele>
        <time>2012-03-24T12:03:21Z</time>
      </trkpt>
      <trkpt lat="59.6106246" lon="17.9839118">
        <ele>34</ele>
        <time>2012-03-24T12:03:22Z</time>
      </trkpt>
      <trkpt lat="59.6104151" lon="17.9831581">
        <ele>32.4</ele>
        <time>2012-03-24T12:03:27Z</time>
      </trkpt>
      <trkpt lat="59.6103015" lon="17.9822995">
        <ele>31</ele>
        <time>2012-03-24T12:03:32Z</time>
      </trkpt>
      <trkpt lat="59.6101813" lon="17.9815223">
        <ele>30.2</ele>
        <time>2012-03-24T12:03:37Z</time>
      </trkpt>
      <trkpt lat="59.610112" lon="17.9812446">
        <ele>30</ele>
        <time>2012-03-24T12:03:39Z</time>
      </trkpt>
      <trkpt lat="59.6099369" lon="17.9809459">
        <ele>29.6</ele>
        <time>2012-03-24T12:03:42Z</time>
      </trkpt>
      <trkpt lat="59.6096298" lon="17.9808328">
        <ele>30</ele>
        <time>2012-03-24T12:03:46Z</time>
      </trkpt>
      <trkpt lat="59.6095509" lon="17.9808268">
        <ele>30</ele>
        <time>2012-03-24T12:03:47Z</time>
      </trkpt>
      <trkpt lat="59.609472" lon="17.9808076">
        <ele>30</ele>
        <time>2012-03-24T12:03:48Z</time>
      </trkpt>
      <trkpt lat="59.6092048" lon="17.9804797">
        <ele>30</ele>
        <time>2012-03-24T12:03:52Z</time>
      </trkpt>
      <trkpt lat="59.6091104" lon="17.9802303">
        <ele>29.6</ele>
        <time>2012-03-24T12:03:54Z</time>
      </trkpt>
      <trkpt lat="59.6090128" lon="17.9800071">
        <ele>29.8</ele>
        <time>2012-03-24T12:03:56Z</time>
      </trkpt>
      <trkpt lat="59.6089573" lon="17.9799079">
        <ele>30</ele>
        <time>2012-03-24T12:03:57Z</time>
      </trkpt>
      <trkpt lat="59.6089042" lon="17.9798045">
        <ele>29.8</ele>
        <time>2012-03-24T12:03:58Z</time>
      </trkpt>
      <trkpt lat="59.6088252" lon="17.9792309">
        <ele>29</ele>
        <time>2012-03-24T12:04:02Z</time>
      </trkpt>
      <trkpt lat="59.6088343" lon="17.9783898">
        <ele>27.6</ele>
        <time>2012-03-24T12:04:08Z</time>
      </trkpt>
      <trkpt lat="59.6089302" lon="17.9776441">
        <ele>26.2</ele>
        <time>2012-03-24T12:04:14Z</time>
      </trkpt>
      <trkpt lat="59.6090952" lon="17.9769105">
        <ele>26</ele>
        <time>2012-03-24T12:04:21Z</time>
      </trkpt>
      <trkpt lat="59.6094116" lon="17.9767318">
        <ele>26.4</ele>
        <time>2012-03-24T12:04:27Z</time>
      </trkpt>
      <trkpt lat="59.6094695" lon="17.9767335">
        <ele>26.6</ele>
        <time>2012-03-24T12:04:28Z</time>
      </trkpt>
      <trkpt lat="59.609881" lon="17.9767223">
        <ele>27.8</ele>
        <time>2012-03-24T12:04:35Z</time>
      </trkpt>
      <trkpt lat="59.6099978" lon="17.9766776">
        <ele>28.6</ele>
        <time>2012-03-24T12:04:37Z</time>
      </trkpt>
      <trkpt lat="59.6101074" lon="17.9762843">
        <ele>31.2</ele>
        <time>2012-03-24T12:04:42Z</time>
      </trkpt>
      <trkpt lat="59.6100854" lon="17.9760585">
        <ele>31.8</ele>
        <time>2012-03-24T12:04:44Z</time>
      </trkpt>
      <trkpt lat="59.6100389" lon="17.9754919">
        <ele>32.6</ele>
        <time>2012-03-24T12:04:49Z</time>
      </trkpt>
      <trkpt lat="59.6099781" lon="17.9746889">
        <ele>32.4</ele>
        <time>2012-03-24T12:04:56Z</time>
      </trkpt>
      <trkpt lat="59.6099674" lon="17.9742949">
        <ele>32</ele>
        <time>2012-03-24T12:04:59Z</time>
      </trkpt>
      <trkpt lat="59.6099901" lon="17.9738761">
        <ele>31.4</ele>
        <time>2012-03-24T12:05:02Z</time>
      </trkpt>
      <trkpt lat="59.6100974" lon="17.9730956">
        <ele>30.4</ele>
        <time>2012-03-24T12:05:08Z</time>
      </trkpt>
      <trkpt lat="59.6101014" lon="17.9723593">
        <ele>30.8</ele>
        <time>2012-03-24T12:05:14Z</time>
      </trkpt>
      <trkpt lat="59.6100864" lon="17.9716137">
        <ele>31.6</ele>
        <time>2012-03-24T12:05:20Z</time>
      </trkpt>
      <trkpt lat="59.6101068" lon="17.9708111">
        <ele>31.6</ele>
        <time>2012-03-24T12:05:26Z</time>
      </trkpt>
      <trkpt lat="59.6101633" lon="17.9699918">
        <ele>31.8</ele>
        <time>2012-03-24T12:05:32Z</time>
      </trkpt>
      <trkpt lat="59.6102979" lon="17.9692866">
        <ele>33.2</ele>
        <time>2012-03-24T12:05:38Z</time>
      </trkpt>
      <trkpt lat="59.6104831" lon="17.968616">
        <ele>32</ele>
        <time>2012-03-24T12:05:44Z</time>
      </trkpt>
      <trkpt lat="59.6107253" lon="17.9680381">
        <ele>32.8</ele>
        <time>2012-03-24T12:05:50Z</time>
      </trkpt>
      <trkpt lat="59.6107605" lon="17.9679335">
        <ele>32.6</ele>
        <time>2012-03-24T12:05:51Z</time>
      </trkpt>
      <trkpt lat="59.6108281" lon="17.9673109">
        <ele>31.6</ele>
        <time>2012-03-24T12:05:56Z</time>
      </trkpt>
      <trkpt lat="59.610824" lon="17.9671762">
        <ele>31.4</ele>
        <time>2012-03-24T12:05:57Z</time>
      </trkpt>
      <trkpt lat="59.6108225" lon="17.9664934">
        <ele>30.6</ele>
        <time>2012-03-24T12:06:02Z</time>
      </trkpt>
      <trkpt lat="59.6109471" lon="17.9657255">
        <ele>29.6</ele>
        <time>2012-03-24T12:06:08Z</time>
      </trkpt>
      <trkpt lat="59.6110956" lon="17.9650104">
        <ele>28.6</ele>
        <time>2012-03-24T12:06:14Z</time>
      </trkpt>
      <trkpt lat="59.6112468" lon="17.9643034">
        <ele>27.8</ele>
        <time>2012-03-24T12:06:20Z</time>
      </trkpt>
      <trkpt lat="59.611398" lon="17.963603">
        <ele>28</ele>
        <time>2012-03-24T12:06:26Z</time>
      </trkpt>
      <trkpt lat="59.6115482" lon="17.9629082">
        <ele>28.4</ele>
        <time>2012-03-24T12:06:32Z</time>
      </trkpt>
      <trkpt lat="59.6117072" lon="17.9621685">
        <ele>29.2</ele>
        <time>2012-03-24T12:06:39Z</time>
      </trkpt>
      <trkpt lat="59.6118716" lon="17.9614231">
        <ele>30</ele>
        <time>2012-03-24T12:06:46Z</time>
      </trkpt>
      <trkpt lat="59.6120249" lon="17.9607783">
        <ele>31</ele>
        <time>2012-03-24T12:06:52Z</time>
      </trkpt>
      <trkpt lat="59.612198" lon="17.960082">
        <ele>32.6</ele>
        <time>2012-03-24T12:06:59Z</time>
      </trkpt>
      <trkpt lat="59.6122433" lon="17.9598883">
        <ele>32.8</ele>
        <time>2012-03-24T12:07:01Z</time>
      </trkpt>
      <trkpt lat="59.6123746" lon="17.9594332">
        <ele>33.2</ele>
        <time>2012-03-24T12:07:06Z</time>
      </trkpt>
      <trkpt lat="59.6125394" lon="17.9586905">
        <ele>34.2</ele>
        <time>2012-03-24T12:07:14Z</time>
      </trkpt>
      <trkpt lat="59.6126553" lon="17.958015">
        <ele>36</ele>
        <time>2012-03-24T12:07:22Z</time>
      </trkpt>
      <trkpt lat="59.6127626" lon="17.9572947">
        <ele>38.4</ele>
        <time>2012-03-24T12:07:31Z</time>
      </trkpt>
      <trkpt lat="59.6128791" lon="17.9566148">
        <ele>40</ele>
        <time>2012-03-24T12:07:39Z</time>
      </trkpt>
      <trkpt lat="59.6130276" lon="17.9558706">
        <ele>41.2</ele>
        <time>2012-03-24T12:07:47Z</time>
      </trkpt>
      <trkpt lat="59.6130718" lon="17.9556727">
        <ele>41.4</ele>
        <time>2012-03-24T12:07:49Z</time>
      </trkpt>
      <trkpt lat="59.6132089" lon="17.9552418">
        <ele>41.8</ele>
        <time>2012-03-24T12:07:54Z</time>
      </trkpt>
      <trkpt lat="59.6134401" lon="17.9546199">
        <ele>42</ele>
        <time>2012-03-24T12:08:02Z</time>
      </trkpt>
      <trkpt lat="59.6136229" lon="17.9539817">
        <ele>42.6</ele>
        <time>2012-03-24T12:08:09Z</time>
      </trkpt>
      <trkpt lat="59.6136388" lon="17.953881">
        <ele>42.8</ele>
        <time>2012-03-24T12:08:10Z</time>
      </trkpt>
      <trkpt lat="59.6136806" lon="17.9533029">
        <ele>44.8</ele>
        <time>2012-03-24T12:08:16Z</time>
      </trkpt>
      <trkpt lat="59.613677" lon="17.953221">
        <ele>45</ele>
        <time>2012-03-24T12:08:17Z</time>
      </trkpt>
      <trkpt lat="59.6136335" lon="17.9528185">
        <ele>44.6</ele>
        <time>2012-03-24T12:08:22Z</time>
      </trkpt>
      <trkpt lat="59.6136012" lon="17.9526522">
        <ele>44.8</ele>
        <time>2012-03-24T12:08:24Z</time>
      </trkpt>
      <trkpt lat="59.6135604" lon="17.9524777">
        <ele>45.4</ele>
        <time>2012-03-24T12:08:26Z</time>
      </trkpt>
      <trkpt lat="59.6133824" lon="17.9517783">
        <ele>42.4</ele>
        <time>2012-03-24T12:08:32Z</time>
      </trkpt>
      <trkpt lat="59.6132525" lon="17.9512536">
        <ele>41.2</ele>
        <time>2012-03-24T12:08:36Z</time>
      </trkpt>
      <trkpt lat="59.6132278" lon="17.9511241">
        <ele>40.8</ele>
        <time>2012-03-24T12:08:37Z</time>
      </trkpt>
      <trkpt lat="59.6131359" lon="17.9503895">
        <ele>40.2</ele>
        <time>2012-03-24T12:08:43Z</time>
      </trkpt>
      <trkpt lat="59.6131345" lon="17.9502683">
        <ele>40.2</ele>
        <time>2012-03-24T12:08:44Z</time>
      </trkpt>
      <trkpt lat="59.6132245" lon="17.9497098">
        <ele>41.6</ele>
        <time>2012-03-24T12:08:49Z</time>
      </trkpt>
      <trkpt lat="59.6132604" lon="17.949486">
        <ele>41.4</ele>
        <time>2012-03-24T12:08:51Z</time>
      </trkpt>
      <trkpt lat="59.613304" lon="17.9491561">
        <ele>41.6</ele>
        <time>2012-03-24T12:08:54Z</time>
      </trkpt>
      <trkpt lat="59.6133225" lon="17.9489427">
        <ele>42.2</ele>
        <time>2012-03-24T12:08:56Z</time>
      </trkpt>
      <trkpt lat="59.6133303" lon="17.9488369">
        <ele>42.2</ele>
        <time>2012-03-24T12:08:57Z</time>
      </trkpt>
      <trkpt lat="59.6134899" lon="17.9483175">
        <ele>44</ele>
        <time>2012-03-24T12:09:03Z</time>
      </trkpt>
      <trkpt lat="59.6137317" lon="17.9478452">
        <ele>45</ele>
        <time>2012-03-24T12:09:08Z</time>
      </trkpt>
      <trkpt lat="59.6137732" lon="17.9477299">
        <ele>45</ele>
        <time>2012-03-24T12:09:09Z</time>
      </trkpt>
      <trkpt lat="59.6138637" lon="17.9475098">
        <ele>45.2</ele>
        <time>2012-03-24T12:09:11Z</time>
      </trkpt>
      <trkpt lat="59.6140435" lon="17.9472725">
        <ele>45.4</ele>
        <time>2012-03-24T12:09:14Z</time>
      </trkpt>
      <trkpt lat="59.6142517" lon="17.9471592">
        <ele>43.6</ele>
        <time>2012-03-24T12:09:17Z</time>
      </trkpt>
      <trkpt lat="59.6144574" lon="17.9470541">
        <ele>42.6</ele>
        <time>2012-03-24T12:09:20Z</time>
      </trkpt>
      <trkpt lat="59.6145226" lon="17.94701">
        <ele>42.6</ele>
        <time>2012-03-24T12:09:21Z</time>
      </trkpt>
      <trkpt lat="59.6147809" lon="17.9465696">
        <ele>44.2</ele>
        <time>2012-03-24T12:09:26Z</time>
      </trkpt>
      <trkpt lat="59.6148836" lon="17.9460673">
        <ele>44.6</ele>
        <time>2012-03-24T12:09:30Z</time>
      </trkpt>
      <trkpt lat="59.6149226" lon="17.9457953">
        <ele>44.4</ele>
        <time>2012-03-24T12:09:32Z</time>
      </trkpt>
      <trkpt lat="59.6150585" lon="17.9451245">
        <ele>44</ele>
        <time>2012-03-24T12:09:37Z</time>
      </trkpt>
      <trkpt lat="59.6151765" lon="17.9447617">
        <ele>43.8</ele>
        <time>2012-03-24T12:09:40Z</time>
      </trkpt>
      <trkpt lat="59.6152758" lon="17.9445686">
        <ele>43.6</ele>
        <time>2012-03-24T12:09:42Z</time>
      </trkpt>
      <trkpt lat="59.6155194" lon="17.9442838">
        <ele>44</ele>
        <time>2012-03-24T12:09:46Z</time>
      </trkpt>
      <trkpt lat="59.6156539" lon="17.944149">
        <ele>43.2</ele>
        <time>2012-03-24T12:09:48Z</time>
      </trkpt>
      <trkpt lat="59.6159986" lon="17.9436485">
        <ele>45</ele>
        <time>2012-03-24T12:09:54Z</time>
      </trkpt>
      <trkpt lat="59.6162234" lon="17.9430447">
        <ele>47.4</ele>
        <time>2012-03-24T12:10:00Z</time>
      </trkpt>
      <trkpt lat="59.616288" lon="17.9427022">
        <ele>46.8</ele>
        <time>2012-03-24T12:10:03Z</time>
      </trkpt>
      <trkpt lat="59.616325" lon="17.9423498">
        <ele>47.8</ele>
        <time>2012-03-24T12:10:06Z</time>
      </trkpt>
      <trkpt lat="59.6163731" lon="17.9415553">
        <ele>48.2</ele>
        <time>2012-03-24T12:10:13Z</time>
      </trkpt>
      <trkpt lat="59.616485" lon="17.9407767">
        <ele>48.8</ele>
        <time>2012-03-24T12:10:20Z</time>
      </trkpt>
      <trkpt lat="59.6165342" lon="17.9405675">
        <ele>49.2</ele>
        <time>2012-03-24T12:10:22Z</time>
      </trkpt>
      <trkpt lat="59.6166725" lon="17.9401485">
        <ele>51</ele>
        <time>2012-03-24T12:10:26Z</time>
      </trkpt>
      <trkpt lat="59.6167568" lon="17.9398165">
        <ele>52.4</ele>
        <time>2012-03-24T12:10:29Z</time>
      </trkpt>
      <trkpt lat="59.6168109" lon="17.9394541">
        <ele>53.2</ele>
        <time>2012-03-24T12:10:32Z</time>
      </trkpt>
      <trkpt lat="59.6168979" lon="17.9387048">
        <ele>53.6</ele>
        <time>2012-03-24T12:10:38Z</time>
      </trkpt>
      <trkpt lat="59.6169394" lon="17.9383591">
        <ele>53.8</ele>
        <time>2012-03-24T12:10:41Z</time>
      </trkpt>
      <trkpt lat="59.6169733" lon="17.9380249">
        <ele>55</ele>
        <time>2012-03-24T12:10:44Z</time>
      </trkpt>
      <trkpt lat="59.617021" lon="17.937677">
        <ele>54</ele>
        <time>2012-03-24T12:10:47Z</time>
      </trkpt>
      <trkpt lat="59.617048" lon="17.9374383">
        <ele>53.4</ele>
        <time>2012-03-24T12:10:49Z</time>
      </trkpt>
      <trkpt lat="59.6170538" lon="17.9373217">
        <ele>52.8</ele>
        <time>2012-03-24T12:10:50Z</time>
      </trkpt>
      <trkpt lat="59.6170446" lon="17.9370942">
        <ele>51.2</ele>
        <time>2012-03-24T12:10:52Z</time>
      </trkpt>
      <trkpt lat="59.6169977" lon="17.9367508">
        <ele>49.2</ele>
        <time>2012-03-24T12:10:55Z</time>
      </trkpt>
      <trkpt lat="59.6169557" lon="17.9365353">
        <ele>48.2</ele>
        <time>2012-03-24T12:10:57Z</time>
      </trkpt>
      <trkpt lat="59.6169004" lon="17.9360068">
        <ele>47.2</ele>
        <time>2012-03-24T12:11:01Z</time>
      </trkpt>
      <trkpt lat="59.6169137" lon="17.935688">
        <ele>46.6</ele>
        <time>2012-03-24T12:11:03Z</time>
      </trkpt>
      <trkpt lat="59.6171947" lon="17.9351894">
        <ele>45.6</ele>
        <time>2012-03-24T12:11:08Z</time>
      </trkpt>
      <trkpt lat="59.6173698" lon="17.9351438">
        <ele>46.2</ele>
        <time>2012-03-24T12:11:10Z</time>
      </trkpt>
      <trkpt lat="59.6175847" lon="17.9350827">
        <ele>46.4</ele>
        <time>2012-03-24T12:11:13Z</time>
      </trkpt>
      <trkpt lat="59.6179656" lon="17.9351129">
        <ele>48</ele>
        <time>2012-03-24T12:11:19Z</time>
      </trkpt>
      <trkpt lat="59.6183126" lon="17.9348714">
        <ele>50.4</ele>
        <time>2012-03-24T12:11:24Z</time>
      </trkpt>
      <trkpt lat="59.6183774" lon="17.9347899">
        <ele>50.6</ele>
        <time>2012-03-24T12:11:25Z</time>
      </trkpt>
      <trkpt lat="59.6186265" lon="17.9344473">
        <ele>50.2</ele>
        <time>2012-03-24T12:11:29Z</time>
      </trkpt>
      <trkpt lat="59.6189293" lon="17.9340276">
        <ele>50</ele>
        <time>2012-03-24T12:11:34Z</time>
      </trkpt>
      <trkpt lat="59.6193046" lon="17.9336121">
        <ele>49.4</ele>
        <time>2012-03-24T12:11:40Z</time>
      </trkpt>
      <trkpt lat="59.6197054" lon="17.933307">
        <ele>44.6</ele>
        <time>2012-03-24T12:11:46Z</time>
      </trkpt>
      <trkpt lat="59.6200608" lon="17.9331197">
        <ele>45</ele>
        <time>2012-03-24T12:11:51Z</time>
      </trkpt>
      <trkpt lat="59.6204291" lon="17.932948">
        <ele>46.4</ele>
        <time>2012-03-24T12:11:57Z</time>
      </trkpt>
      <trkpt lat="59.6205564" lon="17.9328863">
        <ele>46.8</ele>
        <time>2012-03-24T12:11:59Z</time>
      </trkpt>
      <trkpt lat="59.6207881" lon="17.9328376">
        <ele>48.8</ele>
        <time>2012-03-24T12:12:03Z</time>
      </trkpt>
      <trkpt lat="59.62115" lon="17.9329436">
        <ele>53.6</ele>
        <time>2012-03-24T12:12:09Z</time>
      </trkpt>
      <trkpt lat="59.6215556" lon="17.9331103">
        <ele>52.8</ele>
        <time>2012-03-24T12:12:15Z</time>
      </trkpt>
      <trkpt lat="59.6219863" lon="17.9332341">
        <ele>51.6</ele>
        <time>2012-03-24T12:12:21Z</time>
      </trkpt>
      <trkpt lat="59.622409" lon="17.9332932">
        <ele>48.2</ele>
        <time>2012-03-24T12:12:27Z</time>
      </trkpt>
      <trkpt lat="59.6228125" lon="17.9334392">
        <ele>45.4</ele>
        <time>2012-03-24T12:12:33Z</time>
      </trkpt>
      <trkpt lat="59.6230083" lon="17.9334745">
        <ele>45</ele>
        <time>2012-03-24T12:12:36Z</time>
      </trkpt>
      <trkpt lat="59.6232058" lon="17.9333787">
        <ele>46.6</ele>
        <time>2012-03-24T12:12:39Z</time>
      </trkpt>
      <trkpt lat="59.6234284" lon="17.9330973">
        <ele>48</ele>
        <time>2012-03-24T12:12:44Z</time>
      </trkpt>
      <trkpt lat="59.6235232" lon="17.9329134">
        <ele>48.6</ele>
        <time>2012-03-24T12:12:48Z</time>
      </trkpt>
      <trkpt lat="59.6235843" lon="17.9327786">
        <ele>49.2</ele>
        <time>2012-03-24T12:12:50Z</time>
      </trkpt>
      <trkpt lat="59.6237355" lon="17.9322389">
        <ele>48.6</ele>
        <time>2012-03-24T12:12:56Z</time>
      </trkpt>
      <trkpt lat="59.6239724" lon="17.9315541">
        <ele>47</ele>
        <time>2012-03-24T12:13:02Z</time>
      </trkpt>
      <trkpt lat="59.6241866" lon="17.9309113">
        <ele>45.8</ele>
        <time>2012-03-24T12:13:07Z</time>
      </trkpt>
      <trkpt lat="59.6244148" lon="17.9302249">
        <ele>44.8</ele>
        <time>2012-03-24T12:13:12Z</time>
      </trkpt>
      <trkpt lat="59.6246419" lon="17.9295447">
        <ele>44.4</ele>
        <time>2012-03-24T12:13:17Z</time>
      </trkpt>
      <trkpt lat="59.6248752" lon="17.928886">
        <ele>44</ele>
        <time>2012-03-24T12:13:22Z</time>
      </trkpt>
      <trkpt lat="59.6251228" lon="17.9282788">
        <ele>43.4</ele>
        <time>2012-03-24T12:13:27Z</time>
      </trkpt>
      <trkpt lat="59.6253679" lon="17.9277455">
        <ele>43.4</ele>
        <time>2012-03-24T12:13:32Z</time>
      </trkpt>
      <trkpt lat="59.6256596" lon="17.927176">
        <ele>43.6</ele>
        <time>2012-03-24T12:13:38Z</time>
      </trkpt>
      <trkpt lat="59.6259672" lon="17.9266533">
        <ele>43.6</ele>
        <time>2012-03-24T12:13:44Z</time>
      </trkpt>
      <trkpt lat="59.6262899" lon="17.9261746">
        <ele>44</ele>
        <time>2012-03-24T12:13:50Z</time>
      </trkpt>
      <trkpt lat="59.6266321" lon="17.9256982">
        <ele>43.8</ele>
        <time>2012-03-24T12:13:56Z</time>
      </trkpt>
      <trkpt lat="59.6269727" lon="17.9251809">
        <ele>43.4</ele>
        <time>2012-03-24T12:14:02Z</time>
      </trkpt>
      <trkpt lat="59.6272767" lon="17.9246694">
        <ele>42.6</ele>
        <time>2012-03-24T12:14:08Z</time>
      </trkpt>
      <trkpt lat="59.6276339" lon="17.9243015">
        <ele>41.6</ele>
        <time>2012-03-24T12:14:14Z</time>
      </trkpt>
      <trkpt lat="59.627727" lon="17.9239275">
        <ele>41</ele>
        <time>2012-03-24T12:14:17Z</time>
      </trkpt>
      <trkpt lat="59.6278026" lon="17.9235406">
        <ele>41.2</ele>
        <time>2012-03-24T12:14:20Z</time>
      </trkpt>
      <trkpt lat="59.6280092" lon="17.9228329">
        <ele>41.2</ele>
        <time>2012-03-24T12:14:26Z</time>
      </trkpt>
      <trkpt lat="59.6282354" lon="17.9221635">
        <ele>41.8</ele>
        <time>2012-03-24T12:14:32Z</time>
      </trkpt>
      <trkpt lat="59.6284627" lon="17.921496">
        <ele>41.6</ele>
        <time>2012-03-24T12:14:38Z</time>
      </trkpt>
      <trkpt lat="59.6286835" lon="17.920806">
        <ele>41.4</ele>
        <time>2012-03-24T12:14:44Z</time>
      </trkpt>
      <trkpt lat="59.628886" lon="17.9201164">
        <ele>41.6</ele>
        <time>2012-03-24T12:14:50Z</time>
      </trkpt>
      <trkpt lat="59.6290999" lon="17.9194752">
        <ele>42.2</ele>
        <time>2012-03-24T12:14:56Z</time>
      </trkpt>
      <trkpt lat="59.6293232" lon="17.9187991">
        <ele>41.8</ele>
        <time>2012-03-24T12:15:02Z</time>
      </trkpt>
      <trkpt lat="59.6295348" lon="17.9180942">
        <ele>42</ele>
        <time>2012-03-24T12:15:08Z</time>
      </trkpt>
      <trkpt lat="59.6297409" lon="17.9173954">
        <ele>42.8</ele>
        <time>2012-03-24T12:15:14Z</time>
      </trkpt>
      <trkpt lat="59.6299464" lon="17.9166648">
        <ele>43.8</ele>
        <time>2012-03-24T12:15:20Z</time>
      </trkpt>
      <trkpt lat="59.6301102" lon="17.9160233">
        <ele>44</ele>
        <time>2012-03-24T12:15:25Z</time>
      </trkpt>
      <trkpt lat="59.6302935" lon="17.9152867">
        <ele>44</ele>
        <time>2012-03-24T12:15:31Z</time>
      </trkpt>
      <trkpt lat="59.6304604" lon="17.9145816">
        <ele>43.8</ele>
        <time>2012-03-24T12:15:37Z</time>
      </trkpt>
      <trkpt lat="59.6306084" lon="17.9138991">
        <ele>43.6</ele>
        <time>2012-03-24T12:15:43Z</time>
      </trkpt>
      <trkpt lat="59.6307629" lon="17.9131363">
        <ele>41.8</ele>
        <time>2012-03-24T12:15:49Z</time>
      </trkpt>
      <trkpt lat="59.6308799" lon="17.9124375">
        <ele>39.4</ele>
        <time>2012-03-24T12:15:54Z</time>
      </trkpt>
      <trkpt lat="59.6310005" lon="17.9116672">
        <ele>36.6</ele>
        <time>2012-03-24T12:15:59Z</time>
      </trkpt>
      <trkpt lat="59.6311049" lon="17.9108929">
        <ele>34.4</ele>
        <time>2012-03-24T12:16:04Z</time>
      </trkpt>
      <trkpt lat="59.6311954" lon="17.9101163">
        <ele>33</ele>
        <time>2012-03-24T12:16:09Z</time>
      </trkpt>
      <trkpt lat="59.6312766" lon="17.9093122">
        <ele>32</ele>
        <time>2012-03-24T12:16:14Z</time>
      </trkpt>
      <trkpt lat="59.6313475" lon="17.908568">
        <ele>32.4</ele>
        <time>2012-03-24T12:16:19Z</time>
      </trkpt>
      <trkpt lat="59.631433" lon="17.907748">
        <ele>33</ele>
        <time>2012-03-24T12:16:25Z</time>
      </trkpt>
      <trkpt lat="59.6315079" lon="17.9069518">
        <ele>33.2</ele>
        <time>2012-03-24T12:16:31Z</time>
      </trkpt>
      <trkpt lat="59.6315887" lon="17.9061681">
        <ele>33.4</ele>
        <time>2012-03-24T12:16:37Z</time>
      </trkpt>
      <trkpt lat="59.6317053" lon="17.9054221">
        <ele>33.4</ele>
        <time>2012-03-24T12:16:43Z</time>
      </trkpt>
      <trkpt lat="59.6318803" lon="17.9047444">
        <ele>33</ele>
        <time>2012-03-24T12:16:49Z</time>
      </trkpt>
      <trkpt lat="59.6319186" lon="17.9046435">
        <ele>32.8</ele>
        <time>2012-03-24T12:16:50Z</time>
      </trkpt>
      <trkpt lat="59.6322349" lon="17.9044695">
        <ele>33</ele>
        <time>2012-03-24T12:16:55Z</time>
      </trkpt>
      <trkpt lat="59.63249" lon="17.9039861">
        <ele>33.4</ele>
        <time>2012-03-24T12:17:01Z</time>
      </trkpt>
      <trkpt lat="59.6323138" lon="17.9033375">
        <ele>31.8</ele>
        <time>2012-03-24T12:17:07Z</time>
      </trkpt>
      <trkpt lat="59.6322076" lon="17.9031523">
        <ele>31</ele>
        <time>2012-03-24T12:17:09Z</time>
      </trkpt>
      <trkpt lat="59.6320564" lon="17.9028653">
        <ele>30.4</ele>
        <time>2012-03-24T12:17:12Z</time>
      </trkpt>
      <trkpt lat="59.6320132" lon="17.902756">
        <ele>30.2</ele>
        <time>2012-03-24T12:17:13Z</time>
      </trkpt>
      <trkpt lat="59.6317777" lon="17.9020613">
        <ele>29.4</ele>
        <time>2012-03-24T12:17:19Z</time>
      </trkpt>
      <trkpt lat="59.6315475" lon="17.9013721">
        <ele>28</ele>
        <time>2012-03-24T12:17:25Z</time>
      </trkpt>
      <trkpt lat="59.6313351" lon="17.9006983">
        <ele>26.6</ele>
        <time>2012-03-24T12:17:31Z</time>
      </trkpt>
      <trkpt lat="59.631123" lon="17.8999643">
        <ele>25.2</ele>
        <time>2012-03-24T12:17:37Z</time>
      </trkpt>
      <trkpt lat="59.6310986" lon="17.899816">
        <ele>25.6</ele>
        <time>2012-03-24T12:17:38Z</time>
      </trkpt>
      <trkpt lat="59.6310489" lon="17.8996295">
        <ele>27</ele>
        <time>2012-03-24T12:17:40Z</time>
      </trkpt>
      <trkpt lat="59.6310178" lon="17.8993729">
        <ele>26.8</ele>
        <time>2012-03-24T12:17:42Z</time>
      </trkpt>
      <trkpt lat="59.631006" lon="17.8992452">
        <ele>27.4</ele>
        <time>2012-03-24T12:17:43Z</time>
      </trkpt>
      <trkpt lat="59.6308827" lon="17.898512">
        <ele>27.8</ele>
        <time>2012-03-24T12:17:49Z</time>
      </trkpt>
      <trkpt lat="59.6308292" lon="17.8981418">
        <ele>27.6</ele>
        <time>2012-03-24T12:17:52Z</time>
      </trkpt>
      <trkpt lat="59.6308204" lon="17.8977581">
        <ele>28.4</ele>
        <time>2012-03-24T12:17:55Z</time>
      </trkpt>
      <trkpt lat="59.6308115" lon="17.8976284">
        <ele>28.4</ele>
        <time>2012-03-24T12:17:56Z</time>
      </trkpt>
      <trkpt lat="59.6306925" lon="17.8970004">
        <ele>28.4</ele>
        <time>2012-03-24T12:18:01Z</time>
      </trkpt>
      <trkpt lat="59.6305343" lon="17.8962699">
        <ele>28.2</ele>
        <time>2012-03-24T12:18:07Z</time>
      </trkpt>
      <trkpt lat="59.6303697" lon="17.8955784">
        <ele>28.2</ele>
        <time>2012-03-24T12:18:13Z</time>
      </trkpt>
      <trkpt lat="59.6302263" lon="17.8948384">
        <ele>29</ele>
        <time>2012-03-24T12:18:19Z</time>
      </trkpt>
      <trkpt lat="59.630064" lon="17.8941286">
        <ele>29.6</ele>
        <time>2012-03-24T12:18:25Z</time>
      </trkpt>
      <trkpt lat="59.629889" lon="17.8934323">
        <ele>30</ele>
        <time>2012-03-24T12:18:31Z</time>
      </trkpt>
      <trkpt lat="59.6296961" lon="17.8927985">
        <ele>28.6</ele>
        <time>2012-03-24T12:18:36Z</time>
      </trkpt>
      <trkpt lat="59.629621" lon="17.8925091">
        <ele>27.6</ele>
        <time>2012-03-24T12:18:38Z</time>
      </trkpt>
      <trkpt lat="59.6295268" lon="17.8920161">
        <ele>25.4</ele>
        <time>2012-03-24T12:18:41Z</time>
      </trkpt>
      <trkpt lat="59.6293828" lon="17.8912948">
        <ele>23</ele>
        <time>2012-03-24T12:18:45Z</time>
      </trkpt>
      <trkpt lat="59.6292224" lon="17.8905393">
        <ele>21.4</ele>
        <time>2012-03-24T12:18:49Z</time>
      </trkpt>
      <trkpt lat="59.6290759" lon="17.8898083">
        <ele>20.6</ele>
        <time>2012-03-24T12:18:53Z</time>
      </trkpt>
      <trkpt lat="59.6289529" lon="17.8891167">
        <ele>19.6</ele>
        <time>2012-03-24T12:18:57Z</time>
      </trkpt>
      <trkpt lat="59.6288344" lon="17.8883177">
        <ele>19.4</ele>
        <time>2012-03-24T12:19:02Z</time>
      </trkpt>
      <trkpt lat="59.6287467" lon="17.8875956">
        <ele>19.4</ele>
        <time>2012-03-24T12:19:07Z</time>
      </trkpt>
      <trkpt lat="59.628662" lon="17.8868492">
        <ele>18.6</ele>
        <time>2012-03-24T12:19:12Z</time>
      </trkpt>
      <trkpt lat="59.6285831" lon="17.8861102">
        <ele>18.4</ele>
        <time>2012-03-24T12:19:17Z</time>
      </trkpt>
      <trkpt lat="59.6285389" lon="17.8853901">
        <ele>18.4</ele>
        <time>2012-03-24T12:19:22Z</time>
      </trkpt>
      <trkpt lat="59.6284951" lon="17.8846836">
        <ele>18.6</ele>
        <time>2012-03-24T12:19:27Z</time>
      </trkpt>
      <trkpt lat="59.6284361" lon="17.8838485">
        <ele>18.6</ele>
        <time>2012-03-24T12:19:33Z</time>
      </trkpt>
      <trkpt lat="59.6283847" lon="17.8830435">
        <ele>18</ele>
        <time>2012-03-24T12:19:39Z</time>
      </trkpt>
      <trkpt lat="59.6283339" lon="17.8822608">
        <ele>18</ele>
        <time>2012-03-24T12:19:45Z</time>
      </trkpt>
      <trkpt lat="59.6282832" lon="17.8815021">
        <ele>18.4</ele>
        <time>2012-03-24T12:19:51Z</time>
      </trkpt>
      <trkpt lat="59.6282308" lon="17.8807297">
        <ele>18.6</ele>
        <time>2012-03-24T12:19:57Z</time>
      </trkpt>
      <trkpt lat="59.6281655" lon="17.8799842">
        <ele>18.4</ele>
        <time>2012-03-24T12:20:03Z</time>
      </trkpt>
      <trkpt lat="59.6280796" lon="17.8792502">
        <ele>18</ele>
        <time>2012-03-24T12:20:09Z</time>
      </trkpt>
      <trkpt lat="59.6279875" lon="17.8785291">
        <ele>17.2</ele>
        <time>2012-03-24T12:20:15Z</time>
      </trkpt>
      <trkpt lat="59.6278657" lon="17.8777779">
        <ele>16.8</ele>
        <time>2012-03-24T12:20:21Z</time>
      </trkpt>
      <trkpt lat="59.6277491" lon="17.8770995">
        <ele>15.8</ele>
        <time>2012-03-24T12:20:27Z</time>
      </trkpt>
      <trkpt lat="59.6276858" lon="17.8766606">
        <ele>15</ele>
        <time>2012-03-24T12:20:31Z</time>
      </trkpt>
      <trkpt lat="59.6276962" lon="17.8763394">
        <ele>14.6</ele>
        <time>2012-03-24T12:20:34Z</time>
      </trkpt>
      <trkpt lat="59.6276522" lon="17.876038">
        <ele>14</ele>
        <time>2012-03-24T12:20:37Z</time>
      </trkpt>
      <trkpt lat="59.6276273" lon="17.8759427">
        <ele>14.2</ele>
        <time>2012-03-24T12:20:38Z</time>
      </trkpt>
      <trkpt lat="59.6275037" lon="17.8757728">
        <ele>15.6</ele>
        <time>2012-03-24T12:20:41Z</time>
      </trkpt>
      <trkpt lat="59.627414" lon="17.8754692">
        <ele>15.8</ele>
        <time>2012-03-24T12:20:44Z</time>
      </trkpt>
      <trkpt lat="59.6273315" lon="17.8750916">
        <ele>16.4</ele>
        <time>2012-03-24T12:20:47Z</time>
      </trkpt>
      <trkpt lat="59.6271913" lon="17.8744233">
        <ele>15</ele>
        <time>2012-03-24T12:20:52Z</time>
      </trkpt>
      <trkpt lat="59.6270487" lon="17.87375">
        <ele>14.4</ele>
        <time>2012-03-24T12:20:57Z</time>
      </trkpt>
      <trkpt lat="59.6269074" lon="17.8730673">
        <ele>14</ele>
        <time>2012-03-24T12:21:02Z</time>
      </trkpt>
      <trkpt lat="59.6268426" lon="17.8728045">
        <ele>13.8</ele>
        <time>2012-03-24T12:21:04Z</time>
      </trkpt>
      <trkpt lat="59.6267633" lon="17.872397">
        <ele>13.8</ele>
        <time>2012-03-24T12:21:07Z</time>
      </trkpt>
      <trkpt lat="59.626622" lon="17.8717059">
        <ele>13.2</ele>
        <time>2012-03-24T12:21:12Z</time>
      </trkpt>
      <trkpt lat="59.62651" lon="17.8711776">
        <ele>13.4</ele>
        <time>2012-03-24T12:21:16Z</time>
      </trkpt>
      <trkpt lat="59.6264881" lon="17.8710433">
        <ele>13.4</ele>
        <time>2012-03-24T12:21:17Z</time>
      </trkpt>
      <trkpt lat="59.626334" lon="17.8702641">
        <ele>13.6</ele>
        <time>2012-03-24T12:21:23Z</time>
      </trkpt>
      <trkpt lat="59.626194" lon="17.8696059">
        <ele>13.6</ele>
        <time>2012-03-24T12:21:28Z</time>
      </trkpt>
      <trkpt lat="59.6260555" lon="17.8689449">
        <ele>13.4</ele>
        <time>2012-03-24T12:21:33Z</time>
      </trkpt>
      <trkpt lat="59.6258947" lon="17.8682114">
        <ele>13.2</ele>
        <time>2012-03-24T12:21:39Z</time>
      </trkpt>
      <trkpt lat="59.6257143" lon="17.8675262">
        <ele>13</ele>
        <time>2012-03-24T12:21:45Z</time>
      </trkpt>
      <trkpt lat="59.6254854" lon="17.8668636">
        <ele>12.6</ele>
        <time>2012-03-24T12:21:51Z</time>
      </trkpt>
      <trkpt lat="59.6252089" lon="17.8662377">
        <ele>11.4</ele>
        <time>2012-03-24T12:21:57Z</time>
      </trkpt>
      <trkpt lat="59.6250606" lon="17.8659616">
        <ele>11.8</ele>
        <time>2012-03-24T12:22:00Z</time>
      </trkpt>
      <trkpt lat="59.6249149" lon="17.8656845">
        <ele>12.2</ele>
        <time>2012-03-24T12:22:03Z</time>
      </trkpt>
      <trkpt lat="59.6246064" lon="17.8651856">
        <ele>13.2</ele>
        <time>2012-03-24T12:22:09Z</time>
      </trkpt>
      <trkpt lat="59.6243" lon="17.86469">
        <ele>14</ele>
        <time>2012-03-24T12:22:15Z</time>
      </trkpt>
      <trkpt lat="59.6240511" lon="17.8642938">
        <ele>15.8</ele>
        <time>2012-03-24T12:22:20Z</time>
      </trkpt>
      <trkpt lat="59.624013" lon="17.8642139">
        <ele>16.2</ele>
        <time>2012-03-24T12:22:21Z</time>
      </trkpt>
      <trkpt lat="59.6238117" lon="17.8636321">
        <ele>17.8</ele>
        <time>2012-03-24T12:22:28Z</time>
      </trkpt>
      <trkpt lat="59.6236427" lon="17.862999">
        <ele>19.4</ele>
        <time>2012-03-24T12:22:37Z</time>
      </trkpt>
      <trkpt lat="59.6235439" lon="17.8623087">
        <ele>21.2</ele>
        <time>2012-03-24T12:22:46Z</time>
      </trkpt>
      <trkpt lat="59.6235237" lon="17.8619807">
        <ele>21.8</ele>
        <time>2012-03-24T12:22:50Z</time>
      </trkpt>
      <trkpt lat="59.6235362" lon="17.8615289">
        <ele>22</ele>
        <time>2012-03-24T12:22:55Z</time>
      </trkpt>
      <trkpt lat="59.6235616" lon="17.8609509">
        <ele>21.2</ele>
        <time>2012-03-24T12:23:02Z</time>
      </trkpt>
      <trkpt lat="59.6235834" lon="17.8608054">
        <ele>21.2</ele>
        <time>2012-03-24T12:23:04Z</time>
      </trkpt>
      <trkpt lat="59.6238407" lon="17.8604873">
        <ele>20.6</ele>
        <time>2012-03-24T12:23:13Z</time>
      </trkpt>
      <trkpt lat="59.6238837" lon="17.860499">
        <ele>20.8</ele>
        <time>2012-03-24T12:23:14Z</time>
      </trkpt>
      <trkpt lat="59.6241726" lon="17.8606225">
        <ele>20.4</ele>
        <time>2012-03-24T12:23:22Z</time>
      </trkpt>
      <trkpt lat="59.6241593" lon="17.8606961">
        <ele>20.4</ele>
        <time>2012-03-24T12:23:25Z</time>
      </trkpt>
      <trkpt lat="59.6240677" lon="17.860683">
        <ele>19.6</ele>
        <time>2012-03-24T12:23:29Z</time>
      </trkpt>
      <trkpt lat="59.6237422" lon="17.8606432">
        <ele>18.2</ele>
        <time>2012-03-24T12:23:35Z</time>
      </trkpt>
      <trkpt lat="59.6233957" lon="17.8605465">
        <ele>15.8</ele>
        <time>2012-03-24T12:23:40Z</time>
      </trkpt>
      <trkpt lat="59.6230115" lon="17.8604033">
        <ele>15</ele>
        <time>2012-03-24T12:23:45Z</time>
      </trkpt>
      <trkpt lat="59.622601" lon="17.8601889">
        <ele>13.4</ele>
        <time>2012-03-24T12:23:50Z</time>
      </trkpt>
      <trkpt lat="59.6221938" lon="17.8599134">
        <ele>12.4</ele>
        <time>2012-03-24T12:23:55Z</time>
      </trkpt>
      <trkpt lat="59.6218167" lon="17.8598609">
        <ele>13.4</ele>
        <time>2012-03-24T12:24:00Z</time>
      </trkpt>
      <trkpt lat="59.6216675" lon="17.859849">
        <ele>13.6</ele>
        <time>2012-03-24T12:24:02Z</time>
      </trkpt>
      <trkpt lat="59.6214481" lon="17.8597507">
        <ele>13.6</ele>
        <time>2012-03-24T12:24:05Z</time>
      </trkpt>
      <trkpt lat="59.6210937" lon="17.8595342">
        <ele>14</ele>
        <time>2012-03-24T12:24:10Z</time>
      </trkpt>
      <trkpt lat="59.6207299" lon="17.8593081">
        <ele>13.4</ele>
        <time>2012-03-24T12:24:15Z</time>
      </trkpt>
      <trkpt lat="59.6203626" lon="17.8591048">
        <ele>13.2</ele>
        <time>2012-03-24T12:24:20Z</time>
      </trkpt>
      <trkpt lat="59.6200415" lon="17.8589808">
        <ele>13</ele>
        <time>2012-03-24T12:24:25Z</time>
      </trkpt>
      <trkpt lat="59.6199919" lon="17.858924">
        <ele>13.2</ele>
        <time>2012-03-24T12:24:26Z</time>
      </trkpt>
      <trkpt lat="59.6196701" lon="17.8584231">
        <ele>11.4</ele>
        <time>2012-03-24T12:24:33Z</time>
      </trkpt>
      <trkpt lat="59.6193005" lon="17.8581134">
        <ele>11</ele>
        <time>2012-03-24T12:24:39Z</time>
      </trkpt>
      <trkpt lat="59.6189264" lon="17.8577554">
        <ele>9.8</ele>
        <time>2012-03-24T12:24:46Z</time>
      </trkpt>
      <trkpt lat="59.618572" lon="17.8573954">
        <ele>8.4</ele>
        <time>2012-03-24T12:24:53Z</time>
      </trkpt>
      <trkpt lat="59.6184679" lon="17.8572874">
        <ele>8</ele>
        <time>2012-03-24T12:24:55Z</time>
      </trkpt>
      <trkpt lat="59.6182456" lon="17.8569851">
        <ele>6.4</ele>
        <time>2012-03-24T12:25:00Z</time>
      </trkpt>
      <trkpt lat="59.6180095" lon="17.8568751">
        <ele>6.6</ele>
        <time>2012-03-24T12:25:05Z</time>
      </trkpt>
      <trkpt lat="59.6178933" lon="17.856787">
        <ele>6.6</ele>
        <time>2012-03-24T12:25:08Z</time>
      </trkpt>
      <trkpt lat="59.6178577" lon="17.856794">
        <ele>6.4</ele>
        <time>2012-03-24T12:25:09Z</time>
      </trkpt>
      <trkpt lat="59.6177567" lon="17.8568111">
        <ele>7</ele>
        <time>2012-03-24T12:25:12Z</time>
      </trkpt>
      <trkpt lat="59.6176086" lon="17.8564712">
        <ele>7.4</ele>
        <time>2012-03-24T12:25:17Z</time>
      </trkpt>
      <trkpt lat="59.6178356" lon="17.8559711">
        <ele>6.8</ele>
        <time>2012-03-24T12:25:24Z</time>
      </trkpt>
      <trkpt lat="59.6178002" lon="17.8553906">
        <ele>5.4</ele>
        <time>2012-03-24T12:25:31Z</time>
      </trkpt>
      <trkpt lat="59.6177468" lon="17.8553319">
        <ele>5.2</ele>
        <time>2012-03-24T12:25:32Z</time>
      </trkpt>
      <trkpt lat="59.6176422" lon="17.8551903">
        <ele>4.6</ele>
        <time>2012-03-24T12:25:34Z</time>
      </trkpt>
      <trkpt lat="59.6174666" lon="17.8548786">
        <ele>3.4</ele>
        <time>2012-03-24T12:25:37Z</time>
      </trkpt>
      <trkpt lat="59.6171268" lon="17.8543057">
        <ele>3.2</ele>
        <time>2012-03-24T12:25:42Z</time>
      </trkpt>
      <trkpt lat="59.6168876" lon="17.8537048">
        <ele>3.6</ele>
        <time>2012-03-24T12:25:48Z</time>
      </trkpt>
      <trkpt lat="59.6168199" lon="17.8534174">
        <ele>3.4</ele>
        <time>2012-03-24T12:25:51Z</time>
      </trkpt>
      <trkpt lat="59.6167653" lon="17.8529979">
        <ele>3.8</ele>
        <time>2012-03-24T12:25:54Z</time>
      </trkpt>
      <trkpt lat="59.616746" lon="17.8525367">
        <ele>4.8</ele>
        <time>2012-03-24T12:25:57Z</time>
      </trkpt>
      <trkpt lat="59.6167335" lon="17.8523939">
        <ele>5.2</ele>
        <time>2012-03-24T12:25:58Z</time>
      </trkpt>
      <trkpt lat="59.616713" lon="17.8522604">
        <ele>5.8</ele>
        <time>2012-03-24T12:25:59Z</time>
      </trkpt>
      <trkpt lat="59.616467" lon="17.8518032">
        <ele>7</ele>
        <time>2012-03-24T12:26:04Z</time>
      </trkpt>
      <trkpt lat="59.6162395" lon="17.8517071">
        <ele>7.6</ele>
        <time>2012-03-24T12:26:07Z</time>
      </trkpt>
      <trkpt lat="59.6161619" lon="17.8516769">
        <ele>8</ele>
        <time>2012-03-24T12:26:08Z</time>
      </trkpt>
      <trkpt lat="59.616086" lon="17.8516297">
        <ele>8.6</ele>
        <time>2012-03-24T12:26:09Z</time>
      </trkpt>
      <trkpt lat="59.6158001" lon="17.8510869">
        <ele>9.4</ele>
        <time>2012-03-24T12:26:14Z</time>
      </trkpt>
      <trkpt lat="59.615752" lon="17.8503243">
        <ele>9.6</ele>
        <time>2012-03-24T12:26:19Z</time>
      </trkpt>
      <trkpt lat="59.6158306" lon="17.8497681">
        <ele>9.8</ele>
        <time>2012-03-24T12:26:23Z</time>
      </trkpt>
      <trkpt lat="59.6158621" lon="17.8496442">
        <ele>10</ele>
        <time>2012-03-24T12:26:24Z</time>
      </trkpt>
      <trkpt lat="59.616081" lon="17.8489907">
        <ele>11</ele>
        <time>2012-03-24T12:26:30Z</time>
      </trkpt>
      <trkpt lat="59.6162908" lon="17.8484191">
        <ele>12</ele>
        <time>2012-03-24T12:26:36Z</time>
      </trkpt>
      <trkpt lat="59.6164735" lon="17.8477909">
        <ele>12.6</ele>
        <time>2012-03-24T12:26:43Z</time>
      </trkpt>
      <trkpt lat="59.6165972" lon="17.847119">
        <ele>13.2</ele>
        <time>2012-03-24T12:26:50Z</time>
      </trkpt>
      <trkpt lat="59.6166418" lon="17.8465264">
        <ele>14.8</ele>
        <time>2012-03-24T12:26:56Z</time>
      </trkpt>
      <trkpt lat="59.6166364" lon="17.8463364">
        <ele>15.4</ele>
        <time>2012-03-24T12:26:58Z</time>
      </trkpt>
      <trkpt lat="59.6166202" lon="17.8461508">
        <ele>16.2</ele>
        <time>2012-03-24T12:27:00Z</time>
      </trkpt>
      <trkpt lat="59.6165192" lon="17.8455899">
        <ele>18.2</ele>
        <time>2012-03-24T12:27:07Z</time>
      </trkpt>
      <trkpt lat="59.616345" lon="17.8449516">
        <ele>18.8</ele>
        <time>2012-03-24T12:27:16Z</time>
      </trkpt>
      <trkpt lat="59.616173" lon="17.8443464">
        <ele>19.8</ele>
        <time>2012-03-24T12:27:25Z</time>
      </trkpt>
      <trkpt lat="59.6160073" lon="17.8437116">
        <ele>20.4</ele>
        <time>2012-03-24T12:27:34Z</time>
      </trkpt>
      <trkpt lat="59.6158371" lon="17.8430273">
        <ele>23</ele>
        <time>2012-03-24T12:27:43Z</time>
      </trkpt>
      <trkpt lat="59.615676" lon="17.8423544">
        <ele>24.2</ele>
        <time>2012-03-24T12:27:52Z</time>
      </trkpt>
      <trkpt lat="59.6155048" lon="17.841693">
        <ele>25.6</ele>
        <time>2012-03-24T12:28:01Z</time>
      </trkpt>
      <trkpt lat="59.6153288" lon="17.841011">
        <ele>27.4</ele>
        <time>2012-03-24T12:28:10Z</time>
      </trkpt>
      <trkpt lat="59.6151256" lon="17.8403087">
        <ele>30.4</ele>
        <time>2012-03-24T12:28:26Z</time>
      </trkpt>
      <trkpt lat="59.6149484" lon="17.8396061">
        <ele>32.8</ele>
        <time>2012-03-24T12:28:34Z</time>
      </trkpt>
      <trkpt lat="59.6147764" lon="17.8389428">
        <ele>34.8</ele>
        <time>2012-03-24T12:28:41Z</time>
      </trkpt>
      <trkpt lat="59.6145782" lon="17.8382429">
        <ele>36</ele>
        <time>2012-03-24T12:28:49Z</time>
      </trkpt>
      <trkpt lat="59.6144086" lon="17.8375566">
        <ele>36.4</ele>
        <time>2012-03-24T12:28:57Z</time>
      </trkpt>
      <trkpt lat="59.6142689" lon="17.8368878">
        <ele>37.6</ele>
        <time>2012-03-24T12:29:05Z</time>
      </trkpt>
      <trkpt lat="59.6141591" lon="17.8361888">
        <ele>40.4</ele>
        <time>2012-03-24T12:29:12Z</time>
      </trkpt>
      <trkpt lat="59.6140742" lon="17.8354154">
        <ele>43.2</ele>
        <time>2012-03-24T12:29:19Z</time>
      </trkpt>
      <trkpt lat="59.6140223" lon="17.8346441">
        <ele>46.6</ele>
        <time>2012-03-24T12:29:26Z</time>
      </trkpt>
      <trkpt lat="59.6140032" lon="17.833937">
        <ele>47</ele>
        <time>2012-03-24T12:29:35Z</time>
      </trkpt>
      <trkpt lat="59.6140059" lon="17.8338541">
        <ele>47</ele>
        <time>2012-03-24T12:29:36Z</time>
      </trkpt>
      <trkpt lat="59.6140099" lon="17.8331855">
        <ele>48.2</ele>
        <time>2012-03-24T12:29:42Z</time>
      </trkpt>
      <trkpt lat="59.6140555" lon="17.8324619">
        <ele>49.4</ele>
        <time>2012-03-24T12:29:48Z</time>
      </trkpt>
      <trkpt lat="59.6140969" lon="17.8316741">
        <ele>50.8</ele>
        <time>2012-03-24T12:29:54Z</time>
      </trkpt>
      <trkpt lat="59.6141794" lon="17.8308599">
        <ele>53.8</ele>
        <time>2012-03-24T12:30:00Z</time>
      </trkpt>
      <trkpt lat="59.6142876" lon="17.8300988">
        <ele>56.2</ele>
        <time>2012-03-24T12:30:06Z</time>
      </trkpt>
      <trkpt lat="59.614361" lon="17.8296205">
        <ele>57</ele>
        <time>2012-03-24T12:30:10Z</time>
      </trkpt>
      <trkpt lat="59.6144395" lon="17.8294226">
        <ele>56.4</ele>
        <time>2012-03-24T12:30:12Z</time>
      </trkpt>
      <trkpt lat="59.6145305" lon="17.8289456">
        <ele>56.2</ele>
        <time>2012-03-24T12:30:16Z</time>
      </trkpt>
      <trkpt lat="59.6145569" lon="17.828685">
        <ele>56.6</ele>
        <time>2012-03-24T12:30:18Z</time>
      </trkpt>
      <trkpt lat="59.6146993" lon="17.8279496">
        <ele>57.2</ele>
        <time>2012-03-24T12:30:24Z</time>
      </trkpt>
      <trkpt lat="59.6148356" lon="17.8272548">
        <ele>57.2</ele>
        <time>2012-03-24T12:30:30Z</time>
      </trkpt>
      <trkpt lat="59.6149427" lon="17.8268021">
        <ele>57</ele>
        <time>2012-03-24T12:30:34Z</time>
      </trkpt>
      <trkpt lat="59.6150325" lon="17.8266208">
        <ele>56.6</ele>
        <time>2012-03-24T12:30:36Z</time>
      </trkpt>
      <trkpt lat="59.6151064" lon="17.8262307">
        <ele>55.8</ele>
        <time>2012-03-24T12:30:39Z</time>
      </trkpt>
      <trkpt lat="59.6151507" lon="17.8259377">
        <ele>55.6</ele>
        <time>2012-03-24T12:30:41Z</time>
      </trkpt>
      <trkpt lat="59.6152926" lon="17.825264">
        <ele>55.2</ele>
        <time>2012-03-24T12:30:46Z</time>
      </trkpt>
      <trkpt lat="59.6154619" lon="17.8244999">
        <ele>54.8</ele>
        <time>2012-03-24T12:30:52Z</time>
      </trkpt>
      <trkpt lat="59.6156303" lon="17.8237385">
        <ele>54.6</ele>
        <time>2012-03-24T12:30:58Z</time>
      </trkpt>
      <trkpt lat="59.6157959" lon="17.823027">
        <ele>54.4</ele>
        <time>2012-03-24T12:31:04Z</time>
      </trkpt>
      <trkpt lat="59.6158509" lon="17.8227933">
        <ele>54.2</ele>
        <time>2012-03-24T12:31:06Z</time>
      </trkpt>
      <trkpt lat="59.6159489" lon="17.8223121">
        <ele>53.6</ele>
        <time>2012-03-24T12:31:10Z</time>
      </trkpt>
      <trkpt lat="59.6160868" lon="17.8216522">
        <ele>52.8</ele>
        <time>2012-03-24T12:31:16Z</time>
      </trkpt>
      <trkpt lat="59.6161496" lon="17.8213333">
        <ele>52.2</ele>
        <time>2012-03-24T12:31:19Z</time>
      </trkpt>
      <trkpt lat="59.6162479" lon="17.8210184">
        <ele>51.8</ele>
        <time>2012-03-24T12:31:22Z</time>
      </trkpt>
      <trkpt lat="59.6162684" lon="17.820641">
        <ele>51.2</ele>
        <time>2012-03-24T12:31:25Z</time>
      </trkpt>
      <trkpt lat="59.6162704" lon="17.8203679">
        <ele>50.8</ele>
        <time>2012-03-24T12:31:27Z</time>
      </trkpt>
      <trkpt lat="59.6162849" lon="17.8202329">
        <ele>50.6</ele>
        <time>2012-03-24T12:31:28Z</time>
      </trkpt>
      <trkpt lat="59.6164109" lon="17.8195619">
        <ele>49.2</ele>
        <time>2012-03-24T12:31:33Z</time>
      </trkpt>
      <trkpt lat="59.6165995" lon="17.8189098">
        <ele>47.4</ele>
        <time>2012-03-24T12:31:38Z</time>
      </trkpt>
      <trkpt lat="59.6168533" lon="17.8182548">
        <ele>45.6</ele>
        <time>2012-03-24T12:31:44Z</time>
      </trkpt>
      <trkpt lat="59.6171185" lon="17.8175774">
        <ele>44.2</ele>
        <time>2012-03-24T12:31:48Z</time>
      </trkpt>
      <trkpt lat="59.6173672" lon="17.8169512">
        <ele>43.6</ele>
        <time>2012-03-24T12:31:53Z</time>
      </trkpt>
      <trkpt lat="59.6175911" lon="17.8163736">
        <ele>43.2</ele>
        <time>2012-03-24T12:31:58Z</time>
      </trkpt>
      <trkpt lat="59.6178167" lon="17.8157784">
        <ele>42</ele>
        <time>2012-03-24T12:32:03Z</time>
      </trkpt>
      <trkpt lat="59.6180081" lon="17.8150832">
        <ele>40.4</ele>
        <time>2012-03-24T12:32:08Z</time>
      </trkpt>
      <trkpt lat="59.6181692" lon="17.8142688">
        <ele>39</ele>
        <time>2012-03-24T12:32:16Z</time>
      </trkpt>
      <trkpt lat="59.6181929" lon="17.8142009">
        <ele>38.8</ele>
        <time>2012-03-24T12:32:17Z</time>
      </trkpt>
      <trkpt lat="59.6182966" lon="17.8138022">
        <ele>37.8</ele>
        <time>2012-03-24T12:32:21Z</time>
      </trkpt>
      <trkpt lat="59.6183566" lon="17.8135686">
        <ele>37.8</ele>
        <time>2012-03-24T12:32:24Z</time>
      </trkpt>
      <trkpt lat="59.6185362" lon="17.8128697">
        <ele>38.8</ele>
        <time>2012-03-24T12:32:29Z</time>
      </trkpt>
      <trkpt lat="59.6186796" lon="17.8121706">
        <ele>40.6</ele>
        <time>2012-03-24T12:32:36Z</time>
      </trkpt>
      <trkpt lat="59.618745" lon="17.8115032">
        <ele>42.2</ele>
        <time>2012-03-24T12:32:42Z</time>
      </trkpt>
      <trkpt lat="59.6187465" lon="17.8113925">
        <ele>42.2</ele>
        <time>2012-03-24T12:32:43Z</time>
      </trkpt>
      <trkpt lat="59.6187472" lon="17.8106067">
        <ele>43.2</ele>
        <time>2012-03-24T12:32:49Z</time>
      </trkpt>
      <trkpt lat="59.6187866" lon="17.8098289">
        <ele>42.6</ele>
        <time>2012-03-24T12:32:57Z</time>
      </trkpt>
      <trkpt lat="59.6189169" lon="17.8091545">
        <ele>40.2</ele>
        <time>2012-03-24T12:33:03Z</time>
      </trkpt>
      <trkpt lat="59.6191522" lon="17.8085046">
        <ele>38</ele>
        <time>2012-03-24T12:33:09Z</time>
      </trkpt>
      <trkpt lat="59.6193516" lon="17.8078611">
        <ele>35.4</ele>
        <time>2012-03-24T12:33:14Z</time>
      </trkpt>
      <trkpt lat="59.6194817" lon="17.8070472">
        <ele>32.8</ele>
        <time>2012-03-24T12:33:18Z</time>
      </trkpt>
      <trkpt lat="59.6195611" lon="17.8064997">
        <ele>30.8</ele>
        <time>2012-03-24T12:33:21Z</time>
      </trkpt>
      <trkpt lat="59.6196024" lon="17.8063112">
        <ele>29.8</ele>
        <time>2012-03-24T12:33:23Z</time>
      </trkpt>
      <trkpt lat="59.6198469" lon="17.8055864">
        <ele>26.8</ele>
        <time>2012-03-24T12:33:27Z</time>
      </trkpt>
      <trkpt lat="59.6200899" lon="17.8051452">
        <ele>26.2</ele>
        <time>2012-03-24T12:33:30Z</time>
      </trkpt>
      <trkpt lat="59.6201713" lon="17.8050099">
        <ele>26.4</ele>
        <time>2012-03-24T12:33:31Z</time>
      </trkpt>
      <trkpt lat="59.6204834" lon="17.8044961">
        <ele>26.8</ele>
        <time>2012-03-24T12:33:35Z</time>
      </trkpt>
      <trkpt lat="59.6207779" lon="17.8040088">
        <ele>27.2</ele>
        <time>2012-03-24T12:33:39Z</time>
      </trkpt>
      <trkpt lat="59.621073" lon="17.8033647">
        <ele>27.2</ele>
        <time>2012-03-24T12:33:44Z</time>
      </trkpt>
      <trkpt lat="59.6211502" lon="17.8030854">
        <ele>27.4</ele>
        <time>2012-03-24T12:33:45Z</time>
      </trkpt>
      <trkpt lat="59.6212247" lon="17.8026731">
        <ele>28.4</ele>
        <time>2012-03-24T12:33:49Z</time>
      </trkpt>
      <trkpt lat="59.6212559" lon="17.8024174">
        <ele>29.2</ele>
        <time>2012-03-24T12:33:51Z</time>
      </trkpt>
      <trkpt lat="59.6212661" lon="17.8019535">
        <ele>31.8</ele>
        <time>2012-03-24T12:33:55Z</time>
      </trkpt>
      <trkpt lat="59.6212023" lon="17.8012538">
        <ele>36.6</ele>
        <time>2012-03-24T12:34:02Z</time>
      </trkpt>
      <trkpt lat="59.6211217" lon="17.8008996">
        <ele>37.6</ele>
        <time>2012-03-24T12:34:06Z</time>
      </trkpt>
      <trkpt lat="59.6210398" lon="17.8006847">
        <ele>38.2</ele>
        <time>2012-03-24T12:34:09Z</time>
      </trkpt>
      <trkpt lat="59.621012" lon="17.8006142">
        <ele>38</ele>
        <time>2012-03-24T12:34:10Z</time>
      </trkpt>
      <trkpt lat="59.6208216" lon="17.7999967">
        <ele>38.2</ele>
        <time>2012-03-24T12:34:17Z</time>
      </trkpt>
      <trkpt lat="59.6207337" lon="17.799672">
        <ele>38</ele>
        <time>2012-03-24T12:34:21Z</time>
      </trkpt>
      <trkpt lat="59.6206695" lon="17.7994305">
        <ele>38.4</ele>
        <time>2012-03-24T12:34:24Z</time>
      </trkpt>
      <trkpt lat="59.6206503" lon="17.7993513">
        <ele>38.4</ele>
        <time>2012-03-24T12:34:25Z</time>
      </trkpt>
      <trkpt lat="59.6205684" lon="17.7986689">
        <ele>42.6</ele>
        <time>2012-03-24T12:34:34Z</time>
      </trkpt>
      <trkpt lat="59.6209321" lon="17.7984058">
        <ele>44.6</ele>
        <time>2012-03-24T12:34:42Z</time>
      </trkpt>
      <trkpt lat="59.6213184" lon="17.7984687">
        <ele>45.8</ele>
        <time>2012-03-24T12:34:48Z</time>
      </trkpt>
      <trkpt lat="59.6213847" lon="17.7984964">
        <ele>45.4</ele>
        <time>2012-03-24T12:34:49Z</time>
      </trkpt>
      <trkpt lat="59.6217359" lon="17.798708">
        <ele>43.8</ele>
        <time>2012-03-24T12:34:54Z</time>
      </trkpt>
      <trkpt lat="59.6220656" lon="17.7990424">
        <ele>41</ele>
        <time>2012-03-24T12:34:59Z</time>
      </trkpt>
      <trkpt lat="59.6224279" lon="17.7993067">
        <ele>39.8</ele>
        <time>2012-03-24T12:35:04Z</time>
      </trkpt>
      <trkpt lat="59.6228208" lon="17.7993394">
        <ele>38</ele>
        <time>2012-03-24T12:35:09Z</time>
      </trkpt>
      <trkpt lat="59.6232098" lon="17.7991305">
        <ele>37.8</ele>
        <time>2012-03-24T12:35:14Z</time>
      </trkpt>
      <trkpt lat="59.6235315" lon="17.7987738">
        <ele>36.8</ele>
        <time>2012-03-24T12:35:19Z</time>
      </trkpt>
      <trkpt lat="59.6238475" lon="17.7983658">
        <ele>35.2</ele>
        <time>2012-03-24T12:35:24Z</time>
      </trkpt>
      <trkpt lat="59.6241945" lon="17.7979153">
        <ele>33</ele>
        <time>2012-03-24T12:35:29Z</time>
      </trkpt>
      <trkpt lat="59.6245043" lon="17.7975308">
        <ele>30.2</ele>
        <time>2012-03-24T12:35:33Z</time>
      </trkpt>
      <trkpt lat="59.6248253" lon="17.7971273">
        <ele>27.6</ele>
        <time>2012-03-24T12:35:37Z</time>
      </trkpt>
      <trkpt lat="59.6251322" lon="17.796743">
        <ele>26.2</ele>
        <time>2012-03-24T12:35:41Z</time>
      </trkpt>
      <trkpt lat="59.6254901" lon="17.7963819">
        <ele>25.2</ele>
        <time>2012-03-24T12:35:45Z</time>
      </trkpt>
      <trkpt lat="59.6258687" lon="17.7960558">
        <ele>24.6</ele>
        <time>2012-03-24T12:35:51Z</time>
      </trkpt>
      <trkpt lat="59.6258725" lon="17.7955641">
        <ele>24.6</ele>
        <time>2012-03-24T12:35:56Z</time>
      </trkpt>
      <trkpt lat="59.625832" lon="17.7952973">
        <ele>24.4</ele>
        <time>2012-03-24T12:35:57Z</time>
      </trkpt>
      <trkpt lat="59.625775" lon="17.7946063">
        <ele>24.2</ele>
        <time>2012-03-24T12:36:03Z</time>
      </trkpt>
      <trkpt lat="59.6258522" lon="17.7938964">
        <ele>24</ele>
        <time>2012-03-24T12:36:08Z</time>
      </trkpt>
      <trkpt lat="59.6258768" lon="17.7937551">
        <ele>24</ele>
        <time>2012-03-24T12:36:09Z</time>
      </trkpt>
      <trkpt lat="59.6260117" lon="17.793228">
        <ele>24.2</ele>
        <time>2012-03-24T12:36:13Z</time>
      </trkpt>
      <trkpt lat="59.6261252" lon="17.7926209">
        <ele>25.6</ele>
        <time>2012-03-24T12:36:18Z</time>
      </trkpt>
      <trkpt lat="59.6261346" lon="17.7925027">
        <ele>25.8</ele>
        <time>2012-03-24T12:36:19Z</time>
      </trkpt>
      <trkpt lat="59.626193" lon="17.7917299">
        <ele>27.4</ele>
        <time>2012-03-24T12:36:26Z</time>
      </trkpt>
      <trkpt lat="59.6262055" lon="17.7915187">
        <ele>27.6</ele>
        <time>2012-03-24T12:36:28Z</time>
      </trkpt>
      <trkpt lat="59.6261986" lon="17.7909809">
        <ele>29</ele>
        <time>2012-03-24T12:36:33Z</time>
      </trkpt>
      <trkpt lat="59.6261879" lon="17.7902157">
        <ele>29.6</ele>
        <time>2012-03-24T12:36:40Z</time>
      </trkpt>
      <trkpt lat="59.6261636" lon="17.7894365">
        <ele>30.4</ele>
        <time>2012-03-24T12:36:47Z</time>
      </trkpt>
      <trkpt lat="59.626117" lon="17.7890108">
        <ele>31.2</ele>
        <time>2012-03-24T12:36:51Z</time>
      </trkpt>
      <trkpt lat="59.6260609" lon="17.7886818">
        <ele>31.4</ele>
        <time>2012-03-24T12:36:54Z</time>
      </trkpt>
      <trkpt lat="59.6259799" lon="17.788111">
        <ele>31.2</ele>
        <time>2012-03-24T12:36:59Z</time>
      </trkpt>
      <trkpt lat="59.6259724" lon="17.7879968">
        <ele>31.2</ele>
        <time>2012-03-24T12:37:00Z</time>
      </trkpt>
      <trkpt lat="59.6259651" lon="17.7877722">
        <ele>31.8</ele>
        <time>2012-03-24T12:37:02Z</time>
      </trkpt>
      <trkpt lat="59.6259774" lon="17.7874437">
        <ele>32.2</ele>
        <time>2012-03-24T12:37:05Z</time>
      </trkpt>
      <trkpt lat="59.6260025" lon="17.7872201">
        <ele>32</ele>
        <time>2012-03-24T12:37:07Z</time>
      </trkpt>
      <trkpt lat="59.6261457" lon="17.7864708">
        <ele>31.6</ele>
        <time>2012-03-24T12:37:14Z</time>
      </trkpt>
      <trkpt lat="59.6262944" lon="17.7858334">
        <ele>30.4</ele>
        <time>2012-03-24T12:37:20Z</time>
      </trkpt>
      <trkpt lat="59.6264147" lon="17.785045">
        <ele>27</ele>
        <time>2012-03-24T12:37:26Z</time>
      </trkpt>
      <trkpt lat="59.6265055" lon="17.7843479">
        <ele>26.2</ele>
        <time>2012-03-24T12:37:31Z</time>
      </trkpt>
      <trkpt lat="59.626594" lon="17.7836316">
        <ele>25.6</ele>
        <time>2012-03-24T12:37:36Z</time>
      </trkpt>
      <trkpt lat="59.6266245" lon="17.7833409">
        <ele>25.4</ele>
        <time>2012-03-24T12:37:38Z</time>
      </trkpt>
      <trkpt lat="59.6266515" lon="17.7828978">
        <ele>25.2</ele>
        <time>2012-03-24T12:37:41Z</time>
      </trkpt>
      <trkpt lat="59.626707" lon="17.7824427">
        <ele>24.4</ele>
        <time>2012-03-24T12:37:44Z</time>
      </trkpt>
      <trkpt lat="59.6267193" lon="17.7821156">
        <ele>23.8</ele>
        <time>2012-03-24T12:37:46Z</time>
      </trkpt>
      <trkpt lat="59.6267239" lon="17.7812763">
        <ele>23</ele>
        <time>2012-03-24T12:37:51Z</time>
      </trkpt>
      <trkpt lat="59.6267049" lon="17.7805345">
        <ele>23</ele>
        <time>2012-03-24T12:37:56Z</time>
      </trkpt>
      <trkpt lat="59.6267091" lon="17.7801259">
        <ele>23</ele>
        <time>2012-03-24T12:37:59Z</time>
      </trkpt>
      <trkpt lat="59.6267468" lon="17.7797524">
        <ele>23.2</ele>
        <time>2012-03-24T12:38:02Z</time>
      </trkpt>
      <trkpt lat="59.6267903" lon="17.7791675">
        <ele>23.6</ele>
        <time>2012-03-24T12:38:07Z</time>
      </trkpt>
      <trkpt lat="59.6268075" lon="17.7790528">
        <ele>23.8</ele>
        <time>2012-03-24T12:38:08Z</time>
      </trkpt>
      <trkpt lat="59.6269146" lon="17.7783513">
        <ele>24.2</ele>
        <time>2012-03-24T12:38:14Z</time>
      </trkpt>
      <trkpt lat="59.6270159" lon="17.7775674">
        <ele>23.8</ele>
        <time>2012-03-24T12:38:20Z</time>
      </trkpt>
      <trkpt lat="59.6270743" lon="17.7767603">
        <ele>23.6</ele>
        <time>2012-03-24T12:38:26Z</time>
      </trkpt>
      <trkpt lat="59.627097" lon="17.7760049">
        <ele>23</ele>
        <time>2012-03-24T12:38:32Z</time>
      </trkpt>
      <trkpt lat="59.6270914" lon="17.7752375">
        <ele>22.6</ele>
        <time>2012-03-24T12:38:38Z</time>
      </trkpt>
      <trkpt lat="59.6270654" lon="17.7745622">
        <ele>22</ele>
        <time>2012-03-24T12:38:44Z</time>
      </trkpt>
      <trkpt lat="59.6270716" lon="17.7744618">
        <ele>21.8</ele>
        <time>2012-03-24T12:38:45Z</time>
      </trkpt>
      <trkpt lat="59.6272213" lon="17.7741826">
        <ele>23</ele>
        <time>2012-03-24T12:38:49Z</time>
      </trkpt>
      <trkpt lat="59.6272721" lon="17.774119">
        <ele>23.4</ele>
        <time>2012-03-24T12:38:50Z</time>
      </trkpt>
      <trkpt lat="59.627361" lon="17.7739512">
        <ele>23.6</ele>
        <time>2012-03-24T12:38:51Z</time>
      </trkpt>
      <trkpt lat="59.6274526" lon="17.7732185">
        <ele>24</ele>
        <time>2012-03-24T12:38:58Z</time>
      </trkpt>
      <trkpt lat="59.6274565" lon="17.7723909">
        <ele>22.8</ele>
        <time>2012-03-24T12:39:04Z</time>
      </trkpt>
      <trkpt lat="59.6275243" lon="17.7716678">
        <ele>22.4</ele>
        <time>2012-03-24T12:39:09Z</time>
      </trkpt>
      <trkpt lat="59.6276719" lon="17.7709586">
        <ele>21.6</ele>
        <time>2012-03-24T12:39:14Z</time>
      </trkpt>
      <trkpt lat="59.6278528" lon="17.7703297">
        <ele>20.8</ele>
        <time>2012-03-24T12:39:19Z</time>
      </trkpt>
      <trkpt lat="59.6279171" lon="17.7700791">
        <ele>20.4</ele>
        <time>2012-03-24T12:39:21Z</time>
      </trkpt>
      <trkpt lat="59.6280093" lon="17.7695496">
        <ele>19.4</ele>
        <time>2012-03-24T12:39:25Z</time>
      </trkpt>
      <trkpt lat="59.6281229" lon="17.7688364">
        <ele>17.8</ele>
        <time>2012-03-24T12:39:30Z</time>
      </trkpt>
      <trkpt lat="59.6282369" lon="17.7681049">
        <ele>16.2</ele>
        <time>2012-03-24T12:39:35Z</time>
      </trkpt>
      <trkpt lat="59.628355" lon="17.7673771">
        <ele>15.2</ele>
        <time>2012-03-24T12:39:40Z</time>
      </trkpt>
      <trkpt lat="59.6284157" lon="17.7669393">
        <ele>14.4</ele>
        <time>2012-03-24T12:39:43Z</time>
      </trkpt>
      <trkpt lat="59.6284143" lon="17.7666451">
        <ele>14</ele>
        <time>2012-03-24T12:39:45Z</time>
      </trkpt>
      <trkpt lat="59.6283055" lon="17.765949">
        <ele>11.6</ele>
        <time>2012-03-24T12:39:50Z</time>
      </trkpt>
      <trkpt lat="59.6283495" lon="17.76518">
        <ele>11.2</ele>
        <time>2012-03-24T12:39:55Z</time>
      </trkpt>
      <trkpt lat="59.6282381" lon="17.7643878">
        <ele>8.8</ele>
        <time>2012-03-24T12:40:00Z</time>
      </trkpt>
      <trkpt lat="59.6281958" lon="17.7642298">
        <ele>8.6</ele>
        <time>2012-03-24T12:40:01Z</time>
      </trkpt>
      <trkpt lat="59.6280435" lon="17.7637753">
        <ele>7.8</ele>
        <time>2012-03-24T12:40:04Z</time>
      </trkpt>
      <trkpt lat="59.6279983" lon="17.7636144">
        <ele>7.6</ele>
        <time>2012-03-24T12:40:05Z</time>
      </trkpt>
      <trkpt lat="59.6278729" lon="17.7631316">
        <ele>7.4</ele>
        <time>2012-03-24T12:40:08Z</time>
      </trkpt>
      <trkpt lat="59.6276826" lon="17.762398">
        <ele>8.6</ele>
        <time>2012-03-24T12:40:13Z</time>
      </trkpt>
      <trkpt lat="59.6275015" lon="17.761713">
        <ele>10.6</ele>
        <time>2012-03-24T12:40:19Z</time>
      </trkpt>
      <trkpt lat="59.6273181" lon="17.7610967">
        <ele>11.8</ele>
        <time>2012-03-24T12:40:25Z</time>
      </trkpt>
      <trkpt lat="59.6270959" lon="17.7604638">
        <ele>12.8</ele>
        <time>2012-03-24T12:40:31Z</time>
      </trkpt>
      <trkpt lat="59.6268658" lon="17.7598203">
        <ele>14.6</ele>
        <time>2012-03-24T12:40:37Z</time>
      </trkpt>
      <trkpt lat="59.6266458" lon="17.7592182">
        <ele>15.6</ele>
        <time>2012-03-24T12:40:43Z</time>
      </trkpt>
      <trkpt lat="59.6264292" lon="17.7586372">
        <ele>16.6</ele>
        <time>2012-03-24T12:40:49Z</time>
      </trkpt>
      <trkpt lat="59.6261759" lon="17.7580983">
        <ele>15.6</ele>
        <time>2012-03-24T12:40:56Z</time>
      </trkpt>
      <trkpt lat="59.6260102" lon="17.7575438">
        <ele>16.8</ele>
        <time>2012-03-24T12:41:03Z</time>
      </trkpt>
      <trkpt lat="59.625992" lon="17.7574567">
        <ele>17</ele>
        <time>2012-03-24T12:41:04Z</time>
      </trkpt>
      <trkpt lat="59.6258123" lon="17.756852">
        <ele>19.2</ele>
        <time>2012-03-24T12:41:11Z</time>
      </trkpt>
      <trkpt lat="59.6255976" lon="17.7561523">
        <ele>20.2</ele>
        <time>2012-03-24T12:41:18Z</time>
      </trkpt>
      <trkpt lat="59.6255243" lon="17.7559274">
        <ele>20</ele>
        <time>2012-03-24T12:41:20Z</time>
      </trkpt>
      <trkpt lat="59.6253648" lon="17.7554632">
        <ele>19.6</ele>
        <time>2012-03-24T12:41:24Z</time>
      </trkpt>
      <trkpt lat="59.6251804" lon="17.7548521">
        <ele>20.6</ele>
        <time>2012-03-24T12:41:29Z</time>
      </trkpt>
      <trkpt lat="59.6249762" lon="17.7541586">
        <ele>22.4</ele>
        <time>2012-03-24T12:41:35Z</time>
      </trkpt>
      <trkpt lat="59.6247668" lon="17.75351">
        <ele>24</ele>
        <time>2012-03-24T12:41:41Z</time>
      </trkpt>
      <trkpt lat="59.6246825" lon="17.7532617">
        <ele>25.2</ele>
        <time>2012-03-24T12:41:44Z</time>
      </trkpt>
      <trkpt lat="59.6245976" lon="17.7528439">
        <ele>26</ele>
        <time>2012-03-24T12:41:49Z</time>
      </trkpt>
      <trkpt lat="59.6244752" lon="17.7521595">
        <ele>25</ele>
        <time>2012-03-24T12:41:59Z</time>
      </trkpt>
      <trkpt lat="59.6242934" lon="17.7514281">
        <ele>23.6</ele>
        <time>2012-03-24T12:42:06Z</time>
      </trkpt>
      <trkpt lat="59.6240625" lon="17.7507091">
        <ele>21.8</ele>
        <time>2012-03-24T12:42:12Z</time>
      </trkpt>
      <trkpt lat="59.6238517" lon="17.7500512">
        <ele>20.8</ele>
        <time>2012-03-24T12:42:17Z</time>
      </trkpt>
      <trkpt lat="59.6236342" lon="17.7493882">
        <ele>20.4</ele>
        <time>2012-03-24T12:42:22Z</time>
      </trkpt>
      <trkpt lat="59.6234289" lon="17.748732">
        <ele>21.6</ele>
        <time>2012-03-24T12:42:27Z</time>
      </trkpt>
      <trkpt lat="59.6232124" lon="17.7480342">
        <ele>23</ele>
        <time>2012-03-24T12:42:33Z</time>
      </trkpt>
      <trkpt lat="59.622986" lon="17.7473783">
        <ele>23.6</ele>
        <time>2012-03-24T12:42:39Z</time>
      </trkpt>
      <trkpt lat="59.6228529" lon="17.7470617">
        <ele>24.2</ele>
        <time>2012-03-24T12:42:42Z</time>
      </trkpt>
      <trkpt lat="59.6227451" lon="17.7468717">
        <ele>24.2</ele>
        <time>2012-03-24T12:42:44Z</time>
      </trkpt>
      <trkpt lat="59.6226897" lon="17.7467808">
        <ele>24.2</ele>
        <time>2012-03-24T12:42:45Z</time>
      </trkpt>
      <trkpt lat="59.6223898" lon="17.7463092">
        <ele>23.8</ele>
        <time>2012-03-24T12:42:50Z</time>
      </trkpt>
      <trkpt lat="59.6220396" lon="17.7457826">
        <ele>22.4</ele>
        <time>2012-03-24T12:42:55Z</time>
      </trkpt>
      <trkpt lat="59.6217469" lon="17.7453326">
        <ele>21</ele>
        <time>2012-03-24T12:42:59Z</time>
      </trkpt>
      <trkpt lat="59.621463" lon="17.7448927">
        <ele>18.8</ele>
        <time>2012-03-24T12:43:03Z</time>
      </trkpt>
      <trkpt lat="59.6211119" lon="17.7443692">
        <ele>15.8</ele>
        <time>2012-03-24T12:43:08Z</time>
      </trkpt>
      <trkpt lat="59.620803" lon="17.7439549">
        <ele>13.4</ele>
        <time>2012-03-24T12:43:12Z</time>
      </trkpt>
      <trkpt lat="59.6204525" lon="17.7435236">
        <ele>11.2</ele>
        <time>2012-03-24T12:43:16Z</time>
      </trkpt>
      <trkpt lat="59.620279" lon="17.7432668">
        <ele>10.8</ele>
        <time>2012-03-24T12:43:18Z</time>
      </trkpt>
      <trkpt lat="59.6201454" lon="17.7429436">
        <ele>10</ele>
        <time>2012-03-24T12:43:20Z</time>
      </trkpt>
      <trkpt lat="59.6200131" lon="17.7421873">
        <ele>9.6</ele>
        <time>2012-03-24T12:43:24Z</time>
      </trkpt>
      <trkpt lat="59.6200506" lon="17.7414731">
        <ele>10</ele>
        <time>2012-03-24T12:43:28Z</time>
      </trkpt>
      <trkpt lat="59.6200758" lon="17.7413013">
        <ele>10</ele>
        <time>2012-03-24T12:43:29Z</time>
      </trkpt>
      <trkpt lat="59.6201723" lon="17.740643">
        <ele>10.6</ele>
        <time>2012-03-24T12:43:33Z</time>
      </trkpt>
      <trkpt lat="59.6202773" lon="17.7399433">
        <ele>13</ele>
        <time>2012-03-24T12:43:38Z</time>
      </trkpt>
      <trkpt lat="59.6203965" lon="17.7392134">
        <ele>13</ele>
        <time>2012-03-24T12:43:43Z</time>
      </trkpt>
      <trkpt lat="59.6205565" lon="17.7384722">
        <ele>10.6</ele>
        <time>2012-03-24T12:43:48Z</time>
      </trkpt>
      <trkpt lat="59.6207208" lon="17.7377866">
        <ele>8.4</ele>
        <time>2012-03-24T12:43:53Z</time>
      </trkpt>
      <trkpt lat="59.6208404" lon="17.7374051">
        <ele>7.4</ele>
        <time>2012-03-24T12:43:56Z</time>
      </trkpt>
      <trkpt lat="59.6209504" lon="17.7371933">
        <ele>7.4</ele>
        <time>2012-03-24T12:43:58Z</time>
      </trkpt>
      <trkpt lat="59.6210723" lon="17.73702">
        <ele>7.4</ele>
        <time>2012-03-24T12:44:00Z</time>
      </trkpt>
      <trkpt lat="59.6212563" lon="17.7367304">
        <ele>6.6</ele>
        <time>2012-03-24T12:44:03Z</time>
      </trkpt>
      <trkpt lat="59.6215283" lon="17.7361333">
        <ele>7</ele>
        <time>2012-03-24T12:44:08Z</time>
      </trkpt>
      <trkpt lat="59.6215722" lon="17.7360099">
        <ele>7.4</ele>
        <time>2012-03-24T12:44:09Z</time>
      </trkpt>
      <trkpt lat="59.6216491" lon="17.7354496">
        <ele>7.4</ele>
        <time>2012-03-24T12:44:13Z</time>
      </trkpt>
      <trkpt lat="59.6215349" lon="17.7347791">
        <ele>7.8</ele>
        <time>2012-03-24T12:44:18Z</time>
      </trkpt>
      <trkpt lat="59.6212635" lon="17.7343408">
        <ele>9.8</ele>
        <time>2012-03-24T12:44:23Z</time>
      </trkpt>
      <trkpt lat="59.6211948" lon="17.7342838">
        <ele>9.8</ele>
        <time>2012-03-24T12:44:24Z</time>
      </trkpt>
      <trkpt lat="59.6209631" lon="17.7342106">
        <ele>10.2</ele>
        <time>2012-03-24T12:44:27Z</time>
      </trkpt>
      <trkpt lat="59.6208809" lon="17.7342208">
        <ele>10.4</ele>
        <time>2012-03-24T12:44:28Z</time>
      </trkpt>
      <trkpt lat="59.620646" lon="17.7343364">
        <ele>10.6</ele>
        <time>2012-03-24T12:44:31Z</time>
      </trkpt>
      <trkpt lat="59.6204991" lon="17.7344265">
        <ele>10.2</ele>
        <time>2012-03-24T12:44:33Z</time>
      </trkpt>
      <trkpt lat="59.6201152" lon="17.7342619">
        <ele>11</ele>
        <time>2012-03-24T12:44:38Z</time>
      </trkpt>
      <trkpt lat="59.6198991" lon="17.7338594">
        <ele>11.6</ele>
        <time>2012-03-24T12:44:42Z</time>
      </trkpt>
      <trkpt lat="59.6198517" lon="17.7337545">
        <ele>11.8</ele>
        <time>2012-03-24T12:44:43Z</time>
      </trkpt>
      <trkpt lat="59.6196914" lon="17.7333569">
        <ele>13.4</ele>
        <time>2012-03-24T12:44:47Z</time>
      </trkpt>
      <trkpt lat="59.6196467" lon="17.73315">
        <ele>14</ele>
        <time>2012-03-24T12:44:49Z</time>
      </trkpt>
      <trkpt lat="59.6195255" lon="17.7323213">
        <ele>13.2</ele>
        <time>2012-03-24T12:44:57Z</time>
      </trkpt>
      <trkpt lat="59.6194297" lon="17.7317485">
        <ele>14.4</ele>
        <time>2012-03-24T12:45:05Z</time>
      </trkpt>
      <trkpt lat="59.6194035" lon="17.7316696">
        <ele>14.8</ele>
        <time>2012-03-24T12:45:06Z</time>
      </trkpt>
      <trkpt lat="59.6192698" lon="17.7313695">
        <ele>17.8</ele>
        <time>2012-03-24T12:45:10Z</time>
      </trkpt>
      <trkpt lat="59.6191377" lon="17.731178">
        <ele>20</ele>
        <time>2012-03-24T12:45:13Z</time>
      </trkpt>
      <trkpt lat="59.6189032" lon="17.7308565">
        <ele>22.6</ele>
        <time>2012-03-24T12:45:18Z</time>
      </trkpt>
      <trkpt lat="59.6188222" lon="17.7306891">
        <ele>23.6</ele>
        <time>2012-03-24T12:45:20Z</time>
      </trkpt>
      <trkpt lat="59.6185694" lon="17.7300633">
        <ele>25.4</ele>
        <time>2012-03-24T12:45:27Z</time>
      </trkpt>
      <trkpt lat="59.6184239" lon="17.7297596">
        <ele>25.2</ele>
        <time>2012-03-24T12:45:31Z</time>
      </trkpt>
      <trkpt lat="59.618313" lon="17.7295364">
        <ele>25</ele>
        <time>2012-03-24T12:45:33Z</time>
      </trkpt>
      <trkpt lat="59.6180561" lon="17.7290205">
        <ele>27</ele>
        <time>2012-03-24T12:45:41Z</time>
      </trkpt>
      <trkpt lat="59.6177491" lon="17.7285037">
        <ele>26.4</ele>
        <time>2012-03-24T12:45:48Z</time>
      </trkpt>
      <trkpt lat="59.6174706" lon="17.727859">
        <ele>23.4</ele>
        <time>2012-03-24T12:45:54Z</time>
      </trkpt>
      <trkpt lat="59.617287" lon="17.7271179">
        <ele>21.2</ele>
        <time>2012-03-24T12:45:59Z</time>
      </trkpt>
      <trkpt lat="59.6171434" lon="17.7263036">
        <ele>19.4</ele>
        <time>2012-03-24T12:46:04Z</time>
      </trkpt>
      <trkpt lat="59.6170796" lon="17.7254762">
        <ele>17</ele>
        <time>2012-03-24T12:46:09Z</time>
      </trkpt>
      <trkpt lat="59.6170598" lon="17.7249806">
        <ele>15</ele>
        <time>2012-03-24T12:46:12Z</time>
      </trkpt>
      <trkpt lat="59.6170845" lon="17.7246692">
        <ele>13.8</ele>
        <time>2012-03-24T12:46:14Z</time>
      </trkpt>
      <trkpt lat="59.6173782" lon="17.7243298">
        <ele>13.8</ele>
        <time>2012-03-24T12:46:19Z</time>
      </trkpt>
      <trkpt lat="59.6175506" lon="17.7242379">
        <ele>14.2</ele>
        <time>2012-03-24T12:46:22Z</time>
      </trkpt>
      <trkpt lat="59.617613" lon="17.7238609">
        <ele>14.2</ele>
        <time>2012-03-24T12:46:26Z</time>
      </trkpt>
      <trkpt lat="59.6175873" lon="17.7235974">
        <ele>13.8</ele>
        <time>2012-03-24T12:46:28Z</time>
      </trkpt>
      <trkpt lat="59.6175598" lon="17.7233359">
        <ele>14</ele>
        <time>2012-03-24T12:46:30Z</time>
      </trkpt>
      <trkpt lat="59.6175263" lon="17.7230858">
        <ele>14</ele>
        <time>2012-03-24T12:46:32Z</time>
      </trkpt>
      <trkpt lat="59.61742" lon="17.7222938">
        <ele>15.4</ele>
        <time>2012-03-24T12:46:39Z</time>
      </trkpt>
      <trkpt lat="59.6173395" lon="17.7219139">
        <ele>16.8</ele>
        <time>2012-03-24T12:46:43Z</time>
      </trkpt>
      <trkpt lat="59.6172469" lon="17.7216347">
        <ele>17</ele>
        <time>2012-03-24T12:46:46Z</time>
      </trkpt>
      <trkpt lat="59.6170196" lon="17.7209789">
        <ele>17.8</ele>
        <time>2012-03-24T12:46:53Z</time>
      </trkpt>
      <trkpt lat="59.6167746" lon="17.7204708">
        <ele>20.8</ele>
        <time>2012-03-24T12:46:59Z</time>
      </trkpt>
      <trkpt lat="59.6165108" lon="17.7199688">
        <ele>23</ele>
        <time>2012-03-24T12:47:05Z</time>
      </trkpt>
      <trkpt lat="59.6162757" lon="17.7194114">
        <ele>23.2</ele>
        <time>2012-03-24T12:47:11Z</time>
      </trkpt>
      <trkpt lat="59.6160533" lon="17.7187053">
        <ele>23.4</ele>
        <time>2012-03-24T12:47:17Z</time>
      </trkpt>
      <trkpt lat="59.6159908" lon="17.7184438">
        <ele>22.8</ele>
        <time>2012-03-24T12:47:19Z</time>
      </trkpt>
      <trkpt lat="59.6159376" lon="17.7178895">
        <ele>23</ele>
        <time>2012-03-24T12:47:23Z</time>
      </trkpt>
      <trkpt lat="59.6158862" lon="17.7170413">
        <ele>22.6</ele>
        <time>2012-03-24T12:47:29Z</time>
      </trkpt>
      <trkpt lat="59.6159044" lon="17.7162117">
        <ele>20.4</ele>
        <time>2012-03-24T12:47:35Z</time>
      </trkpt>
      <trkpt lat="59.6159033" lon="17.7154979">
        <ele>17.6</ele>
        <time>2012-03-24T12:47:41Z</time>
      </trkpt>
      <trkpt lat="59.6156733" lon="17.715276">
        <ele>17.4</ele>
        <time>2012-03-24T12:47:47Z</time>
      </trkpt>
      <trkpt lat="59.615607" lon="17.7152772">
        <ele>17.2</ele>
        <time>2012-03-24T12:47:48Z</time>
      </trkpt>
      <trkpt lat="59.6153385" lon="17.715272">
        <ele>16.4</ele>
        <time>2012-03-24T12:47:51Z</time>
      </trkpt>
      <trkpt lat="59.6152212" lon="17.7151639">
        <ele>16.2</ele>
        <time>2012-03-24T12:47:54Z</time>
      </trkpt>
      <trkpt lat="59.615097" lon="17.7146328">
        <ele>15.2</ele>
        <time>2012-03-24T12:47:58Z</time>
      </trkpt>
      <trkpt lat="59.6150692" lon="17.7144772">
        <ele>15</ele>
        <time>2012-03-24T12:47:59Z</time>
      </trkpt>
      <trkpt lat="59.6149013" lon="17.7137311">
        <ele>13.6</ele>
        <time>2012-03-24T12:48:04Z</time>
      </trkpt>
      <trkpt lat="59.6147388" lon="17.7130169">
        <ele>12.4</ele>
        <time>2012-03-24T12:48:09Z</time>
      </trkpt>
      <trkpt lat="59.6145844" lon="17.712265">
        <ele>13.6</ele>
        <time>2012-03-24T12:48:15Z</time>
      </trkpt>
      <trkpt lat="59.6145699" lon="17.711905">
        <ele>14</ele>
        <time>2012-03-24T12:48:18Z</time>
      </trkpt>
      <trkpt lat="59.6145569" lon="17.7114849">
        <ele>15</ele>
        <time>2012-03-24T12:48:22Z</time>
      </trkpt>
      <trkpt lat="59.6145782" lon="17.7110915">
        <ele>15.2</ele>
        <time>2012-03-24T12:48:26Z</time>
      </trkpt>
      <trkpt lat="59.6145989" lon="17.7107506">
        <ele>13.8</ele>
        <time>2012-03-24T12:48:29Z</time>
      </trkpt>
      <trkpt lat="59.6146536" lon="17.7100449">
        <ele>12.2</ele>
        <time>2012-03-24T12:48:35Z</time>
      </trkpt>
      <trkpt lat="59.6147293" lon="17.7092258">
        <ele>10.2</ele>
        <time>2012-03-24T12:48:41Z</time>
      </trkpt>
      <trkpt lat="59.6147817" lon="17.7086083">
        <ele>9.2</ele>
        <time>2012-03-24T12:48:45Z</time>
      </trkpt>
      <trkpt lat="59.6147822" lon="17.7084422">
        <ele>8.6</ele>
        <time>2012-03-24T12:48:46Z</time>
      </trkpt>
      <trkpt lat="59.6146586" lon="17.7075978">
        <ele>6.8</ele>
        <time>2012-03-24T12:48:51Z</time>
      </trkpt>
      <trkpt lat="59.614489" lon="17.7069581">
        <ele>6.4</ele>
        <time>2012-03-24T12:48:55Z</time>
      </trkpt>
      <trkpt lat="59.6143071" lon="17.706268">
        <ele>7</ele>
        <time>2012-03-24T12:49:00Z</time>
      </trkpt>
      <trkpt lat="59.6141389" lon="17.7055729">
        <ele>8.6</ele>
        <time>2012-03-24T12:49:06Z</time>
      </trkpt>
      <trkpt lat="59.614119" lon="17.7054625">
        <ele>8.6</ele>
        <time>2012-03-24T12:49:07Z</time>
      </trkpt>
      <trkpt lat="59.6140762" lon="17.7049078">
        <ele>9.8</ele>
        <time>2012-03-24T12:49:12Z</time>
      </trkpt>
      <trkpt lat="59.6140779" lon="17.7047972">
        <ele>10.2</ele>
        <time>2012-03-24T12:49:13Z</time>
      </trkpt>
      <trkpt lat="59.614096" lon="17.7040533">
        <ele>11.8</ele>
        <time>2012-03-24T12:49:20Z</time>
      </trkpt>
      <trkpt lat="59.6141213" lon="17.7032512">
        <ele>12.8</ele>
        <time>2012-03-24T12:49:27Z</time>
      </trkpt>
      <trkpt lat="59.6141359" lon="17.7025206">
        <ele>12.2</ele>
        <time>2012-03-24T12:49:33Z</time>
      </trkpt>
      <trkpt lat="59.614169" lon="17.7019059">
        <ele>13.8</ele>
        <time>2012-03-24T12:49:38Z</time>
      </trkpt>
      <trkpt lat="59.6141825" lon="17.701785">
        <ele>13.8</ele>
        <time>2012-03-24T12:49:39Z</time>
      </trkpt>
      <trkpt lat="59.6142446" lon="17.7014225">
        <ele>13.6</ele>
        <time>2012-03-24T12:49:42Z</time>
      </trkpt>
      <trkpt lat="59.6143362" lon="17.7010801">
        <ele>13.4</ele>
        <time>2012-03-24T12:49:45Z</time>
      </trkpt>
      <trkpt lat="59.6145284" lon="17.7003208">
        <ele>12.8</ele>
        <time>2012-03-24T12:49:51Z</time>
      </trkpt>
      <trkpt lat="59.614717" lon="17.6995711">
        <ele>12.8</ele>
        <time>2012-03-24T12:49:57Z</time>
      </trkpt>
      <trkpt lat="59.6149026" lon="17.6988242">
        <ele>12.8</ele>
        <time>2012-03-24T12:50:03Z</time>
      </trkpt>
      <trkpt lat="59.6151193" lon="17.6981307">
        <ele>11.2</ele>
        <time>2012-03-24T12:50:09Z</time>
      </trkpt>
      <trkpt lat="59.6153873" lon="17.6975144">
        <ele>9.8</ele>
        <time>2012-03-24T12:50:15Z</time>
      </trkpt>
      <trkpt lat="59.6156941" lon="17.6969583">
        <ele>10.2</ele>
        <time>2012-03-24T12:50:21Z</time>
      </trkpt>
      <trkpt lat="59.6160184" lon="17.6963953">
        <ele>12.4</ele>
        <time>2012-03-24T12:50:27Z</time>
      </trkpt>
      <trkpt lat="59.6163295" lon="17.6958361">
        <ele>13.8</ele>
        <time>2012-03-24T12:50:33Z</time>
      </trkpt>
      <trkpt lat="59.6164917" lon="17.695265">
        <ele>13</ele>
        <time>2012-03-24T12:50:38Z</time>
      </trkpt>
      <trkpt lat="59.6165053" lon="17.6951317">
        <ele>13</ele>
        <time>2012-03-24T12:50:39Z</time>
      </trkpt>
      <trkpt lat="59.6165249" lon="17.6943361">
        <ele>12.4</ele>
        <time>2012-03-24T12:50:45Z</time>
      </trkpt>
      <trkpt lat="59.6165384" lon="17.6936586">
        <ele>13.4</ele>
        <time>2012-03-24T12:50:51Z</time>
      </trkpt>
      <trkpt lat="59.6165438" lon="17.6935541">
        <ele>13.4</ele>
        <time>2012-03-24T12:50:52Z</time>
      </trkpt>
      <trkpt lat="59.6166311" lon="17.6928536">
        <ele>14.4</ele>
        <time>2012-03-24T12:50:59Z</time>
      </trkpt>
      <trkpt lat="59.6167726" lon="17.6921517">
        <ele>15.4</ele>
        <time>2012-03-24T12:51:07Z</time>
      </trkpt>
      <trkpt lat="59.6167968" lon="17.692061">
        <ele>15.6</ele>
        <time>2012-03-24T12:51:08Z</time>
      </trkpt>
      <trkpt lat="59.6168523" lon="17.6918786">
        <ele>15.2</ele>
        <time>2012-03-24T12:51:10Z</time>
      </trkpt>
      <trkpt lat="59.6169757" lon="17.6915604">
        <ele>15.6</ele>
        <time>2012-03-24T12:51:14Z</time>
      </trkpt>
      <trkpt lat="59.6171846" lon="17.6910798">
        <ele>17</ele>
        <time>2012-03-24T12:51:20Z</time>
      </trkpt>
      <trkpt lat="59.6172175" lon="17.6910036">
        <ele>17</ele>
        <time>2012-03-24T12:51:21Z</time>
      </trkpt>
      <trkpt lat="59.6174397" lon="17.6903879">
        <ele>18.4</ele>
        <time>2012-03-24T12:51:30Z</time>
      </trkpt>
      <trkpt lat="59.617513" lon="17.6901138">
        <ele>19.2</ele>
        <time>2012-03-24T12:51:34Z</time>
      </trkpt>
      <trkpt lat="59.6175982" lon="17.6897456">
        <ele>18.6</ele>
        <time>2012-03-24T12:51:39Z</time>
      </trkpt>
      <trkpt lat="59.6177676" lon="17.6890385">
        <ele>17.6</ele>
        <time>2012-03-24T12:51:48Z</time>
      </trkpt>
      <trkpt lat="59.617792" lon="17.6889572">
        <ele>17.4</ele>
        <time>2012-03-24T12:51:49Z</time>
      </trkpt>
      <trkpt lat="59.6179551" lon="17.6884244">
        <ele>18.4</ele>
        <time>2012-03-24T12:51:55Z</time>
      </trkpt>
      <trkpt lat="59.6179837" lon="17.6883313">
        <ele>18.6</ele>
        <time>2012-03-24T12:51:56Z</time>
      </trkpt>
      <trkpt lat="59.6180366" lon="17.6881417">
        <ele>18.2</ele>
        <time>2012-03-24T12:51:58Z</time>
      </trkpt>
      <trkpt lat="59.6180997" lon="17.687949">
        <ele>18.4</ele>
        <time>2012-03-24T12:52:00Z</time>
      </trkpt>
      <trkpt lat="59.618155" lon="17.6877475">
        <ele>18.6</ele>
        <time>2012-03-24T12:52:02Z</time>
      </trkpt>
      <trkpt lat="59.6182559" lon="17.6874368">
        <ele>18.4</ele>
        <time>2012-03-24T12:52:05Z</time>
      </trkpt>
      <trkpt lat="59.6184016" lon="17.6871461">
        <ele>17.4</ele>
        <time>2012-03-24T12:52:08Z</time>
      </trkpt>
      <trkpt lat="59.6187275" lon="17.6867894">
        <ele>21.6</ele>
        <time>2012-03-24T12:52:14Z</time>
      </trkpt>
      <trkpt lat="59.6191004" lon="17.6864635">
        <ele>25.2</ele>
        <time>2012-03-24T12:52:22Z</time>
      </trkpt>
      <trkpt lat="59.6194108" lon="17.6862329">
        <ele>28.2</ele>
        <time>2012-03-24T12:52:28Z</time>
      </trkpt>
      <trkpt lat="59.6194639" lon="17.6862006">
        <ele>28.4</ele>
        <time>2012-03-24T12:52:29Z</time>
      </trkpt>
      <trkpt lat="59.6198444" lon="17.6859266">
        <ele>31</ele>
        <time>2012-03-24T12:52:36Z</time>
      </trkpt>
      <trkpt lat="59.6201846" lon="17.6857018">
        <ele>32.4</ele>
        <time>2012-03-24T12:52:43Z</time>
      </trkpt>
      <trkpt lat="59.6205259" lon="17.6855526">
        <ele>33</ele>
        <time>2012-03-24T12:52:51Z</time>
      </trkpt>
      <trkpt lat="59.62057" lon="17.6855508">
        <ele>33.2</ele>
        <time>2012-03-24T12:52:52Z</time>
      </trkpt>
      <trkpt lat="59.6209066" lon="17.685603">
        <ele>34.8</ele>
        <time>2012-03-24T12:53:01Z</time>
      </trkpt>
      <trkpt lat="59.6212812" lon="17.6857652">
        <ele>39.4</ele>
        <time>2012-03-24T12:53:11Z</time>
      </trkpt>
      <trkpt lat="59.6216624" lon="17.6859366">
        <ele>44.2</ele>
        <time>2012-03-24T12:53:21Z</time>
      </trkpt>
      <trkpt lat="59.6220598" lon="17.6861515">
        <ele>49.6</ele>
        <time>2012-03-24T12:53:29Z</time>
      </trkpt>
      <trkpt lat="59.6224284" lon="17.6864608">
        <ele>50.4</ele>
        <time>2012-03-24T12:53:36Z</time>
      </trkpt>
      <trkpt lat="59.6227426" lon="17.6869296">
        <ele>51.6</ele>
        <time>2012-03-24T12:53:43Z</time>
      </trkpt>
      <trkpt lat="59.6230279" lon="17.6874233">
        <ele>51.8</ele>
        <time>2012-03-24T12:53:49Z</time>
      </trkpt>
      <trkpt lat="59.6233206" lon="17.68795">
        <ele>53.2</ele>
        <time>2012-03-24T12:53:55Z</time>
      </trkpt>
      <trkpt lat="59.6233619" lon="17.6880427">
        <ele>53</ele>
        <time>2012-03-24T12:53:56Z</time>
      </trkpt>
      <trkpt lat="59.6235285" lon="17.6885836">
        <ele>52.4</ele>
        <time>2012-03-24T12:54:01Z</time>
      </trkpt>
      <trkpt lat="59.6236585" lon="17.6893586">
        <ele>51</ele>
        <time>2012-03-24T12:54:07Z</time>
      </trkpt>
      <trkpt lat="59.6237329" lon="17.6901014">
        <ele>48.6</ele>
        <time>2012-03-24T12:54:12Z</time>
      </trkpt>
      <trkpt lat="59.623817" lon="17.6908316">
        <ele>46.6</ele>
        <time>2012-03-24T12:54:17Z</time>
      </trkpt>
      <trkpt lat="59.6238822" lon="17.6914767">
        <ele>46.6</ele>
        <time>2012-03-24T12:54:22Z</time>
      </trkpt>
      <trkpt lat="59.6239085" lon="17.6915763">
        <ele>46.6</ele>
        <time>2012-03-24T12:54:23Z</time>
      </trkpt>
      <trkpt lat="59.6242043" lon="17.6917237">
        <ele>46.8</ele>
        <time>2012-03-24T12:54:29Z</time>
      </trkpt>
      <trkpt lat="59.6242628" lon="17.6917146">
        <ele>46.6</ele>
        <time>2012-03-24T12:54:30Z</time>
      </trkpt>
      <trkpt lat="59.6246275" lon="17.6917078">
        <ele>47.4</ele>
        <time>2012-03-24T12:54:36Z</time>
      </trkpt>
      <trkpt lat="59.6248321" lon="17.6917109">
        <ele>47.4</ele>
        <time>2012-03-24T12:54:39Z</time>
      </trkpt>
      <trkpt lat="59.6250498" lon="17.6916478">
        <ele>47.2</ele>
        <time>2012-03-24T12:54:42Z</time>
      </trkpt>
      <trkpt lat="59.6254143" lon="17.6914446">
        <ele>47.8</ele>
        <time>2012-03-24T12:54:48Z</time>
      </trkpt>
      <trkpt lat="59.625773" lon="17.6911318">
        <ele>46.8</ele>
        <time>2012-03-24T12:54:54Z</time>
      </trkpt>
      <trkpt lat="59.6261309" lon="17.6907935">
        <ele>44.6</ele>
        <time>2012-03-24T12:55:01Z</time>
      </trkpt>
      <trkpt lat="59.6264501" lon="17.6903133">
        <ele>45.6</ele>
        <time>2012-03-24T12:55:08Z</time>
      </trkpt>
      <trkpt lat="59.6267481" lon="17.6897201">
        <ele>46.6</ele>
        <time>2012-03-24T12:55:14Z</time>
      </trkpt>
      <trkpt lat="59.6270327" lon="17.6892944">
        <ele>45.6</ele>
        <time>2012-03-24T12:55:19Z</time>
      </trkpt>
      <trkpt lat="59.6273522" lon="17.6888648">
        <ele>43.4</ele>
        <time>2012-03-24T12:55:24Z</time>
      </trkpt>
      <trkpt lat="59.6276629" lon="17.6883448">
        <ele>43.6</ele>
        <time>2012-03-24T12:55:29Z</time>
      </trkpt>
      <trkpt lat="59.6279113" lon="17.6877352">
        <ele>43.8</ele>
        <time>2012-03-24T12:55:34Z</time>
      </trkpt>
      <trkpt lat="59.6281708" lon="17.6870498">
        <ele>44</ele>
        <time>2012-03-24T12:55:40Z</time>
      </trkpt>
      <trkpt lat="59.6284443" lon="17.6864437">
        <ele>43</ele>
        <time>2012-03-24T12:55:45Z</time>
      </trkpt>
      <trkpt lat="59.6286758" lon="17.6860359">
        <ele>43</ele>
        <time>2012-03-24T12:55:49Z</time>
      </trkpt>
      <trkpt lat="59.6287246" lon="17.6859164">
        <ele>42.8</ele>
        <time>2012-03-24T12:55:50Z</time>
      </trkpt>
      <trkpt lat="59.6287635" lon="17.6857707">
        <ele>42</ele>
        <time>2012-03-24T12:55:51Z</time>
      </trkpt>
      <trkpt lat="59.6287892" lon="17.6851865">
        <ele>40.6</ele>
        <time>2012-03-24T12:55:54Z</time>
      </trkpt>
      <trkpt lat="59.6287653" lon="17.6847938">
        <ele>39.6</ele>
        <time>2012-03-24T12:55:56Z</time>
      </trkpt>
      <trkpt lat="59.6287544" lon="17.6844164">
        <ele>39.4</ele>
        <time>2012-03-24T12:55:58Z</time>
      </trkpt>
      <trkpt lat="59.628768" lon="17.6840769">
        <ele>39</ele>
        <time>2012-03-24T12:56:00Z</time>
      </trkpt>
      <trkpt lat="59.6288882" lon="17.6836915">
        <ele>39</ele>
        <time>2012-03-24T12:56:03Z</time>
      </trkpt>
      <trkpt lat="59.6289981" lon="17.6834687">
        <ele>40.8</ele>
        <time>2012-03-24T12:56:05Z</time>
      </trkpt>
      <trkpt lat="59.629042" lon="17.6833562">
        <ele>40.4</ele>
        <time>2012-03-24T12:56:06Z</time>
      </trkpt>
      <trkpt lat="59.6291021" lon="17.6831159">
        <ele>40.2</ele>
        <time>2012-03-24T12:56:08Z</time>
      </trkpt>
      <trkpt lat="59.6291427" lon="17.682844">
        <ele>40</ele>
        <time>2012-03-24T12:56:10Z</time>
      </trkpt>
      <trkpt lat="59.6291845" lon="17.6824437">
        <ele>41.2</ele>
        <time>2012-03-24T12:56:13Z</time>
      </trkpt>
      <trkpt lat="59.629228" lon="17.6817574">
        <ele>41.6</ele>
        <time>2012-03-24T12:56:18Z</time>
      </trkpt>
      <trkpt lat="59.6293011" lon="17.6809907">
        <ele>42.2</ele>
        <time>2012-03-24T12:56:24Z</time>
      </trkpt>
      <trkpt lat="59.6293912" lon="17.6801764">
        <ele>43</ele>
        <time>2012-03-24T12:56:30Z</time>
      </trkpt>
      <trkpt lat="59.6295176" lon="17.6794054">
        <ele>41.8</ele>
        <time>2012-03-24T12:56:36Z</time>
      </trkpt>
      <trkpt lat="59.6296212" lon="17.678987">
        <ele>43</ele>
        <time>2012-03-24T12:56:40Z</time>
      </trkpt>
      <trkpt lat="59.6297088" lon="17.6787026">
        <ele>44</ele>
        <time>2012-03-24T12:56:43Z</time>
      </trkpt>
      <trkpt lat="59.6298023" lon="17.6784356">
        <ele>44.2</ele>
        <time>2012-03-24T12:56:46Z</time>
      </trkpt>
      <trkpt lat="59.6299213" lon="17.6780663">
        <ele>43.6</ele>
        <time>2012-03-24T12:56:50Z</time>
      </trkpt>
      <trkpt lat="59.6301222" lon="17.6773941">
        <ele>44</ele>
        <time>2012-03-24T12:56:57Z</time>
      </trkpt>
      <trkpt lat="59.6302863" lon="17.676814">
        <ele>44.6</ele>
        <time>2012-03-24T12:57:02Z</time>
      </trkpt>
      <trkpt lat="59.6303136" lon="17.6766963">
        <ele>45.4</ele>
        <time>2012-03-24T12:57:03Z</time>
      </trkpt>
      <trkpt lat="59.6303857" lon="17.6763059">
        <ele>47.2</ele>
        <time>2012-03-24T12:57:06Z</time>
      </trkpt>
      <trkpt lat="59.6304366" lon="17.6759044">
        <ele>48</ele>
        <time>2012-03-24T12:57:09Z</time>
      </trkpt>
      <trkpt lat="59.6304572" lon="17.6757557">
        <ele>47.6</ele>
        <time>2012-03-24T12:57:10Z</time>
      </trkpt>
      <trkpt lat="59.6305211" lon="17.6751915">
        <ele>47.6</ele>
        <time>2012-03-24T12:57:14Z</time>
      </trkpt>
      <trkpt lat="59.6306427" lon="17.6744807">
        <ele>48.2</ele>
        <time>2012-03-24T12:57:19Z</time>
      </trkpt>
      <trkpt lat="59.6307583" lon="17.6737026">
        <ele>47.8</ele>
        <time>2012-03-24T12:57:24Z</time>
      </trkpt>
      <trkpt lat="59.6308654" lon="17.6728448">
        <ele>46.8</ele>
        <time>2012-03-24T12:57:29Z</time>
      </trkpt>
      <trkpt lat="59.6309591" lon="17.6720663">
        <ele>43.6</ele>
        <time>2012-03-24T12:57:33Z</time>
      </trkpt>
      <trkpt lat="59.6311142" lon="17.6712734">
        <ele>39.6</ele>
        <time>2012-03-24T12:57:37Z</time>
      </trkpt>
      <trkpt lat="59.6312551" lon="17.6705181">
        <ele>36.6</ele>
        <time>2012-03-24T12:57:41Z</time>
      </trkpt>
      <trkpt lat="59.6313799" lon="17.6698431">
        <ele>34.8</ele>
        <time>2012-03-24T12:57:45Z</time>
      </trkpt>
      <trkpt lat="59.6315045" lon="17.669162">
        <ele>31.6</ele>
        <time>2012-03-24T12:57:49Z</time>
      </trkpt>
      <trkpt lat="59.6316343" lon="17.6683397">
        <ele>29.6</ele>
        <time>2012-03-24T12:57:54Z</time>
      </trkpt>
      <trkpt lat="59.6317461" lon="17.6675214">
        <ele>28.8</ele>
        <time>2012-03-24T12:57:59Z</time>
      </trkpt>
      <trkpt lat="59.6317557" lon="17.6673586">
        <ele>27.4</ele>
        <time>2012-03-24T12:58:00Z</time>
      </trkpt>
      <trkpt lat="59.6317471" lon="17.6666612">
        <ele>26</ele>
        <time>2012-03-24T12:58:04Z</time>
      </trkpt>
      <trkpt lat="59.631742" lon="17.6661194">
        <ele>26</ele>
        <time>2012-03-24T12:58:07Z</time>
      </trkpt>
      <trkpt lat="59.6317641" lon="17.6657772">
        <ele>25.8</ele>
        <time>2012-03-24T12:58:09Z</time>
      </trkpt>
      <trkpt lat="59.6318735" lon="17.6649649">
        <ele>28.4</ele>
        <time>2012-03-24T12:58:14Z</time>
      </trkpt>
      <trkpt lat="59.631988" lon="17.6642691">
        <ele>28.4</ele>
        <time>2012-03-24T12:58:19Z</time>
      </trkpt>
      <trkpt lat="59.6320254" lon="17.6637181">
        <ele>28</ele>
        <time>2012-03-24T12:58:23Z</time>
      </trkpt>
      <trkpt lat="59.6320243" lon="17.6634627">
        <ele>27.4</ele>
        <time>2012-03-24T12:58:25Z</time>
      </trkpt>
      <trkpt lat="59.6320227" lon="17.6630664">
        <ele>26.6</ele>
        <time>2012-03-24T12:58:28Z</time>
      </trkpt>
      <trkpt lat="59.6320481" lon="17.6626769">
        <ele>26.2</ele>
        <time>2012-03-24T12:58:31Z</time>
      </trkpt>
      <trkpt lat="59.6320637" lon="17.6625493">
        <ele>26.4</ele>
        <time>2012-03-24T12:58:32Z</time>
      </trkpt>
      <trkpt lat="59.6322072" lon="17.6619432">
        <ele>27</ele>
        <time>2012-03-24T12:58:37Z</time>
      </trkpt>
      <trkpt lat="59.6324318" lon="17.661442">
        <ele>28</ele>
        <time>2012-03-24T12:58:42Z</time>
      </trkpt>
      <trkpt lat="59.6324816" lon="17.6613591">
        <ele>28</ele>
        <time>2012-03-24T12:58:43Z</time>
      </trkpt>
      <trkpt lat="59.632784" lon="17.6608834">
        <ele>28.6</ele>
        <time>2012-03-24T12:58:49Z</time>
      </trkpt>
      <trkpt lat="59.6330627" lon="17.66044">
        <ele>31.6</ele>
        <time>2012-03-24T12:58:55Z</time>
      </trkpt>
      <trkpt lat="59.6333742" lon="17.6600167">
        <ele>33.2</ele>
        <time>2012-03-24T12:59:02Z</time>
      </trkpt>
      <trkpt lat="59.6336783" lon="17.6595808">
        <ele>33.2</ele>
        <time>2012-03-24T12:59:09Z</time>
      </trkpt>
      <trkpt lat="59.6340036" lon="17.6590724">
        <ele>34.6</ele>
        <time>2012-03-24T12:59:16Z</time>
      </trkpt>
      <trkpt lat="59.6343111" lon="17.6585856">
        <ele>35.8</ele>
        <time>2012-03-24T12:59:22Z</time>
      </trkpt>
      <trkpt lat="59.6346055" lon="17.6581406">
        <ele>34.8</ele>
        <time>2012-03-24T12:59:27Z</time>
      </trkpt>
      <trkpt lat="59.6349644" lon="17.6575874">
        <ele>31.4</ele>
        <time>2012-03-24T12:59:32Z</time>
      </trkpt>
      <trkpt lat="59.6350914" lon="17.6573175">
        <ele>30.4</ele>
        <time>2012-03-24T12:59:34Z</time>
      </trkpt>
      <trkpt lat="59.6351852" lon="17.6570062">
        <ele>29</ele>
        <time>2012-03-24T12:59:36Z</time>
      </trkpt>
      <trkpt lat="59.6352785" lon="17.6563005">
        <ele>27.8</ele>
        <time>2012-03-24T12:59:40Z</time>
      </trkpt>
      <trkpt lat="59.6352898" lon="17.6561218">
        <ele>28</ele>
        <time>2012-03-24T12:59:41Z</time>
      </trkpt>
      <trkpt lat="59.63533" lon="17.6556081">
        <ele>28.6</ele>
        <time>2012-03-24T12:59:44Z</time>
      </trkpt>
      <trkpt lat="59.6354512" lon="17.6547882">
        <ele>28.8</ele>
        <time>2012-03-24T12:59:49Z</time>
      </trkpt>
      <trkpt lat="59.6356761" lon="17.6541316">
        <ele>28.8</ele>
        <time>2012-03-24T12:59:54Z</time>
      </trkpt>
      <trkpt lat="59.635949" lon="17.6535642">
        <ele>29.8</ele>
        <time>2012-03-24T12:59:59Z</time>
      </trkpt>
      <trkpt lat="59.6362173" lon="17.6529381">
        <ele>30</ele>
        <time>2012-03-24T13:00:04Z</time>
      </trkpt>
      <trkpt lat="59.6364537" lon="17.6523202">
        <ele>30.6</ele>
        <time>2012-03-24T13:00:09Z</time>
      </trkpt>
      <trkpt lat="59.6366864" lon="17.6516916">
        <ele>29.8</ele>
        <time>2012-03-24T13:00:14Z</time>
      </trkpt>
      <trkpt lat="59.6369201" lon="17.6510725">
        <ele>30.6</ele>
        <time>2012-03-24T13:00:19Z</time>
      </trkpt>
      <trkpt lat="59.6371282" lon="17.6504431">
        <ele>32.2</ele>
        <time>2012-03-24T13:00:24Z</time>
      </trkpt>
      <trkpt lat="59.6371588" lon="17.6503218">
        <ele>32.2</ele>
        <time>2012-03-24T13:00:25Z</time>
      </trkpt>
      <trkpt lat="59.6372433" lon="17.6497763">
        <ele>33</ele>
        <time>2012-03-24T13:00:29Z</time>
      </trkpt>
      <trkpt lat="59.6372302" lon="17.6492204">
        <ele>31.8</ele>
        <time>2012-03-24T13:00:32Z</time>
      </trkpt>
      <trkpt lat="59.637219" lon="17.6490191">
        <ele>31.2</ele>
        <time>2012-03-24T13:00:33Z</time>
      </trkpt>
      <trkpt lat="59.6372024" lon="17.6485202">
        <ele>30.4</ele>
        <time>2012-03-24T13:00:35Z</time>
      </trkpt>
      <trkpt lat="59.6372682" lon="17.6480209">
        <ele>28.8</ele>
        <time>2012-03-24T13:00:37Z</time>
      </trkpt>
      <trkpt lat="59.6375082" lon="17.6475021">
        <ele>25</ele>
        <time>2012-03-24T13:00:40Z</time>
      </trkpt>
      <trkpt lat="59.6377044" lon="17.647239">
        <ele>23.4</ele>
        <time>2012-03-24T13:00:42Z</time>
      </trkpt>
      <trkpt lat="59.6378045" lon="17.6471222">
        <ele>23</ele>
        <time>2012-03-24T13:00:43Z</time>
      </trkpt>
      <trkpt lat="59.6381321" lon="17.6468117">
        <ele>21.6</ele>
        <time>2012-03-24T13:00:46Z</time>
      </trkpt>
      <trkpt lat="59.638486" lon="17.6465566">
        <ele>20.2</ele>
        <time>2012-03-24T13:00:49Z</time>
      </trkpt>
      <trkpt lat="59.6388644" lon="17.6463001">
        <ele>16.4</ele>
        <time>2012-03-24T13:00:52Z</time>
      </trkpt>
      <trkpt lat="59.6391232" lon="17.6461734">
        <ele>16.2</ele>
        <time>2012-03-24T13:00:54Z</time>
      </trkpt>
      <trkpt lat="59.6392433" lon="17.6461488">
        <ele>16</ele>
        <time>2012-03-24T13:00:55Z</time>
      </trkpt>
      <trkpt lat="59.6396859" lon="17.6461616">
        <ele>15.4</ele>
        <time>2012-03-24T13:00:59Z</time>
      </trkpt>
      <trkpt lat="59.6400741" lon="17.6462">
        <ele>14.6</ele>
        <time>2012-03-24T13:01:03Z</time>
      </trkpt>
      <trkpt lat="59.6404827" lon="17.6461938">
        <ele>15</ele>
        <time>2012-03-24T13:01:08Z</time>
      </trkpt>
      <trkpt lat="59.6408413" lon="17.6461752">
        <ele>14.8</ele>
        <time>2012-03-24T13:01:13Z</time>
      </trkpt>
      <trkpt lat="59.6412372" lon="17.6461634">
        <ele>15</ele>
        <time>2012-03-24T13:01:19Z</time>
      </trkpt>
      <trkpt lat="59.6416233" lon="17.6461602">
        <ele>15</ele>
        <time>2012-03-24T13:01:25Z</time>
      </trkpt>
      <trkpt lat="59.6420346" lon="17.6462477">
        <ele>14</ele>
        <time>2012-03-24T13:01:31Z</time>
      </trkpt>
      <trkpt lat="59.6424471" lon="17.6464206">
        <ele>14.4</ele>
        <time>2012-03-24T13:01:37Z</time>
      </trkpt>
      <trkpt lat="59.6428108" lon="17.6465875">
        <ele>16.6</ele>
        <time>2012-03-24T13:01:42Z</time>
      </trkpt>
      <trkpt lat="59.6430791" lon="17.6467144">
        <ele>17.4</ele>
        <time>2012-03-24T13:01:46Z</time>
      </trkpt>
      <trkpt lat="59.643217" lon="17.6467414">
        <ele>17.4</ele>
        <time>2012-03-24T13:01:48Z</time>
      </trkpt>
      <trkpt lat="59.6435863" lon="17.6467709">
        <ele>17.4</ele>
        <time>2012-03-24T13:01:53Z</time>
      </trkpt>
      <trkpt lat="59.6437822" lon="17.6467441">
        <ele>17.4</ele>
        <time>2012-03-24T13:01:56Z</time>
      </trkpt>
      <trkpt lat="59.6439432" lon="17.6465325">
        <ele>16.4</ele>
        <time>2012-03-24T13:01:59Z</time>
      </trkpt>
      <trkpt lat="59.6440642" lon="17.6458849">
        <ele>15.6</ele>
        <time>2012-03-24T13:02:04Z</time>
      </trkpt>
      <trkpt lat="59.6441161" lon="17.6451801">
        <ele>15.8</ele>
        <time>2012-03-24T13:02:09Z</time>
      </trkpt>
      <trkpt lat="59.6441652" lon="17.6443809">
        <ele>14.6</ele>
        <time>2012-03-24T13:02:15Z</time>
      </trkpt>
      <trkpt lat="59.6442053" lon="17.6436432">
        <ele>12.8</ele>
        <time>2012-03-24T13:02:21Z</time>
      </trkpt>
      <trkpt lat="59.6442736" lon="17.6428758">
        <ele>11.2</ele>
        <time>2012-03-24T13:02:27Z</time>
      </trkpt>
      <trkpt lat="59.6443546" lon="17.6425186">
        <ele>11.2</ele>
        <time>2012-03-24T13:02:30Z</time>
      </trkpt>
      <trkpt lat="59.64447" lon="17.6422233">
        <ele>11.6</ele>
        <time>2012-03-24T13:02:33Z</time>
      </trkpt>
      <trkpt lat="59.6445126" lon="17.6421412">
        <ele>12</ele>
        <time>2012-03-24T13:02:34Z</time>
      </trkpt>
      <trkpt lat="59.6447595" lon="17.6417519">
        <ele>13</ele>
        <time>2012-03-24T13:02:40Z</time>
      </trkpt>
      <trkpt lat="59.645076" lon="17.6413604">
        <ele>14.6</ele>
        <time>2012-03-24T13:02:48Z</time>
      </trkpt>
      <trkpt lat="59.6453833" lon="17.6410142">
        <ele>16.8</ele>
        <time>2012-03-24T13:02:56Z</time>
      </trkpt>
      <trkpt lat="59.6457039" lon="17.6406412">
        <ele>19.8</ele>
        <time>2012-03-24T13:03:06Z</time>
      </trkpt>
      <trkpt lat="59.6460312" lon="17.6402435">
        <ele>25.8</ele>
        <time>2012-03-24T13:03:17Z</time>
      </trkpt>
      <trkpt lat="59.6463643" lon="17.6398643">
        <ele>26.2</ele>
        <time>2012-03-24T13:03:26Z</time>
      </trkpt>
      <trkpt lat="59.6466435" lon="17.6394622">
        <ele>29</ele>
        <time>2012-03-24T13:03:34Z</time>
      </trkpt>
      <trkpt lat="59.6466753" lon="17.6394037">
        <ele>29.2</ele>
        <time>2012-03-24T13:03:35Z</time>
      </trkpt>
      <trkpt lat="59.6467617" lon="17.6392271">
        <ele>30.6</ele>
        <time>2012-03-24T13:03:38Z</time>
      </trkpt>
      <trkpt lat="59.6468766" lon="17.6388416">
        <ele>32.2</ele>
        <time>2012-03-24T13:03:43Z</time>
      </trkpt>
      <trkpt lat="59.6469918" lon="17.6381077">
        <ele>33.8</ele>
        <time>2012-03-24T13:03:51Z</time>
      </trkpt>
      <trkpt lat="59.6470755" lon="17.6373605">
        <ele>34</ele>
        <time>2012-03-24T13:03:59Z</time>
      </trkpt>
      <trkpt lat="59.6471604" lon="17.6366593">
        <ele>36.6</ele>
        <time>2012-03-24T13:04:06Z</time>
      </trkpt>
      <trkpt lat="59.647243" lon="17.6359782">
        <ele>35</ele>
        <time>2012-03-24T13:04:13Z</time>
      </trkpt>
      <trkpt lat="59.6473408" lon="17.6352892">
        <ele>37.6</ele>
        <time>2012-03-24T13:04:20Z</time>
      </trkpt>
      <trkpt lat="59.6474245" lon="17.6346868">
        <ele>39</ele>
        <time>2012-03-24T13:04:27Z</time>
      </trkpt>
      <trkpt lat="59.6474236" lon="17.6345938">
        <ele>38.4</ele>
        <time>2012-03-24T13:04:28Z</time>
      </trkpt>
      <trkpt lat="59.6473616" lon="17.6343072">
        <ele>39.6</ele>
        <time>2012-03-24T13:04:31Z</time>
      </trkpt>
      <trkpt lat="59.6472337" lon="17.6338782">
        <ele>41.4</ele>
        <time>2012-03-24T13:04:35Z</time>
      </trkpt>
      <trkpt lat="59.6470522" lon="17.6332264">
        <ele>41.6</ele>
        <time>2012-03-24T13:04:40Z</time>
      </trkpt>
      <trkpt lat="59.6468574" lon="17.6324646">
        <ele>39.8</ele>
        <time>2012-03-24T13:04:45Z</time>
      </trkpt>
      <trkpt lat="59.6467017" lon="17.6317994">
        <ele>36.8</ele>
        <time>2012-03-24T13:04:49Z</time>
      </trkpt>
      <trkpt lat="59.6465616" lon="17.6310964">
        <ele>34.4</ele>
        <time>2012-03-24T13:04:53Z</time>
      </trkpt>
      <trkpt lat="59.6464444" lon="17.6303998">
        <ele>32.8</ele>
        <time>2012-03-24T13:04:57Z</time>
      </trkpt>
      <trkpt lat="59.6463362" lon="17.6295663">
        <ele>32.4</ele>
        <time>2012-03-24T13:05:02Z</time>
      </trkpt>
      <trkpt lat="59.6462566" lon="17.6287649">
        <ele>32.2</ele>
        <time>2012-03-24T13:05:07Z</time>
      </trkpt>
      <trkpt lat="59.6462048" lon="17.6280172">
        <ele>33</ele>
        <time>2012-03-24T13:05:12Z</time>
      </trkpt>
      <trkpt lat="59.6461741" lon="17.6272853">
        <ele>33</ele>
        <time>2012-03-24T13:05:17Z</time>
      </trkpt>
      <trkpt lat="59.6461639" lon="17.6265626">
        <ele>33</ele>
        <time>2012-03-24T13:05:22Z</time>
      </trkpt>
      <trkpt lat="59.6461622" lon="17.6258568">
        <ele>32.6</ele>
        <time>2012-03-24T13:05:27Z</time>
      </trkpt>
      <trkpt lat="59.6461626" lon="17.6250174">
        <ele>33.2</ele>
        <time>2012-03-24T13:05:33Z</time>
      </trkpt>
      <trkpt lat="59.6461528" lon="17.6242831">
        <ele>32.2</ele>
        <time>2012-03-24T13:05:38Z</time>
      </trkpt>
      <trkpt lat="59.646145" lon="17.6235345">
        <ele>30.8</ele>
        <time>2012-03-24T13:05:43Z</time>
      </trkpt>
      <trkpt lat="59.6461369" lon="17.6227866">
        <ele>30.4</ele>
        <time>2012-03-24T13:05:48Z</time>
      </trkpt>
      <trkpt lat="59.6461292" lon="17.6220251">
        <ele>31</ele>
        <time>2012-03-24T13:05:53Z</time>
      </trkpt>
      <trkpt lat="59.6461364" lon="17.6212603">
        <ele>33.2</ele>
        <time>2012-03-24T13:05:58Z</time>
      </trkpt>
      <trkpt lat="59.6461321" lon="17.6205052">
        <ele>34.6</ele>
        <time>2012-03-24T13:06:03Z</time>
      </trkpt>
      <trkpt lat="59.6461047" lon="17.6197596">
        <ele>34.2</ele>
        <time>2012-03-24T13:06:08Z</time>
      </trkpt>
      <trkpt lat="59.6460452" lon="17.619022">
        <ele>33.4</ele>
        <time>2012-03-24T13:06:13Z</time>
      </trkpt>
      <trkpt lat="59.6459401" lon="17.6182996">
        <ele>33.6</ele>
        <time>2012-03-24T13:06:18Z</time>
      </trkpt>
      <trkpt lat="59.6457883" lon="17.617492">
        <ele>31.4</ele>
        <time>2012-03-24T13:06:23Z</time>
      </trkpt>
      <trkpt lat="59.6456505" lon="17.6167632">
        <ele>28.4</ele>
        <time>2012-03-24T13:06:27Z</time>
      </trkpt>
      <trkpt lat="59.6455042" lon="17.6159833">
        <ele>26</ele>
        <time>2012-03-24T13:06:31Z</time>
      </trkpt>
      <trkpt lat="59.6453562" lon="17.6151848">
        <ele>24.8</ele>
        <time>2012-03-24T13:06:35Z</time>
      </trkpt>
      <trkpt lat="59.6452309" lon="17.6144745">
        <ele>25.6</ele>
        <time>2012-03-24T13:06:39Z</time>
      </trkpt>
      <trkpt lat="59.6451088" lon="17.6137632">
        <ele>27.6</ele>
        <time>2012-03-24T13:06:44Z</time>
      </trkpt>
      <trkpt lat="59.6449705" lon="17.6129687">
        <ele>28.8</ele>
        <time>2012-03-24T13:06:50Z</time>
      </trkpt>
      <trkpt lat="59.6448031" lon="17.6122595">
        <ele>24.6</ele>
        <time>2012-03-24T13:06:55Z</time>
      </trkpt>
      <trkpt lat="59.6445824" lon="17.6115166">
        <ele>24.8</ele>
        <time>2012-03-24T13:07:00Z</time>
      </trkpt>
      <trkpt lat="59.6443125" lon="17.6108469">
        <ele>24.2</ele>
        <time>2012-03-24T13:07:05Z</time>
      </trkpt>
      <trkpt lat="59.6440534" lon="17.6103501">
        <ele>23.6</ele>
        <time>2012-03-24T13:07:09Z</time>
      </trkpt>
      <trkpt lat="59.6436846" lon="17.6098394">
        <ele>22.6</ele>
        <time>2012-03-24T13:07:14Z</time>
      </trkpt>
      <trkpt lat="59.6432833" lon="17.6094659">
        <ele>21</ele>
        <time>2012-03-24T13:07:19Z</time>
      </trkpt>
      <trkpt lat="59.6428648" lon="17.6091919">
        <ele>19.6</ele>
        <time>2012-03-24T13:07:24Z</time>
      </trkpt>
      <trkpt lat="59.6424469" lon="17.6089917">
        <ele>19.2</ele>
        <time>2012-03-24T13:07:29Z</time>
      </trkpt>
      <trkpt lat="59.6420504" lon="17.6089028">
        <ele>19</ele>
        <time>2012-03-24T13:07:34Z</time>
      </trkpt>
      <trkpt lat="59.6416715" lon="17.6088614">
        <ele>18.6</ele>
        <time>2012-03-24T13:07:39Z</time>
      </trkpt>
      <trkpt lat="59.6413004" lon="17.6088605">
        <ele>18.6</ele>
        <time>2012-03-24T13:07:44Z</time>
      </trkpt>
      <trkpt lat="59.640934" lon="17.608915">
        <ele>18.4</ele>
        <time>2012-03-24T13:07:49Z</time>
      </trkpt>
      <trkpt lat="59.6405186" lon="17.6090167">
        <ele>18.4</ele>
        <time>2012-03-24T13:07:55Z</time>
      </trkpt>
      <trkpt lat="59.6400915" lon="17.6091131">
        <ele>17.6</ele>
        <time>2012-03-24T13:08:01Z</time>
      </trkpt>
      <trkpt lat="59.6396971" lon="17.6091753">
        <ele>17</ele>
        <time>2012-03-24T13:08:06Z</time>
      </trkpt>
      <trkpt lat="59.6392831" lon="17.6091965">
        <ele>16.6</ele>
        <time>2012-03-24T13:08:11Z</time>
      </trkpt>
      <trkpt lat="59.6388724" lon="17.6090852">
        <ele>16</ele>
        <time>2012-03-24T13:08:16Z</time>
      </trkpt>
      <trkpt lat="59.6384834" lon="17.6088381">
        <ele>15.4</ele>
        <time>2012-03-24T13:08:21Z</time>
      </trkpt>
      <trkpt lat="59.6381114" lon="17.6084926">
        <ele>15</ele>
        <time>2012-03-24T13:08:26Z</time>
      </trkpt>
      <trkpt lat="59.6377472" lon="17.6081144">
        <ele>14.8</ele>
        <time>2012-03-24T13:08:31Z</time>
      </trkpt>
      <trkpt lat="59.6374038" lon="17.6077654">
        <ele>15.2</ele>
        <time>2012-03-24T13:08:36Z</time>
      </trkpt>
      <trkpt lat="59.6370299" lon="17.6073767">
        <ele>16.8</ele>
        <time>2012-03-24T13:08:42Z</time>
      </trkpt>
      <trkpt lat="59.636672" lon="17.6069975">
        <ele>18.6</ele>
        <time>2012-03-24T13:08:48Z</time>
      </trkpt>
      <trkpt lat="59.6363346" lon="17.6066516">
        <ele>21</ele>
        <time>2012-03-24T13:08:54Z</time>
      </trkpt>
      <trkpt lat="59.6359843" lon="17.6062843">
        <ele>22</ele>
        <time>2012-03-24T13:09:01Z</time>
      </trkpt>
      <trkpt lat="59.6356379" lon="17.6059123">
        <ele>23.2</ele>
        <time>2012-03-24T13:09:08Z</time>
      </trkpt>
      <trkpt lat="59.6352981" lon="17.6055413">
        <ele>24</ele>
        <time>2012-03-24T13:09:15Z</time>
      </trkpt>
      <trkpt lat="59.6349706" lon="17.6052011">
        <ele>25</ele>
        <time>2012-03-24T13:09:22Z</time>
      </trkpt>
      <trkpt lat="59.6346417" lon="17.6048048">
        <ele>26.6</ele>
        <time>2012-03-24T13:09:29Z</time>
      </trkpt>
      <trkpt lat="59.634287" lon="17.6043353">
        <ele>27.4</ele>
        <time>2012-03-24T13:09:36Z</time>
      </trkpt>
      <trkpt lat="59.633987" lon="17.6038819">
        <ele>27.4</ele>
        <time>2012-03-24T13:09:42Z</time>
      </trkpt>
      <trkpt lat="59.6336994" lon="17.6033929">
        <ele>27.6</ele>
        <time>2012-03-24T13:09:48Z</time>
      </trkpt>
      <trkpt lat="59.6334028" lon="17.6028514">
        <ele>28</ele>
        <time>2012-03-24T13:09:54Z</time>
      </trkpt>
      <trkpt lat="59.6331357" lon="17.6023627">
        <ele>28.6</ele>
        <time>2012-03-24T13:09:59Z</time>
      </trkpt>
      <trkpt lat="59.6328639" lon="17.601852">
        <ele>29.2</ele>
        <time>2012-03-24T13:10:04Z</time>
      </trkpt>
      <trkpt lat="59.6325832" lon="17.6013409">
        <ele>29.6</ele>
        <time>2012-03-24T13:10:09Z</time>
      </trkpt>
      <trkpt lat="59.6323071" lon="17.6008224">
        <ele>30.2</ele>
        <time>2012-03-24T13:10:14Z</time>
      </trkpt>
      <trkpt lat="59.632043" lon="17.6003211">
        <ele>30.6</ele>
        <time>2012-03-24T13:10:19Z</time>
      </trkpt>
      <trkpt lat="59.6317315" lon="17.5997566">
        <ele>31.2</ele>
        <time>2012-03-24T13:10:25Z</time>
      </trkpt>
      <trkpt lat="59.6314331" lon="17.5992294">
        <ele>31.6</ele>
        <time>2012-03-24T13:10:31Z</time>
      </trkpt>
      <trkpt lat="59.6312089" lon="17.5987949">
        <ele>32.2</ele>
        <time>2012-03-24T13:10:36Z</time>
      </trkpt>
      <trkpt lat="59.6311738" lon="17.5987088">
        <ele>32.4</ele>
        <time>2012-03-24T13:10:37Z</time>
      </trkpt>
      <trkpt lat="59.6311347" lon="17.5986435">
        <ele>32.6</ele>
        <time>2012-03-24T13:10:38Z</time>
      </trkpt>
      <trkpt lat="59.6308699" lon="17.5988561">
        <ele>30.8</ele>
        <time>2012-03-24T13:10:43Z</time>
      </trkpt>
      <trkpt lat="59.6305125" lon="17.5993977">
        <ele>29.2</ele>
        <time>2012-03-24T13:10:48Z</time>
      </trkpt>
      <trkpt lat="59.630177" lon="17.5998103">
        <ele>27.6</ele>
        <time>2012-03-24T13:10:52Z</time>
      </trkpt>
      <trkpt lat="59.6298217" lon="17.600171">
        <ele>26.8</ele>
        <time>2012-03-24T13:10:56Z</time>
      </trkpt>
      <trkpt lat="59.6294544" lon="17.6004663">
        <ele>26.2</ele>
        <time>2012-03-24T13:11:00Z</time>
      </trkpt>
      <trkpt lat="59.6290799" lon="17.6007141">
        <ele>26</ele>
        <time>2012-03-24T13:11:04Z</time>
      </trkpt>
      <trkpt lat="59.6287002" lon="17.6009621">
        <ele>26</ele>
        <time>2012-03-24T13:11:08Z</time>
      </trkpt>
      <trkpt lat="59.6283293" lon="17.6012114">
        <ele>26</ele>
        <time>2012-03-24T13:11:12Z</time>
      </trkpt>
      <trkpt lat="59.6279604" lon="17.6014462">
        <ele>25.8</ele>
        <time>2012-03-24T13:11:16Z</time>
      </trkpt>
      <trkpt lat="59.6276006" lon="17.6016771">
        <ele>26</ele>
        <time>2012-03-24T13:11:20Z</time>
      </trkpt>
      <trkpt lat="59.6272511" lon="17.6019029">
        <ele>26</ele>
        <time>2012-03-24T13:11:24Z</time>
      </trkpt>
      <trkpt lat="59.6268303" lon="17.6021748">
        <ele>25.8</ele>
        <time>2012-03-24T13:11:29Z</time>
      </trkpt>
      <trkpt lat="59.6264148" lon="17.6024418">
        <ele>25.2</ele>
        <time>2012-03-24T13:11:34Z</time>
      </trkpt>
      <trkpt lat="59.6259949" lon="17.6027193">
        <ele>24.2</ele>
        <time>2012-03-24T13:11:39Z</time>
      </trkpt>
      <trkpt lat="59.6256451" lon="17.602938">
        <ele>23.2</ele>
        <time>2012-03-24T13:11:43Z</time>
      </trkpt>
      <trkpt lat="59.6252822" lon="17.6031685">
        <ele>21.8</ele>
        <time>2012-03-24T13:11:47Z</time>
      </trkpt>
      <trkpt lat="59.6249268" lon="17.6033965">
        <ele>20.8</ele>
        <time>2012-03-24T13:11:51Z</time>
      </trkpt>
      <trkpt lat="59.624566" lon="17.603628">
        <ele>19.4</ele>
        <time>2012-03-24T13:11:55Z</time>
      </trkpt>
      <trkpt lat="59.624193" lon="17.6038696">
        <ele>18.2</ele>
        <time>2012-03-24T13:11:59Z</time>
      </trkpt>
      <trkpt lat="59.6238412" lon="17.6040946">
        <ele>17</ele>
        <time>2012-03-24T13:12:03Z</time>
      </trkpt>
      <trkpt lat="59.6234847" lon="17.6043277">
        <ele>15.8</ele>
        <time>2012-03-24T13:12:07Z</time>
      </trkpt>
      <trkpt lat="59.6231167" lon="17.6045643">
        <ele>14.6</ele>
        <time>2012-03-24T13:12:11Z</time>
      </trkpt>
      <trkpt lat="59.6227418" lon="17.6048074">
        <ele>13.8</ele>
        <time>2012-03-24T13:12:15Z</time>
      </trkpt>
      <trkpt lat="59.6223602" lon="17.6050539">
        <ele>13</ele>
        <time>2012-03-24T13:12:19Z</time>
      </trkpt>
      <trkpt lat="59.6219806" lon="17.6052927">
        <ele>12.6</ele>
        <time>2012-03-24T13:12:23Z</time>
      </trkpt>
      <trkpt lat="59.6216128" lon="17.6055214">
        <ele>12.4</ele>
        <time>2012-03-24T13:12:27Z</time>
      </trkpt>
      <trkpt lat="59.6212546" lon="17.6057441">
        <ele>12.2</ele>
        <time>2012-03-24T13:12:31Z</time>
      </trkpt>
      <trkpt lat="59.620899" lon="17.6059665">
        <ele>12</ele>
        <time>2012-03-24T13:12:35Z</time>
      </trkpt>
      <trkpt lat="59.6205385" lon="17.6061618">
        <ele>12.2</ele>
        <time>2012-03-24T13:12:39Z</time>
      </trkpt>
      <trkpt lat="59.6201062" lon="17.6063519">
        <ele>13.4</ele>
        <time>2012-03-24T13:12:44Z</time>
      </trkpt>
      <trkpt lat="59.6197101" lon="17.6064745">
        <ele>15.2</ele>
        <time>2012-03-24T13:12:49Z</time>
      </trkpt>
      <trkpt lat="59.6192924" lon="17.6065763">
        <ele>17.4</ele>
        <time>2012-03-24T13:12:55Z</time>
      </trkpt>
      <trkpt lat="59.6189077" lon="17.6066323">
        <ele>18.8</ele>
        <time>2012-03-24T13:13:01Z</time>
      </trkpt>
      <trkpt lat="59.618547" lon="17.606649">
        <ele>19.6</ele>
        <time>2012-03-24T13:13:07Z</time>
      </trkpt>
      <trkpt lat="59.6181802" lon="17.6066505">
        <ele>19</ele>
        <time>2012-03-24T13:13:13Z</time>
      </trkpt>
      <trkpt lat="59.617783" lon="17.6066059">
        <ele>20.6</ele>
        <time>2012-03-24T13:13:19Z</time>
      </trkpt>
      <trkpt lat="59.6173977" lon="17.6065323">
        <ele>24.4</ele>
        <time>2012-03-24T13:13:25Z</time>
      </trkpt>
      <trkpt lat="59.616994" lon="17.6064222">
        <ele>26.2</ele>
        <time>2012-03-24T13:13:31Z</time>
      </trkpt>
      <trkpt lat="59.6166316" lon="17.6063071">
        <ele>26.4</ele>
        <time>2012-03-24T13:13:36Z</time>
      </trkpt>
      <trkpt lat="59.6162592" lon="17.6061801">
        <ele>26.8</ele>
        <time>2012-03-24T13:13:41Z</time>
      </trkpt>
      <trkpt lat="59.6158789" lon="17.6060574">
        <ele>25.6</ele>
        <time>2012-03-24T13:13:46Z</time>
      </trkpt>
      <trkpt lat="59.6154909" lon="17.6059273">
        <ele>24.6</ele>
        <time>2012-03-24T13:13:51Z</time>
      </trkpt>
      <trkpt lat="59.615104" lon="17.6057954">
        <ele>23.8</ele>
        <time>2012-03-24T13:13:56Z</time>
      </trkpt>
      <trkpt lat="59.6147155" lon="17.6056699">
        <ele>22.8</ele>
        <time>2012-03-24T13:14:01Z</time>
      </trkpt>
      <trkpt lat="59.6143239" lon="17.6055902">
        <ele>22.4</ele>
        <time>2012-03-24T13:14:06Z</time>
      </trkpt>
      <trkpt lat="59.6139369" lon="17.6055434">
        <ele>22.2</ele>
        <time>2012-03-24T13:14:11Z</time>
      </trkpt>
      <trkpt lat="59.6135717" lon="17.6055378">
        <ele>23.6</ele>
        <time>2012-03-24T13:14:16Z</time>
      </trkpt>
      <trkpt lat="59.6131687" lon="17.6055967">
        <ele>25.2</ele>
        <time>2012-03-24T13:14:22Z</time>
      </trkpt>
      <trkpt lat="59.6127935" lon="17.6056881">
        <ele>26.2</ele>
        <time>2012-03-24T13:14:28Z</time>
      </trkpt>
      <trkpt lat="59.6124154" lon="17.6058348">
        <ele>27.4</ele>
        <time>2012-03-24T13:14:35Z</time>
      </trkpt>
      <trkpt lat="59.6120415" lon="17.6060097">
        <ele>28.4</ele>
        <time>2012-03-24T13:14:43Z</time>
      </trkpt>
      <trkpt lat="59.6116649" lon="17.6062185">
        <ele>31</ele>
        <time>2012-03-24T13:14:51Z</time>
      </trkpt>
      <trkpt lat="59.6112895" lon="17.6064283">
        <ele>32</ele>
        <time>2012-03-24T13:14:58Z</time>
      </trkpt>
      <trkpt lat="59.6109269" lon="17.606621">
        <ele>32.8</ele>
        <time>2012-03-24T13:15:05Z</time>
      </trkpt>
      <trkpt lat="59.6105449" lon="17.6068095">
        <ele>32.8</ele>
        <time>2012-03-24T13:15:12Z</time>
      </trkpt>
      <trkpt lat="59.6101626" lon="17.6069691">
        <ele>34</ele>
        <time>2012-03-24T13:15:19Z</time>
      </trkpt>
      <trkpt lat="59.6097919" lon="17.6071204">
        <ele>36.2</ele>
        <time>2012-03-24T13:15:26Z</time>
      </trkpt>
      <trkpt lat="59.6093827" lon="17.6072639">
        <ele>37.4</ele>
        <time>2012-03-24T13:15:33Z</time>
      </trkpt>
      <trkpt lat="59.6090034" lon="17.6074006">
        <ele>39</ele>
        <time>2012-03-24T13:15:40Z</time>
      </trkpt>
      <trkpt lat="59.6086252" lon="17.6075312">
        <ele>40.4</ele>
        <time>2012-03-24T13:15:47Z</time>
      </trkpt>
      <trkpt lat="59.6082837" lon="17.607642">
        <ele>39.8</ele>
        <time>2012-03-24T13:15:53Z</time>
      </trkpt>
      <trkpt lat="59.6079229" lon="17.6077473">
        <ele>42.2</ele>
        <time>2012-03-24T13:15:59Z</time>
      </trkpt>
      <trkpt lat="59.6075092" lon="17.6078843">
        <ele>43.8</ele>
        <time>2012-03-24T13:16:06Z</time>
      </trkpt>
      <trkpt lat="59.6071405" lon="17.6080098">
        <ele>44.6</ele>
        <time>2012-03-24T13:16:12Z</time>
      </trkpt>
      <trkpt lat="59.6067485" lon="17.6081674">
        <ele>45</ele>
        <time>2012-03-24T13:16:18Z</time>
      </trkpt>
      <trkpt lat="59.6063377" lon="17.6083258">
        <ele>45.2</ele>
        <time>2012-03-24T13:16:24Z</time>
      </trkpt>
      <trkpt lat="59.6059697" lon="17.6084748">
        <ele>44.8</ele>
        <time>2012-03-24T13:16:29Z</time>
      </trkpt>
      <trkpt lat="59.6055731" lon="17.6086501">
        <ele>43</ele>
        <time>2012-03-24T13:16:34Z</time>
      </trkpt>
      <trkpt lat="59.6051447" lon="17.6088371">
        <ele>41.6</ele>
        <time>2012-03-24T13:16:39Z</time>
      </trkpt>
      <trkpt lat="59.6047641" lon="17.6090189">
        <ele>39.2</ele>
        <time>2012-03-24T13:16:43Z</time>
      </trkpt>
      <trkpt lat="59.6043615" lon="17.6092209">
        <ele>37.2</ele>
        <time>2012-03-24T13:16:47Z</time>
      </trkpt>
      <trkpt lat="59.6039713" lon="17.6094106">
        <ele>35.8</ele>
        <time>2012-03-24T13:16:51Z</time>
      </trkpt>
      <trkpt lat="59.6035711" lon="17.6096007">
        <ele>34.8</ele>
        <time>2012-03-24T13:16:55Z</time>
      </trkpt>
      <trkpt lat="59.6031736" lon="17.6097907">
        <ele>34</ele>
        <time>2012-03-24T13:16:59Z</time>
      </trkpt>
      <trkpt lat="59.6027847" lon="17.6099813">
        <ele>33.2</ele>
        <time>2012-03-24T13:17:03Z</time>
      </trkpt>
      <trkpt lat="59.6024034" lon="17.6101575">
        <ele>32.8</ele>
        <time>2012-03-24T13:17:07Z</time>
      </trkpt>
      <trkpt lat="59.6020258" lon="17.6103344">
        <ele>32.4</ele>
        <time>2012-03-24T13:17:11Z</time>
      </trkpt>
      <trkpt lat="59.6016564" lon="17.6105113">
        <ele>32</ele>
        <time>2012-03-24T13:17:15Z</time>
      </trkpt>
      <trkpt lat="59.601274" lon="17.6106956">
        <ele>31.4</ele>
        <time>2012-03-24T13:17:19Z</time>
      </trkpt>
      <trkpt lat="59.6008856" lon="17.6108971">
        <ele>30.8</ele>
        <time>2012-03-24T13:17:23Z</time>
      </trkpt>
      <trkpt lat="59.6005028" lon="17.6111017">
        <ele>30.2</ele>
        <time>2012-03-24T13:17:27Z</time>
      </trkpt>
      <trkpt lat="59.6001429" lon="17.6113179">
        <ele>30</ele>
        <time>2012-03-24T13:17:31Z</time>
      </trkpt>
      <trkpt lat="59.5997119" lon="17.6115926">
        <ele>30.8</ele>
        <time>2012-03-24T13:17:36Z</time>
      </trkpt>
      <trkpt lat="59.5992886" lon="17.6118584">
        <ele>31.8</ele>
        <time>2012-03-24T13:17:41Z</time>
      </trkpt>
      <trkpt lat="59.5988807" lon="17.6121239">
        <ele>32.8</ele>
        <time>2012-03-24T13:17:46Z</time>
      </trkpt>
      <trkpt lat="59.5984752" lon="17.6124023">
        <ele>33.6</ele>
        <time>2012-03-24T13:17:51Z</time>
      </trkpt>
      <trkpt lat="59.5980682" lon="17.6127004">
        <ele>33.6</ele>
        <time>2012-03-24T13:17:56Z</time>
      </trkpt>
      <trkpt lat="59.5976777" lon="17.6129983">
        <ele>33.6</ele>
        <time>2012-03-24T13:18:01Z</time>
      </trkpt>
      <trkpt lat="59.5972823" lon="17.6133146">
        <ele>34</ele>
        <time>2012-03-24T13:18:06Z</time>
      </trkpt>
      <trkpt lat="59.5968897" lon="17.613641">
        <ele>34</ele>
        <time>2012-03-24T13:18:11Z</time>
      </trkpt>
      <trkpt lat="59.5965044" lon="17.6139778">
        <ele>33.8</ele>
        <time>2012-03-24T13:18:16Z</time>
      </trkpt>
      <trkpt lat="59.5961307" lon="17.6142886">
        <ele>33.4</ele>
        <time>2012-03-24T13:18:21Z</time>
      </trkpt>
      <trkpt lat="59.5958484" lon="17.6139315">
        <ele>33.2</ele>
        <time>2012-03-24T13:18:26Z</time>
      </trkpt>
      <trkpt lat="59.595644" lon="17.6132848">
        <ele>33</ele>
        <time>2012-03-24T13:18:31Z</time>
      </trkpt>
      <trkpt lat="59.5954392" lon="17.6126361">
        <ele>32.8</ele>
        <time>2012-03-24T13:18:36Z</time>
      </trkpt>
      <trkpt lat="59.5951899" lon="17.6119441">
        <ele>33.4</ele>
        <time>2012-03-24T13:18:42Z</time>
      </trkpt>
      <trkpt lat="59.5949198" lon="17.6113498">
        <ele>33.8</ele>
        <time>2012-03-24T13:18:48Z</time>
      </trkpt>
      <trkpt lat="59.5946069" lon="17.6107827">
        <ele>33.6</ele>
        <time>2012-03-24T13:18:54Z</time>
      </trkpt>
      <trkpt lat="59.5943312" lon="17.610295">
        <ele>32.4</ele>
        <time>2012-03-24T13:18:59Z</time>
      </trkpt>
      <trkpt lat="59.5940403" lon="17.609713">
        <ele>31.8</ele>
        <time>2012-03-24T13:19:05Z</time>
      </trkpt>
      <trkpt lat="59.5937785" lon="17.6091603">
        <ele>30.8</ele>
        <time>2012-03-24T13:19:10Z</time>
      </trkpt>
      <trkpt lat="59.5935005" lon="17.6085935">
        <ele>29.8</ele>
        <time>2012-03-24T13:19:15Z</time>
      </trkpt>
      <trkpt lat="59.5932223" lon="17.6080013">
        <ele>29</ele>
        <time>2012-03-24T13:19:20Z</time>
      </trkpt>
      <trkpt lat="59.5929566" lon="17.6073945">
        <ele>27.8</ele>
        <time>2012-03-24T13:19:25Z</time>
      </trkpt>
      <trkpt lat="59.5927066" lon="17.6067769">
        <ele>27</ele>
        <time>2012-03-24T13:19:30Z</time>
      </trkpt>
      <trkpt lat="59.5924742" lon="17.6061891">
        <ele>26.4</ele>
        <time>2012-03-24T13:19:35Z</time>
      </trkpt>
      <trkpt lat="59.5922163" lon="17.6055488">
        <ele>26.4</ele>
        <time>2012-03-24T13:19:41Z</time>
      </trkpt>
      <trkpt lat="59.5919915" lon="17.604978">
        <ele>27.8</ele>
        <time>2012-03-24T13:19:47Z</time>
      </trkpt>
      <trkpt lat="59.5917857" lon="17.6044071">
        <ele>32.4</ele>
        <time>2012-03-24T13:19:54Z</time>
      </trkpt>
      <trkpt lat="59.5915594" lon="17.6037905">
        <ele>36.8</ele>
        <time>2012-03-24T13:20:02Z</time>
      </trkpt>
      <trkpt lat="59.591362" lon="17.6031264">
        <ele>40.4</ele>
        <time>2012-03-24T13:20:09Z</time>
      </trkpt>
      <trkpt lat="59.5911948" lon="17.6024401">
        <ele>39.8</ele>
        <time>2012-03-24T13:20:15Z</time>
      </trkpt>
      <trkpt lat="59.5910528" lon="17.6016351">
        <ele>38.4</ele>
        <time>2012-03-24T13:20:21Z</time>
      </trkpt>
      <trkpt lat="59.5909533" lon="17.6009261">
        <ele>37.4</ele>
        <time>2012-03-24T13:20:26Z</time>
      </trkpt>
      <trkpt lat="59.5908626" lon="17.6001936">
        <ele>36.4</ele>
        <time>2012-03-24T13:20:31Z</time>
      </trkpt>
      <trkpt lat="59.5907682" lon="17.5994284">
        <ele>35.4</ele>
        <time>2012-03-24T13:20:36Z</time>
      </trkpt>
      <trkpt lat="59.5906696" lon="17.5986684">
        <ele>34.4</ele>
        <time>2012-03-24T13:20:41Z</time>
      </trkpt>
      <trkpt lat="59.5905739" lon="17.5979029">
        <ele>33.4</ele>
        <time>2012-03-24T13:20:46Z</time>
      </trkpt>
      <trkpt lat="59.5904722" lon="17.5971492">
        <ele>33.2</ele>
        <time>2012-03-24T13:20:51Z</time>
      </trkpt>
      <trkpt lat="59.5903773" lon="17.5964436">
        <ele>33</ele>
        <time>2012-03-24T13:20:56Z</time>
      </trkpt>
      <trkpt lat="59.5902898" lon="17.5957578">
        <ele>32.2</ele>
        <time>2012-03-24T13:21:01Z</time>
      </trkpt>
      <trkpt lat="59.5902008" lon="17.5950415">
        <ele>31.4</ele>
        <time>2012-03-24T13:21:06Z</time>
      </trkpt>
      <trkpt lat="59.5901086" lon="17.5943342">
        <ele>31</ele>
        <time>2012-03-24T13:21:11Z</time>
      </trkpt>
      <trkpt lat="59.5899804" lon="17.5936657">
        <ele>31.2</ele>
        <time>2012-03-24T13:21:16Z</time>
      </trkpt>
      <trkpt lat="59.5897964" lon="17.5930477">
        <ele>31.4</ele>
        <time>2012-03-24T13:21:21Z</time>
      </trkpt>
      <trkpt lat="59.5896025" lon="17.5924584">
        <ele>32</ele>
        <time>2012-03-24T13:21:26Z</time>
      </trkpt>
      <trkpt lat="59.5894832" lon="17.5919127">
        <ele>31.4</ele>
        <time>2012-03-24T13:21:30Z</time>
      </trkpt>
      <trkpt lat="59.589467" lon="17.5917663">
        <ele>31.2</ele>
        <time>2012-03-24T13:21:31Z</time>
      </trkpt>
      <trkpt lat="59.5894901" lon="17.5909972">
        <ele>31.6</ele>
        <time>2012-03-24T13:21:37Z</time>
      </trkpt>
      <trkpt lat="59.589508" lon="17.5908826">
        <ele>32</ele>
        <time>2012-03-24T13:21:38Z</time>
      </trkpt>
      <trkpt lat="59.5895547" lon="17.5906637">
        <ele>32.4</ele>
        <time>2012-03-24T13:21:40Z</time>
      </trkpt>
      <trkpt lat="59.5896574" lon="17.5903722">
        <ele>30.6</ele>
        <time>2012-03-24T13:21:43Z</time>
      </trkpt>
      <trkpt lat="59.5899176" lon="17.5898251">
        <ele>28.4</ele>
        <time>2012-03-24T13:21:49Z</time>
      </trkpt>
      <trkpt lat="59.5901863" lon="17.5892593">
        <ele>25.4</ele>
        <time>2012-03-24T13:21:55Z</time>
      </trkpt>
      <trkpt lat="59.5904555" lon="17.5887026">
        <ele>24.2</ele>
        <time>2012-03-24T13:22:01Z</time>
      </trkpt>
      <trkpt lat="59.5905457" lon="17.5885201">
        <ele>25.6</ele>
        <time>2012-03-24T13:22:03Z</time>
      </trkpt>
      <trkpt lat="59.5906829" lon="17.5881302">
        <ele>27.6</ele>
        <time>2012-03-24T13:22:07Z</time>
      </trkpt>
      <trkpt lat="59.5908307" lon="17.5874016">
        <ele>31.6</ele>
        <time>2012-03-24T13:22:14Z</time>
      </trkpt>
      <trkpt lat="59.5908657" lon="17.5867242">
        <ele>34.4</ele>
        <time>2012-03-24T13:22:20Z</time>
      </trkpt>
      <trkpt lat="59.5908579" lon="17.586603">
        <ele>35</ele>
        <time>2012-03-24T13:22:21Z</time>
      </trkpt>
      <trkpt lat="59.5907319" lon="17.5858958">
        <ele>34.8</ele>
        <time>2012-03-24T13:22:27Z</time>
      </trkpt>
      <trkpt lat="59.5905824" lon="17.5851099">
        <ele>35</ele>
        <time>2012-03-24T13:22:33Z</time>
      </trkpt>
      <trkpt lat="59.5905465" lon="17.5842914">
        <ele>33.2</ele>
        <time>2012-03-24T13:22:39Z</time>
      </trkpt>
      <trkpt lat="59.5905406" lon="17.5835726">
        <ele>34.2</ele>
        <time>2012-03-24T13:22:45Z</time>
      </trkpt>
      <trkpt lat="59.5905012" lon="17.5829815">
        <ele>34.4</ele>
        <time>2012-03-24T13:22:50Z</time>
      </trkpt>
      <trkpt lat="59.5904833" lon="17.5828648">
        <ele>34.8</ele>
        <time>2012-03-24T13:22:51Z</time>
      </trkpt>
      <trkpt lat="59.590313" lon="17.5822222">
        <ele>38</ele>
        <time>2012-03-24T13:22:57Z</time>
      </trkpt>
      <trkpt lat="59.5902716" lon="17.582126">
        <ele>38</ele>
        <time>2012-03-24T13:22:58Z</time>
      </trkpt>
      <trkpt lat="59.5900366" lon="17.5817089">
        <ele>37.6</ele>
        <time>2012-03-24T13:23:03Z</time>
      </trkpt>
      <trkpt lat="59.5896597" lon="17.5813671">
        <ele>36.4</ele>
        <time>2012-03-24T13:23:09Z</time>
      </trkpt>
      <trkpt lat="59.5892364" lon="17.5811435">
        <ele>34.4</ele>
        <time>2012-03-24T13:23:15Z</time>
      </trkpt>
      <trkpt lat="59.5888827" lon="17.5809539">
        <ele>38.6</ele>
        <time>2012-03-24T13:23:20Z</time>
      </trkpt>
      <trkpt lat="59.5884736" lon="17.5807422">
        <ele>37.6</ele>
        <time>2012-03-24T13:23:25Z</time>
      </trkpt>
      <trkpt lat="59.5880978" lon="17.5805309">
        <ele>39.4</ele>
        <time>2012-03-24T13:23:30Z</time>
      </trkpt>
      <trkpt lat="59.5877223" lon="17.580253">
        <ele>41</ele>
        <time>2012-03-24T13:23:35Z</time>
      </trkpt>
      <trkpt lat="59.5873879" lon="17.5798863">
        <ele>43.2</ele>
        <time>2012-03-24T13:23:40Z</time>
      </trkpt>
      <trkpt lat="59.587086" lon="17.5794998">
        <ele>47.4</ele>
        <time>2012-03-24T13:23:45Z</time>
      </trkpt>
      <trkpt lat="59.5867674" lon="17.5791099">
        <ele>49.2</ele>
        <time>2012-03-24T13:23:50Z</time>
      </trkpt>
      <trkpt lat="59.5864367" lon="17.5787676">
        <ele>48.4</ele>
        <time>2012-03-24T13:23:55Z</time>
      </trkpt>
      <trkpt lat="59.5860721" lon="17.5784245">
        <ele>43.6</ele>
        <time>2012-03-24T13:24:01Z</time>
      </trkpt>
      <trkpt lat="59.5856728" lon="17.5781341">
        <ele>41.8</ele>
        <time>2012-03-24T13:24:08Z</time>
      </trkpt>
      <trkpt lat="59.5852925" lon="17.5778802">
        <ele>42.8</ele>
        <time>2012-03-24T13:24:15Z</time>
      </trkpt>
      <trkpt lat="59.5849501" lon="17.5776254">
        <ele>45.8</ele>
        <time>2012-03-24T13:24:23Z</time>
      </trkpt>
      <trkpt lat="59.5845709" lon="17.5773684">
        <ele>46.8</ele>
        <time>2012-03-24T13:24:30Z</time>
      </trkpt>
      <trkpt lat="59.5841932" lon="17.5771037">
        <ele>46.8</ele>
        <time>2012-03-24T13:24:36Z</time>
      </trkpt>
      <trkpt lat="59.5837899" lon="17.5768152">
        <ele>45</ele>
        <time>2012-03-24T13:24:42Z</time>
      </trkpt>
      <trkpt lat="59.5834023" lon="17.5764555">
        <ele>44.2</ele>
        <time>2012-03-24T13:24:48Z</time>
      </trkpt>
      <trkpt lat="59.5830548" lon="17.5760891">
        <ele>42.8</ele>
        <time>2012-03-24T13:24:54Z</time>
      </trkpt>
      <trkpt lat="59.5826802" lon="17.5757025">
        <ele>41.6</ele>
        <time>2012-03-24T13:25:01Z</time>
      </trkpt>
      <trkpt lat="59.5823218" lon="17.5753263">
        <ele>41.6</ele>
        <time>2012-03-24T13:25:08Z</time>
      </trkpt>
      <trkpt lat="59.5819943" lon="17.5749898">
        <ele>41.6</ele>
        <time>2012-03-24T13:25:14Z</time>
      </trkpt>
      <trkpt lat="59.5816828" lon="17.5746519">
        <ele>43.2</ele>
        <time>2012-03-24T13:25:20Z</time>
      </trkpt>
      <trkpt lat="59.5814684" lon="17.5743832">
        <ele>42.8</ele>
        <time>2012-03-24T13:25:24Z</time>
      </trkpt>
      <trkpt lat="59.5813666" lon="17.5742187">
        <ele>43</ele>
        <time>2012-03-24T13:25:26Z</time>
      </trkpt>
      <trkpt lat="59.581103" lon="17.5736978">
        <ele>44.4</ele>
        <time>2012-03-24T13:25:32Z</time>
      </trkpt>
      <trkpt lat="59.5810671" lon="17.5735989">
        <ele>44.6</ele>
        <time>2012-03-24T13:25:33Z</time>
      </trkpt>
      <trkpt lat="59.5808791" lon="17.5729797">
        <ele>45.8</ele>
        <time>2012-03-24T13:25:39Z</time>
      </trkpt>
      <trkpt lat="59.5806947" lon="17.5724858">
        <ele>45.8</ele>
        <time>2012-03-24T13:25:44Z</time>
      </trkpt>
      <trkpt lat="59.5806543" lon="17.5723993">
        <ele>45.8</ele>
        <time>2012-03-24T13:25:45Z</time>
      </trkpt>
      <trkpt lat="59.5803879" lon="17.5719262">
        <ele>47.2</ele>
        <time>2012-03-24T13:25:51Z</time>
      </trkpt>
      <trkpt lat="59.5800638" lon="17.5714611">
        <ele>47.8</ele>
        <time>2012-03-24T13:25:57Z</time>
      </trkpt>
      <trkpt lat="59.5797389" lon="17.5710069">
        <ele>48</ele>
        <time>2012-03-24T13:26:03Z</time>
      </trkpt>
      <trkpt lat="59.5795405" lon="17.5707173">
        <ele>48.6</ele>
        <time>2012-03-24T13:26:07Z</time>
      </trkpt>
      <trkpt lat="59.5794442" lon="17.5706062">
        <ele>49.4</ele>
        <time>2012-03-24T13:26:09Z</time>
      </trkpt>
      <trkpt lat="59.5793944" lon="17.5705422">
        <ele>49.2</ele>
        <time>2012-03-24T13:26:10Z</time>
      </trkpt>
      <trkpt lat="59.579095" lon="17.5700936">
        <ele>49.8</ele>
        <time>2012-03-24T13:26:17Z</time>
      </trkpt>
      <trkpt lat="59.5787701" lon="17.5697237">
        <ele>51.6</ele>
        <time>2012-03-24T13:26:24Z</time>
      </trkpt>
      <trkpt lat="59.5785269" lon="17.5694495">
        <ele>54.4</ele>
        <time>2012-03-24T13:26:30Z</time>
      </trkpt>
      <trkpt lat="59.5784396" lon="17.5693536">
        <ele>55</ele>
        <time>2012-03-24T13:26:32Z</time>
      </trkpt>
      <trkpt lat="59.5781041" lon="17.5689565">
        <ele>58.8</ele>
        <time>2012-03-24T13:26:39Z</time>
      </trkpt>
      <trkpt lat="59.5777371" lon="17.5685359">
        <ele>62.8</ele>
        <time>2012-03-24T13:26:46Z</time>
      </trkpt>
      <trkpt lat="59.5774197" lon="17.568154">
        <ele>65</ele>
        <time>2012-03-24T13:26:52Z</time>
      </trkpt>
      <trkpt lat="59.5770955" lon="17.5677739">
        <ele>66.2</ele>
        <time>2012-03-24T13:26:58Z</time>
      </trkpt>
      <trkpt lat="59.5767633" lon="17.5673677">
        <ele>67.4</ele>
        <time>2012-03-24T13:27:04Z</time>
      </trkpt>
      <trkpt lat="59.5764093" lon="17.5669571">
        <ele>67.8</ele>
        <time>2012-03-24T13:27:10Z</time>
      </trkpt>
      <trkpt lat="59.5760476" lon="17.5665515">
        <ele>67.2</ele>
        <time>2012-03-24T13:27:16Z</time>
      </trkpt>
      <trkpt lat="59.5756797" lon="17.5662058">
        <ele>66.2</ele>
        <time>2012-03-24T13:27:22Z</time>
      </trkpt>
      <trkpt lat="59.5753245" lon="17.5659236">
        <ele>66</ele>
        <time>2012-03-24T13:27:28Z</time>
      </trkpt>
      <trkpt lat="59.5749731" lon="17.5656531">
        <ele>63.4</ele>
        <time>2012-03-24T13:27:34Z</time>
      </trkpt>
      <trkpt lat="59.5745945" lon="17.5653527">
        <ele>61.6</ele>
        <time>2012-03-24T13:27:40Z</time>
      </trkpt>
      <trkpt lat="59.5741916" lon="17.5650963">
        <ele>60</ele>
        <time>2012-03-24T13:27:46Z</time>
      </trkpt>
      <trkpt lat="59.5738389" lon="17.5648687">
        <ele>59.6</ele>
        <time>2012-03-24T13:27:51Z</time>
      </trkpt>
      <trkpt lat="59.5734787" lon="17.5646153">
        <ele>58.8</ele>
        <time>2012-03-24T13:27:56Z</time>
      </trkpt>
      <trkpt lat="59.5731204" lon="17.5643623">
        <ele>58</ele>
        <time>2012-03-24T13:28:01Z</time>
      </trkpt>
      <trkpt lat="59.572768" lon="17.5640459">
        <ele>56.8</ele>
        <time>2012-03-24T13:28:06Z</time>
      </trkpt>
      <trkpt lat="59.5724592" lon="17.563592">
        <ele>55.4</ele>
        <time>2012-03-24T13:28:11Z</time>
      </trkpt>
      <trkpt lat="59.572176" lon="17.5630439">
        <ele>54.6</ele>
        <time>2012-03-24T13:28:16Z</time>
      </trkpt>
      <trkpt lat="59.5718691" lon="17.562518">
        <ele>53</ele>
        <time>2012-03-24T13:28:21Z</time>
      </trkpt>
      <trkpt lat="59.5715268" lon="17.5621284">
        <ele>53.2</ele>
        <time>2012-03-24T13:28:26Z</time>
      </trkpt>
      <trkpt lat="59.5711506" lon="17.5618934">
        <ele>54.4</ele>
        <time>2012-03-24T13:28:31Z</time>
      </trkpt>
      <trkpt lat="59.5707324" lon="17.5617629">
        <ele>53.8</ele>
        <time>2012-03-24T13:28:37Z</time>
      </trkpt>
      <trkpt lat="59.5703127" lon="17.5616586">
        <ele>55</ele>
        <time>2012-03-24T13:28:43Z</time>
      </trkpt>
      <trkpt lat="59.5699563" lon="17.561601">
        <ele>53.6</ele>
        <time>2012-03-24T13:28:48Z</time>
      </trkpt>
      <trkpt lat="59.5695315" lon="17.5615858">
        <ele>53.8</ele>
        <time>2012-03-24T13:28:54Z</time>
      </trkpt>
      <trkpt lat="59.5691478" lon="17.5616171">
        <ele>53</ele>
        <time>2012-03-24T13:28:59Z</time>
      </trkpt>
      <trkpt lat="59.5687411" lon="17.561664">
        <ele>50.4</ele>
        <time>2012-03-24T13:29:04Z</time>
      </trkpt>
      <trkpt lat="59.5683302" lon="17.5616707">
        <ele>49.2</ele>
        <time>2012-03-24T13:29:09Z</time>
      </trkpt>
      <trkpt lat="59.5679172" lon="17.5615116">
        <ele>46.8</ele>
        <time>2012-03-24T13:29:14Z</time>
      </trkpt>
      <trkpt lat="59.5675294" lon="17.5612874">
        <ele>45.2</ele>
        <time>2012-03-24T13:29:19Z</time>
      </trkpt>
      <trkpt lat="59.5671228" lon="17.5610102">
        <ele>44</ele>
        <time>2012-03-24T13:29:24Z</time>
      </trkpt>
      <trkpt lat="59.566753" lon="17.5607688">
        <ele>43.8</ele>
        <time>2012-03-24T13:29:28Z</time>
      </trkpt>
      <trkpt lat="59.5663635" lon="17.5605132">
        <ele>42.2</ele>
        <time>2012-03-24T13:29:32Z</time>
      </trkpt>
      <trkpt lat="59.5659702" lon="17.5602735">
        <ele>40.6</ele>
        <time>2012-03-24T13:29:36Z</time>
      </trkpt>
      <trkpt lat="59.5655481" lon="17.5600975">
        <ele>38.6</ele>
        <time>2012-03-24T13:29:40Z</time>
      </trkpt>
      <trkpt lat="59.56509" lon="17.5600163">
        <ele>36.4</ele>
        <time>2012-03-24T13:29:44Z</time>
      </trkpt>
      <trkpt lat="59.5647239" lon="17.5599932">
        <ele>33.4</ele>
        <time>2012-03-24T13:29:47Z</time>
      </trkpt>
      <trkpt lat="59.5643525" lon="17.5599954">
        <ele>29.6</ele>
        <time>2012-03-24T13:29:50Z</time>
      </trkpt>
      <trkpt lat="59.5639809" lon="17.5599981">
        <ele>26.2</ele>
        <time>2012-03-24T13:29:53Z</time>
      </trkpt>
      <trkpt lat="59.5635899" lon="17.5599374">
        <ele>22.4</ele>
        <time>2012-03-24T13:29:56Z</time>
      </trkpt>
      <trkpt lat="59.5631897" lon="17.5597648">
        <ele>18.8</ele>
        <time>2012-03-24T13:29:59Z</time>
      </trkpt>
      <trkpt lat="59.5628086" lon="17.5594619">
        <ele>17</ele>
        <time>2012-03-24T13:30:02Z</time>
      </trkpt>
      <trkpt lat="59.5624565" lon="17.5590483">
        <ele>15.6</ele>
        <time>2012-03-24T13:30:05Z</time>
      </trkpt>
      <trkpt lat="59.5621515" lon="17.5585569">
        <ele>14</ele>
        <time>2012-03-24T13:30:08Z</time>
      </trkpt>
      <trkpt lat="59.5619022" lon="17.5580268">
        <ele>13</ele>
        <time>2012-03-24T13:30:11Z</time>
      </trkpt>
      <trkpt lat="59.5616527" lon="17.5573152">
        <ele>11.8</ele>
        <time>2012-03-24T13:30:15Z</time>
      </trkpt>
      <trkpt lat="59.561488" lon="17.5566136">
        <ele>12.4</ele>
        <time>2012-03-24T13:30:19Z</time>
      </trkpt>
      <trkpt lat="59.561378" lon="17.5559105">
        <ele>13.2</ele>
        <time>2012-03-24T13:30:23Z</time>
      </trkpt>
      <trkpt lat="59.5613065" lon="17.5552063">
        <ele>13.6</ele>
        <time>2012-03-24T13:30:27Z</time>
      </trkpt>
      <trkpt lat="59.5612848" lon="17.5548485">
        <ele>13.8</ele>
        <time>2012-03-24T13:30:29Z</time>
      </trkpt>
      <trkpt lat="59.561304" lon="17.5544821">
        <ele>14</ele>
        <time>2012-03-24T13:30:31Z</time>
      </trkpt>
      <trkpt lat="59.5613113" lon="17.5543004">
        <ele>13.8</ele>
        <time>2012-03-24T13:30:32Z</time>
      </trkpt>
      <trkpt lat="59.5612791" lon="17.5537748">
        <ele>14</ele>
        <time>2012-03-24T13:30:35Z</time>
      </trkpt>
      <trkpt lat="59.5612179" lon="17.5529334">
        <ele>15.2</ele>
        <time>2012-03-24T13:30:40Z</time>
      </trkpt>
      <trkpt lat="59.5611719" lon="17.552136">
        <ele>16.8</ele>
        <time>2012-03-24T13:30:45Z</time>
      </trkpt>
      <trkpt lat="59.5611227" lon="17.5513757">
        <ele>18.2</ele>
        <time>2012-03-24T13:30:50Z</time>
      </trkpt>
      <trkpt lat="59.5610564" lon="17.5506505">
        <ele>19.8</ele>
        <time>2012-03-24T13:30:55Z</time>
      </trkpt>
      <trkpt lat="59.5609537" lon="17.5499082">
        <ele>19.4</ele>
        <time>2012-03-24T13:31:00Z</time>
      </trkpt>
      <trkpt lat="59.5608472" lon="17.5491965">
        <ele>17.6</ele>
        <time>2012-03-24T13:31:05Z</time>
      </trkpt>
      <trkpt lat="59.5607264" lon="17.5485433">
        <ele>17.2</ele>
        <time>2012-03-24T13:31:10Z</time>
      </trkpt>
      <trkpt lat="59.5605565" lon="17.5478181">
        <ele>17.8</ele>
        <time>2012-03-24T13:31:16Z</time>
      </trkpt>
      <trkpt lat="59.5603566" lon="17.5471159">
        <ele>18</ele>
        <time>2012-03-24T13:31:22Z</time>
      </trkpt>
      <trkpt lat="59.5601549" lon="17.5464649">
        <ele>19.6</ele>
        <time>2012-03-24T13:31:28Z</time>
      </trkpt>
      <trkpt lat="59.5599694" lon="17.5459784">
        <ele>19.6</ele>
        <time>2012-03-24T13:31:33Z</time>
      </trkpt>
      <trkpt lat="59.5599288" lon="17.5458786">
        <ele>20</ele>
        <time>2012-03-24T13:31:34Z</time>
      </trkpt>
      <trkpt lat="59.5597074" lon="17.5452755">
        <ele>19.6</ele>
        <time>2012-03-24T13:31:40Z</time>
      </trkpt>
      <trkpt lat="59.5595954" lon="17.5449792">
        <ele>20</ele>
        <time>2012-03-24T13:31:43Z</time>
      </trkpt>
      <trkpt lat="59.5595319" lon="17.5446027">
        <ele>19.4</ele>
        <time>2012-03-24T13:31:46Z</time>
      </trkpt>
      <trkpt lat="59.5595132" lon="17.5444764">
        <ele>19.2</ele>
        <time>2012-03-24T13:31:47Z</time>
      </trkpt>
      <trkpt lat="59.5592242" lon="17.5442391">
        <ele>16.4</ele>
        <time>2012-03-24T13:31:52Z</time>
      </trkpt>
      <trkpt lat="59.5590117" lon="17.5444644">
        <ele>17</ele>
        <time>2012-03-24T13:31:55Z</time>
      </trkpt>
      <trkpt lat="59.5588769" lon="17.5446256">
        <ele>16.8</ele>
        <time>2012-03-24T13:31:57Z</time>
      </trkpt>
      <trkpt lat="59.5585041" lon="17.544923">
        <ele>18.8</ele>
        <time>2012-03-24T13:32:03Z</time>
      </trkpt>
      <trkpt lat="59.5581338" lon="17.5451116">
        <ele>20.4</ele>
        <time>2012-03-24T13:32:09Z</time>
      </trkpt>
      <trkpt lat="59.5577872" lon="17.5452623">
        <ele>21.4</ele>
        <time>2012-03-24T13:32:15Z</time>
      </trkpt>
      <trkpt lat="59.5574097" lon="17.5453773">
        <ele>21.2</ele>
        <time>2012-03-24T13:32:21Z</time>
      </trkpt>
      <trkpt lat="59.5570108" lon="17.5454688">
        <ele>19.8</ele>
        <time>2012-03-24T13:32:27Z</time>
      </trkpt>
      <trkpt lat="59.5566273" lon="17.5455241">
        <ele>21</ele>
        <time>2012-03-24T13:32:33Z</time>
      </trkpt>
      <trkpt lat="59.5562465" lon="17.545604">
        <ele>21.6</ele>
        <time>2012-03-24T13:32:39Z</time>
      </trkpt>
      <trkpt lat="59.5558683" lon="17.5457494">
        <ele>22.6</ele>
        <time>2012-03-24T13:32:45Z</time>
      </trkpt>
      <trkpt lat="59.5555194" lon="17.5459207">
        <ele>22.6</ele>
        <time>2012-03-24T13:32:50Z</time>
      </trkpt>
      <trkpt lat="59.5551415" lon="17.546116">
        <ele>21.2</ele>
        <time>2012-03-24T13:32:55Z</time>
      </trkpt>
      <trkpt lat="59.5547698" lon="17.5463444">
        <ele>21</ele>
        <time>2012-03-24T13:33:00Z</time>
      </trkpt>
      <trkpt lat="59.5544286" lon="17.5467411">
        <ele>19</ele>
        <time>2012-03-24T13:33:05Z</time>
      </trkpt>
      <trkpt lat="59.5541088" lon="17.5472431">
        <ele>15.6</ele>
        <time>2012-03-24T13:33:10Z</time>
      </trkpt>
      <trkpt lat="59.5537586" lon="17.5477585">
        <ele>12.6</ele>
        <time>2012-03-24T13:33:16Z</time>
      </trkpt>
      <trkpt lat="59.5535063" lon="17.5482982">
        <ele>11.6</ele>
        <time>2012-03-24T13:33:21Z</time>
      </trkpt>
      <trkpt lat="59.553338" lon="17.5489885">
        <ele>10.4</ele>
        <time>2012-03-24T13:33:26Z</time>
      </trkpt>
      <trkpt lat="59.5532412" lon="17.5497415">
        <ele>9.4</ele>
        <time>2012-03-24T13:33:31Z</time>
      </trkpt>
      <trkpt lat="59.5531981" lon="17.5505977">
        <ele>8</ele>
        <time>2012-03-24T13:33:36Z</time>
      </trkpt>
      <trkpt lat="59.5531744" lon="17.5513638">
        <ele>7.2</ele>
        <time>2012-03-24T13:33:40Z</time>
      </trkpt>
      <trkpt lat="59.5531541" lon="17.5521466">
        <ele>5.6</ele>
        <time>2012-03-24T13:33:44Z</time>
      </trkpt>
      <trkpt lat="59.5530941" lon="17.5529053">
        <ele>4.4</ele>
        <time>2012-03-24T13:33:48Z</time>
      </trkpt>
      <trkpt lat="59.5529916" lon="17.5534234">
        <ele>3.6</ele>
        <time>2012-03-24T13:33:51Z</time>
      </trkpt>
      <trkpt lat="59.5529473" lon="17.5535818">
        <ele>3.4</ele>
        <time>2012-03-24T13:33:52Z</time>
      </trkpt>
      <trkpt lat="59.5527914" lon="17.5539833">
        <ele>3.4</ele>
        <time>2012-03-24T13:33:55Z</time>
      </trkpt>
      <trkpt lat="59.5526755" lon="17.5542151">
        <ele>4</ele>
        <time>2012-03-24T13:33:57Z</time>
      </trkpt>
      <trkpt lat="59.5523734" lon="17.5547149">
        <ele>5.6</ele>
        <time>2012-03-24T13:34:02Z</time>
      </trkpt>
      <trkpt lat="59.5520787" lon="17.5552068">
        <ele>6.2</ele>
        <time>2012-03-24T13:34:07Z</time>
      </trkpt>
      <trkpt lat="59.5517742" lon="17.5557083">
        <ele>5.6</ele>
        <time>2012-03-24T13:34:12Z</time>
      </trkpt>
      <trkpt lat="59.5514851" lon="17.5562">
        <ele>4.2</ele>
        <time>2012-03-24T13:34:17Z</time>
      </trkpt>
      <trkpt lat="59.5511981" lon="17.5566616">
        <ele>4.2</ele>
        <time>2012-03-24T13:34:22Z</time>
      </trkpt>
      <trkpt lat="59.5509048" lon="17.5571092">
        <ele>4.6</ele>
        <time>2012-03-24T13:34:27Z</time>
      </trkpt>
      <trkpt lat="59.5506096" lon="17.5575875">
        <ele>5.2</ele>
        <time>2012-03-24T13:34:32Z</time>
      </trkpt>
      <trkpt lat="59.5503072" lon="17.5580384">
        <ele>5.8</ele>
        <time>2012-03-24T13:34:37Z</time>
      </trkpt>
      <trkpt lat="59.5499916" lon="17.5584519">
        <ele>6.6</ele>
        <time>2012-03-24T13:34:42Z</time>
      </trkpt>
      <trkpt lat="59.5497889" lon="17.5586087">
        <ele>6.8</ele>
        <time>2012-03-24T13:34:45Z</time>
      </trkpt>
      <trkpt lat="59.5496455" lon="17.5586574">
        <ele>7</ele>
        <time>2012-03-24T13:34:47Z</time>
      </trkpt>
      <trkpt lat="59.5492777" lon="17.5586995">
        <ele>7</ele>
        <time>2012-03-24T13:34:52Z</time>
      </trkpt>
      <trkpt lat="59.5489083" lon="17.5587272">
        <ele>6.6</ele>
        <time>2012-03-24T13:34:57Z</time>
      </trkpt>
      <trkpt lat="59.5485323" lon="17.5587352">
        <ele>5.6</ele>
        <time>2012-03-24T13:35:02Z</time>
      </trkpt>
      <trkpt lat="59.5481686" lon="17.5586418">
        <ele>5</ele>
        <time>2012-03-24T13:35:07Z</time>
      </trkpt>
      <trkpt lat="59.547813" lon="17.5584785">
        <ele>5</ele>
        <time>2012-03-24T13:35:12Z</time>
      </trkpt>
      <trkpt lat="59.5474444" lon="17.5583605">
        <ele>6.4</ele>
        <time>2012-03-24T13:35:17Z</time>
      </trkpt>
      <trkpt lat="59.5470737" lon="17.5583964">
        <ele>6.8</ele>
        <time>2012-03-24T13:35:22Z</time>
      </trkpt>
      <trkpt lat="59.5467213" lon="17.5585304">
        <ele>6.6</ele>
        <time>2012-03-24T13:35:27Z</time>
      </trkpt>
      <trkpt lat="59.5463091" lon="17.5587103">
        <ele>7.6</ele>
        <time>2012-03-24T13:35:33Z</time>
      </trkpt>
      <trkpt lat="59.5459717" lon="17.5588625">
        <ele>9.4</ele>
        <time>2012-03-24T13:35:39Z</time>
      </trkpt>
      <trkpt lat="59.5455718" lon="17.559035">
        <ele>11.2</ele>
        <time>2012-03-24T13:35:46Z</time>
      </trkpt>
      <trkpt lat="59.5452154" lon="17.559197">
        <ele>12</ele>
        <time>2012-03-24T13:35:52Z</time>
      </trkpt>
      <trkpt lat="59.5448551" lon="17.5593484">
        <ele>13</ele>
        <time>2012-03-24T13:35:59Z</time>
      </trkpt>
      <trkpt lat="59.5444868" lon="17.5595364">
        <ele>11.6</ele>
        <time>2012-03-24T13:36:06Z</time>
      </trkpt>
      <trkpt lat="59.5441119" lon="17.5597028">
        <ele>14</ele>
        <time>2012-03-24T13:36:13Z</time>
      </trkpt>
      <trkpt lat="59.5437491" lon="17.5598645">
        <ele>19.6</ele>
        <time>2012-03-24T13:36:20Z</time>
      </trkpt>
      <trkpt lat="59.5433649" lon="17.5600664">
        <ele>20.4</ele>
        <time>2012-03-24T13:36:28Z</time>
      </trkpt>
      <trkpt lat="59.5430032" lon="17.5603136">
        <ele>21.8</ele>
        <time>2012-03-24T13:36:36Z</time>
      </trkpt>
      <trkpt lat="59.5428911" lon="17.5604146">
        <ele>22.2</ele>
        <time>2012-03-24T13:36:39Z</time>
      </trkpt>
      <trkpt lat="59.5426629" lon="17.5607243">
        <ele>21.6</ele>
        <time>2012-03-24T13:36:45Z</time>
      </trkpt>
      <trkpt lat="59.5426282" lon="17.5607832">
        <ele>22.2</ele>
        <time>2012-03-24T13:36:46Z</time>
      </trkpt>
      <trkpt lat="59.542423" lon="17.561153">
        <ele>23.2</ele>
        <time>2012-03-24T13:36:52Z</time>
      </trkpt>
      <trkpt lat="59.5423951" lon="17.561219">
        <ele>23.4</ele>
        <time>2012-03-24T13:36:53Z</time>
      </trkpt>
      <trkpt lat="59.542209" lon="17.5616975">
        <ele>22</ele>
        <time>2012-03-24T13:37:00Z</time>
      </trkpt>
      <trkpt lat="59.5421532" lon="17.5618266">
        <ele>22.6</ele>
        <time>2012-03-24T13:37:02Z</time>
      </trkpt>
      <trkpt lat="59.5419198" lon="17.5623891">
        <ele>24.2</ele>
        <time>2012-03-24T13:37:10Z</time>
      </trkpt>
      <trkpt lat="59.5416813" lon="17.5630293">
        <ele>28.8</ele>
        <time>2012-03-24T13:37:18Z</time>
      </trkpt>
      <trkpt lat="59.5414511" lon="17.5636369">
        <ele>34.8</ele>
        <time>2012-03-24T13:37:27Z</time>
      </trkpt>
      <trkpt lat="59.5412069" lon="17.5642652">
        <ele>35.4</ele>
        <time>2012-03-24T13:37:35Z</time>
      </trkpt>
      <trkpt lat="59.541031" lon="17.5646461">
        <ele>33.6</ele>
        <time>2012-03-24T13:37:39Z</time>
      </trkpt>
      <trkpt lat="59.54093" lon="17.5648241">
        <ele>32.6</ele>
        <time>2012-03-24T13:37:41Z</time>
      </trkpt>
      <trkpt lat="59.5406205" lon="17.5652662">
        <ele>28.6</ele>
        <time>2012-03-24T13:37:46Z</time>
      </trkpt>
      <trkpt lat="59.5403465" lon="17.5656055">
        <ele>25.6</ele>
        <time>2012-03-24T13:37:50Z</time>
      </trkpt>
      <trkpt lat="59.5402842" lon="17.565711">
        <ele>24.8</ele>
        <time>2012-03-24T13:37:51Z</time>
      </trkpt>
      <trkpt lat="59.5400662" lon="17.5664002">
        <ele>22.4</ele>
        <time>2012-03-24T13:37:56Z</time>
      </trkpt>
      <trkpt lat="59.5398661" lon="17.5666648">
        <ele>22.6</ele>
        <time>2012-03-24T13:37:59Z</time>
      </trkpt>
      <trkpt lat="59.5397227" lon="17.566816">
        <ele>22.4</ele>
        <time>2012-03-24T13:38:01Z</time>
      </trkpt>
      <trkpt lat="59.539369" lon="17.5672002">
        <ele>22.6</ele>
        <time>2012-03-24T13:38:06Z</time>
      </trkpt>
      <trkpt lat="59.539035" lon="17.5675778">
        <ele>22.2</ele>
        <time>2012-03-24T13:38:11Z</time>
      </trkpt>
      <trkpt lat="59.5386887" lon="17.5679817">
        <ele>20.4</ele>
        <time>2012-03-24T13:38:16Z</time>
      </trkpt>
      <trkpt lat="59.5383375" lon="17.5683773">
        <ele>20.4</ele>
        <time>2012-03-24T13:38:21Z</time>
      </trkpt>
      <trkpt lat="59.5380198" lon="17.56874">
        <ele>20.4</ele>
        <time>2012-03-24T13:38:26Z</time>
      </trkpt>
      <trkpt lat="59.5376828" lon="17.5691181">
        <ele>20.6</ele>
        <time>2012-03-24T13:38:32Z</time>
      </trkpt>
      <trkpt lat="59.5373407" lon="17.5695045">
        <ele>22.2</ele>
        <time>2012-03-24T13:38:38Z</time>
      </trkpt>
      <trkpt lat="59.5369731" lon="17.5699267">
        <ele>23.8</ele>
        <time>2012-03-24T13:38:44Z</time>
      </trkpt>
      <trkpt lat="59.5366633" lon="17.5702857">
        <ele>24.6</ele>
        <time>2012-03-24T13:38:49Z</time>
      </trkpt>
      <trkpt lat="59.5363105" lon="17.5706918">
        <ele>26.2</ele>
        <time>2012-03-24T13:38:55Z</time>
      </trkpt>
      <trkpt lat="59.5359561" lon="17.5711107">
        <ele>27.2</ele>
        <time>2012-03-24T13:39:01Z</time>
      </trkpt>
      <trkpt lat="59.5355944" lon="17.571542">
        <ele>27.8</ele>
        <time>2012-03-24T13:39:07Z</time>
      </trkpt>
      <trkpt lat="59.5352434" lon="17.5719744">
        <ele>28.8</ele>
        <time>2012-03-24T13:39:13Z</time>
      </trkpt>
      <trkpt lat="59.5348974" lon="17.5723817">
        <ele>29.2</ele>
        <time>2012-03-24T13:39:19Z</time>
      </trkpt>
      <trkpt lat="59.5345678" lon="17.5727823">
        <ele>29.6</ele>
        <time>2012-03-24T13:39:25Z</time>
      </trkpt>
      <trkpt lat="59.5342281" lon="17.573184">
        <ele>29.6</ele>
        <time>2012-03-24T13:39:31Z</time>
      </trkpt>
      <trkpt lat="59.5338794" lon="17.5736039">
        <ele>29.8</ele>
        <time>2012-03-24T13:39:37Z</time>
      </trkpt>
      <trkpt lat="59.5335462" lon="17.5740101">
        <ele>30.4</ele>
        <time>2012-03-24T13:39:43Z</time>
      </trkpt>
      <trkpt lat="59.5332005" lon="17.5744203">
        <ele>31.2</ele>
        <time>2012-03-24T13:39:49Z</time>
      </trkpt>
      <trkpt lat="59.5328403" lon="17.5748595">
        <ele>32</ele>
        <time>2012-03-24T13:39:55Z</time>
      </trkpt>
      <trkpt lat="59.5324705" lon="17.5752839">
        <ele>32.4</ele>
        <time>2012-03-24T13:40:01Z</time>
      </trkpt>
      <trkpt lat="59.5320986" lon="17.5757044">
        <ele>32.8</ele>
        <time>2012-03-24T13:40:07Z</time>
      </trkpt>
      <trkpt lat="59.5317306" lon="17.5761189">
        <ele>33.6</ele>
        <time>2012-03-24T13:40:13Z</time>
      </trkpt>
      <trkpt lat="59.5313823" lon="17.5765045">
        <ele>33.6</ele>
        <time>2012-03-24T13:40:19Z</time>
      </trkpt>
      <trkpt lat="59.5310289" lon="17.5768944">
        <ele>33.4</ele>
        <time>2012-03-24T13:40:25Z</time>
      </trkpt>
      <trkpt lat="59.5306896" lon="17.5772667">
        <ele>33.4</ele>
        <time>2012-03-24T13:40:31Z</time>
      </trkpt>
      <trkpt lat="59.5303684" lon="17.5776227">
        <ele>33.8</ele>
        <time>2012-03-24T13:40:37Z</time>
      </trkpt>
      <trkpt lat="59.5300227" lon="17.5780134">
        <ele>34.6</ele>
        <time>2012-03-24T13:40:43Z</time>
      </trkpt>
      <trkpt lat="59.5296707" lon="17.5784115">
        <ele>35</ele>
        <time>2012-03-24T13:40:49Z</time>
      </trkpt>
      <trkpt lat="59.5293239" lon="17.5788168">
        <ele>35</ele>
        <time>2012-03-24T13:40:55Z</time>
      </trkpt>
      <trkpt lat="59.5289666" lon="17.5792261">
        <ele>34.8</ele>
        <time>2012-03-24T13:41:01Z</time>
      </trkpt>
      <trkpt lat="59.5286603" lon="17.5796139">
        <ele>34</ele>
        <time>2012-03-24T13:41:06Z</time>
      </trkpt>
      <trkpt lat="59.5283409" lon="17.580037">
        <ele>32.8</ele>
        <time>2012-03-24T13:41:11Z</time>
      </trkpt>
      <trkpt lat="59.5280207" lon="17.5805069">
        <ele>31.4</ele>
        <time>2012-03-24T13:41:16Z</time>
      </trkpt>
      <trkpt lat="59.5276998" lon="17.5810224">
        <ele>29.8</ele>
        <time>2012-03-24T13:41:21Z</time>
      </trkpt>
      <trkpt lat="59.5273757" lon="17.5815668">
        <ele>29.2</ele>
        <time>2012-03-24T13:41:26Z</time>
      </trkpt>
      <trkpt lat="59.5270729" lon="17.5821109">
        <ele>29</ele>
        <time>2012-03-24T13:41:31Z</time>
      </trkpt>
      <trkpt lat="59.5267912" lon="17.5826541">
        <ele>29.2</ele>
        <time>2012-03-24T13:41:36Z</time>
      </trkpt>
      <trkpt lat="59.5265191" lon="17.5832202">
        <ele>28.8</ele>
        <time>2012-03-24T13:41:41Z</time>
      </trkpt>
      <trkpt lat="59.5262757" lon="17.5837641">
        <ele>28.8</ele>
        <time>2012-03-24T13:41:46Z</time>
      </trkpt>
      <trkpt lat="59.5260042" lon="17.5844133">
        <ele>29</ele>
        <time>2012-03-24T13:41:52Z</time>
      </trkpt>
      <trkpt lat="59.5257816" lon="17.5850019">
        <ele>28.6</ele>
        <time>2012-03-24T13:41:57Z</time>
      </trkpt>
      <trkpt lat="59.5255596" lon="17.5855925">
        <ele>28.8</ele>
        <time>2012-03-24T13:42:02Z</time>
      </trkpt>
      <trkpt lat="59.5253534" lon="17.5862276">
        <ele>27.8</ele>
        <time>2012-03-24T13:42:07Z</time>
      </trkpt>
      <trkpt lat="59.5251491" lon="17.5868852">
        <ele>25.4</ele>
        <time>2012-03-24T13:42:12Z</time>
      </trkpt>
      <trkpt lat="59.5249517" lon="17.5875402">
        <ele>25.6</ele>
        <time>2012-03-24T13:42:17Z</time>
      </trkpt>
      <trkpt lat="59.5247712" lon="17.5882076">
        <ele>27.8</ele>
        <time>2012-03-24T13:42:23Z</time>
      </trkpt>
      <trkpt lat="59.5246112" lon="17.5888381">
        <ele>29.4</ele>
        <time>2012-03-24T13:42:29Z</time>
      </trkpt>
      <trkpt lat="59.5244263" lon="17.5895532">
        <ele>31.2</ele>
        <time>2012-03-24T13:42:35Z</time>
      </trkpt>
      <trkpt lat="59.5242211" lon="17.5902835">
        <ele>30</ele>
        <time>2012-03-24T13:42:41Z</time>
      </trkpt>
      <trkpt lat="59.524013" lon="17.5910636">
        <ele>29.2</ele>
        <time>2012-03-24T13:42:47Z</time>
      </trkpt>
      <trkpt lat="59.523828" lon="17.5917623">
        <ele>27.8</ele>
        <time>2012-03-24T13:42:52Z</time>
      </trkpt>
      <trkpt lat="59.5236315" lon="17.5925019">
        <ele>26.4</ele>
        <time>2012-03-24T13:42:57Z</time>
      </trkpt>
      <trkpt lat="59.5234318" lon="17.593264">
        <ele>25</ele>
        <time>2012-03-24T13:43:02Z</time>
      </trkpt>
      <trkpt lat="59.5232328" lon="17.594023">
        <ele>24.4</ele>
        <time>2012-03-24T13:43:07Z</time>
      </trkpt>
      <trkpt lat="59.5230411" lon="17.5947647">
        <ele>24.2</ele>
        <time>2012-03-24T13:43:12Z</time>
      </trkpt>
      <trkpt lat="59.5228535" lon="17.5954382">
        <ele>24.6</ele>
        <time>2012-03-24T13:43:17Z</time>
      </trkpt>
      <trkpt lat="59.5226387" lon="17.5961306">
        <ele>25</ele>
        <time>2012-03-24T13:43:23Z</time>
      </trkpt>
      <trkpt lat="59.5222954" lon="17.596085">
        <ele>24.2</ele>
        <time>2012-03-24T13:43:29Z</time>
      </trkpt>
      <trkpt lat="59.5219669" lon="17.5957651">
        <ele>23.8</ele>
        <time>2012-03-24T13:43:34Z</time>
      </trkpt>
      <trkpt lat="59.5216363" lon="17.5954657">
        <ele>25.2</ele>
        <time>2012-03-24T13:43:39Z</time>
      </trkpt>
      <trkpt lat="59.5213168" lon="17.5952285">
        <ele>26.8</ele>
        <time>2012-03-24T13:43:44Z</time>
      </trkpt>
      <trkpt lat="59.5212484" lon="17.5952035">
        <ele>27.2</ele>
        <time>2012-03-24T13:43:45Z</time>
      </trkpt>
      <trkpt lat="59.5208329" lon="17.595172">
        <ele>28.8</ele>
        <time>2012-03-24T13:43:51Z</time>
      </trkpt>
      <trkpt lat="59.520768" lon="17.5951916">
        <ele>29</ele>
        <time>2012-03-24T13:43:52Z</time>
      </trkpt>
      <trkpt lat="59.5204804" lon="17.5953422">
        <ele>30.2</ele>
        <time>2012-03-24T13:43:57Z</time>
      </trkpt>
      <trkpt lat="59.520092" lon="17.5956501">
        <ele>31.2</ele>
        <time>2012-03-24T13:44:03Z</time>
      </trkpt>
      <trkpt lat="59.5197264" lon="17.5960344">
        <ele>33.2</ele>
        <time>2012-03-24T13:44:09Z</time>
      </trkpt>
      <trkpt lat="59.5193957" lon="17.5964644">
        <ele>33.2</ele>
        <time>2012-03-24T13:44:15Z</time>
      </trkpt>
      <trkpt lat="59.519073" lon="17.596927">
        <ele>34.2</ele>
        <time>2012-03-24T13:44:21Z</time>
      </trkpt>
      <trkpt lat="59.51875" lon="17.597323">
        <ele>35.2</ele>
        <time>2012-03-24T13:44:26Z</time>
      </trkpt>
      <trkpt lat="59.5184102" lon="17.5977787">
        <ele>36.2</ele>
        <time>2012-03-24T13:44:31Z</time>
      </trkpt>
      <trkpt lat="59.5180942" lon="17.5982863">
        <ele>37</ele>
        <time>2012-03-24T13:44:36Z</time>
      </trkpt>
      <trkpt lat="59.5178225" lon="17.5987814">
        <ele>39</ele>
        <time>2012-03-24T13:44:41Z</time>
      </trkpt>
      <trkpt lat="59.5175762" lon="17.5992887">
        <ele>39.2</ele>
        <time>2012-03-24T13:44:46Z</time>
      </trkpt>
      <trkpt lat="59.5173353" lon="17.5998579">
        <ele>38.6</ele>
        <time>2012-03-24T13:44:51Z</time>
      </trkpt>
      <trkpt lat="59.5171251" lon="17.6004417">
        <ele>39.2</ele>
        <time>2012-03-24T13:44:56Z</time>
      </trkpt>
      <trkpt lat="59.5169147" lon="17.6011844">
        <ele>37</ele>
        <time>2012-03-24T13:45:02Z</time>
      </trkpt>
      <trkpt lat="59.5167385" lon="17.6018843">
        <ele>34.2</ele>
        <time>2012-03-24T13:45:08Z</time>
      </trkpt>
      <trkpt lat="59.5165478" lon="17.6026168">
        <ele>34.6</ele>
        <time>2012-03-24T13:45:14Z</time>
      </trkpt>
      <trkpt lat="59.5163723" lon="17.603241">
        <ele>34.2</ele>
        <time>2012-03-24T13:45:19Z</time>
      </trkpt>
      <trkpt lat="59.5161947" lon="17.6039024">
        <ele>33.4</ele>
        <time>2012-03-24T13:45:24Z</time>
      </trkpt>
      <trkpt lat="59.5160113" lon="17.604547">
        <ele>33.2</ele>
        <time>2012-03-24T13:45:29Z</time>
      </trkpt>
      <trkpt lat="59.5158171" lon="17.6051693">
        <ele>33.4</ele>
        <time>2012-03-24T13:45:34Z</time>
      </trkpt>
      <trkpt lat="59.5156132" lon="17.6057746">
        <ele>33.4</ele>
        <time>2012-03-24T13:45:39Z</time>
      </trkpt>
      <trkpt lat="59.515384" lon="17.6063566">
        <ele>32.4</ele>
        <time>2012-03-24T13:45:44Z</time>
      </trkpt>
      <trkpt lat="59.5151063" lon="17.6070041">
        <ele>31.2</ele>
        <time>2012-03-24T13:45:50Z</time>
      </trkpt>
      <trkpt lat="59.5148131" lon="17.6076291">
        <ele>30</ele>
        <time>2012-03-24T13:45:56Z</time>
      </trkpt>
      <trkpt lat="59.514539" lon="17.6081021">
        <ele>28.6</ele>
        <time>2012-03-24T13:46:01Z</time>
      </trkpt>
      <trkpt lat="59.514278" lon="17.6086008">
        <ele>28</ele>
        <time>2012-03-24T13:46:06Z</time>
      </trkpt>
      <trkpt lat="59.5140061" lon="17.6092063">
        <ele>27</ele>
        <time>2012-03-24T13:46:12Z</time>
      </trkpt>
      <trkpt lat="59.5137864" lon="17.6097">
        <ele>26.4</ele>
        <time>2012-03-24T13:46:17Z</time>
      </trkpt>
      <trkpt lat="59.513747" lon="17.6098057">
        <ele>26</ele>
        <time>2012-03-24T13:46:18Z</time>
      </trkpt>
      <trkpt lat="59.5135371" lon="17.6104139">
        <ele>24.4</ele>
        <time>2012-03-24T13:46:24Z</time>
      </trkpt>
      <trkpt lat="59.5133469" lon="17.6111293">
        <ele>26.8</ele>
        <time>2012-03-24T13:46:30Z</time>
      </trkpt>
      <trkpt lat="59.5131962" lon="17.6118937">
        <ele>29.4</ele>
        <time>2012-03-24T13:46:36Z</time>
      </trkpt>
      <trkpt lat="59.5130928" lon="17.6127127">
        <ele>31</ele>
        <time>2012-03-24T13:46:42Z</time>
      </trkpt>
      <trkpt lat="59.5130467" lon="17.6134316">
        <ele>32.2</ele>
        <time>2012-03-24T13:46:47Z</time>
      </trkpt>
      <trkpt lat="59.5130208" lon="17.6141523">
        <ele>31</ele>
        <time>2012-03-24T13:46:52Z</time>
      </trkpt>
      <trkpt lat="59.5129991" lon="17.6149827">
        <ele>30.6</ele>
        <time>2012-03-24T13:46:58Z</time>
      </trkpt>
      <trkpt lat="59.5130076" lon="17.6156345">
        <ele>30.8</ele>
        <time>2012-03-24T13:47:03Z</time>
      </trkpt>
      <trkpt lat="59.5130263" lon="17.6157582">
        <ele>31</ele>
        <time>2012-03-24T13:47:04Z</time>
      </trkpt>
      <trkpt lat="59.5130685" lon="17.6159968">
        <ele>31</ele>
        <time>2012-03-24T13:47:06Z</time>
      </trkpt>
      <trkpt lat="59.5130058" lon="17.6165118">
        <ele>29.6</ele>
        <time>2012-03-24T13:47:10Z</time>
      </trkpt>
      <trkpt lat="59.5129115" lon="17.6172536">
        <ele>27.2</ele>
        <time>2012-03-24T13:47:15Z</time>
      </trkpt>
      <trkpt lat="59.5128581" lon="17.6181088">
        <ele>24.8</ele>
        <time>2012-03-24T13:47:20Z</time>
      </trkpt>
      <trkpt lat="59.5128069" lon="17.6188284">
        <ele>23.6</ele>
        <time>2012-03-24T13:47:24Z</time>
      </trkpt>
      <trkpt lat="59.5127352" lon="17.619555">
        <ele>23</ele>
        <time>2012-03-24T13:47:28Z</time>
      </trkpt>
      <trkpt lat="59.512645" lon="17.6202711">
        <ele>22.6</ele>
        <time>2012-03-24T13:47:32Z</time>
      </trkpt>
      <trkpt lat="59.5125411" lon="17.6209671">
        <ele>22</ele>
        <time>2012-03-24T13:47:36Z</time>
      </trkpt>
      <trkpt lat="59.5124216" lon="17.6216372">
        <ele>21.6</ele>
        <time>2012-03-24T13:47:40Z</time>
      </trkpt>
      <trkpt lat="59.5122807" lon="17.6223021">
        <ele>21.2</ele>
        <time>2012-03-24T13:47:44Z</time>
      </trkpt>
      <trkpt lat="59.5121246" lon="17.6229507">
        <ele>21.2</ele>
        <time>2012-03-24T13:47:48Z</time>
      </trkpt>
      <trkpt lat="59.5119153" lon="17.6237096">
        <ele>21.2</ele>
        <time>2012-03-24T13:47:53Z</time>
      </trkpt>
      <trkpt lat="59.5116828" lon="17.6244134">
        <ele>21.8</ele>
        <time>2012-03-24T13:47:58Z</time>
      </trkpt>
      <trkpt lat="59.5114393" lon="17.6251073">
        <ele>21.8</ele>
        <time>2012-03-24T13:48:03Z</time>
      </trkpt>
      <trkpt lat="59.5111767" lon="17.6258521">
        <ele>21.2</ele>
        <time>2012-03-24T13:48:08Z</time>
      </trkpt>
      <trkpt lat="59.5109684" lon="17.6264469">
        <ele>20.4</ele>
        <time>2012-03-24T13:48:12Z</time>
      </trkpt>
      <trkpt lat="59.5107084" lon="17.6271812">
        <ele>19.2</ele>
        <time>2012-03-24T13:48:17Z</time>
      </trkpt>
      <trkpt lat="59.5105002" lon="17.6277677">
        <ele>18.6</ele>
        <time>2012-03-24T13:48:21Z</time>
      </trkpt>
      <trkpt lat="59.5102912" lon="17.6283515">
        <ele>18.2</ele>
        <time>2012-03-24T13:48:25Z</time>
      </trkpt>
      <trkpt lat="59.5100869" lon="17.6289338">
        <ele>18</ele>
        <time>2012-03-24T13:48:29Z</time>
      </trkpt>
      <trkpt lat="59.5098809" lon="17.6295272">
        <ele>18</ele>
        <time>2012-03-24T13:48:33Z</time>
      </trkpt>
      <trkpt lat="59.5096714" lon="17.6301262">
        <ele>18</ele>
        <time>2012-03-24T13:48:37Z</time>
      </trkpt>
      <trkpt lat="59.509462" lon="17.6307396">
        <ele>18</ele>
        <time>2012-03-24T13:48:41Z</time>
      </trkpt>
      <trkpt lat="59.5092399" lon="17.6313675">
        <ele>17</ele>
        <time>2012-03-24T13:48:45Z</time>
      </trkpt>
      <trkpt lat="59.5090174" lon="17.6319817">
        <ele>16.2</ele>
        <time>2012-03-24T13:48:49Z</time>
      </trkpt>
      <trkpt lat="59.5088035" lon="17.6326007">
        <ele>15.8</ele>
        <time>2012-03-24T13:48:53Z</time>
      </trkpt>
      <trkpt lat="59.508585" lon="17.6332335">
        <ele>15.4</ele>
        <time>2012-03-24T13:48:57Z</time>
      </trkpt>
      <trkpt lat="59.5083618" lon="17.6338508">
        <ele>14.8</ele>
        <time>2012-03-24T13:49:01Z</time>
      </trkpt>
      <trkpt lat="59.5081417" lon="17.6344619">
        <ele>14</ele>
        <time>2012-03-24T13:49:05Z</time>
      </trkpt>
      <trkpt lat="59.5079288" lon="17.6350583">
        <ele>13.8</ele>
        <time>2012-03-24T13:49:09Z</time>
      </trkpt>
      <trkpt lat="59.5077495" lon="17.6356746">
        <ele>13.8</ele>
        <time>2012-03-24T13:49:13Z</time>
      </trkpt>
      <trkpt lat="59.5076226" lon="17.6363604">
        <ele>13.4</ele>
        <time>2012-03-24T13:49:17Z</time>
      </trkpt>
      <trkpt lat="59.5075325" lon="17.6370793">
        <ele>13.4</ele>
        <time>2012-03-24T13:49:21Z</time>
      </trkpt>
      <trkpt lat="59.5075002" lon="17.6377954">
        <ele>13.4</ele>
        <time>2012-03-24T13:49:25Z</time>
      </trkpt>
      <trkpt lat="59.5075288" lon="17.638663">
        <ele>13.4</ele>
        <time>2012-03-24T13:49:30Z</time>
      </trkpt>
      <trkpt lat="59.5076071" lon="17.6395224">
        <ele>13</ele>
        <time>2012-03-24T13:49:35Z</time>
      </trkpt>
      <trkpt lat="59.5076947" lon="17.6403496">
        <ele>13</ele>
        <time>2012-03-24T13:49:40Z</time>
      </trkpt>
      <trkpt lat="59.5077708" lon="17.6411407">
        <ele>13</ele>
        <time>2012-03-24T13:49:45Z</time>
      </trkpt>
      <trkpt lat="59.5078589" lon="17.6418881">
        <ele>13</ele>
        <time>2012-03-24T13:49:50Z</time>
      </trkpt>
      <trkpt lat="59.5079429" lon="17.6426082">
        <ele>13.6</ele>
        <time>2012-03-24T13:49:55Z</time>
      </trkpt>
      <trkpt lat="59.5080475" lon="17.643383">
        <ele>14</ele>
        <time>2012-03-24T13:50:01Z</time>
      </trkpt>
      <trkpt lat="59.508157" lon="17.6441373">
        <ele>15.8</ele>
        <time>2012-03-24T13:50:07Z</time>
      </trkpt>
      <trkpt lat="59.5082731" lon="17.644833">
        <ele>18.8</ele>
        <time>2012-03-24T13:50:13Z</time>
      </trkpt>
      <trkpt lat="59.5083867" lon="17.6455546">
        <ele>22.4</ele>
        <time>2012-03-24T13:50:20Z</time>
      </trkpt>
      <trkpt lat="59.5085052" lon="17.6463095">
        <ele>22.8</ele>
        <time>2012-03-24T13:50:27Z</time>
      </trkpt>
      <trkpt lat="59.5086154" lon="17.6470361">
        <ele>22.2</ele>
        <time>2012-03-24T13:50:33Z</time>
      </trkpt>
      <trkpt lat="59.5087343" lon="17.6478">
        <ele>20</ele>
        <time>2012-03-24T13:50:38Z</time>
      </trkpt>
      <trkpt lat="59.5088626" lon="17.648543">
        <ele>16.6</ele>
        <time>2012-03-24T13:50:42Z</time>
      </trkpt>
      <trkpt lat="59.508998" lon="17.6494134">
        <ele>13</ele>
        <time>2012-03-24T13:50:46Z</time>
      </trkpt>
      <trkpt lat="59.5091597" lon="17.6502705">
        <ele>12.8</ele>
        <time>2012-03-24T13:50:50Z</time>
      </trkpt>
      <trkpt lat="59.5093184" lon="17.651055">
        <ele>13.2</ele>
        <time>2012-03-24T13:50:54Z</time>
      </trkpt>
      <trkpt lat="59.5094739" lon="17.6517676">
        <ele>13.8</ele>
        <time>2012-03-24T13:50:58Z</time>
      </trkpt>
      <trkpt lat="59.5096682" lon="17.6525114">
        <ele>14</ele>
        <time>2012-03-24T13:51:03Z</time>
      </trkpt>
      <trkpt lat="59.5098836" lon="17.6532187">
        <ele>15.4</ele>
        <time>2012-03-24T13:51:09Z</time>
      </trkpt>
      <trkpt lat="59.5099572" lon="17.6534194">
        <ele>15.8</ele>
        <time>2012-03-24T13:51:11Z</time>
      </trkpt>
      <trkpt lat="59.5098618" lon="17.6538587">
        <ele>14.8</ele>
        <time>2012-03-24T13:51:16Z</time>
      </trkpt>
      <trkpt lat="59.5095968" lon="17.6543855">
        <ele>13.6</ele>
        <time>2012-03-24T13:51:21Z</time>
      </trkpt>
      <trkpt lat="59.5092746" lon="17.6549653">
        <ele>13.2</ele>
        <time>2012-03-24T13:51:26Z</time>
      </trkpt>
      <trkpt lat="59.5089345" lon="17.6555165">
        <ele>12</ele>
        <time>2012-03-24T13:51:31Z</time>
      </trkpt>
      <trkpt lat="59.508575" lon="17.6560517">
        <ele>10.8</ele>
        <time>2012-03-24T13:51:36Z</time>
      </trkpt>
      <trkpt lat="59.5082845" lon="17.6564919">
        <ele>9.6</ele>
        <time>2012-03-24T13:51:40Z</time>
      </trkpt>
      <trkpt lat="59.507985" lon="17.6569496">
        <ele>9.8</ele>
        <time>2012-03-24T13:51:44Z</time>
      </trkpt>
      <trkpt lat="59.5077046" lon="17.6574068">
        <ele>9.4</ele>
        <time>2012-03-24T13:51:48Z</time>
      </trkpt>
      <trkpt lat="59.5076289" lon="17.6574915">
        <ele>9.6</ele>
        <time>2012-03-24T13:51:49Z</time>
      </trkpt>
      <trkpt lat="59.5073204" lon="17.6576107">
        <ele>10.2</ele>
        <time>2012-03-24T13:51:53Z</time>
      </trkpt>
      <trkpt lat="59.5072085" lon="17.6578074">
        <ele>10.8</ele>
        <time>2012-03-24T13:51:55Z</time>
      </trkpt>
      <trkpt lat="59.5070429" lon="17.6581065">
        <ele>11.8</ele>
        <time>2012-03-24T13:51:58Z</time>
      </trkpt>
      <trkpt lat="59.5068325" lon="17.658328">
        <ele>12.2</ele>
        <time>2012-03-24T13:52:01Z</time>
      </trkpt>
      <trkpt lat="59.5067024" lon="17.6584961">
        <ele>13</ele>
        <time>2012-03-24T13:52:03Z</time>
      </trkpt>
      <trkpt lat="59.5064441" lon="17.6589979">
        <ele>15</ele>
        <time>2012-03-24T13:52:08Z</time>
      </trkpt>
      <trkpt lat="59.5061862" lon="17.659522">
        <ele>14.6</ele>
        <time>2012-03-24T13:52:13Z</time>
      </trkpt>
      <trkpt lat="59.5059277" lon="17.6601984">
        <ele>13.2</ele>
        <time>2012-03-24T13:52:18Z</time>
      </trkpt>
      <trkpt lat="59.5056866" lon="17.6609158">
        <ele>12.6</ele>
        <time>2012-03-24T13:52:23Z</time>
      </trkpt>
      <trkpt lat="59.5054418" lon="17.6615925">
        <ele>12.8</ele>
        <time>2012-03-24T13:52:28Z</time>
      </trkpt>
      <trkpt lat="59.5051911" lon="17.6621906">
        <ele>12.8</ele>
        <time>2012-03-24T13:52:33Z</time>
      </trkpt>
      <trkpt lat="59.5049171" lon="17.6627796">
        <ele>11.2</ele>
        <time>2012-03-24T13:52:38Z</time>
      </trkpt>
      <trkpt lat="59.5046079" lon="17.6633499">
        <ele>10.6</ele>
        <time>2012-03-24T13:52:43Z</time>
      </trkpt>
      <trkpt lat="59.5042733" lon="17.6638453">
        <ele>10</ele>
        <time>2012-03-24T13:52:48Z</time>
      </trkpt>
      <trkpt lat="59.5039282" lon="17.6643465">
        <ele>9.2</ele>
        <time>2012-03-24T13:52:53Z</time>
      </trkpt>
      <trkpt lat="59.5035693" lon="17.6648451">
        <ele>9</ele>
        <time>2012-03-24T13:52:58Z</time>
      </trkpt>
      <trkpt lat="59.5032717" lon="17.6652519">
        <ele>8.6</ele>
        <time>2012-03-24T13:53:02Z</time>
      </trkpt>
      <trkpt lat="59.502973" lon="17.6656672">
        <ele>9</ele>
        <time>2012-03-24T13:53:06Z</time>
      </trkpt>
      <trkpt lat="59.5025989" lon="17.6661521">
        <ele>8.4</ele>
        <time>2012-03-24T13:53:11Z</time>
      </trkpt>
      <trkpt lat="59.5022435" lon="17.6666693">
        <ele>8</ele>
        <time>2012-03-24T13:53:16Z</time>
      </trkpt>
      <trkpt lat="59.5018823" lon="17.6671888">
        <ele>8.6</ele>
        <time>2012-03-24T13:53:21Z</time>
      </trkpt>
      <trkpt lat="59.5015277" lon="17.6676865">
        <ele>9</ele>
        <time>2012-03-24T13:53:26Z</time>
      </trkpt>
      <trkpt lat="59.501219" lon="17.6681958">
        <ele>9</ele>
        <time>2012-03-24T13:53:31Z</time>
      </trkpt>
      <trkpt lat="59.5009159" lon="17.668748">
        <ele>9.6</ele>
        <time>2012-03-24T13:53:36Z</time>
      </trkpt>
      <trkpt lat="59.5006285" lon="17.6692692">
        <ele>9.8</ele>
        <time>2012-03-24T13:53:41Z</time>
      </trkpt>
      <trkpt lat="59.5003358" lon="17.6697955">
        <ele>10.4</ele>
        <time>2012-03-24T13:53:46Z</time>
      </trkpt>
      <trkpt lat="59.5000332" lon="17.6703378">
        <ele>10.6</ele>
        <time>2012-03-24T13:53:51Z</time>
      </trkpt>
      <trkpt lat="59.4997196" lon="17.6708711">
        <ele>10.8</ele>
        <time>2012-03-24T13:53:56Z</time>
      </trkpt>
      <trkpt lat="59.4994008" lon="17.6713749">
        <ele>11.4</ele>
        <time>2012-03-24T13:54:01Z</time>
      </trkpt>
      <trkpt lat="59.4990673" lon="17.6718893">
        <ele>12.6</ele>
        <time>2012-03-24T13:54:06Z</time>
      </trkpt>
      <trkpt lat="59.4987497" lon="17.6724107">
        <ele>12.6</ele>
        <time>2012-03-24T13:54:11Z</time>
      </trkpt>
      <trkpt lat="59.4984347" lon="17.6729434">
        <ele>11.4</ele>
        <time>2012-03-24T13:54:16Z</time>
      </trkpt>
      <trkpt lat="59.4981286" lon="17.6734843">
        <ele>11</ele>
        <time>2012-03-24T13:54:21Z</time>
      </trkpt>
      <trkpt lat="59.4978084" lon="17.6740161">
        <ele>9.8</ele>
        <time>2012-03-24T13:54:26Z</time>
      </trkpt>
      <trkpt lat="59.4975235" lon="17.6745932">
        <ele>9.6</ele>
        <time>2012-03-24T13:54:31Z</time>
      </trkpt>
      <trkpt lat="59.4972397" lon="17.6752428">
        <ele>9.6</ele>
        <time>2012-03-24T13:54:37Z</time>
      </trkpt>
      <trkpt lat="59.4971068" lon="17.6755805">
        <ele>9.2</ele>
        <time>2012-03-24T13:54:40Z</time>
      </trkpt>
      <trkpt lat="59.4970008" lon="17.67581">
        <ele>8.4</ele>
        <time>2012-03-24T13:54:42Z</time>
      </trkpt>
      <trkpt lat="59.4967246" lon="17.6763976">
        <ele>8.2</ele>
        <time>2012-03-24T13:54:47Z</time>
      </trkpt>
      <trkpt lat="59.4964496" lon="17.6770137">
        <ele>8</ele>
        <time>2012-03-24T13:54:53Z</time>
      </trkpt>
      <trkpt lat="59.4961829" lon="17.6776073">
        <ele>9.4</ele>
        <time>2012-03-24T13:54:59Z</time>
      </trkpt>
      <trkpt lat="59.4959171" lon="17.6781654">
        <ele>11.4</ele>
        <time>2012-03-24T13:55:05Z</time>
      </trkpt>
      <trkpt lat="59.4956541" lon="17.6787609">
        <ele>14</ele>
        <time>2012-03-24T13:55:12Z</time>
      </trkpt>
      <trkpt lat="59.4954169" lon="17.6792877">
        <ele>15.2</ele>
        <time>2012-03-24T13:55:18Z</time>
      </trkpt>
      <trkpt lat="59.4951779" lon="17.6798343">
        <ele>15</ele>
        <time>2012-03-24T13:55:23Z</time>
      </trkpt>
      <trkpt lat="59.4949396" lon="17.6803989">
        <ele>14.8</ele>
        <time>2012-03-24T13:55:28Z</time>
      </trkpt>
      <trkpt lat="59.4946911" lon="17.6809827">
        <ele>14</ele>
        <time>2012-03-24T13:55:33Z</time>
      </trkpt>
      <trkpt lat="59.494477" lon="17.681457">
        <ele>12</ele>
        <time>2012-03-24T13:55:37Z</time>
      </trkpt>
      <trkpt lat="59.4944316" lon="17.6815932">
        <ele>11.6</ele>
        <time>2012-03-24T13:55:38Z</time>
      </trkpt>
      <trkpt lat="59.4941923" lon="17.682271">
        <ele>10</ele>
        <time>2012-03-24T13:55:43Z</time>
      </trkpt>
      <trkpt lat="59.4939487" lon="17.6830016">
        <ele>9.8</ele>
        <time>2012-03-24T13:55:48Z</time>
      </trkpt>
      <trkpt lat="59.4938941" lon="17.6831397">
        <ele>9.4</ele>
        <time>2012-03-24T13:55:49Z</time>
      </trkpt>
      <trkpt lat="59.4936695" lon="17.6836592">
        <ele>9.8</ele>
        <time>2012-03-24T13:55:53Z</time>
      </trkpt>
      <trkpt lat="59.4933891" lon="17.6842867">
        <ele>9.4</ele>
        <time>2012-03-24T13:55:58Z</time>
      </trkpt>
      <trkpt lat="59.49305" lon="17.6849177">
        <ele>9.4</ele>
        <time>2012-03-24T13:56:03Z</time>
      </trkpt>
      <trkpt lat="59.49275" lon="17.6854507">
        <ele>8.6</ele>
        <time>2012-03-24T13:56:10Z</time>
      </trkpt>
      <trkpt lat="59.49246" lon="17.6859148">
        <ele>7.8</ele>
        <time>2012-03-24T13:56:15Z</time>
      </trkpt>
      <trkpt lat="59.492131" lon="17.6863705">
        <ele>6.4</ele>
        <time>2012-03-24T13:56:20Z</time>
      </trkpt>
      <trkpt lat="59.4917772" lon="17.6867166">
        <ele>6</ele>
        <time>2012-03-24T13:56:25Z</time>
      </trkpt>
      <trkpt lat="59.4914116" lon="17.6870005">
        <ele>6.6</ele>
        <time>2012-03-24T13:56:30Z</time>
      </trkpt>
      <trkpt lat="59.4910001" lon="17.6872932">
        <ele>6.6</ele>
        <time>2012-03-24T13:56:36Z</time>
      </trkpt>
      <trkpt lat="59.4906432" lon="17.6876282">
        <ele>6.2</ele>
        <time>2012-03-24T13:56:42Z</time>
      </trkpt>
      <trkpt lat="59.4903143" lon="17.6879573">
        <ele>9.8</ele>
        <time>2012-03-24T13:56:49Z</time>
      </trkpt>
      <trkpt lat="59.4902284" lon="17.6880168">
        <ele>11.6</ele>
        <time>2012-03-24T13:56:51Z</time>
      </trkpt>
      <trkpt lat="59.4899579" lon="17.688075">
        <ele>13.6</ele>
        <time>2012-03-24T13:56:56Z</time>
      </trkpt>
      <trkpt lat="59.4897485" lon="17.6882861">
        <ele>13.4</ele>
        <time>2012-03-24T13:57:00Z</time>
      </trkpt>
      <trkpt lat="59.4896021" lon="17.6884933">
        <ele>13.4</ele>
        <time>2012-03-24T13:57:03Z</time>
      </trkpt>
      <trkpt lat="59.4893103" lon="17.688958">
        <ele>13.2</ele>
        <time>2012-03-24T13:57:09Z</time>
      </trkpt>
      <trkpt lat="59.4890056" lon="17.6893415">
        <ele>14.2</ele>
        <time>2012-03-24T13:57:15Z</time>
      </trkpt>
      <trkpt lat="59.4888594" lon="17.6895581">
        <ele>15.6</ele>
        <time>2012-03-24T13:57:18Z</time>
      </trkpt>
      <trkpt lat="59.4887197" lon="17.6898149">
        <ele>14.2</ele>
        <time>2012-03-24T13:57:21Z</time>
      </trkpt>
      <trkpt lat="59.4885939" lon="17.6900217">
        <ele>15.6</ele>
        <time>2012-03-24T13:57:24Z</time>
      </trkpt>
      <trkpt lat="59.4884723" lon="17.6902941">
        <ele>13.8</ele>
        <time>2012-03-24T13:57:27Z</time>
      </trkpt>
      <trkpt lat="59.4883346" lon="17.6905583">
        <ele>12.6</ele>
        <time>2012-03-24T13:57:30Z</time>
      </trkpt>
      <trkpt lat="59.4881749" lon="17.6907786">
        <ele>11.8</ele>
        <time>2012-03-24T13:57:33Z</time>
      </trkpt>
      <trkpt lat="59.4878615" lon="17.6912615">
        <ele>12</ele>
        <time>2012-03-24T13:57:39Z</time>
      </trkpt>
      <trkpt lat="59.4875181" lon="17.6918003">
        <ele>10.8</ele>
        <time>2012-03-24T13:57:46Z</time>
      </trkpt>
      <trkpt lat="59.4871752" lon="17.6923775">
        <ele>7.2</ele>
        <time>2012-03-24T13:57:52Z</time>
      </trkpt>
      <trkpt lat="59.4870497" lon="17.6925877">
        <ele>6.4</ele>
        <time>2012-03-24T13:57:54Z</time>
      </trkpt>
      <trkpt lat="59.4868721" lon="17.692911">
        <ele>5.4</ele>
        <time>2012-03-24T13:57:57Z</time>
      </trkpt>
      <trkpt lat="59.4865713" lon="17.6933751">
        <ele>6.8</ele>
        <time>2012-03-24T13:58:02Z</time>
      </trkpt>
      <trkpt lat="59.4864431" lon="17.6939252">
        <ele>9.2</ele>
        <time>2012-03-24T13:58:08Z</time>
      </trkpt>
      <trkpt lat="59.4864117" lon="17.6939917">
        <ele>10</ele>
        <time>2012-03-24T13:58:09Z</time>
      </trkpt>
      <trkpt lat="59.4862837" lon="17.6943069">
        <ele>10.6</ele>
        <time>2012-03-24T13:58:13Z</time>
      </trkpt>
      <trkpt lat="59.4861848" lon="17.6945107">
        <ele>14.2</ele>
        <time>2012-03-24T13:58:16Z</time>
      </trkpt>
      <trkpt lat="59.4859018" lon="17.6950603">
        <ele>20.4</ele>
        <time>2012-03-24T13:58:24Z</time>
      </trkpt>
      <trkpt lat="59.4856304" lon="17.6956392">
        <ele>22.6</ele>
        <time>2012-03-24T13:58:33Z</time>
      </trkpt>
      <trkpt lat="59.4853927" lon="17.6961897">
        <ele>20.6</ele>
        <time>2012-03-24T13:58:42Z</time>
      </trkpt>
      <trkpt lat="59.4853037" lon="17.6964061">
        <ele>20.2</ele>
        <time>2012-03-24T13:58:45Z</time>
      </trkpt>
      <trkpt lat="59.4851503" lon="17.6967488">
        <ele>19.4</ele>
        <time>2012-03-24T13:58:50Z</time>
      </trkpt>
      <trkpt lat="59.484911" lon="17.6973002">
        <ele>19.8</ele>
        <time>2012-03-24T13:58:59Z</time>
      </trkpt>
      <trkpt lat="59.4846727" lon="17.6978539">
        <ele>21.8</ele>
        <time>2012-03-24T13:59:08Z</time>
      </trkpt>
      <trkpt lat="59.4844335" lon="17.6984226">
        <ele>28.2</ele>
        <time>2012-03-24T13:59:15Z</time>
      </trkpt>
      <trkpt lat="59.484292" lon="17.6987143">
        <ele>32.4</ele>
        <time>2012-03-24T13:59:19Z</time>
      </trkpt>
      <trkpt lat="59.48415" lon="17.6990029">
        <ele>35.2</ele>
        <time>2012-03-24T13:59:23Z</time>
      </trkpt>
      <trkpt lat="59.4838978" lon="17.6995451">
        <ele>39</ele>
        <time>2012-03-24T13:59:30Z</time>
      </trkpt>
      <trkpt lat="59.4836189" lon="17.7001418">
        <ele>42.4</ele>
        <time>2012-03-24T13:59:37Z</time>
      </trkpt>
      <trkpt lat="59.4833688" lon="17.7007024">
        <ele>44.6</ele>
        <time>2012-03-24T13:59:42Z</time>
      </trkpt>
      <trkpt lat="59.4830772" lon="17.7012873">
        <ele>43</ele>
        <time>2012-03-24T13:59:47Z</time>
      </trkpt>
      <trkpt lat="59.482799" lon="17.70187">
        <ele>41.6</ele>
        <time>2012-03-24T13:59:52Z</time>
      </trkpt>
      <trkpt lat="59.4825088" lon="17.7024645">
        <ele>40.2</ele>
        <time>2012-03-24T13:59:57Z</time>
      </trkpt>
      <trkpt lat="59.4822215" lon="17.703078">
        <ele>39.2</ele>
        <time>2012-03-24T14:00:02Z</time>
      </trkpt>
      <trkpt lat="59.4819364" lon="17.7037133">
        <ele>35.6</ele>
        <time>2012-03-24T14:00:07Z</time>
      </trkpt>
      <trkpt lat="59.4816657" lon="17.7043658">
        <ele>34.6</ele>
        <time>2012-03-24T14:00:12Z</time>
      </trkpt>
      <trkpt lat="59.4814253" lon="17.7050596">
        <ele>33</ele>
        <time>2012-03-24T14:00:17Z</time>
      </trkpt>
      <trkpt lat="59.4811989" lon="17.7057887">
        <ele>31.4</ele>
        <time>2012-03-24T14:00:22Z</time>
      </trkpt>
      <trkpt lat="59.4809855" lon="17.7064938">
        <ele>30</ele>
        <time>2012-03-24T14:00:27Z</time>
      </trkpt>
      <trkpt lat="59.4807711" lon="17.7071977">
        <ele>29</ele>
        <time>2012-03-24T14:00:32Z</time>
      </trkpt>
      <trkpt lat="59.4805106" lon="17.7079397">
        <ele>26.8</ele>
        <time>2012-03-24T14:00:37Z</time>
      </trkpt>
      <trkpt lat="59.4804668" lon="17.7080939">
        <ele>26.6</ele>
        <time>2012-03-24T14:00:38Z</time>
      </trkpt>
      <trkpt lat="59.4803086" lon="17.7087086">
        <ele>26</ele>
        <time>2012-03-24T14:00:42Z</time>
      </trkpt>
      <trkpt lat="59.48009" lon="17.7094279">
        <ele>26.6</ele>
        <time>2012-03-24T14:00:47Z</time>
      </trkpt>
      <trkpt lat="59.479865" lon="17.7101717">
        <ele>25.6</ele>
        <time>2012-03-24T14:00:52Z</time>
      </trkpt>
      <trkpt lat="59.4796537" lon="17.7109037">
        <ele>23.8</ele>
        <time>2012-03-24T14:00:57Z</time>
      </trkpt>
      <trkpt lat="59.4795106" lon="17.7114912">
        <ele>21.6</ele>
        <time>2012-03-24T14:01:01Z</time>
      </trkpt>
      <trkpt lat="59.4794838" lon="17.7116342">
        <ele>21</ele>
        <time>2012-03-24T14:01:02Z</time>
      </trkpt>
      <trkpt lat="59.4793367" lon="17.712391">
        <ele>19.4</ele>
        <time>2012-03-24T14:01:07Z</time>
      </trkpt>
      <trkpt lat="59.4791705" lon="17.7132164">
        <ele>18.4</ele>
        <time>2012-03-24T14:01:12Z</time>
      </trkpt>
      <trkpt lat="59.479033" lon="17.7140623">
        <ele>18.4</ele>
        <time>2012-03-24T14:01:17Z</time>
      </trkpt>
      <trkpt lat="59.478912" lon="17.7148846">
        <ele>18.4</ele>
        <time>2012-03-24T14:01:22Z</time>
      </trkpt>
      <trkpt lat="59.4787825" lon="17.715658">
        <ele>18.8</ele>
        <time>2012-03-24T14:01:27Z</time>
      </trkpt>
      <trkpt lat="59.478715" lon="17.7160724">
        <ele>19.2</ele>
        <time>2012-03-24T14:01:30Z</time>
      </trkpt>
      <trkpt lat="59.478712" lon="17.7163385">
        <ele>19.6</ele>
        <time>2012-03-24T14:01:32Z</time>
      </trkpt>
      <trkpt lat="59.4787068" lon="17.7164779">
        <ele>19.8</ele>
        <time>2012-03-24T14:01:33Z</time>
      </trkpt>
      <trkpt lat="59.4786424" lon="17.7170724">
        <ele>21.2</ele>
        <time>2012-03-24T14:01:37Z</time>
      </trkpt>
      <trkpt lat="59.4785642" lon="17.7178033">
        <ele>22</ele>
        <time>2012-03-24T14:01:42Z</time>
      </trkpt>
      <trkpt lat="59.478509" lon="17.7185379">
        <ele>22</ele>
        <time>2012-03-24T14:01:47Z</time>
      </trkpt>
      <trkpt lat="59.47848" lon="17.71927">
        <ele>23.2</ele>
        <time>2012-03-24T14:01:52Z</time>
      </trkpt>
      <trkpt lat="59.4784683" lon="17.7200306">
        <ele>24.2</ele>
        <time>2012-03-24T14:01:57Z</time>
      </trkpt>
      <trkpt lat="59.4784674" lon="17.7207882">
        <ele>24.4</ele>
        <time>2012-03-24T14:02:02Z</time>
      </trkpt>
      <trkpt lat="59.4784794" lon="17.7215788">
        <ele>24.4</ele>
        <time>2012-03-24T14:02:07Z</time>
      </trkpt>
      <trkpt lat="59.478489" lon="17.7224158">
        <ele>24</ele>
        <time>2012-03-24T14:02:12Z</time>
      </trkpt>
      <trkpt lat="59.4784924" lon="17.7231499">
        <ele>23.4</ele>
        <time>2012-03-24T14:02:16Z</time>
      </trkpt>
      <trkpt lat="59.4785089" lon="17.7239441">
        <ele>22.4</ele>
        <time>2012-03-24T14:02:20Z</time>
      </trkpt>
      <trkpt lat="59.4785157" lon="17.7247577">
        <ele>21.4</ele>
        <time>2012-03-24T14:02:24Z</time>
      </trkpt>
      <trkpt lat="59.4785266" lon="17.7254907">
        <ele>21</ele>
        <time>2012-03-24T14:02:28Z</time>
      </trkpt>
      <trkpt lat="59.4785187" lon="17.7263211">
        <ele>20.8</ele>
        <time>2012-03-24T14:02:33Z</time>
      </trkpt>
      <trkpt lat="59.4784887" lon="17.7270221">
        <ele>20</ele>
        <time>2012-03-24T14:02:37Z</time>
      </trkpt>
      <trkpt lat="59.4784836" lon="17.7277759">
        <ele>17.2</ele>
        <time>2012-03-24T14:02:41Z</time>
      </trkpt>
      <trkpt lat="59.4784752" lon="17.7283379">
        <ele>16.2</ele>
        <time>2012-03-24T14:02:44Z</time>
      </trkpt>
      <trkpt lat="59.4784549" lon="17.7284906">
        <ele>15.8</ele>
        <time>2012-03-24T14:02:45Z</time>
      </trkpt>
      <trkpt lat="59.478393" lon="17.7292013">
        <ele>16</ele>
        <time>2012-03-24T14:02:51Z</time>
      </trkpt>
      <trkpt lat="59.4784904" lon="17.729479">
        <ele>16</ele>
        <time>2012-03-24T14:02:54Z</time>
      </trkpt>
      <trkpt lat="59.4785379" lon="17.7295691">
        <ele>15.6</ele>
        <time>2012-03-24T14:02:56Z</time>
      </trkpt>
      <trkpt lat="59.4786011" lon="17.7296932">
        <ele>16</ele>
        <time>2012-03-24T14:02:59Z</time>
      </trkpt>
      <trkpt lat="59.4785969" lon="17.7299067">
        <ele>16</ele>
        <time>2012-03-24T14:03:01Z</time>
      </trkpt>
      <trkpt lat="59.4785929" lon="17.7304756">
        <ele>15.2</ele>
        <time>2012-03-24T14:03:05Z</time>
      </trkpt>
      <trkpt lat="59.4785776" lon="17.7311841">
        <ele>15</ele>
        <time>2012-03-24T14:03:09Z</time>
      </trkpt>
      <trkpt lat="59.4785436" lon="17.7319015">
        <ele>14</ele>
        <time>2012-03-24T14:03:13Z</time>
      </trkpt>
      <trkpt lat="59.4784851" lon="17.7326072">
        <ele>12.6</ele>
        <time>2012-03-24T14:03:17Z</time>
      </trkpt>
      <trkpt lat="59.4783917" lon="17.7334421">
        <ele>11.8</ele>
        <time>2012-03-24T14:03:22Z</time>
      </trkpt>
      <trkpt lat="59.4782772" lon="17.7342363">
        <ele>9.2</ele>
        <time>2012-03-24T14:03:27Z</time>
      </trkpt>
      <trkpt lat="59.4781297" lon="17.7350173">
        <ele>7.6</ele>
        <time>2012-03-24T14:03:32Z</time>
      </trkpt>
      <trkpt lat="59.4779577" lon="17.7357861">
        <ele>6.8</ele>
        <time>2012-03-24T14:03:37Z</time>
      </trkpt>
      <trkpt lat="59.4777571" lon="17.7365279">
        <ele>7.2</ele>
        <time>2012-03-24T14:03:42Z</time>
      </trkpt>
      <trkpt lat="59.4775442" lon="17.7372453">
        <ele>8</ele>
        <time>2012-03-24T14:03:47Z</time>
      </trkpt>
      <trkpt lat="59.4773252" lon="17.737937">
        <ele>8.4</ele>
        <time>2012-03-24T14:03:52Z</time>
      </trkpt>
      <trkpt lat="59.4771179" lon="17.7385909">
        <ele>9</ele>
        <time>2012-03-24T14:03:57Z</time>
      </trkpt>
      <trkpt lat="59.4769264" lon="17.7392046">
        <ele>9.6</ele>
        <time>2012-03-24T14:04:02Z</time>
      </trkpt>
      <trkpt lat="59.4767259" lon="17.7399143">
        <ele>10</ele>
        <time>2012-03-24T14:04:08Z</time>
      </trkpt>
      <trkpt lat="59.4765501" lon="17.7406224">
        <ele>11.6</ele>
        <time>2012-03-24T14:04:14Z</time>
      </trkpt>
      <trkpt lat="59.4764137" lon="17.7413034">
        <ele>13.6</ele>
        <time>2012-03-24T14:04:20Z</time>
      </trkpt>
      <trkpt lat="59.4763124" lon="17.7420588">
        <ele>15</ele>
        <time>2012-03-24T14:04:27Z</time>
      </trkpt>
      <trkpt lat="59.4762369" lon="17.7427419">
        <ele>15.6</ele>
        <time>2012-03-24T14:04:33Z</time>
      </trkpt>
      <trkpt lat="59.4761787" lon="17.7434834">
        <ele>16.8</ele>
        <time>2012-03-24T14:04:39Z</time>
      </trkpt>
      <trkpt lat="59.4761455" lon="17.7442117">
        <ele>17.4</ele>
        <time>2012-03-24T14:04:45Z</time>
      </trkpt>
      <trkpt lat="59.4761639" lon="17.7449291">
        <ele>17.8</ele>
        <time>2012-03-24T14:04:51Z</time>
      </trkpt>
      <trkpt lat="59.4762524" lon="17.7456282">
        <ele>18.6</ele>
        <time>2012-03-24T14:04:57Z</time>
      </trkpt>
      <trkpt lat="59.4763662" lon="17.7464051">
        <ele>20.2</ele>
        <time>2012-03-24T14:05:04Z</time>
      </trkpt>
      <trkpt lat="59.4765073" lon="17.7471597">
        <ele>22</ele>
        <time>2012-03-24T14:05:11Z</time>
      </trkpt>
      <trkpt lat="59.4766662" lon="17.7478865">
        <ele>25</ele>
        <time>2012-03-24T14:05:18Z</time>
      </trkpt>
      <trkpt lat="59.4768623" lon="17.7485448">
        <ele>27.2</ele>
        <time>2012-03-24T14:05:24Z</time>
      </trkpt>
      <trkpt lat="59.4770476" lon="17.7490338">
        <ele>27.4</ele>
        <time>2012-03-24T14:05:29Z</time>
      </trkpt>
      <trkpt lat="59.4770673" lon="17.7491443">
        <ele>27.4</ele>
        <time>2012-03-24T14:05:30Z</time>
      </trkpt>
      <trkpt lat="59.4773012" lon="17.7497271">
        <ele>27.4</ele>
        <time>2012-03-24T14:05:36Z</time>
      </trkpt>
      <trkpt lat="59.4773444" lon="17.7498379">
        <ele>27</ele>
        <time>2012-03-24T14:05:37Z</time>
      </trkpt>
      <trkpt lat="59.4775214" lon="17.7503681">
        <ele>26</ele>
        <time>2012-03-24T14:05:41Z</time>
      </trkpt>
      <trkpt lat="59.4777297" lon="17.7509812">
        <ele>24.6</ele>
        <time>2012-03-24T14:05:45Z</time>
      </trkpt>
      <trkpt lat="59.4779549" lon="17.75158">
        <ele>22.6</ele>
        <time>2012-03-24T14:05:49Z</time>
      </trkpt>
      <trkpt lat="59.4782017" lon="17.7520871">
        <ele>22</ele>
        <time>2012-03-24T14:05:53Z</time>
      </trkpt>
      <trkpt lat="59.4784885" lon="17.7527438">
        <ele>20.8</ele>
        <time>2012-03-24T14:05:58Z</time>
      </trkpt>
      <trkpt lat="59.4787677" lon="17.7534183">
        <ele>21.6</ele>
        <time>2012-03-24T14:06:03Z</time>
      </trkpt>
      <trkpt lat="59.4790265" lon="17.7540583">
        <ele>22</ele>
        <time>2012-03-24T14:06:08Z</time>
      </trkpt>
      <trkpt lat="59.4792609" lon="17.7546284">
        <ele>23.8</ele>
        <time>2012-03-24T14:06:13Z</time>
      </trkpt>
      <trkpt lat="59.4795248" lon="17.7552889">
        <ele>26.2</ele>
        <time>2012-03-24T14:06:19Z</time>
      </trkpt>
      <trkpt lat="59.4797701" lon="17.7558591">
        <ele>28.2</ele>
        <time>2012-03-24T14:06:25Z</time>
      </trkpt>
      <trkpt lat="59.4798489" lon="17.7560268">
        <ele>28.6</ele>
        <time>2012-03-24T14:06:27Z</time>
      </trkpt>
      <trkpt lat="59.4799986" lon="17.7563868">
        <ele>29</ele>
        <time>2012-03-24T14:06:31Z</time>
      </trkpt>
      <trkpt lat="59.4802244" lon="17.7569438">
        <ele>30.8</ele>
        <time>2012-03-24T14:06:37Z</time>
      </trkpt>
      <trkpt lat="59.4804484" lon="17.7575063">
        <ele>32.8</ele>
        <time>2012-03-24T14:06:43Z</time>
      </trkpt>
      <trkpt lat="59.4806732" lon="17.7580613">
        <ele>32.8</ele>
        <time>2012-03-24T14:06:49Z</time>
      </trkpt>
      <trkpt lat="59.4809164" lon="17.7586596">
        <ele>31.8</ele>
        <time>2012-03-24T14:06:55Z</time>
      </trkpt>
      <trkpt lat="59.4811927" lon="17.7591791">
        <ele>30</ele>
        <time>2012-03-24T14:07:00Z</time>
      </trkpt>
      <trkpt lat="59.4815102" lon="17.7595524">
        <ele>27.6</ele>
        <time>2012-03-24T14:07:04Z</time>
      </trkpt>
      <trkpt lat="59.4818879" lon="17.7598112">
        <ele>24.6</ele>
        <time>2012-03-24T14:07:08Z</time>
      </trkpt>
      <trkpt lat="59.4823052" lon="17.7599809">
        <ele>22.4</ele>
        <time>2012-03-24T14:07:12Z</time>
      </trkpt>
      <trkpt lat="59.4827988" lon="17.7602415">
        <ele>20.6</ele>
        <time>2012-03-24T14:07:16Z</time>
      </trkpt>
      <trkpt lat="59.4829625" lon="17.7604361">
        <ele>19.8</ele>
        <time>2012-03-24T14:07:18Z</time>
      </trkpt>
      <trkpt lat="59.4830372" lon="17.7605485">
        <ele>19.2</ele>
        <time>2012-03-24T14:07:20Z</time>
      </trkpt>
      <trkpt lat="59.4832908" lon="17.7610777">
        <ele>19</ele>
        <time>2012-03-24T14:07:24Z</time>
      </trkpt>
      <trkpt lat="59.4834733" lon="17.7616913">
        <ele>18.8</ele>
        <time>2012-03-24T14:07:28Z</time>
      </trkpt>
      <trkpt lat="59.4835678" lon="17.7621772">
        <ele>19.4</ele>
        <time>2012-03-24T14:07:31Z</time>
      </trkpt>
      <trkpt lat="59.4835952" lon="17.7624949">
        <ele>19.6</ele>
        <time>2012-03-24T14:07:33Z</time>
      </trkpt>
      <trkpt lat="59.4835823" lon="17.7630749">
        <ele>21.6</ele>
        <time>2012-03-24T14:07:37Z</time>
      </trkpt>
      <trkpt lat="59.4835722" lon="17.7632069">
        <ele>22.2</ele>
        <time>2012-03-24T14:07:38Z</time>
      </trkpt>
      <trkpt lat="59.483476" lon="17.7639013">
        <ele>23.4</ele>
        <time>2012-03-24T14:07:44Z</time>
      </trkpt>
      <trkpt lat="59.4833771" lon="17.7646662">
        <ele>23.4</ele>
        <time>2012-03-24T14:07:51Z</time>
      </trkpt>
      <trkpt lat="59.4832744" lon="17.7654277">
        <ele>24.4</ele>
        <time>2012-03-24T14:07:58Z</time>
      </trkpt>
      <trkpt lat="59.483185" lon="17.7661661">
        <ele>25.8</ele>
        <time>2012-03-24T14:08:05Z</time>
      </trkpt>
      <trkpt lat="59.4831021" lon="17.7669263">
        <ele>29.2</ele>
        <time>2012-03-24T14:08:15Z</time>
      </trkpt>
      <trkpt lat="59.4830014" lon="17.7676413">
        <ele>31.4</ele>
        <time>2012-03-24T14:08:23Z</time>
      </trkpt>
      <trkpt lat="59.4829125" lon="17.7683318">
        <ele>34.6</ele>
        <time>2012-03-24T14:08:31Z</time>
      </trkpt>
      <trkpt lat="59.482875" lon="17.7685789">
        <ele>36.4</ele>
        <time>2012-03-24T14:08:34Z</time>
      </trkpt>
      <trkpt lat="59.4828104" lon="17.7690166">
        <ele>38.4</ele>
        <time>2012-03-24T14:08:40Z</time>
      </trkpt>
      <trkpt lat="59.4827166" lon="17.7697522">
        <ele>41</ele>
        <time>2012-03-24T14:08:49Z</time>
      </trkpt>
      <trkpt lat="59.4826256" lon="17.7705047">
        <ele>42.6</ele>
        <time>2012-03-24T14:08:56Z</time>
      </trkpt>
      <trkpt lat="59.4825456" lon="17.7712509">
        <ele>44</ele>
        <time>2012-03-24T14:09:03Z</time>
      </trkpt>
      <trkpt lat="59.4824536" lon="17.7719854">
        <ele>45.6</ele>
        <time>2012-03-24T14:09:09Z</time>
      </trkpt>
      <trkpt lat="59.4823582" lon="17.7727279">
        <ele>46.6</ele>
        <time>2012-03-24T14:09:16Z</time>
      </trkpt>
      <trkpt lat="59.4822723" lon="17.7734409">
        <ele>47</ele>
        <time>2012-03-24T14:09:23Z</time>
      </trkpt>
      <trkpt lat="59.4821775" lon="17.7742268">
        <ele>47</ele>
        <time>2012-03-24T14:09:30Z</time>
      </trkpt>
      <trkpt lat="59.4820939" lon="17.7749474">
        <ele>46.6</ele>
        <time>2012-03-24T14:09:35Z</time>
      </trkpt>
      <trkpt lat="59.4819765" lon="17.7758107">
        <ele>44.8</ele>
        <time>2012-03-24T14:09:40Z</time>
      </trkpt>
      <trkpt lat="59.4818605" lon="17.7765334">
        <ele>43.2</ele>
        <time>2012-03-24T14:09:44Z</time>
      </trkpt>
      <trkpt lat="59.4817074" lon="17.7772584">
        <ele>40.6</ele>
        <time>2012-03-24T14:09:48Z</time>
      </trkpt>
      <trkpt lat="59.4815408" lon="17.7779625">
        <ele>38.2</ele>
        <time>2012-03-24T14:09:52Z</time>
      </trkpt>
      <trkpt lat="59.4813717" lon="17.7786636">
        <ele>35.4</ele>
        <time>2012-03-24T14:09:56Z</time>
      </trkpt>
      <trkpt lat="59.4812097" lon="17.7793414">
        <ele>33.2</ele>
        <time>2012-03-24T14:10:00Z</time>
      </trkpt>
      <trkpt lat="59.4810408" lon="17.7799973">
        <ele>31.2</ele>
        <time>2012-03-24T14:10:04Z</time>
      </trkpt>
      <trkpt lat="59.4808832" lon="17.7806638">
        <ele>29.4</ele>
        <time>2012-03-24T14:10:08Z</time>
      </trkpt>
      <trkpt lat="59.480716" lon="17.7813533">
        <ele>27.8</ele>
        <time>2012-03-24T14:10:12Z</time>
      </trkpt>
      <trkpt lat="59.4805405" lon="17.7820419">
        <ele>27</ele>
        <time>2012-03-24T14:10:16Z</time>
      </trkpt>
      <trkpt lat="59.4803541" lon="17.7826934">
        <ele>26.6</ele>
        <time>2012-03-24T14:10:20Z</time>
      </trkpt>
      <trkpt lat="59.4801483" lon="17.7832644">
        <ele>26.4</ele>
        <time>2012-03-24T14:10:24Z</time>
      </trkpt>
      <trkpt lat="59.4799232" lon="17.7837975">
        <ele>26.6</ele>
        <time>2012-03-24T14:10:28Z</time>
      </trkpt>
      <trkpt lat="59.4796768" lon="17.7842809">
        <ele>25.8</ele>
        <time>2012-03-24T14:10:32Z</time>
      </trkpt>
      <trkpt lat="59.4793392" lon="17.7848097">
        <ele>23.4</ele>
        <time>2012-03-24T14:10:37Z</time>
      </trkpt>
      <trkpt lat="59.4789685" lon="17.785261">
        <ele>21.4</ele>
        <time>2012-03-24T14:10:42Z</time>
      </trkpt>
      <trkpt lat="59.4785758" lon="17.7856089">
        <ele>20.2</ele>
        <time>2012-03-24T14:10:47Z</time>
      </trkpt>
      <trkpt lat="59.4781835" lon="17.7858587">
        <ele>19.2</ele>
        <time>2012-03-24T14:10:52Z</time>
      </trkpt>
      <trkpt lat="59.4777915" lon="17.7860419">
        <ele>18.8</ele>
        <time>2012-03-24T14:10:57Z</time>
      </trkpt>
      <trkpt lat="59.4773988" lon="17.7861687">
        <ele>17.4</ele>
        <time>2012-03-24T14:11:02Z</time>
      </trkpt>
      <trkpt lat="59.4770334" lon="17.7862616">
        <ele>16.4</ele>
        <time>2012-03-24T14:11:07Z</time>
      </trkpt>
      <trkpt lat="59.4766368" lon="17.7863688">
        <ele>16.8</ele>
        <time>2012-03-24T14:11:13Z</time>
      </trkpt>
      <trkpt lat="59.4762626" lon="17.7864797">
        <ele>15.8</ele>
        <time>2012-03-24T14:11:19Z</time>
      </trkpt>
      <trkpt lat="59.4759001" lon="17.7865916">
        <ele>16.6</ele>
        <time>2012-03-24T14:11:25Z</time>
      </trkpt>
      <trkpt lat="59.4755386" lon="17.7867247">
        <ele>17.2</ele>
        <time>2012-03-24T14:11:31Z</time>
      </trkpt>
      <trkpt lat="59.4751349" lon="17.786908">
        <ele>16.4</ele>
        <time>2012-03-24T14:11:37Z</time>
      </trkpt>
      <trkpt lat="59.4750775" lon="17.7869304">
        <ele>16</ele>
        <time>2012-03-24T14:11:38Z</time>
      </trkpt>
      <trkpt lat="59.474748" lon="17.7871331">
        <ele>15.2</ele>
        <time>2012-03-24T14:11:45Z</time>
      </trkpt>
      <trkpt lat="59.4743938" lon="17.7874547">
        <ele>13.2</ele>
        <time>2012-03-24T14:11:53Z</time>
      </trkpt>
      <trkpt lat="59.4742023" lon="17.7876619">
        <ele>11.8</ele>
        <time>2012-03-24T14:11:58Z</time>
      </trkpt>
      <trkpt lat="59.4740619" lon="17.7878321">
        <ele>11</ele>
        <time>2012-03-24T14:12:02Z</time>
      </trkpt>
      <trkpt lat="59.4737951" lon="17.7884062">
        <ele>9.2</ele>
        <time>2012-03-24T14:12:12Z</time>
      </trkpt>
      <trkpt lat="59.4736524" lon="17.78908">
        <ele>10.8</ele>
        <time>2012-03-24T14:12:19Z</time>
      </trkpt>
      <trkpt lat="59.4734728" lon="17.7898303">
        <ele>10.2</ele>
        <time>2012-03-24T14:12:25Z</time>
      </trkpt>
      <trkpt lat="59.4732401" lon="17.7905461">
        <ele>8.4</ele>
        <time>2012-03-24T14:12:30Z</time>
      </trkpt>
      <trkpt lat="59.473058" lon="17.7911821">
        <ele>6.4</ele>
        <time>2012-03-24T14:12:34Z</time>
      </trkpt>
      <trkpt lat="59.4729242" lon="17.7918744">
        <ele>6.6</ele>
        <time>2012-03-24T14:12:38Z</time>
      </trkpt>
      <trkpt lat="59.4727765" lon="17.7926658">
        <ele>8.2</ele>
        <time>2012-03-24T14:12:43Z</time>
      </trkpt>
      <trkpt lat="59.4726453" lon="17.7933906">
        <ele>8.2</ele>
        <time>2012-03-24T14:12:48Z</time>
      </trkpt>
      <trkpt lat="59.4725076" lon="17.7941098">
        <ele>9.4</ele>
        <time>2012-03-24T14:12:53Z</time>
      </trkpt>
      <trkpt lat="59.472471" lon="17.7942338">
        <ele>9.8</ele>
        <time>2012-03-24T14:12:54Z</time>
      </trkpt>
      <trkpt lat="59.4722626" lon="17.7946903">
        <ele>8.6</ele>
        <time>2012-03-24T14:12:58Z</time>
      </trkpt>
      <trkpt lat="59.4720014" lon="17.7949187">
        <ele>8.2</ele>
        <time>2012-03-24T14:13:02Z</time>
      </trkpt>
      <trkpt lat="59.471885" lon="17.794999">
        <ele>8.4</ele>
        <time>2012-03-24T14:13:04Z</time>
      </trkpt>
      <trkpt lat="59.4715608" lon="17.7952665">
        <ele>7.6</ele>
        <time>2012-03-24T14:13:10Z</time>
      </trkpt>
      <trkpt lat="59.4712706" lon="17.7956574">
        <ele>6.2</ele>
        <time>2012-03-24T14:13:16Z</time>
      </trkpt>
      <trkpt lat="59.4709059" lon="17.7960521">
        <ele>3.8</ele>
        <time>2012-03-24T14:13:23Z</time>
      </trkpt>
      <trkpt lat="59.4705441" lon="17.7963433">
        <ele>1.4</ele>
        <time>2012-03-24T14:13:29Z</time>
      </trkpt>
      <trkpt lat="59.4701807" lon="17.7966994">
        <ele>2.6</ele>
        <time>2012-03-24T14:13:36Z</time>
      </trkpt>
      <trkpt lat="59.4698933" lon="17.7970814">
        <ele>2.4</ele>
        <time>2012-03-24T14:13:42Z</time>
      </trkpt>
      <trkpt lat="59.4695831" lon="17.7974522">
        <ele>1.8</ele>
        <time>2012-03-24T14:13:48Z</time>
      </trkpt>
      <trkpt lat="59.4692465" lon="17.7978659">
        <ele>3.8</ele>
        <time>2012-03-24T14:13:54Z</time>
      </trkpt>
      <trkpt lat="59.4690297" lon="17.7984681">
        <ele>6.6</ele>
        <time>2012-03-24T14:13:59Z</time>
      </trkpt>
      <trkpt lat="59.4690084" lon="17.7992589">
        <ele>7</ele>
        <time>2012-03-24T14:14:04Z</time>
      </trkpt>
      <trkpt lat="59.4692338" lon="17.799962">
        <ele>6.6</ele>
        <time>2012-03-24T14:14:09Z</time>
      </trkpt>
      <trkpt lat="59.4694946" lon="17.8005565">
        <ele>9</ele>
        <time>2012-03-24T14:14:14Z</time>
      </trkpt>
      <trkpt lat="59.4697664" lon="17.8011555">
        <ele>12.4</ele>
        <time>2012-03-24T14:14:20Z</time>
      </trkpt>
      <trkpt lat="59.4699996" lon="17.8017774">
        <ele>14.2</ele>
        <time>2012-03-24T14:14:27Z</time>
      </trkpt>
      <trkpt lat="59.4700566" lon="17.8019476">
        <ele>14.8</ele>
        <time>2012-03-24T14:14:29Z</time>
      </trkpt>
      <trkpt lat="59.4700964" lon="17.8024012">
        <ele>15.6</ele>
        <time>2012-03-24T14:14:34Z</time>
      </trkpt>
      <trkpt lat="59.4700967" lon="17.8024988">
        <ele>16.2</ele>
        <time>2012-03-24T14:14:35Z</time>
      </trkpt>
      <trkpt lat="59.4700664" lon="17.8030486">
        <ele>19.8</ele>
        <time>2012-03-24T14:14:41Z</time>
      </trkpt>
      <trkpt lat="59.4700387" lon="17.8032343">
        <ele>21</ele>
        <time>2012-03-24T14:14:43Z</time>
      </trkpt>
      <trkpt lat="59.4698903" lon="17.8039372">
        <ele>23</ele>
        <time>2012-03-24T14:14:51Z</time>
      </trkpt>
      <trkpt lat="59.4697386" lon="17.8045952">
        <ele>26.4</ele>
        <time>2012-03-24T14:15:00Z</time>
      </trkpt>
      <trkpt lat="59.469582" lon="17.8052344">
        <ele>27.6</ele>
        <time>2012-03-24T14:15:10Z</time>
      </trkpt>
      <trkpt lat="59.4694091" lon="17.8059155">
        <ele>26.4</ele>
        <time>2012-03-24T14:15:20Z</time>
      </trkpt>
      <trkpt lat="59.4692535" lon="17.8065997">
        <ele>28.6</ele>
        <time>2012-03-24T14:15:30Z</time>
      </trkpt>
      <trkpt lat="59.4691286" lon="17.8073173">
        <ele>31.6</ele>
        <time>2012-03-24T14:15:40Z</time>
      </trkpt>
      <trkpt lat="59.4690292" lon="17.80808">
        <ele>31</ele>
        <time>2012-03-24T14:15:49Z</time>
      </trkpt>
      <trkpt lat="59.4689345" lon="17.8087965">
        <ele>33.8</ele>
        <time>2012-03-24T14:15:57Z</time>
      </trkpt>
      <trkpt lat="59.4688475" lon="17.8091872">
        <ele>35.8</ele>
        <time>2012-03-24T14:16:02Z</time>
      </trkpt>
      <trkpt lat="59.4687894" lon="17.8093039">
        <ele>36.2</ele>
        <time>2012-03-24T14:16:04Z</time>
      </trkpt>
      <trkpt lat="59.4687087" lon="17.8093839">
        <ele>37</ele>
        <time>2012-03-24T14:16:06Z</time>
      </trkpt>
      <trkpt lat="59.4686157" lon="17.8094253">
        <ele>37</ele>
        <time>2012-03-24T14:16:08Z</time>
      </trkpt>
      <trkpt lat="59.4685658" lon="17.809435">
        <ele>37.2</ele>
        <time>2012-03-24T14:16:09Z</time>
      </trkpt>
      <trkpt lat="59.4683109" lon="17.8093723">
        <ele>39</ele>
        <time>2012-03-24T14:16:14Z</time>
      </trkpt>
      <trkpt lat="59.4679564" lon="17.8092629">
        <ele>41.2</ele>
        <time>2012-03-24T14:16:21Z</time>
      </trkpt>
      <trkpt lat="59.4675561" lon="17.8092507">
        <ele>43.4</ele>
        <time>2012-03-24T14:16:29Z</time>
      </trkpt>
      <trkpt lat="59.4671609" lon="17.8094479">
        <ele>43.2</ele>
        <time>2012-03-24T14:16:37Z</time>
      </trkpt>
      <trkpt lat="59.4667993" lon="17.8097766">
        <ele>40</ele>
        <time>2012-03-24T14:16:45Z</time>
      </trkpt>
      <trkpt lat="59.466683" lon="17.8099342">
        <ele>37.8</ele>
        <time>2012-03-24T14:16:48Z</time>
      </trkpt>
      <trkpt lat="59.4665142" lon="17.8102331">
        <ele>35.6</ele>
        <time>2012-03-24T14:16:52Z</time>
      </trkpt>
      <trkpt lat="59.4662394" lon="17.810877">
        <ele>29.6</ele>
        <time>2012-03-24T14:16:59Z</time>
      </trkpt>
      <trkpt lat="59.4660016" lon="17.8115398">
        <ele>30.6</ele>
        <time>2012-03-24T14:17:06Z</time>
      </trkpt>
      <trkpt lat="59.4657553" lon="17.8121804">
        <ele>30.4</ele>
        <time>2012-03-24T14:17:13Z</time>
      </trkpt>
      <trkpt lat="59.4655209" lon="17.8128139">
        <ele>33.4</ele>
        <time>2012-03-24T14:17:20Z</time>
      </trkpt>
      <trkpt lat="59.4651525" lon="17.8126154">
        <ele>36.8</ele>
        <time>2012-03-24T14:17:26Z</time>
      </trkpt>
      <trkpt lat="59.4649643" lon="17.8121662">
        <ele>37</ele>
        <time>2012-03-24T14:17:30Z</time>
      </trkpt>
      <trkpt lat="59.4649192" lon="17.8120444">
        <ele>37</ele>
        <time>2012-03-24T14:17:31Z</time>
      </trkpt>
      <trkpt lat="59.4647283" lon="17.8113669">
        <ele>34.8</ele>
        <time>2012-03-24T14:17:36Z</time>
      </trkpt>
      <trkpt lat="59.4645431" lon="17.8106478">
        <ele>33.6</ele>
        <time>2012-03-24T14:17:41Z</time>
      </trkpt>
      <trkpt lat="59.4643802" lon="17.809891">
        <ele>33</ele>
        <time>2012-03-24T14:17:46Z</time>
      </trkpt>
      <trkpt lat="59.4643444" lon="17.8095696">
        <ele>33</ele>
        <time>2012-03-24T14:17:48Z</time>
      </trkpt>
      <trkpt lat="59.4643425" lon="17.8090923">
        <ele>33.8</ele>
        <time>2012-03-24T14:17:51Z</time>
      </trkpt>
      <trkpt lat="59.4643746" lon="17.8083388">
        <ele>35.6</ele>
        <time>2012-03-24T14:17:56Z</time>
      </trkpt>
      <trkpt lat="59.4643636" lon="17.8079034">
        <ele>36.2</ele>
        <time>2012-03-24T14:17:59Z</time>
      </trkpt>
      <trkpt lat="59.4643258" lon="17.8076295">
        <ele>36.2</ele>
        <time>2012-03-24T14:18:01Z</time>
      </trkpt>
      <trkpt lat="59.4642331" lon="17.8072752">
        <ele>36.2</ele>
        <time>2012-03-24T14:18:04Z</time>
      </trkpt>
      <trkpt lat="59.4641601" lon="17.8070753">
        <ele>36.4</ele>
        <time>2012-03-24T14:18:06Z</time>
      </trkpt>
      <trkpt lat="59.4641165" lon="17.8069841">
        <ele>36.2</ele>
        <time>2012-03-24T14:18:07Z</time>
      </trkpt>
      <trkpt lat="59.4639685" lon="17.8067284">
        <ele>35.6</ele>
        <time>2012-03-24T14:18:10Z</time>
      </trkpt>
      <trkpt lat="59.4637933" lon="17.8065356">
        <ele>36.4</ele>
        <time>2012-03-24T14:18:13Z</time>
      </trkpt>
      <trkpt lat="59.4636691" lon="17.8064517">
        <ele>37.4</ele>
        <time>2012-03-24T14:18:15Z</time>
      </trkpt>
      <trkpt lat="59.4634194" lon="17.8063764">
        <ele>40.2</ele>
        <time>2012-03-24T14:18:19Z</time>
      </trkpt>
      <trkpt lat="59.4630417" lon="17.8063651">
        <ele>43</ele>
        <time>2012-03-24T14:18:25Z</time>
      </trkpt>
      <trkpt lat="59.462661" lon="17.8064708">
        <ele>42.6</ele>
        <time>2012-03-24T14:18:31Z</time>
      </trkpt>
      <trkpt lat="59.4622444" lon="17.8066018">
        <ele>38.6</ele>
        <time>2012-03-24T14:18:37Z</time>
      </trkpt>
      <trkpt lat="59.461865" lon="17.8066201">
        <ele>38.6</ele>
        <time>2012-03-24T14:18:43Z</time>
      </trkpt>
      <trkpt lat="59.4615056" lon="17.8066708">
        <ele>38.4</ele>
        <time>2012-03-24T14:18:49Z</time>
      </trkpt>
      <trkpt lat="59.4611334" lon="17.8066982">
        <ele>37.2</ele>
        <time>2012-03-24T14:18:55Z</time>
      </trkpt>
      <trkpt lat="59.4607261" lon="17.8067085">
        <ele>36.6</ele>
        <time>2012-03-24T14:19:01Z</time>
      </trkpt>
      <trkpt lat="59.4602998" lon="17.8066677">
        <ele>36.4</ele>
        <time>2012-03-24T14:19:07Z</time>
      </trkpt>
      <trkpt lat="59.4599078" lon="17.8066081">
        <ele>38.8</ele>
        <time>2012-03-24T14:19:13Z</time>
      </trkpt>
      <trkpt lat="59.4595413" lon="17.8065418">
        <ele>40.4</ele>
        <time>2012-03-24T14:19:19Z</time>
      </trkpt>
      <trkpt lat="59.4591172" lon="17.8064646">
        <ele>40.8</ele>
        <time>2012-03-24T14:19:26Z</time>
      </trkpt>
      <trkpt lat="59.458712" lon="17.8063769">
        <ele>38.8</ele>
        <time>2012-03-24T14:19:32Z</time>
      </trkpt>
      <trkpt lat="59.4583495" lon="17.8062724">
        <ele>36.8</ele>
        <time>2012-03-24T14:19:37Z</time>
      </trkpt>
      <trkpt lat="59.4579093" lon="17.8061071">
        <ele>35</ele>
        <time>2012-03-24T14:19:42Z</time>
      </trkpt>
      <trkpt lat="59.4575198" lon="17.805927">
        <ele>34.8</ele>
        <time>2012-03-24T14:19:48Z</time>
      </trkpt>
      <trkpt lat="59.4572937" lon="17.8057938">
        <ele>35</ele>
        <time>2012-03-24T14:19:53Z</time>
      </trkpt>
      <trkpt lat="59.4572327" lon="17.8056283">
        <ele>35.2</ele>
        <time>2012-03-24T14:19:55Z</time>
      </trkpt>
      <trkpt lat="59.4572522" lon="17.8054554">
        <ele>36</ele>
        <time>2012-03-24T14:19:57Z</time>
      </trkpt>
      <trkpt lat="59.4572767" lon="17.8053926">
        <ele>36.2</ele>
        <time>2012-03-24T14:19:58Z</time>
      </trkpt>
      <trkpt lat="59.4574757" lon="17.8050135">
        <ele>38.2</ele>
        <time>2012-03-24T14:20:04Z</time>
      </trkpt>
      <trkpt lat="59.4575213" lon="17.8049462">
        <ele>38.4</ele>
        <time>2012-03-24T14:20:05Z</time>
      </trkpt>
      <trkpt lat="59.4576593" lon="17.8047691">
        <ele>38.2</ele>
        <time>2012-03-24T14:20:08Z</time>
      </trkpt>
      <trkpt lat="59.4578097" lon="17.8046141">
        <ele>36.4</ele>
        <time>2012-03-24T14:20:11Z</time>
      </trkpt>
      <trkpt lat="59.4579847" lon="17.8044957">
        <ele>37.8</ele>
        <time>2012-03-24T14:20:14Z</time>
      </trkpt>
      <trkpt lat="59.4581863" lon="17.8044356">
        <ele>38.8</ele>
        <time>2012-03-24T14:20:17Z</time>
      </trkpt>
      <trkpt lat="59.4584061" lon="17.8044329">
        <ele>37.8</ele>
        <time>2012-03-24T14:20:20Z</time>
      </trkpt>
      <trkpt lat="59.4585925" lon="17.8044532">
        <ele>35.2</ele>
        <time>2012-03-24T14:20:23Z</time>
      </trkpt>
      <trkpt lat="59.458644" lon="17.8044438">
        <ele>34.6</ele>
        <time>2012-03-24T14:20:24Z</time>
      </trkpt>
    </trkseg>
  </trk>
</gpx>